<?xml version='1.0' encoding='UTF-8'?><gpx version="1.1" creator="JPX - https://github.com/jenetics/jpx" xmlns="http://www.topografix.com/GPX/1/1"><trk><trkseg><trkpt lat="40.4593933" lon="17.2692967"><ele>24.0</ele><time>2026-03-29T07:09:02.971Z</time></trkpt><trkpt lat="40.459465" lon="17.2692467"><ele>24.0</ele><time>2026-03-29T07:09:10.971Z</time></trkpt><trkpt lat="40.45957" lon="17.269245"><ele>24.0</ele><time>2026-03-29T07:09:13.971Z</time></trkpt><trkpt lat="40.45963" lon="17.2692833"><ele>24.0</ele><time>2026-03-29T07:09:35.974Z</time></trkpt><trkpt lat="40.4597333" lon="17.2692833"><ele>24.0</ele><time>2026-03-29T07:09:39.971Z</time></trkpt><trkpt lat="40.4595717" lon="17.2696"><ele>24.0</ele><time>2026-03-29T07:09:50.971Z</time></trkpt><trkpt lat="40.4580167" lon="17.272035"><ele>25.5</ele><time>2026-03-29T07:09:53.969Z</time></trkpt><trkpt lat="40.4575833" lon="17.2720217"><ele>27.0</ele><time>2026-03-29T07:09:54.97Z</time></trkpt><trkpt lat="40.45727" lon="17.272055"><ele>27.0</ele><time>2026-03-29T07:09:55.969Z</time></trkpt><trkpt lat="40.4576783" lon="17.2720717"><ele>27.0</ele><time>2026-03-29T07:09:56.969Z</time></trkpt><trkpt lat="40.45791" lon="17.272125"><ele>26.0</ele><time>2026-03-29T07:09:57.971Z</time></trkpt><trkpt lat="40.4581883" lon="17.2721967"><ele>25.0</ele><time>2026-03-29T07:09:58.974Z</time></trkpt><trkpt lat="40.4586033" lon="17.2723917"><ele>27.0</ele><time>2026-03-29T07:09:59.97Z</time></trkpt><trkpt lat="40.459035" lon="17.2728383"><ele>26.0</ele><time>2026-03-29T07:10:00.969Z</time></trkpt><trkpt lat="40.4586267" lon="17.27304"><ele>25.0</ele><time>2026-03-29T07:10:04.065Z</time></trkpt><trkpt lat="40.458735" lon="17.2706417"><ele>24.0</ele><time>2026-03-29T07:10:08.971Z</time></trkpt><trkpt lat="40.458855" lon="17.2704217"><ele>23.0</ele><time>2026-03-29T07:10:09.97Z</time></trkpt><trkpt lat="40.459065" lon="17.270295"><ele>22.0</ele><time>2026-03-29T07:10:11.971Z</time></trkpt><trkpt lat="40.4591183" lon="17.2702417"><ele>22.0</ele><time>2026-03-29T07:10:12.972Z</time></trkpt><trkpt lat="40.459215" lon="17.2701617"><ele>22.0</ele><time>2026-03-29T07:10:13.969Z</time></trkpt><trkpt lat="40.45935" lon="17.2700817"><ele>22.0</ele><time>2026-03-29T07:10:15.97Z</time></trkpt><trkpt lat="40.4593883" lon="17.2698933"><ele>22.0</ele><time>2026-03-29T07:10:18.97Z</time></trkpt><trkpt lat="40.45939" lon="17.2696633"><ele>22.333333333333332</ele><time>2026-03-29T07:10:20.97Z</time></trkpt><trkpt lat="40.4594" lon="17.2695567"><ele>22.666666666666664</ele><time>2026-03-29T07:10:22.971Z</time></trkpt><trkpt lat="40.45939" lon="17.2694533"><ele>23.0</ele><time>2026-03-29T07:10:24.97Z</time></trkpt><trkpt lat="40.4594335" lon="17.2693902"><ele>23.333333333333332</ele><time>2026-03-29T07:10:26.97Z</time></trkpt><trkpt lat="40.4594784" lon="17.269279"><ele>23.666666666666668</ele><time>2026-03-29T07:10:29.97Z</time></trkpt><trkpt lat="40.4594801" lon="17.2691947"><ele>24.0</ele><time>2026-03-29T07:10:31.969Z</time></trkpt><trkpt lat="40.459483" lon="17.2690722"><ele>24.0</ele><time>2026-03-29T07:10:34.97Z</time></trkpt><trkpt lat="40.4594393" lon="17.2689472"><ele>24.0</ele><time>2026-03-29T07:10:36.97Z</time></trkpt><trkpt lat="40.4593969" lon="17.268846"><ele>24.0</ele><time>2026-03-29T07:10:38.969Z</time></trkpt><trkpt lat="40.459369" lon="17.2687542"><ele>24.0</ele><time>2026-03-29T07:10:40.97Z</time></trkpt><trkpt lat="40.459305" lon="17.2687467"><ele>24.0</ele><time>2026-03-29T07:11:13.97Z</time></trkpt><trkpt lat="40.459315" lon="17.2686583"><ele>24.0</ele><time>2026-03-29T07:11:21.97Z</time></trkpt><trkpt lat="40.4593583" lon="17.2685933"><ele>23.799999999999997</ele><time>2026-03-29T07:11:26.969Z</time></trkpt><trkpt lat="40.4593883" lon="17.2684733"><ele>23.599999999999998</ele><time>2026-03-29T07:14:19.971Z</time></trkpt><trkpt lat="40.4594083" lon="17.26839"><ele>23.4</ele><time>2026-03-29T07:14:22.974Z</time></trkpt><trkpt lat="40.4594467" lon="17.2682717"><ele>23.2</ele><time>2026-03-29T07:14:28.97Z</time></trkpt><trkpt lat="40.45948" lon="17.268155"><ele>23.0</ele><time>2026-03-29T07:14:30.97Z</time></trkpt><trkpt lat="40.4595133" lon="17.2680267"><ele>23.0</ele><time>2026-03-29T07:14:32.97Z</time></trkpt><trkpt lat="40.4595633" lon="17.2678733"><ele>23.0</ele><time>2026-03-29T07:14:35.971Z</time></trkpt><trkpt lat="40.459595" lon="17.2677583"><ele>23.0</ele><time>2026-03-29T07:14:37.972Z</time></trkpt><trkpt lat="40.4596433" lon="17.267675"><ele>23.0</ele><time>2026-03-29T07:14:40.97Z</time></trkpt><trkpt lat="40.4597083" lon="17.2677083"><ele>23.0</ele><time>2026-03-29T07:14:42.972Z</time></trkpt><trkpt lat="40.4597963" lon="17.267764"><ele>22.799999999999997</ele><time>2026-03-29T07:14:44.971Z</time></trkpt><trkpt lat="40.4599004" lon="17.2678256"><ele>22.6</ele><time>2026-03-29T07:14:46.971Z</time></trkpt><trkpt lat="40.4600156" lon="17.2678981"><ele>22.4</ele><time>2026-03-29T07:14:48.972Z</time></trkpt><trkpt lat="40.4600793" lon="17.2679368"><ele>22.200000000000003</ele><time>2026-03-29T07:14:49.972Z</time></trkpt><trkpt lat="40.4601484" lon="17.2679789"><ele>22.0</ele><time>2026-03-29T07:14:50.971Z</time></trkpt><trkpt lat="40.4602158" lon="17.2680169"><ele>22.0</ele><time>2026-03-29T07:14:51.971Z</time></trkpt><trkpt lat="40.4602777" lon="17.2680535"><ele>22.0</ele><time>2026-03-29T07:14:52.971Z</time></trkpt><trkpt lat="40.4603421" lon="17.2680915"><ele>22.0</ele><time>2026-03-29T07:14:53.972Z</time></trkpt><trkpt lat="40.4604064" lon="17.2681286"><ele>22.0</ele><time>2026-03-29T07:14:54.972Z</time></trkpt><trkpt lat="40.4604652" lon="17.2681649"><ele>22.0</ele><time>2026-03-29T07:14:55.971Z</time></trkpt><trkpt lat="40.4605246" lon="17.2682061"><ele>22.0</ele><time>2026-03-29T07:14:56.971Z</time></trkpt><trkpt lat="40.4605842" lon="17.2682487"><ele>22.0</ele><time>2026-03-29T07:14:57.972Z</time></trkpt><trkpt lat="40.460649" lon="17.2682897"><ele>22.5</ele><time>2026-03-29T07:14:58.971Z</time></trkpt><trkpt lat="40.4607161" lon="17.2683317"><ele>23.0</ele><time>2026-03-29T07:14:59.972Z</time></trkpt><trkpt lat="40.4607846" lon="17.2683722"><ele>23.5</ele><time>2026-03-29T07:15:00.971Z</time></trkpt><trkpt lat="40.460856" lon="17.2684138"><ele>24.0</ele><time>2026-03-29T07:15:01.971Z</time></trkpt><trkpt lat="40.4609266" lon="17.2684574"><ele>24.500000000000004</ele><time>2026-03-29T07:15:02.971Z</time></trkpt><trkpt lat="40.4609982" lon="17.2685014"><ele>25.0</ele><time>2026-03-29T07:15:03.972Z</time></trkpt><trkpt lat="40.4610727" lon="17.268546"><ele>25.000000000000004</ele><time>2026-03-29T07:15:04.971Z</time></trkpt><trkpt lat="40.4611465" lon="17.2685891"><ele>25.0</ele><time>2026-03-29T07:15:05.971Z</time></trkpt><trkpt lat="40.4612188" lon="17.2686312"><ele>25.0</ele><time>2026-03-29T07:15:06.972Z</time></trkpt><trkpt lat="40.46129" lon="17.2686703"><ele>25.0</ele><time>2026-03-29T07:15:07.973Z</time></trkpt><trkpt lat="40.4613611" lon="17.2687097"><ele>25.000000000000004</ele><time>2026-03-29T07:15:08.971Z</time></trkpt><trkpt lat="40.461433" lon="17.2687498"><ele>25.0</ele><time>2026-03-29T07:15:09.972Z</time></trkpt><trkpt lat="40.4615025" lon="17.2687894"><ele>24.714285714285715</ele><time>2026-03-29T07:15:10.971Z</time></trkpt><trkpt lat="40.4615707" lon="17.2688294"><ele>24.42857142857143</ele><time>2026-03-29T07:15:11.973Z</time></trkpt><trkpt lat="40.4616386" lon="17.268868"><ele>24.142857142857146</ele><time>2026-03-29T07:15:12.971Z</time></trkpt><trkpt lat="40.4617069" lon="17.2689049"><ele>23.857142857142858</ele><time>2026-03-29T07:15:13.971Z</time></trkpt><trkpt lat="40.4617764" lon="17.2689387"><ele>23.57142857142857</ele><time>2026-03-29T07:15:14.972Z</time></trkpt><trkpt lat="40.4618465" lon="17.2689729"><ele>23.28571428571429</ele><time>2026-03-29T07:15:15.971Z</time></trkpt><trkpt lat="40.4619165" lon="17.269005"><ele>23.0</ele><time>2026-03-29T07:15:16.97Z</time></trkpt><trkpt lat="40.4619853" lon="17.2690421"><ele>23.0</ele><time>2026-03-29T07:15:17.971Z</time></trkpt><trkpt lat="40.4620552" lon="17.2690764"><ele>23.0</ele><time>2026-03-29T07:15:18.972Z</time></trkpt><trkpt lat="40.4621245" lon="17.2691108"><ele>23.0</ele><time>2026-03-29T07:15:19.971Z</time></trkpt><trkpt lat="40.4621946" lon="17.2691429"><ele>23.0</ele><time>2026-03-29T07:15:20.971Z</time></trkpt><trkpt lat="40.4622645" lon="17.2691718"><ele>23.0</ele><time>2026-03-29T07:15:21.971Z</time></trkpt><trkpt lat="40.4623332" lon="17.2691974"><ele>23.0</ele><time>2026-03-29T07:15:22.97Z</time></trkpt><trkpt lat="40.4624015" lon="17.2692171"><ele>23.0</ele><time>2026-03-29T07:15:23.97Z</time></trkpt><trkpt lat="40.4624717" lon="17.2692393"><ele>23.42857142857143</ele><time>2026-03-29T07:15:24.97Z</time></trkpt><trkpt lat="40.4625418" lon="17.2692671"><ele>23.857142857142854</ele><time>2026-03-29T07:15:25.97Z</time></trkpt><trkpt lat="40.4626146" lon="17.2692918"><ele>24.285714285714285</ele><time>2026-03-29T07:15:26.97Z</time></trkpt><trkpt lat="40.4626869" lon="17.2693167"><ele>24.714285714285715</ele><time>2026-03-29T07:15:27.97Z</time></trkpt><trkpt lat="40.4627626" lon="17.2693398"><ele>25.142857142857146</ele><time>2026-03-29T07:15:28.97Z</time></trkpt><trkpt lat="40.4628367" lon="17.2693625"><ele>25.57142857142857</ele><time>2026-03-29T07:15:29.971Z</time></trkpt><trkpt lat="40.4629046" lon="17.2693836"><ele>26.0</ele><time>2026-03-29T07:15:30.97Z</time></trkpt><trkpt lat="40.4629668" lon="17.2694034"><ele>26.200000000000003</ele><time>2026-03-29T07:15:31.969Z</time></trkpt><trkpt lat="40.4630758" lon="17.269438"><ele>26.400000000000002</ele><time>2026-03-29T07:15:33.969Z</time></trkpt><trkpt lat="40.4631809" lon="17.2694795"><ele>26.6</ele><time>2026-03-29T07:15:35.972Z</time></trkpt><trkpt lat="40.4632999" lon="17.2695234"><ele>26.8</ele><time>2026-03-29T07:15:37.97Z</time></trkpt><trkpt lat="40.4633625" lon="17.2695422"><ele>27.0</ele><time>2026-03-29T07:15:38.97Z</time></trkpt><trkpt lat="40.4634276" lon="17.2695595"><ele>27.0</ele><time>2026-03-29T07:15:39.969Z</time></trkpt><trkpt lat="40.4634958" lon="17.2695793"><ele>27.0</ele><time>2026-03-29T07:15:40.97Z</time></trkpt><trkpt lat="40.4635646" lon="17.2695994"><ele>27.0</ele><time>2026-03-29T07:15:41.97Z</time></trkpt><trkpt lat="40.4636358" lon="17.2696168"><ele>27.0</ele><time>2026-03-29T07:15:42.97Z</time></trkpt><trkpt lat="40.4637078" lon="17.2696327"><ele>27.0</ele><time>2026-03-29T07:15:43.97Z</time></trkpt><trkpt lat="40.4637814" lon="17.2696439"><ele>27.0</ele><time>2026-03-29T07:15:44.97Z</time></trkpt><trkpt lat="40.4638565" lon="17.2696555"><ele>27.0</ele><time>2026-03-29T07:15:45.97Z</time></trkpt><trkpt lat="40.4639331" lon="17.2696704"><ele>26.200000000000003</ele><time>2026-03-29T07:15:46.97Z</time></trkpt><trkpt lat="40.4640958" lon="17.2696898"><ele>25.400000000000002</ele><time>2026-03-29T07:15:48.972Z</time></trkpt><trkpt lat="40.4641768" lon="17.2697055"><ele>24.6</ele><time>2026-03-29T07:15:49.97Z</time></trkpt><trkpt lat="40.4642583" lon="17.2697219"><ele>23.799999999999997</ele><time>2026-03-29T07:15:50.97Z</time></trkpt><trkpt lat="40.4643413" lon="17.2697329"><ele>23.0</ele><time>2026-03-29T07:15:51.969Z</time></trkpt><trkpt lat="40.4644224" lon="17.2697404"><ele>23.0</ele><time>2026-03-29T07:15:52.97Z</time></trkpt><trkpt lat="40.4645074" lon="17.269752"><ele>23.0</ele><time>2026-03-29T07:15:53.97Z</time></trkpt><trkpt lat="40.464594" lon="17.2697657"><ele>23.0</ele><time>2026-03-29T07:15:54.969Z</time></trkpt><trkpt lat="40.4646812" lon="17.2697826"><ele>23.0</ele><time>2026-03-29T07:15:55.969Z</time></trkpt><trkpt lat="40.4647599" lon="17.2698022"><ele>23.0</ele><time>2026-03-29T07:15:56.971Z</time></trkpt><trkpt lat="40.4648357" lon="17.2698133"><ele>23.0</ele><time>2026-03-29T07:15:57.97Z</time></trkpt><trkpt lat="40.4649093" lon="17.2698208"><ele>23.333333333333336</ele><time>2026-03-29T07:15:58.97Z</time></trkpt><trkpt lat="40.464984" lon="17.2698289"><ele>23.666666666666668</ele><time>2026-03-29T07:15:59.97Z</time></trkpt><trkpt lat="40.4650608" lon="17.2698387"><ele>24.0</ele><time>2026-03-29T07:16:00.971Z</time></trkpt><trkpt lat="40.4651379" lon="17.2698486"><ele>24.333333333333336</ele><time>2026-03-29T07:16:01.971Z</time></trkpt><trkpt lat="40.4652147" lon="17.2698582"><ele>24.666666666666668</ele><time>2026-03-29T07:16:02.971Z</time></trkpt><trkpt lat="40.4652913" lon="17.2698676"><ele>25.0</ele><time>2026-03-29T07:16:03.969Z</time></trkpt><trkpt lat="40.4653677" lon="17.2698704"><ele>25.000000000000004</ele><time>2026-03-29T07:16:04.97Z</time></trkpt><trkpt lat="40.4654437" lon="17.2698737"><ele>25.0</ele><time>2026-03-29T07:16:05.972Z</time></trkpt><trkpt lat="40.4655175" lon="17.2698788"><ele>25.0</ele><time>2026-03-29T07:16:06.969Z</time></trkpt><trkpt lat="40.4655837" lon="17.2698815"><ele>25.0</ele><time>2026-03-29T07:16:07.969Z</time></trkpt><trkpt lat="40.4656775" lon="17.2698736"><ele>25.000000000000004</ele><time>2026-03-29T07:16:09.97Z</time></trkpt><trkpt lat="40.4657479" lon="17.2698764"><ele>25.0</ele><time>2026-03-29T07:16:12.97Z</time></trkpt><trkpt lat="40.4658395" lon="17.2698723"><ele>24.500000000000004</ele><time>2026-03-29T07:16:18.97Z</time></trkpt><trkpt lat="40.4659185" lon="17.2698772"><ele>24.0</ele><time>2026-03-29T07:16:20.97Z</time></trkpt><trkpt lat="40.4659836" lon="17.269902"><ele>23.5</ele><time>2026-03-29T07:16:22.971Z</time></trkpt><trkpt lat="40.4660471" lon="17.2699603"><ele>23.0</ele><time>2026-03-29T07:16:24.97Z</time></trkpt><trkpt lat="40.4661354" lon="17.2700129"><ele>22.5</ele><time>2026-03-29T07:16:26.969Z</time></trkpt><trkpt lat="40.4662524" lon="17.2700476"><ele>22.0</ele><time>2026-03-29T07:16:28.97Z</time></trkpt><trkpt lat="40.4663187" lon="17.2700559"><ele>21.666666666666664</ele><time>2026-03-29T07:16:29.97Z</time></trkpt><trkpt lat="40.4663871" lon="17.2700632"><ele>21.333333333333332</ele><time>2026-03-29T07:16:30.97Z</time></trkpt><trkpt lat="40.4664523" lon="17.2700572"><ele>21.0</ele><time>2026-03-29T07:16:31.971Z</time></trkpt><trkpt lat="40.4665214" lon="17.2700446"><ele>20.666666666666668</ele><time>2026-03-29T07:16:32.971Z</time></trkpt><trkpt lat="40.4666315" lon="17.2700011"><ele>20.333333333333336</ele><time>2026-03-29T07:16:34.971Z</time></trkpt><trkpt lat="40.4667135" lon="17.2698942"><ele>20.0</ele><time>2026-03-29T07:16:36.971Z</time></trkpt><trkpt lat="40.4667294" lon="17.2697531"><ele>20.0</ele><time>2026-03-29T07:16:38.969Z</time></trkpt><trkpt lat="40.4667017" lon="17.2696695"><ele>20.0</ele><time>2026-03-29T07:16:39.971Z</time></trkpt><trkpt lat="40.466662" lon="17.2696005"><ele>20.0</ele><time>2026-03-29T07:16:40.971Z</time></trkpt><trkpt lat="40.4665847" lon="17.2695009"><ele>20.0</ele><time>2026-03-29T07:16:42.97Z</time></trkpt><trkpt lat="40.4665328" lon="17.2693914"><ele>20.0</ele><time>2026-03-29T07:16:44.97Z</time></trkpt><trkpt lat="40.4665252" lon="17.2692378"><ele>20.0</ele><time>2026-03-29T07:16:46.971Z</time></trkpt><trkpt lat="40.4665278" lon="17.2691512"><ele>20.0</ele><time>2026-03-29T07:16:47.97Z</time></trkpt><trkpt lat="40.4665331" lon="17.2690642"><ele>20.0</ele><time>2026-03-29T07:16:48.97Z</time></trkpt><trkpt lat="40.4665364" lon="17.2689777"><ele>20.0</ele><time>2026-03-29T07:16:49.97Z</time></trkpt><trkpt lat="40.4665418" lon="17.2688944"><ele>20.0</ele><time>2026-03-29T07:16:50.969Z</time></trkpt><trkpt lat="40.4665509" lon="17.2688082"><ele>20.0</ele><time>2026-03-29T07:16:51.971Z</time></trkpt><trkpt lat="40.4665562" lon="17.2687203"><ele>20.0</ele><time>2026-03-29T07:16:52.97Z</time></trkpt><trkpt lat="40.4665646" lon="17.2686339"><ele>20.0</ele><time>2026-03-29T07:16:53.971Z</time></trkpt><trkpt lat="40.4665737" lon="17.268501"><ele>20.0</ele><time>2026-03-29T07:16:55.97Z</time></trkpt><trkpt lat="40.4665851" lon="17.2683731"><ele>20.0</ele><time>2026-03-29T07:16:57.969Z</time></trkpt><trkpt lat="40.4666094" lon="17.2682079"><ele>20.0</ele><time>2026-03-29T07:16:59.97Z</time></trkpt><trkpt lat="40.4666136" lon="17.2681173"><ele>20.0</ele><time>2026-03-29T07:17:00.97Z</time></trkpt><trkpt lat="40.4666106" lon="17.268028"><ele>20.0</ele><time>2026-03-29T07:17:01.97Z</time></trkpt><trkpt lat="40.4666084" lon="17.2679393"><ele>20.0</ele><time>2026-03-29T07:17:02.969Z</time></trkpt><trkpt lat="40.4666065" lon="17.2678483"><ele>20.0</ele><time>2026-03-29T07:17:03.97Z</time></trkpt><trkpt lat="40.4666034" lon="17.2677553"><ele>20.0</ele><time>2026-03-29T07:17:04.97Z</time></trkpt><trkpt lat="40.4666048" lon="17.2676602"><ele>20.0</ele><time>2026-03-29T07:17:05.97Z</time></trkpt><trkpt lat="40.4666042" lon="17.2675624"><ele>20.0</ele><time>2026-03-29T07:17:06.971Z</time></trkpt><trkpt lat="40.4666041" lon="17.2674728"><ele>20.0</ele><time>2026-03-29T07:17:07.97Z</time></trkpt><trkpt lat="40.4666014" lon="17.2673274"><ele>20.0</ele><time>2026-03-29T07:17:09.971Z</time></trkpt><trkpt lat="40.4666145" lon="17.267227"><ele>20.0</ele><time>2026-03-29T07:17:11.971Z</time></trkpt><trkpt lat="40.4666547" lon="17.26715"><ele>20.0</ele><time>2026-03-29T07:17:13.97Z</time></trkpt><trkpt lat="40.466748" lon="17.267115"><ele>20.0</ele><time>2026-03-29T07:17:15.971Z</time></trkpt><trkpt lat="40.4668119" lon="17.2671251"><ele>20.0</ele><time>2026-03-29T07:17:16.971Z</time></trkpt><trkpt lat="40.4668841" lon="17.2671338"><ele>20.0</ele><time>2026-03-29T07:17:17.969Z</time></trkpt><trkpt lat="40.4669565" lon="17.2671441"><ele>20.0</ele><time>2026-03-29T07:17:18.97Z</time></trkpt><trkpt lat="40.4670295" lon="17.2671571"><ele>20.0</ele><time>2026-03-29T07:17:19.97Z</time></trkpt><trkpt lat="40.4670986" lon="17.267171"><ele>20.0</ele><time>2026-03-29T07:17:20.97Z</time></trkpt><trkpt lat="40.4671725" lon="17.2671749"><ele>20.0</ele><time>2026-03-29T07:17:21.97Z</time></trkpt><trkpt lat="40.4672476" lon="17.2671734"><ele>20.0</ele><time>2026-03-29T07:17:22.971Z</time></trkpt><trkpt lat="40.4673226" lon="17.267172"><ele>20.0</ele><time>2026-03-29T07:17:23.97Z</time></trkpt><trkpt lat="40.4673931" lon="17.2671719"><ele>20.0</ele><time>2026-03-29T07:17:24.972Z</time></trkpt><trkpt lat="40.4674997" lon="17.2671687"><ele>20.0</ele><time>2026-03-29T07:17:26.97Z</time></trkpt><trkpt lat="40.4675666" lon="17.2671695"><ele>20.0</ele><time>2026-03-29T07:17:28.969Z</time></trkpt><trkpt lat="40.4676442" lon="17.267195"><ele>20.0</ele><time>2026-03-29T07:17:31.97Z</time></trkpt><trkpt lat="40.4677302" lon="17.2671965"><ele>20.0</ele><time>2026-03-29T07:17:34.97Z</time></trkpt><trkpt lat="40.46781" lon="17.2671744"><ele>20.0</ele><time>2026-03-29T07:18:07.97Z</time></trkpt><trkpt lat="40.4678883" lon="17.2671105"><ele>20.0</ele><time>2026-03-29T07:18:10.97Z</time></trkpt><trkpt lat="40.4679125" lon="17.2669941"><ele>20.0</ele><time>2026-03-29T07:18:12.971Z</time></trkpt><trkpt lat="40.4679276" lon="17.2668206"><ele>20.0</ele><time>2026-03-29T07:18:14.971Z</time></trkpt><trkpt lat="40.4679352" lon="17.2667125"><ele>20.0</ele><time>2026-03-29T07:18:15.973Z</time></trkpt><trkpt lat="40.4679432" lon="17.266585"><ele>20.0</ele><time>2026-03-29T07:18:16.973Z</time></trkpt><trkpt lat="40.4679513" lon="17.2664417"><ele>20.0</ele><time>2026-03-29T07:18:17.971Z</time></trkpt><trkpt lat="40.467957" lon="17.2662946"><ele>19.8</ele><time>2026-03-29T07:18:18.971Z</time></trkpt><trkpt lat="40.4679641" lon="17.2661491"><ele>19.6</ele><time>2026-03-29T07:18:19.971Z</time></trkpt><trkpt lat="40.4679706" lon="17.2660105"><ele>19.4</ele><time>2026-03-29T07:18:20.97Z</time></trkpt><trkpt lat="40.4679768" lon="17.2658759"><ele>19.2</ele><time>2026-03-29T07:18:21.97Z</time></trkpt><trkpt lat="40.4679849" lon="17.2657335"><ele>19.0</ele><time>2026-03-29T07:18:22.97Z</time></trkpt><trkpt lat="40.4679839" lon="17.2655897"><ele>19.0</ele><time>2026-03-29T07:18:23.971Z</time></trkpt><trkpt lat="40.4679795" lon="17.2654435"><ele>19.0</ele><time>2026-03-29T07:18:24.969Z</time></trkpt><trkpt lat="40.4679729" lon="17.2652977"><ele>19.0</ele><time>2026-03-29T07:18:25.978Z</time></trkpt><trkpt lat="40.4679621" lon="17.265154"><ele>19.0</ele><time>2026-03-29T07:18:26.97Z</time></trkpt><trkpt lat="40.4679555" lon="17.2650089"><ele>19.0</ele><time>2026-03-29T07:18:27.97Z</time></trkpt><trkpt lat="40.4679487" lon="17.2648638"><ele>19.0</ele><time>2026-03-29T07:18:28.97Z</time></trkpt><trkpt lat="40.4679405" lon="17.2647187"><ele>19.0</ele><time>2026-03-29T07:18:29.97Z</time></trkpt><trkpt lat="40.467932" lon="17.2645741"><ele>19.0</ele><time>2026-03-29T07:18:30.971Z</time></trkpt><trkpt lat="40.4679249" lon="17.2644334"><ele>19.0</ele><time>2026-03-29T07:18:31.971Z</time></trkpt><trkpt lat="40.4679174" lon="17.2642939"><ele>19.0</ele><time>2026-03-29T07:18:32.97Z</time></trkpt><trkpt lat="40.4679082" lon="17.2641526"><ele>19.0</ele><time>2026-03-29T07:18:33.971Z</time></trkpt><trkpt lat="40.4678969" lon="17.2640065"><ele>19.0</ele><time>2026-03-29T07:18:34.97Z</time></trkpt><trkpt lat="40.4678879" lon="17.2638589"><ele>19.0</ele><time>2026-03-29T07:18:35.971Z</time></trkpt><trkpt lat="40.4678794" lon="17.263713"><ele>19.0</ele><time>2026-03-29T07:18:36.971Z</time></trkpt><trkpt lat="40.4678699" lon="17.2635732"><ele>19.0</ele><time>2026-03-29T07:18:37.97Z</time></trkpt><trkpt lat="40.4678603" lon="17.2634494"><ele>19.0</ele><time>2026-03-29T07:18:38.97Z</time></trkpt><trkpt lat="40.4678498" lon="17.2633355"><ele>19.0</ele><time>2026-03-29T07:18:39.971Z</time></trkpt><trkpt lat="40.4678422" lon="17.2632225"><ele>19.0</ele><time>2026-03-29T07:18:40.97Z</time></trkpt><trkpt lat="40.467837" lon="17.2631034"><ele>19.0</ele><time>2026-03-29T07:18:41.971Z</time></trkpt><trkpt lat="40.46783" lon="17.2629791"><ele>19.0</ele><time>2026-03-29T07:18:42.97Z</time></trkpt><trkpt lat="40.4678228" lon="17.2628495"><ele>19.0</ele><time>2026-03-29T07:18:43.97Z</time></trkpt><trkpt lat="40.4678159" lon="17.2627198"><ele>19.0</ele><time>2026-03-29T07:18:44.97Z</time></trkpt><trkpt lat="40.4678091" lon="17.2625897"><ele>19.0</ele><time>2026-03-29T07:18:45.97Z</time></trkpt><trkpt lat="40.4678013" lon="17.2624581"><ele>19.0</ele><time>2026-03-29T07:18:46.97Z</time></trkpt><trkpt lat="40.467793" lon="17.2623247"><ele>19.0</ele><time>2026-03-29T07:18:47.971Z</time></trkpt><trkpt lat="40.4677835" lon="17.2621914"><ele>20.799999999999997</ele><time>2026-03-29T07:18:48.971Z</time></trkpt><trkpt lat="40.4677732" lon="17.2620612"><ele>22.599999999999998</ele><time>2026-03-29T07:18:49.971Z</time></trkpt><trkpt lat="40.4677616" lon="17.2619338"><ele>24.4</ele><time>2026-03-29T07:18:50.97Z</time></trkpt><trkpt lat="40.4677511" lon="17.2618104"><ele>26.2</ele><time>2026-03-29T07:18:51.971Z</time></trkpt><trkpt lat="40.4677376" lon="17.2616926"><ele>28.0</ele><time>2026-03-29T07:18:52.971Z</time></trkpt><trkpt lat="40.4677279" lon="17.2615737"><ele>28.0</ele><time>2026-03-29T07:18:53.971Z</time></trkpt><trkpt lat="40.4677208" lon="17.2614502"><ele>27.999999999999996</ele><time>2026-03-29T07:18:54.971Z</time></trkpt><trkpt lat="40.4677115" lon="17.2613235"><ele>27.999999999999996</ele><time>2026-03-29T07:18:55.97Z</time></trkpt><trkpt lat="40.4677037" lon="17.2611937"><ele>28.0</ele><time>2026-03-29T07:18:56.97Z</time></trkpt><trkpt lat="40.4676964" lon="17.2610621"><ele>28.0</ele><time>2026-03-29T07:18:57.97Z</time></trkpt><trkpt lat="40.4676888" lon="17.2609315"><ele>27.799999999999997</ele><time>2026-03-29T07:18:58.972Z</time></trkpt><trkpt lat="40.4676776" lon="17.2608028"><ele>27.599999999999998</ele><time>2026-03-29T07:18:59.972Z</time></trkpt><trkpt lat="40.4676506" lon="17.2606759"><ele>27.400000000000002</ele><time>2026-03-29T07:19:00.97Z</time></trkpt><trkpt lat="40.4676361" lon="17.2605468"><ele>27.200000000000003</ele><time>2026-03-29T07:19:01.971Z</time></trkpt><trkpt lat="40.4676302" lon="17.2604153"><ele>27.0</ele><time>2026-03-29T07:19:02.97Z</time></trkpt><trkpt lat="40.4676239" lon="17.2602818"><ele>26.8</ele><time>2026-03-29T07:19:03.97Z</time></trkpt><trkpt lat="40.4676214" lon="17.2601493"><ele>26.6</ele><time>2026-03-29T07:19:04.971Z</time></trkpt><trkpt lat="40.467619" lon="17.2600195"><ele>26.400000000000002</ele><time>2026-03-29T07:19:05.97Z</time></trkpt><trkpt lat="40.4676095" lon="17.2598873"><ele>26.200000000000003</ele><time>2026-03-29T07:19:06.97Z</time></trkpt><trkpt lat="40.467602" lon="17.2597564"><ele>26.0</ele><time>2026-03-29T07:19:07.971Z</time></trkpt><trkpt lat="40.4675974" lon="17.2596254"><ele>26.0</ele><time>2026-03-29T07:19:08.971Z</time></trkpt><trkpt lat="40.4675934" lon="17.2594984"><ele>26.0</ele><time>2026-03-29T07:19:09.97Z</time></trkpt><trkpt lat="40.4675884" lon="17.2593732"><ele>26.0</ele><time>2026-03-29T07:19:10.97Z</time></trkpt><trkpt lat="40.4675768" lon="17.259244"><ele>26.0</ele><time>2026-03-29T07:19:11.971Z</time></trkpt><trkpt lat="40.467562" lon="17.2591149"><ele>26.0</ele><time>2026-03-29T07:19:12.971Z</time></trkpt><trkpt lat="40.4675519" lon="17.2589841"><ele>26.0</ele><time>2026-03-29T07:19:13.971Z</time></trkpt><trkpt lat="40.4675423" lon="17.2588524"><ele>26.0</ele><time>2026-03-29T07:19:14.971Z</time></trkpt><trkpt lat="40.4675335" lon="17.25872"><ele>26.0</ele><time>2026-03-29T07:19:15.971Z</time></trkpt><trkpt lat="40.4675312" lon="17.2585852"><ele>26.0</ele><time>2026-03-29T07:19:16.969Z</time></trkpt><trkpt lat="40.4675326" lon="17.2584514"><ele>26.0</ele><time>2026-03-29T07:19:17.971Z</time></trkpt><trkpt lat="40.4675359" lon="17.2583163"><ele>26.0</ele><time>2026-03-29T07:19:18.971Z</time></trkpt><trkpt lat="40.4675439" lon="17.2581823"><ele>26.0</ele><time>2026-03-29T07:19:19.971Z</time></trkpt><trkpt lat="40.4675592" lon="17.258051"><ele>26.0</ele><time>2026-03-29T07:19:20.971Z</time></trkpt><trkpt lat="40.4675855" lon="17.2579171"><ele>26.0</ele><time>2026-03-29T07:19:21.971Z</time></trkpt><trkpt lat="40.4676241" lon="17.2577873"><ele>26.0</ele><time>2026-03-29T07:19:22.97Z</time></trkpt><trkpt lat="40.4676727" lon="17.2576643"><ele>25.8</ele><time>2026-03-29T07:19:23.971Z</time></trkpt><trkpt lat="40.4677303" lon="17.2575433"><ele>25.6</ele><time>2026-03-29T07:19:24.971Z</time></trkpt><trkpt lat="40.4677927" lon="17.2574234"><ele>25.4</ele><time>2026-03-29T07:19:25.971Z</time></trkpt><trkpt lat="40.4678537" lon="17.2573037"><ele>25.2</ele><time>2026-03-29T07:19:26.97Z</time></trkpt><trkpt lat="40.4679116" lon="17.2571825"><ele>25.0</ele><time>2026-03-29T07:19:27.972Z</time></trkpt><trkpt lat="40.4679697" lon="17.2570615"><ele>22.2</ele><time>2026-03-29T07:19:28.969Z</time></trkpt><trkpt lat="40.4680291" lon="17.2569398"><ele>19.4</ele><time>2026-03-29T07:19:29.97Z</time></trkpt><trkpt lat="40.4680875" lon="17.2568214"><ele>16.6</ele><time>2026-03-29T07:19:30.971Z</time></trkpt><trkpt lat="40.4681477" lon="17.2567073"><ele>13.8</ele><time>2026-03-29T07:19:31.97Z</time></trkpt><trkpt lat="40.4682077" lon="17.2565995"><ele>11.0</ele><time>2026-03-29T07:19:32.97Z</time></trkpt><trkpt lat="40.4682693" lon="17.2564936"><ele>12.4</ele><time>2026-03-29T07:19:33.971Z</time></trkpt><trkpt lat="40.46833" lon="17.2563788"><ele>13.8</ele><time>2026-03-29T07:19:34.971Z</time></trkpt><trkpt lat="40.4683876" lon="17.2562561"><ele>15.200000000000001</ele><time>2026-03-29T07:19:35.971Z</time></trkpt><trkpt lat="40.4684414" lon="17.2561275"><ele>16.6</ele><time>2026-03-29T07:19:36.97Z</time></trkpt><trkpt lat="40.4684918" lon="17.2559945"><ele>18.0</ele><time>2026-03-29T07:19:37.97Z</time></trkpt><trkpt lat="40.4685403" lon="17.2558597"><ele>18.0</ele><time>2026-03-29T07:19:38.97Z</time></trkpt><trkpt lat="40.4685926" lon="17.2557266"><ele>18.0</ele><time>2026-03-29T07:19:39.97Z</time></trkpt><trkpt lat="40.4686431" lon="17.2555934"><ele>18.0</ele><time>2026-03-29T07:19:40.971Z</time></trkpt><trkpt lat="40.468694" lon="17.255464"><ele>18.0</ele><time>2026-03-29T07:19:41.971Z</time></trkpt><trkpt lat="40.4687428" lon="17.2553402"><ele>18.0</ele><time>2026-03-29T07:19:42.971Z</time></trkpt><trkpt lat="40.4687875" lon="17.2552343"><ele>17.333333333333332</ele><time>2026-03-29T07:19:43.973Z</time></trkpt><trkpt lat="40.4688274" lon="17.2551392"><ele>16.666666666666668</ele><time>2026-03-29T07:19:44.97Z</time></trkpt><trkpt lat="40.4688674" lon="17.2550524"><ele>16.0</ele><time>2026-03-29T07:19:45.971Z</time></trkpt><trkpt lat="40.4689077" lon="17.2549678"><ele>15.333333333333334</ele><time>2026-03-29T07:19:46.97Z</time></trkpt><trkpt lat="40.4689427" lon="17.2548819"><ele>14.666666666666668</ele><time>2026-03-29T07:19:47.971Z</time></trkpt><trkpt lat="40.4689936" lon="17.2547461"><ele>14.0</ele><time>2026-03-29T07:19:49.973Z</time></trkpt><trkpt lat="40.4689892" lon="17.2546377"><ele>14.000000000000002</ele><time>2026-03-29T07:19:51.971Z</time></trkpt><trkpt lat="40.4689381" lon="17.2545381"><ele>14.0</ele><time>2026-03-29T07:19:53.971Z</time></trkpt><trkpt lat="40.4688838" lon="17.2544889"><ele>14.0</ele><time>2026-03-29T07:19:54.971Z</time></trkpt><trkpt lat="40.4687953" lon="17.2544206"><ele>14.0</ele><time>2026-03-29T07:19:56.972Z</time></trkpt><trkpt lat="40.4687361" lon="17.2543856"><ele>14.000000000000002</ele><time>2026-03-29T07:20:03.972Z</time></trkpt><trkpt lat="40.4686524" lon="17.2542989"><ele>14.0</ele><time>2026-03-29T07:20:05.971Z</time></trkpt><trkpt lat="40.4685726" lon="17.2541775"><ele>15.333333333333334</ele><time>2026-03-29T07:20:07.971Z</time></trkpt><trkpt lat="40.4685405" lon="17.2540527"><ele>16.666666666666668</ele><time>2026-03-29T07:20:09.97Z</time></trkpt><trkpt lat="40.4685548" lon="17.2539129"><ele>18.0</ele><time>2026-03-29T07:20:11.971Z</time></trkpt><trkpt lat="40.4685756" lon="17.253832"><ele>19.333333333333332</ele><time>2026-03-29T07:20:12.972Z</time></trkpt><trkpt lat="40.4686049" lon="17.2537437"><ele>20.666666666666664</ele><time>2026-03-29T07:20:13.971Z</time></trkpt><trkpt lat="40.4686424" lon="17.2536404"><ele>22.0</ele><time>2026-03-29T07:20:14.971Z</time></trkpt><trkpt lat="40.4686835" lon="17.2535365"><ele>22.0</ele><time>2026-03-29T07:20:15.97Z</time></trkpt><trkpt lat="40.4687258" lon="17.2534328"><ele>22.0</ele><time>2026-03-29T07:20:16.969Z</time></trkpt><trkpt lat="40.4687798" lon="17.2533343"><ele>22.0</ele><time>2026-03-29T07:20:17.971Z</time></trkpt><trkpt lat="40.4688294" lon="17.2532269"><ele>22.0</ele><time>2026-03-29T07:20:18.973Z</time></trkpt><trkpt lat="40.4688776" lon="17.2531133"><ele>22.0</ele><time>2026-03-29T07:20:19.974Z</time></trkpt><trkpt lat="40.4689262" lon="17.2529977"><ele>21.400000000000002</ele><time>2026-03-29T07:20:20.97Z</time></trkpt><trkpt lat="40.4689718" lon="17.252878"><ele>20.8</ele><time>2026-03-29T07:20:21.97Z</time></trkpt><trkpt lat="40.4690165" lon="17.252765"><ele>20.2</ele><time>2026-03-29T07:20:22.971Z</time></trkpt><trkpt lat="40.4690618" lon="17.2526541"><ele>19.6</ele><time>2026-03-29T07:20:23.97Z</time></trkpt><trkpt lat="40.4691069" lon="17.2525447"><ele>19.0</ele><time>2026-03-29T07:20:24.971Z</time></trkpt><trkpt lat="40.4691498" lon="17.2524397"><ele>19.0</ele><time>2026-03-29T07:20:25.971Z</time></trkpt><trkpt lat="40.4691887" lon="17.2523509"><ele>19.0</ele><time>2026-03-29T07:20:26.97Z</time></trkpt><trkpt lat="40.4692227" lon="17.2522763"><ele>19.0</ele><time>2026-03-29T07:20:27.972Z</time></trkpt><trkpt lat="40.4692988" lon="17.2521694"><ele>19.0</ele><time>2026-03-29T07:20:29.971Z</time></trkpt><trkpt lat="40.4694122" lon="17.2521172"><ele>19.0</ele><time>2026-03-29T07:20:31.971Z</time></trkpt><trkpt lat="40.4694769" lon="17.2521106"><ele>19.0</ele><time>2026-03-29T07:20:32.97Z</time></trkpt><trkpt lat="40.4695477" lon="17.2521137"><ele>19.0</ele><time>2026-03-29T07:20:33.971Z</time></trkpt><trkpt lat="40.4696199" lon="17.2521271"><ele>19.0</ele><time>2026-03-29T07:20:34.971Z</time></trkpt><trkpt lat="40.4696932" lon="17.2521472"><ele>19.0</ele><time>2026-03-29T07:20:35.97Z</time></trkpt><trkpt lat="40.4697578" lon="17.2521699"><ele>19.0</ele><time>2026-03-29T07:20:36.971Z</time></trkpt><trkpt lat="40.469868" lon="17.2522162"><ele>19.0</ele><time>2026-03-29T07:20:38.97Z</time></trkpt><trkpt lat="40.469959" lon="17.2522478"><ele>19.0</ele><time>2026-03-29T07:20:40.971Z</time></trkpt><trkpt lat="40.4700324" lon="17.2522383"><ele>19.0</ele><time>2026-03-29T07:20:42.971Z</time></trkpt><trkpt lat="40.4701117" lon="17.2521579"><ele>19.0</ele><time>2026-03-29T07:20:44.971Z</time></trkpt><trkpt lat="40.4701537" lon="17.2520906"><ele>19.0</ele><time>2026-03-29T07:20:45.971Z</time></trkpt><trkpt lat="40.4701944" lon="17.2520096"><ele>19.0</ele><time>2026-03-29T07:20:46.971Z</time></trkpt><trkpt lat="40.4702335" lon="17.2519146"><ele>19.0</ele><time>2026-03-29T07:20:47.971Z</time></trkpt><trkpt lat="40.4702745" lon="17.2518161"><ele>19.0</ele><time>2026-03-29T07:20:48.971Z</time></trkpt><trkpt lat="40.470316" lon="17.2517189"><ele>19.0</ele><time>2026-03-29T07:20:49.971Z</time></trkpt><trkpt lat="40.4703581" lon="17.2516365"><ele>19.0</ele><time>2026-03-29T07:20:50.97Z</time></trkpt><trkpt lat="40.4703981" lon="17.2515597"><ele>19.0</ele><time>2026-03-29T07:20:51.971Z</time></trkpt><trkpt lat="40.4704395" lon="17.2514794"><ele>19.0</ele><time>2026-03-29T07:20:52.97Z</time></trkpt><trkpt lat="40.4704798" lon="17.2513922"><ele>19.0</ele><time>2026-03-29T07:20:53.97Z</time></trkpt><trkpt lat="40.4705178" lon="17.2512974"><ele>19.0</ele><time>2026-03-29T07:20:54.972Z</time></trkpt><trkpt lat="40.4705543" lon="17.251199"><ele>18.5</ele><time>2026-03-29T07:20:55.972Z</time></trkpt><trkpt lat="40.470591" lon="17.2511029"><ele>18.0</ele><time>2026-03-29T07:20:56.972Z</time></trkpt><trkpt lat="40.4706298" lon="17.2510057"><ele>17.5</ele><time>2026-03-29T07:20:57.972Z</time></trkpt><trkpt lat="40.4706671" lon="17.2509075"><ele>17.0</ele><time>2026-03-29T07:20:58.971Z</time></trkpt><trkpt lat="40.470707" lon="17.2508089"><ele>16.5</ele><time>2026-03-29T07:20:59.97Z</time></trkpt><trkpt lat="40.4707454" lon="17.2507157"><ele>16.0</ele><time>2026-03-29T07:21:00.971Z</time></trkpt><trkpt lat="40.4707804" lon="17.2506337"><ele>17.285714285714285</ele><time>2026-03-29T07:21:01.971Z</time></trkpt><trkpt lat="40.47082" lon="17.2505683"><ele>18.57142857142857</ele><time>2026-03-29T07:21:02.97Z</time></trkpt><trkpt lat="40.4708683" lon="17.2505133"><ele>19.857142857142858</ele><time>2026-03-29T07:21:03.971Z</time></trkpt><trkpt lat="40.4709217" lon="17.2504683"><ele>21.142857142857142</ele><time>2026-03-29T07:21:04.971Z</time></trkpt><trkpt lat="40.4709833" lon="17.25044"><ele>22.42857142857143</ele><time>2026-03-29T07:21:05.975Z</time></trkpt><trkpt lat="40.4710483" lon="17.2504317"><ele>23.714285714285715</ele><time>2026-03-29T07:21:06.971Z</time></trkpt><trkpt lat="40.4711167" lon="17.2504383"><ele>25.0</ele><time>2026-03-29T07:21:07.97Z</time></trkpt><trkpt lat="40.4711883" lon="17.2504517"><ele>25.000000000000004</ele><time>2026-03-29T07:21:08.97Z</time></trkpt><trkpt lat="40.4712667" lon="17.2504683"><ele>25.0</ele><time>2026-03-29T07:21:09.972Z</time></trkpt><trkpt lat="40.4713533" lon="17.2504883"><ele>25.0</ele><time>2026-03-29T07:21:10.97Z</time></trkpt><trkpt lat="40.471445" lon="17.25051"><ele>25.0</ele><time>2026-03-29T07:21:11.971Z</time></trkpt><trkpt lat="40.471535" lon="17.250535"><ele>25.000000000000004</ele><time>2026-03-29T07:21:12.971Z</time></trkpt><trkpt lat="40.4716217" lon="17.25056"><ele>25.0</ele><time>2026-03-29T07:21:13.971Z</time></trkpt><trkpt lat="40.4717" lon="17.2505867"><ele>24.666666666666668</ele><time>2026-03-29T07:21:14.97Z</time></trkpt><trkpt lat="40.4717683" lon="17.2506017"><ele>24.333333333333336</ele><time>2026-03-29T07:21:15.971Z</time></trkpt><trkpt lat="40.4718617" lon="17.2506"><ele>24.0</ele><time>2026-03-29T07:21:17.972Z</time></trkpt><trkpt lat="40.47192" lon="17.2505333"><ele>23.666666666666668</ele><time>2026-03-29T07:21:19.971Z</time></trkpt><trkpt lat="40.47197" lon="17.2504083"><ele>23.333333333333336</ele><time>2026-03-29T07:21:21.971Z</time></trkpt><trkpt lat="40.4719817" lon="17.2503183"><ele>23.0</ele><time>2026-03-29T07:21:22.971Z</time></trkpt><trkpt lat="40.471995" lon="17.2502183"><ele>23.0</ele><time>2026-03-29T07:21:23.971Z</time></trkpt><trkpt lat="40.4720117" lon="17.2501133"><ele>23.0</ele><time>2026-03-29T07:21:24.971Z</time></trkpt><trkpt lat="40.4720317" lon="17.2500017"><ele>23.0</ele><time>2026-03-29T07:21:25.971Z</time></trkpt><trkpt lat="40.4720483" lon="17.2498833"><ele>23.0</ele><time>2026-03-29T07:21:26.971Z</time></trkpt><trkpt lat="40.47207" lon="17.2497617"><ele>23.0</ele><time>2026-03-29T07:21:27.971Z</time></trkpt><trkpt lat="40.4720883" lon="17.2496417"><ele>23.0</ele><time>2026-03-29T07:21:28.971Z</time></trkpt><trkpt lat="40.47211" lon="17.24952"><ele>22.799999999999997</ele><time>2026-03-29T07:21:29.971Z</time></trkpt><trkpt lat="40.472125" lon="17.2493983"><ele>22.6</ele><time>2026-03-29T07:21:30.97Z</time></trkpt><trkpt lat="40.4721367" lon="17.249275"><ele>22.4</ele><time>2026-03-29T07:21:31.972Z</time></trkpt><trkpt lat="40.4721533" lon="17.2491517"><ele>22.200000000000003</ele><time>2026-03-29T07:21:32.971Z</time></trkpt><trkpt lat="40.4721667" lon="17.2490333"><ele>22.0</ele><time>2026-03-29T07:21:33.97Z</time></trkpt><trkpt lat="40.4721833" lon="17.2489283"><ele>21.857142857142858</ele><time>2026-03-29T07:21:34.971Z</time></trkpt><trkpt lat="40.4722" lon="17.2488367"><ele>21.714285714285715</ele><time>2026-03-29T07:21:35.971Z</time></trkpt><trkpt lat="40.4722133" lon="17.2487517"><ele>21.57142857142857</ele><time>2026-03-29T07:21:36.971Z</time></trkpt><trkpt lat="40.4722267" lon="17.2486583"><ele>21.42857142857143</ele><time>2026-03-29T07:21:37.971Z</time></trkpt><trkpt lat="40.472245" lon="17.248565"><ele>21.285714285714285</ele><time>2026-03-29T07:21:38.971Z</time></trkpt><trkpt lat="40.47226" lon="17.24847"><ele>21.142857142857142</ele><time>2026-03-29T07:21:39.971Z</time></trkpt><trkpt lat="40.4722783" lon="17.2483767"><ele>21.0</ele><time>2026-03-29T07:21:40.971Z</time></trkpt><trkpt lat="40.4722917" lon="17.2482817"><ele>21.0</ele><time>2026-03-29T07:21:41.971Z</time></trkpt><trkpt lat="40.472315" lon="17.2481933"><ele>21.0</ele><time>2026-03-29T07:21:42.973Z</time></trkpt><trkpt lat="40.4723317" lon="17.2480983"><ele>21.0</ele><time>2026-03-29T07:21:43.971Z</time></trkpt><trkpt lat="40.472345" lon="17.2480033"><ele>21.0</ele><time>2026-03-29T07:21:44.971Z</time></trkpt><trkpt lat="40.4723517" lon="17.2479083"><ele>21.0</ele><time>2026-03-29T07:21:45.973Z</time></trkpt><trkpt lat="40.4723617" lon="17.247815"><ele>21.0</ele><time>2026-03-29T07:21:46.971Z</time></trkpt><trkpt lat="40.47239" lon="17.24773"><ele>21.0</ele><time>2026-03-29T07:21:47.971Z</time></trkpt><trkpt lat="40.472415" lon="17.24764"><ele>21.142857142857142</ele><time>2026-03-29T07:21:48.971Z</time></trkpt><trkpt lat="40.4724331" lon="17.2475494"><ele>21.285714285714285</ele><time>2026-03-29T07:21:49.97Z</time></trkpt><trkpt lat="40.47245" lon="17.2474608"><ele>21.42857142857143</ele><time>2026-03-29T07:21:50.971Z</time></trkpt><trkpt lat="40.4724654" lon="17.2473736"><ele>21.57142857142857</ele><time>2026-03-29T07:21:51.971Z</time></trkpt><trkpt lat="40.4724804" lon="17.2472851"><ele>21.714285714285715</ele><time>2026-03-29T07:21:52.971Z</time></trkpt><trkpt lat="40.4724979" lon="17.2471883"><ele>21.857142857142858</ele><time>2026-03-29T07:21:53.972Z</time></trkpt><trkpt lat="40.4725188" lon="17.2470838"><ele>22.0</ele><time>2026-03-29T07:21:54.972Z</time></trkpt><trkpt lat="40.472538" lon="17.246979"><ele>22.5</ele><time>2026-03-29T07:21:55.972Z</time></trkpt><trkpt lat="40.4725587" lon="17.2468807"><ele>23.0</ele><time>2026-03-29T07:21:56.971Z</time></trkpt><trkpt lat="40.4725748" lon="17.2467884"><ele>23.5</ele><time>2026-03-29T07:21:57.97Z</time></trkpt><trkpt lat="40.4725914" lon="17.2466944"><ele>24.0</ele><time>2026-03-29T07:21:58.97Z</time></trkpt><trkpt lat="40.4726108" lon="17.2465954"><ele>24.500000000000004</ele><time>2026-03-29T07:21:59.971Z</time></trkpt><trkpt lat="40.4726322" lon="17.2464893"><ele>25.0</ele><time>2026-03-29T07:22:00.971Z</time></trkpt><trkpt lat="40.4726526" lon="17.2463853"><ele>25.666666666666668</ele><time>2026-03-29T07:22:01.971Z</time></trkpt><trkpt lat="40.4726733" lon="17.2462864"><ele>26.333333333333336</ele><time>2026-03-29T07:22:02.974Z</time></trkpt><trkpt lat="40.4726964" lon="17.2461902"><ele>27.0</ele><time>2026-03-29T07:22:03.972Z</time></trkpt><trkpt lat="40.4727167" lon="17.2460907"><ele>27.666666666666664</ele><time>2026-03-29T07:22:04.971Z</time></trkpt><trkpt lat="40.4727329" lon="17.2459907"><ele>28.333333333333332</ele><time>2026-03-29T07:22:05.972Z</time></trkpt><trkpt lat="40.4727478" lon="17.2458869"><ele>29.0</ele><time>2026-03-29T07:22:06.971Z</time></trkpt><trkpt lat="40.4727661" lon="17.2457856"><ele>28.999999999999996</ele><time>2026-03-29T07:22:07.971Z</time></trkpt><trkpt lat="40.4727857" lon="17.2456847"><ele>29.0</ele><time>2026-03-29T07:22:08.971Z</time></trkpt><trkpt lat="40.4727971" lon="17.2455853"><ele>29.0</ele><time>2026-03-29T07:22:09.972Z</time></trkpt><trkpt lat="40.4728114" lon="17.2454949"><ele>29.0</ele><time>2026-03-29T07:22:10.971Z</time></trkpt><trkpt lat="40.4728276" lon="17.2454121"><ele>28.999999999999996</ele><time>2026-03-29T07:22:11.971Z</time></trkpt><trkpt lat="40.4728478" lon="17.2452522"><ele>29.0</ele><time>2026-03-29T07:22:13.971Z</time></trkpt><trkpt lat="40.4728678" lon="17.2450973"><ele>28.999999999999996</ele><time>2026-03-29T07:22:15.971Z</time></trkpt><trkpt lat="40.4728924" lon="17.2449561"><ele>29.0</ele><time>2026-03-29T07:22:17.971Z</time></trkpt><trkpt lat="40.4729221" lon="17.2447968"><ele>29.0</ele><time>2026-03-29T07:22:19.971Z</time></trkpt><trkpt lat="40.4729418" lon="17.2447122"><ele>29.0</ele><time>2026-03-29T07:22:20.971Z</time></trkpt><trkpt lat="40.4729706" lon="17.2446293"><ele>28.999999999999996</ele><time>2026-03-29T07:22:21.971Z</time></trkpt><trkpt lat="40.473002" lon="17.2445437"><ele>29.0</ele><time>2026-03-29T07:22:22.974Z</time></trkpt><trkpt lat="40.4730183" lon="17.2444635"><ele>28.499999999999996</ele><time>2026-03-29T07:22:23.971Z</time></trkpt><trkpt lat="40.4730351" lon="17.2443775"><ele>28.0</ele><time>2026-03-29T07:22:24.971Z</time></trkpt><trkpt lat="40.4730525" lon="17.2442873"><ele>27.5</ele><time>2026-03-29T07:22:25.971Z</time></trkpt><trkpt lat="40.4730695" lon="17.2441985"><ele>27.0</ele><time>2026-03-29T07:22:26.971Z</time></trkpt><trkpt lat="40.4730851" lon="17.2441136"><ele>26.499999999999996</ele><time>2026-03-29T07:22:27.971Z</time></trkpt><trkpt lat="40.4731049" lon="17.2440348"><ele>26.0</ele><time>2026-03-29T07:22:28.971Z</time></trkpt><trkpt lat="40.4731314" lon="17.2438718"><ele>26.0</ele><time>2026-03-29T07:22:30.972Z</time></trkpt><trkpt lat="40.4731458" lon="17.2437856"><ele>26.0</ele><time>2026-03-29T07:22:31.971Z</time></trkpt><trkpt lat="40.4731443" lon="17.2436943"><ele>26.0</ele><time>2026-03-29T07:22:32.97Z</time></trkpt><trkpt lat="40.4731502" lon="17.2436046"><ele>26.0</ele><time>2026-03-29T07:22:33.97Z</time></trkpt><trkpt lat="40.4731615" lon="17.2435172"><ele>26.0</ele><time>2026-03-29T07:22:34.971Z</time></trkpt><trkpt lat="40.4731736" lon="17.243428"><ele>26.0</ele><time>2026-03-29T07:22:35.971Z</time></trkpt><trkpt lat="40.4731856" lon="17.2433393"><ele>26.0</ele><time>2026-03-29T07:22:36.972Z</time></trkpt><trkpt lat="40.4731998" lon="17.2432497"><ele>26.0</ele><time>2026-03-29T07:22:37.972Z</time></trkpt><trkpt lat="40.4732125" lon="17.2431595"><ele>26.0</ele><time>2026-03-29T07:22:38.971Z</time></trkpt><trkpt lat="40.4732223" lon="17.2430617"><ele>26.0</ele><time>2026-03-29T07:22:39.971Z</time></trkpt><trkpt lat="40.4732344" lon="17.2429655"><ele>26.0</ele><time>2026-03-29T07:22:40.971Z</time></trkpt><trkpt lat="40.4732449" lon="17.2428779"><ele>26.0</ele><time>2026-03-29T07:22:41.971Z</time></trkpt><trkpt lat="40.473258" lon="17.242793"><ele>26.0</ele><time>2026-03-29T07:22:42.971Z</time></trkpt><trkpt lat="40.4732808" lon="17.2427055"><ele>26.0</ele><time>2026-03-29T07:22:43.971Z</time></trkpt><trkpt lat="40.4733068" lon="17.2426169"><ele>26.142857142857142</ele><time>2026-03-29T07:22:44.971Z</time></trkpt><trkpt lat="40.473324" lon="17.2425255"><ele>26.28571428571429</ele><time>2026-03-29T07:22:45.971Z</time></trkpt><trkpt lat="40.4733384" lon="17.2424299"><ele>26.42857142857143</ele><time>2026-03-29T07:22:46.97Z</time></trkpt><trkpt lat="40.4733534" lon="17.2423347"><ele>26.57142857142857</ele><time>2026-03-29T07:22:47.971Z</time></trkpt><trkpt lat="40.4733739" lon="17.2422424"><ele>26.714285714285715</ele><time>2026-03-29T07:22:48.971Z</time></trkpt><trkpt lat="40.4733948" lon="17.2421482"><ele>26.857142857142858</ele><time>2026-03-29T07:22:49.971Z</time></trkpt><trkpt lat="40.4734092" lon="17.2420532"><ele>27.0</ele><time>2026-03-29T07:22:50.971Z</time></trkpt><trkpt lat="40.4734224" lon="17.2419532"><ele>27.0</ele><time>2026-03-29T07:22:51.971Z</time></trkpt><trkpt lat="40.4734402" lon="17.2418568"><ele>27.0</ele><time>2026-03-29T07:22:52.971Z</time></trkpt><trkpt lat="40.4734512" lon="17.2417629"><ele>27.0</ele><time>2026-03-29T07:22:53.971Z</time></trkpt><trkpt lat="40.4734571" lon="17.2416673"><ele>27.0</ele><time>2026-03-29T07:22:54.971Z</time></trkpt><trkpt lat="40.4734686" lon="17.2415735"><ele>27.0</ele><time>2026-03-29T07:22:55.971Z</time></trkpt><trkpt lat="40.4734793" lon="17.2414813"><ele>27.0</ele><time>2026-03-29T07:22:56.971Z</time></trkpt><trkpt lat="40.4734887" lon="17.241387"><ele>27.0</ele><time>2026-03-29T07:22:57.971Z</time></trkpt><trkpt lat="40.4735046" lon="17.241288"><ele>26.857142857142858</ele><time>2026-03-29T07:22:58.973Z</time></trkpt><trkpt lat="40.473526" lon="17.2411902"><ele>26.714285714285715</ele><time>2026-03-29T07:22:59.971Z</time></trkpt><trkpt lat="40.473547" lon="17.2410948"><ele>26.57142857142857</ele><time>2026-03-29T07:23:00.971Z</time></trkpt><trkpt lat="40.4735652" lon="17.2410026"><ele>26.42857142857143</ele><time>2026-03-29T07:23:01.971Z</time></trkpt><trkpt lat="40.4735783" lon="17.2409135"><ele>26.28571428571429</ele><time>2026-03-29T07:23:02.971Z</time></trkpt><trkpt lat="40.4735908" lon="17.2408228"><ele>26.142857142857142</ele><time>2026-03-29T07:23:03.97Z</time></trkpt><trkpt lat="40.4736009" lon="17.2407323"><ele>26.0</ele><time>2026-03-29T07:23:04.971Z</time></trkpt><trkpt lat="40.4736121" lon="17.24065"><ele>26.0</ele><time>2026-03-29T07:23:05.972Z</time></trkpt><trkpt lat="40.4736224" lon="17.2405682"><ele>26.0</ele><time>2026-03-29T07:23:06.972Z</time></trkpt><trkpt lat="40.4736386" lon="17.2404792"><ele>26.0</ele><time>2026-03-29T07:23:07.969Z</time></trkpt><trkpt lat="40.4736567" lon="17.2403844"><ele>26.0</ele><time>2026-03-29T07:23:08.971Z</time></trkpt><trkpt lat="40.4736752" lon="17.2402844"><ele>26.0</ele><time>2026-03-29T07:23:09.969Z</time></trkpt><trkpt lat="40.4736933" lon="17.2401888"><ele>26.0</ele><time>2026-03-29T07:23:10.97Z</time></trkpt><trkpt lat="40.4737107" lon="17.2400978"><ele>26.0</ele><time>2026-03-29T07:23:11.97Z</time></trkpt><trkpt lat="40.473729" lon="17.2400091"><ele>26.0</ele><time>2026-03-29T07:23:12.97Z</time></trkpt><trkpt lat="40.4737474" lon="17.2399197"><ele>26.0</ele><time>2026-03-29T07:23:13.97Z</time></trkpt><trkpt lat="40.473766" lon="17.2398337"><ele>26.0</ele><time>2026-03-29T07:23:14.97Z</time></trkpt><trkpt lat="40.4737799" lon="17.2397472"><ele>26.0</ele><time>2026-03-29T07:23:15.97Z</time></trkpt><trkpt lat="40.4737911" lon="17.2396612"><ele>26.0</ele><time>2026-03-29T07:23:16.969Z</time></trkpt><trkpt lat="40.4738062" lon="17.2395783"><ele>26.0</ele><time>2026-03-29T07:23:17.97Z</time></trkpt><trkpt lat="40.4738202" lon="17.23949"><ele>26.0</ele><time>2026-03-29T07:23:18.97Z</time></trkpt><trkpt lat="40.4738347" lon="17.2393948"><ele>25.499999999999996</ele><time>2026-03-29T07:23:19.97Z</time></trkpt><trkpt lat="40.473849" lon="17.2392976"><ele>25.0</ele><time>2026-03-29T07:23:20.97Z</time></trkpt><trkpt lat="40.4738595" lon="17.2392054"><ele>24.5</ele><time>2026-03-29T07:23:21.971Z</time></trkpt><trkpt lat="40.4738737" lon="17.2391188"><ele>24.0</ele><time>2026-03-29T07:23:22.97Z</time></trkpt><trkpt lat="40.473884" lon="17.2390353"><ele>23.5</ele><time>2026-03-29T07:23:23.97Z</time></trkpt><trkpt lat="40.4739061" lon="17.2388767"><ele>23.0</ele><time>2026-03-29T07:23:25.97Z</time></trkpt><trkpt lat="40.4739283" lon="17.238712"><ele>23.0</ele><time>2026-03-29T07:23:27.97Z</time></trkpt><trkpt lat="40.4739467" lon="17.2386292"><ele>23.0</ele><time>2026-03-29T07:23:28.971Z</time></trkpt><trkpt lat="40.4739672" lon="17.2385436"><ele>23.0</ele><time>2026-03-29T07:23:29.974Z</time></trkpt><trkpt lat="40.4739902" lon="17.238463"><ele>23.0</ele><time>2026-03-29T07:23:30.97Z</time></trkpt><trkpt lat="40.4740096" lon="17.2383819"><ele>23.0</ele><time>2026-03-29T07:23:31.97Z</time></trkpt><trkpt lat="40.4740368" lon="17.2382294"><ele>23.0</ele><time>2026-03-29T07:23:33.97Z</time></trkpt><trkpt lat="40.4740715" lon="17.2380896"><ele>23.166666666666668</ele><time>2026-03-29T07:23:35.969Z</time></trkpt><trkpt lat="40.4741018" lon="17.2379442"><ele>23.333333333333336</ele><time>2026-03-29T07:23:37.97Z</time></trkpt><trkpt lat="40.4741375" lon="17.2378228"><ele>23.5</ele><time>2026-03-29T07:23:39.971Z</time></trkpt><trkpt lat="40.4741743" lon="17.2377282"><ele>23.666666666666668</ele><time>2026-03-29T07:23:41.971Z</time></trkpt><trkpt lat="40.4741685" lon="17.2376305"><ele>23.833333333333332</ele><time>2026-03-29T07:23:44.972Z</time></trkpt><trkpt lat="40.4741201" lon="17.2375622"><ele>24.0</ele><time>2026-03-29T07:23:48.97Z</time></trkpt><trkpt lat="40.4740514" lon="17.2375577"><ele>24.0</ele><time>2026-03-29T07:23:50.97Z</time></trkpt><trkpt lat="40.473973" lon="17.237538"><ele>24.0</ele><time>2026-03-29T07:23:52.97Z</time></trkpt><trkpt lat="40.4738942" lon="17.2375065"><ele>24.0</ele><time>2026-03-29T07:23:54.97Z</time></trkpt><trkpt lat="40.4738034" lon="17.2374627"><ele>24.0</ele><time>2026-03-29T07:23:56.97Z</time></trkpt><trkpt lat="40.4737117" lon="17.2374119"><ele>24.0</ele><time>2026-03-29T07:23:58.97Z</time></trkpt><trkpt lat="40.4736345" lon="17.2373702"><ele>24.0</ele><time>2026-03-29T07:24:00.97Z</time></trkpt><trkpt lat="40.4735665" lon="17.2373529"><ele>23.666666666666668</ele><time>2026-03-29T07:24:06.971Z</time></trkpt><trkpt lat="40.4735189" lon="17.2372702"><ele>23.333333333333332</ele><time>2026-03-29T07:24:15.97Z</time></trkpt><trkpt lat="40.473532" lon="17.2371624"><ele>23.0</ele><time>2026-03-29T07:24:17.97Z</time></trkpt><trkpt lat="40.4735687" lon="17.2370191"><ele>22.666666666666664</ele><time>2026-03-29T07:24:19.97Z</time></trkpt><trkpt lat="40.4735886" lon="17.2369334"><ele>22.333333333333332</ele><time>2026-03-29T07:24:20.97Z</time></trkpt><trkpt lat="40.4736027" lon="17.2368367"><ele>22.0</ele><time>2026-03-29T07:24:21.97Z</time></trkpt><trkpt lat="40.4736174" lon="17.2367373"><ele>22.0</ele><time>2026-03-29T07:24:22.97Z</time></trkpt><trkpt lat="40.4736321" lon="17.2366454"><ele>22.0</ele><time>2026-03-29T07:24:23.97Z</time></trkpt><trkpt lat="40.473639" lon="17.236556"><ele>22.0</ele><time>2026-03-29T07:24:24.97Z</time></trkpt><trkpt lat="40.4736511" lon="17.2364027"><ele>22.0</ele><time>2026-03-29T07:24:26.97Z</time></trkpt><trkpt lat="40.4736194" lon="17.236273"><ele>22.0</ele><time>2026-03-29T07:24:28.97Z</time></trkpt><trkpt lat="40.4735297" lon="17.2361536"><ele>20.0</ele><time>2026-03-29T07:24:30.97Z</time></trkpt><trkpt lat="40.4734638" lon="17.2361098"><ele>18.0</ele><time>2026-03-29T07:24:31.97Z</time></trkpt><trkpt lat="40.4733927" lon="17.2360916"><ele>16.0</ele><time>2026-03-29T07:24:32.97Z</time></trkpt><trkpt lat="40.4733292" lon="17.2360837"><ele>14.0</ele><time>2026-03-29T07:24:33.97Z</time></trkpt><trkpt lat="40.473244" lon="17.2360788"><ele>12.0</ele><time>2026-03-29T07:24:35.97Z</time></trkpt><trkpt lat="40.4731839" lon="17.2360516"><ele>10.0</ele><time>2026-03-29T07:24:39.972Z</time></trkpt><trkpt lat="40.4731368" lon="17.2359755"><ele>8.0</ele><time>2026-03-29T07:24:42.97Z</time></trkpt><trkpt lat="40.4731196" lon="17.2358856"><ele>7.999999999999999</ele><time>2026-03-29T07:24:45.973Z</time></trkpt><trkpt lat="40.4731327" lon="17.2357789"><ele>8.0</ele><time>2026-03-29T07:24:48.972Z</time></trkpt><trkpt lat="40.4731608" lon="17.2356916"><ele>8.0</ele><time>2026-03-29T07:24:50.97Z</time></trkpt><trkpt lat="40.4731881" lon="17.2355715"><ele>8.0</ele><time>2026-03-29T07:24:52.97Z</time></trkpt><trkpt lat="40.4732175" lon="17.2354226"><ele>7.999999999999999</ele><time>2026-03-29T07:24:54.972Z</time></trkpt><trkpt lat="40.4732313" lon="17.2353407"><ele>8.0</ele><time>2026-03-29T07:24:55.971Z</time></trkpt><trkpt lat="40.4732437" lon="17.235252"><ele>7.999999999999999</ele><time>2026-03-29T07:24:56.97Z</time></trkpt><trkpt lat="40.4732584" lon="17.2351622"><ele>8.0</ele><time>2026-03-29T07:24:57.97Z</time></trkpt><trkpt lat="40.4732747" lon="17.2350677"><ele>8.0</ele><time>2026-03-29T07:24:58.97Z</time></trkpt><trkpt lat="40.4732909" lon="17.2349736"><ele>8.0</ele><time>2026-03-29T07:24:59.969Z</time></trkpt><trkpt lat="40.4733088" lon="17.2348886"><ele>7.999999999999999</ele><time>2026-03-29T07:25:00.97Z</time></trkpt><trkpt lat="40.4733443" lon="17.2347458"><ele>8.0</ele><time>2026-03-29T07:25:02.969Z</time></trkpt><trkpt lat="40.4733834" lon="17.2346338"><ele>8.333333333333332</ele><time>2026-03-29T07:25:04.971Z</time></trkpt><trkpt lat="40.4734544" lon="17.2345925"><ele>8.666666666666666</ele><time>2026-03-29T07:25:06.971Z</time></trkpt><trkpt lat="40.4735621" lon="17.2346265"><ele>9.0</ele><time>2026-03-29T07:25:08.971Z</time></trkpt><trkpt lat="40.4736527" lon="17.2346708"><ele>9.333333333333334</ele><time>2026-03-29T07:25:10.971Z</time></trkpt><trkpt lat="40.4737134" lon="17.2346997"><ele>9.666666666666668</ele><time>2026-03-29T07:25:12.972Z</time></trkpt><trkpt lat="40.4737914" lon="17.2347346"><ele>10.0</ele><time>2026-03-29T07:25:14.969Z</time></trkpt><trkpt lat="40.4739175" lon="17.2347896"><ele>9.4</ele><time>2026-03-29T07:25:16.971Z</time></trkpt><trkpt lat="40.4740034" lon="17.2348237"><ele>8.8</ele><time>2026-03-29T07:25:17.972Z</time></trkpt><trkpt lat="40.474098" lon="17.2348584"><ele>8.2</ele><time>2026-03-29T07:25:18.971Z</time></trkpt><trkpt lat="40.4741933" lon="17.2348903"><ele>7.6</ele><time>2026-03-29T07:25:19.97Z</time></trkpt><trkpt lat="40.4742864" lon="17.2349134"><ele>7.0</ele><time>2026-03-29T07:25:20.97Z</time></trkpt><trkpt lat="40.474375" lon="17.234926"><ele>7.000000000000001</ele><time>2026-03-29T07:25:21.971Z</time></trkpt><trkpt lat="40.4744572" lon="17.2349311"><ele>7.0</ele><time>2026-03-29T07:25:22.971Z</time></trkpt><trkpt lat="40.4745383" lon="17.2349305"><ele>7.0</ele><time>2026-03-29T07:25:23.971Z</time></trkpt><trkpt lat="40.4746199" lon="17.2349243"><ele>7.0</ele><time>2026-03-29T07:25:24.971Z</time></trkpt><trkpt lat="40.4746971" lon="17.2349106"><ele>7.000000000000001</ele><time>2026-03-29T07:25:25.971Z</time></trkpt><trkpt lat="40.4747678" lon="17.2348928"><ele>7.0</ele><time>2026-03-29T07:25:26.971Z</time></trkpt><trkpt lat="40.4748804" lon="17.2348395"><ele>6.833333333333334</ele><time>2026-03-29T07:25:28.97Z</time></trkpt><trkpt lat="40.4749686" lon="17.2347158"><ele>6.666666666666667</ele><time>2026-03-29T07:25:30.971Z</time></trkpt><trkpt lat="40.4750023" lon="17.2346329"><ele>6.5</ele><time>2026-03-29T07:25:31.97Z</time></trkpt><trkpt lat="40.4750309" lon="17.2345506"><ele>6.333333333333334</ele><time>2026-03-29T07:25:32.971Z</time></trkpt><trkpt lat="40.4750505" lon="17.2344617"><ele>6.166666666666667</ele><time>2026-03-29T07:25:33.971Z</time></trkpt><trkpt lat="40.4750699" lon="17.2343725"><ele>6.0</ele><time>2026-03-29T07:25:34.97Z</time></trkpt><trkpt lat="40.4750923" lon="17.2342806"><ele>6.0</ele><time>2026-03-29T07:25:35.971Z</time></trkpt><trkpt lat="40.4751179" lon="17.2341896"><ele>6.0</ele><time>2026-03-29T07:25:36.97Z</time></trkpt><trkpt lat="40.4751411" lon="17.2341011"><ele>6.0</ele><time>2026-03-29T07:25:37.971Z</time></trkpt><trkpt lat="40.4751644" lon="17.2340188"><ele>6.0</ele><time>2026-03-29T07:25:38.971Z</time></trkpt><trkpt lat="40.4751879" lon="17.2339395"><ele>6.0</ele><time>2026-03-29T07:25:39.971Z</time></trkpt><trkpt lat="40.4752163" lon="17.2338239"><ele>6.0</ele><time>2026-03-29T07:25:41.97Z</time></trkpt><trkpt lat="40.4752508" lon="17.2337234"><ele>6.166666666666667</ele><time>2026-03-29T07:25:46.975Z</time></trkpt><trkpt lat="40.4752808" lon="17.233644"><ele>6.333333333333334</ele><time>2026-03-29T07:25:48.971Z</time></trkpt><trkpt lat="40.4753183" lon="17.23356"><ele>6.5</ele><time>2026-03-29T07:25:50.97Z</time></trkpt><trkpt lat="40.4753633" lon="17.2334367"><ele>6.666666666666667</ele><time>2026-03-29T07:25:52.974Z</time></trkpt><trkpt lat="40.475395" lon="17.2333617"><ele>6.833333333333334</ele><time>2026-03-29T07:25:53.975Z</time></trkpt><trkpt lat="40.47543" lon="17.2332833"><ele>7.0</ele><time>2026-03-29T07:25:54.97Z</time></trkpt><trkpt lat="40.4754617" lon="17.2331983"><ele>6.142857142857143</ele><time>2026-03-29T07:25:55.971Z</time></trkpt><trkpt lat="40.4754867" lon="17.2331083"><ele>5.285714285714286</ele><time>2026-03-29T07:25:56.974Z</time></trkpt><trkpt lat="40.4755083" lon="17.233025"><ele>4.428571428571429</ele><time>2026-03-29T07:25:57.97Z</time></trkpt><trkpt lat="40.47553" lon="17.2329433"><ele>3.571428571428571</ele><time>2026-03-29T07:25:58.972Z</time></trkpt><trkpt lat="40.475555" lon="17.2328633"><ele>2.7142857142857144</ele><time>2026-03-29T07:25:59.972Z</time></trkpt><trkpt lat="40.4755833" lon="17.2327867"><ele>1.8571428571428572</ele><time>2026-03-29T07:26:00.971Z</time></trkpt><trkpt lat="40.47561" lon="17.2327017"><ele>1.0</ele><time>2026-03-29T07:26:01.97Z</time></trkpt><trkpt lat="40.4756433" lon="17.2326083"><ele>0.9999999999999999</ele><time>2026-03-29T07:26:02.97Z</time></trkpt><trkpt lat="40.475685" lon="17.2325133"><ele>1.0</ele><time>2026-03-29T07:26:03.971Z</time></trkpt><trkpt lat="40.4757283" lon="17.232415"><ele>1.0</ele><time>2026-03-29T07:26:04.97Z</time></trkpt><trkpt lat="40.4757733" lon="17.2323167"><ele>1.0</ele><time>2026-03-29T07:26:05.969Z</time></trkpt><trkpt lat="40.4758267" lon="17.232215"><ele>0.9999999999999999</ele><time>2026-03-29T07:26:06.97Z</time></trkpt><trkpt lat="40.4758783" lon="17.23211"><ele>1.0</ele><time>2026-03-29T07:26:07.971Z</time></trkpt><trkpt lat="40.475925" lon="17.232"><ele>1.6</ele><time>2026-03-29T07:26:08.973Z</time></trkpt><trkpt lat="40.4759767" lon="17.2318883"><ele>2.2</ele><time>2026-03-29T07:26:09.971Z</time></trkpt><trkpt lat="40.47603" lon="17.231775"><ele>2.8000000000000003</ele><time>2026-03-29T07:26:10.97Z</time></trkpt><trkpt lat="40.4760817" lon="17.2316683"><ele>3.4000000000000004</ele><time>2026-03-29T07:26:11.971Z</time></trkpt><trkpt lat="40.4761333" lon="17.2315633"><ele>4.0</ele><time>2026-03-29T07:26:12.971Z</time></trkpt><trkpt lat="40.4761867" lon="17.2314567"><ele>3.8000000000000003</ele><time>2026-03-29T07:26:13.97Z</time></trkpt><trkpt lat="40.4762383" lon="17.2313467"><ele>3.6000000000000005</ele><time>2026-03-29T07:26:14.97Z</time></trkpt><trkpt lat="40.4762933" lon="17.23124"><ele>3.4</ele><time>2026-03-29T07:26:15.973Z</time></trkpt><trkpt lat="40.4763517" lon="17.2311333"><ele>3.2</ele><time>2026-03-29T07:26:16.97Z</time></trkpt><trkpt lat="40.476415" lon="17.2310317"><ele>3.0</ele><time>2026-03-29T07:26:17.972Z</time></trkpt><trkpt lat="40.4764767" lon="17.2309267"><ele>3.0</ele><time>2026-03-29T07:26:18.978Z</time></trkpt><trkpt lat="40.4765367" lon="17.2308267"><ele>3.0</ele><time>2026-03-29T07:26:19.971Z</time></trkpt><trkpt lat="40.4765917" lon="17.2307267"><ele>3.0</ele><time>2026-03-29T07:26:20.97Z</time></trkpt><trkpt lat="40.4766517" lon="17.2306283"><ele>3.0</ele><time>2026-03-29T07:26:21.97Z</time></trkpt><trkpt lat="40.4767133" lon="17.2305383"><ele>3.0</ele><time>2026-03-29T07:26:22.97Z</time></trkpt><trkpt lat="40.4767683" lon="17.2304483"><ele>4.2</ele><time>2026-03-29T07:26:23.97Z</time></trkpt><trkpt lat="40.4768258" lon="17.2303608"><ele>5.4</ele><time>2026-03-29T07:26:24.971Z</time></trkpt><trkpt lat="40.4768876" lon="17.2302747"><ele>6.6000000000000005</ele><time>2026-03-29T07:26:25.971Z</time></trkpt><trkpt lat="40.4769522" lon="17.2301907"><ele>7.8</ele><time>2026-03-29T07:26:26.969Z</time></trkpt><trkpt lat="40.4770218" lon="17.230113"><ele>9.0</ele><time>2026-03-29T07:26:27.971Z</time></trkpt><trkpt lat="40.4771004" lon="17.2300391"><ele>8.6</ele><time>2026-03-29T07:26:28.97Z</time></trkpt><trkpt lat="40.477185" lon="17.2299723"><ele>8.2</ele><time>2026-03-29T07:26:29.973Z</time></trkpt><trkpt lat="40.477275" lon="17.2299098"><ele>7.799999999999999</ele><time>2026-03-29T07:26:30.971Z</time></trkpt><trkpt lat="40.4773673" lon="17.2298468"><ele>7.3999999999999995</ele><time>2026-03-29T07:26:31.971Z</time></trkpt><trkpt lat="40.4774567" lon="17.2297838"><ele>7.0</ele><time>2026-03-29T07:26:32.972Z</time></trkpt><trkpt lat="40.477545" lon="17.2297154"><ele>7.0</ele><time>2026-03-29T07:26:33.97Z</time></trkpt><trkpt lat="40.4776291" lon="17.2296409"><ele>6.999999999999999</ele><time>2026-03-29T07:26:34.969Z</time></trkpt><trkpt lat="40.4777094" lon="17.229567"><ele>6.999999999999999</ele><time>2026-03-29T07:26:35.972Z</time></trkpt><trkpt lat="40.4777892" lon="17.2294941"><ele>7.0</ele><time>2026-03-29T07:26:36.971Z</time></trkpt><trkpt lat="40.4778706" lon="17.2294166"><ele>7.0</ele><time>2026-03-29T07:26:37.97Z</time></trkpt><trkpt lat="40.4779517" lon="17.2293338"><ele>7.0</ele><time>2026-03-29T07:26:38.971Z</time></trkpt><trkpt lat="40.4780303" lon="17.2292468"><ele>6.999999999999999</ele><time>2026-03-29T07:26:39.971Z</time></trkpt><trkpt lat="40.4781087" lon="17.2291586"><ele>6.999999999999999</ele><time>2026-03-29T07:26:40.97Z</time></trkpt><trkpt lat="40.4781866" lon="17.2290713"><ele>7.0</ele><time>2026-03-29T07:26:41.97Z</time></trkpt><trkpt lat="40.4782674" lon="17.2289825"><ele>7.0</ele><time>2026-03-29T07:26:42.97Z</time></trkpt><trkpt lat="40.4783499" lon="17.228889"><ele>7.0</ele><time>2026-03-29T07:26:43.971Z</time></trkpt><trkpt lat="40.4784326" lon="17.2287952"><ele>6.999999999999999</ele><time>2026-03-29T07:26:44.971Z</time></trkpt><trkpt lat="40.4785148" lon="17.2287021"><ele>6.999999999999999</ele><time>2026-03-29T07:26:45.971Z</time></trkpt><trkpt lat="40.4785926" lon="17.2286081"><ele>7.0</ele><time>2026-03-29T07:26:46.971Z</time></trkpt><trkpt lat="40.4786674" lon="17.2285155"><ele>7.0</ele><time>2026-03-29T07:26:47.971Z</time></trkpt><trkpt lat="40.4787405" lon="17.228428"><ele>6.833333333333334</ele><time>2026-03-29T07:26:48.97Z</time></trkpt><trkpt lat="40.4788069" lon="17.2283454"><ele>6.666666666666667</ele><time>2026-03-29T07:26:49.971Z</time></trkpt><trkpt lat="40.4788695" lon="17.2282654"><ele>6.5</ele><time>2026-03-29T07:26:50.972Z</time></trkpt><trkpt lat="40.478925" lon="17.2281872"><ele>6.333333333333334</ele><time>2026-03-29T07:26:51.97Z</time></trkpt><trkpt lat="40.4789721" lon="17.2281165"><ele>6.166666666666667</ele><time>2026-03-29T07:26:52.971Z</time></trkpt><trkpt lat="40.4790449" lon="17.227997"><ele>6.0</ele><time>2026-03-29T07:26:54.973Z</time></trkpt><trkpt lat="40.4791153" lon="17.2278859"><ele>6.0</ele><time>2026-03-29T07:26:56.97Z</time></trkpt><trkpt lat="40.4791826" lon="17.2277951"><ele>6.0</ele><time>2026-03-29T07:26:58.97Z</time></trkpt><trkpt lat="40.4792656" lon="17.2277166"><ele>6.0</ele><time>2026-03-29T07:27:00.971Z</time></trkpt><trkpt lat="40.479337" lon="17.2276087"><ele>6.0</ele><time>2026-03-29T07:27:02.972Z</time></trkpt><trkpt lat="40.4793958" lon="17.2274492"><ele>6.0</ele><time>2026-03-29T07:27:04.971Z</time></trkpt><trkpt lat="40.4794376" lon="17.2273526"><ele>5.666666666666667</ele><time>2026-03-29T07:27:05.97Z</time></trkpt><trkpt lat="40.4794828" lon="17.2272688"><ele>5.333333333333333</ele><time>2026-03-29T07:27:06.971Z</time></trkpt><trkpt lat="40.4795426" lon="17.227201"><ele>5.0</ele><time>2026-03-29T07:27:07.969Z</time></trkpt><trkpt lat="40.4796134" lon="17.2271499"><ele>4.666666666666666</ele><time>2026-03-29T07:27:08.971Z</time></trkpt><trkpt lat="40.4796876" lon="17.2270942"><ele>4.333333333333333</ele><time>2026-03-29T07:27:09.97Z</time></trkpt><trkpt lat="40.4797633" lon="17.227041"><ele>4.0</ele><time>2026-03-29T07:27:10.97Z</time></trkpt><trkpt lat="40.4798402" lon="17.2269895"><ele>3.333333333333333</ele><time>2026-03-29T07:27:11.97Z</time></trkpt><trkpt lat="40.4799151" lon="17.2269407"><ele>2.6666666666666665</ele><time>2026-03-29T07:27:12.97Z</time></trkpt><trkpt lat="40.4799916" lon="17.2268895"><ele>2.0</ele><time>2026-03-29T07:27:13.97Z</time></trkpt><trkpt lat="40.4800703" lon="17.2268362"><ele>1.3333333333333333</ele><time>2026-03-29T07:27:14.97Z</time></trkpt><trkpt lat="40.4801508" lon="17.2267809"><ele>0.6666666666666666</ele><time>2026-03-29T07:27:15.974Z</time></trkpt><trkpt lat="40.4802354" lon="17.2267199"><ele>0.0</ele><time>2026-03-29T07:27:16.973Z</time></trkpt><trkpt lat="40.4803237" lon="17.2266565"><ele>0.0</ele><time>2026-03-29T07:27:17.974Z</time></trkpt><trkpt lat="40.4804125" lon="17.2265943"><ele>0.0</ele><time>2026-03-29T07:27:18.969Z</time></trkpt><trkpt lat="40.4804982" lon="17.2265339"><ele>0.0</ele><time>2026-03-29T07:27:19.971Z</time></trkpt><trkpt lat="40.4805772" lon="17.226477"><ele>0.0</ele><time>2026-03-29T07:27:20.97Z</time></trkpt><trkpt lat="40.4806493" lon="17.2264238"><ele>0.0</ele><time>2026-03-29T07:27:21.971Z</time></trkpt><trkpt lat="40.4807135" lon="17.2263767"><ele>0.0</ele><time>2026-03-29T07:27:22.971Z</time></trkpt><trkpt lat="40.4807703" lon="17.226338"><ele>0.2</ele><time>2026-03-29T07:27:23.971Z</time></trkpt><trkpt lat="40.4808635" lon="17.2262751"><ele>0.4</ele><time>2026-03-29T07:27:25.97Z</time></trkpt><trkpt lat="40.4809471" lon="17.2262471"><ele>0.6000000000000001</ele><time>2026-03-29T07:27:27.97Z</time></trkpt><trkpt lat="40.4810248" lon="17.2262903"><ele>0.8</ele><time>2026-03-29T07:27:29.971Z</time></trkpt><trkpt lat="40.4810501" lon="17.2264188"><ele>1.0</ele><time>2026-03-29T07:27:31.971Z</time></trkpt><trkpt lat="40.4810402" lon="17.2265208"><ele>0.9999999999999999</ele><time>2026-03-29T07:27:32.971Z</time></trkpt><trkpt lat="40.4810307" lon="17.2266306"><ele>1.0</ele><time>2026-03-29T07:27:33.971Z</time></trkpt><trkpt lat="40.4810221" lon="17.2267374"><ele>1.0</ele><time>2026-03-29T07:27:34.97Z</time></trkpt><trkpt lat="40.4810165" lon="17.2268402"><ele>1.0</ele><time>2026-03-29T07:27:35.97Z</time></trkpt><trkpt lat="40.4810127" lon="17.2269459"><ele>0.9999999999999999</ele><time>2026-03-29T07:27:36.972Z</time></trkpt><trkpt lat="40.4810076" lon="17.2270505"><ele>1.0</ele><time>2026-03-29T07:27:37.972Z</time></trkpt><trkpt lat="40.4810011" lon="17.2271528"><ele>1.0</ele><time>2026-03-29T07:27:38.972Z</time></trkpt><trkpt lat="40.480993" lon="17.2272571"><ele>1.0</ele><time>2026-03-29T07:27:39.971Z</time></trkpt><trkpt lat="40.4809886" lon="17.2273574"><ele>1.0</ele><time>2026-03-29T07:27:40.971Z</time></trkpt><trkpt lat="40.480993" lon="17.2274459"><ele>1.0</ele><time>2026-03-29T07:27:41.971Z</time></trkpt><trkpt lat="40.4810382" lon="17.2275888"><ele>1.0</ele><time>2026-03-29T07:27:43.97Z</time></trkpt><trkpt lat="40.4811525" lon="17.2276511"><ele>0.9999999999999999</ele><time>2026-03-29T07:27:45.971Z</time></trkpt><trkpt lat="40.4812258" lon="17.2276534"><ele>1.0</ele><time>2026-03-29T07:27:46.971Z</time></trkpt><trkpt lat="40.4813082" lon="17.2276487"><ele>1.0</ele><time>2026-03-29T07:27:47.971Z</time></trkpt><trkpt lat="40.4814001" lon="17.2276384"><ele>1.0</ele><time>2026-03-29T07:27:48.971Z</time></trkpt><trkpt lat="40.4814915" lon="17.227631"><ele>0.9999999999999999</ele><time>2026-03-29T07:27:49.971Z</time></trkpt><trkpt lat="40.4815872" lon="17.2276205"><ele>1.0</ele><time>2026-03-29T07:27:50.971Z</time></trkpt><trkpt lat="40.4816866" lon="17.2276101"><ele>1.1666666666666665</ele><time>2026-03-29T07:27:51.971Z</time></trkpt><trkpt lat="40.4817817" lon="17.2276062"><ele>1.3333333333333333</ele><time>2026-03-29T07:27:52.971Z</time></trkpt><trkpt lat="40.4818714" lon="17.2276032"><ele>1.5</ele><time>2026-03-29T07:27:53.973Z</time></trkpt><trkpt lat="40.4819578" lon="17.2275975"><ele>1.6666666666666665</ele><time>2026-03-29T07:27:54.971Z</time></trkpt><trkpt lat="40.482043" lon="17.227591"><ele>1.8333333333333333</ele><time>2026-03-29T07:27:55.975Z</time></trkpt><trkpt lat="40.4821291" lon="17.2275851"><ele>2.0</ele><time>2026-03-29T07:27:56.971Z</time></trkpt><trkpt lat="40.4822207" lon="17.2275778"><ele>2.8</ele><time>2026-03-29T07:27:57.971Z</time></trkpt><trkpt lat="40.4823156" lon="17.2275735"><ele>3.6</ele><time>2026-03-29T07:27:58.971Z</time></trkpt><trkpt lat="40.4824144" lon="17.2275663"><ele>4.3999999999999995</ele><time>2026-03-29T07:27:59.971Z</time></trkpt><trkpt lat="40.4825132" lon="17.2275564"><ele>5.2</ele><time>2026-03-29T07:28:00.972Z</time></trkpt><trkpt lat="40.4826128" lon="17.227547"><ele>6.0</ele><time>2026-03-29T07:28:01.971Z</time></trkpt><trkpt lat="40.4827141" lon="17.2275401"><ele>6.0</ele><time>2026-03-29T07:28:02.971Z</time></trkpt><trkpt lat="40.4828109" lon="17.2275351"><ele>6.0</ele><time>2026-03-29T07:28:03.972Z</time></trkpt><trkpt lat="40.4829042" lon="17.2275273"><ele>6.0</ele><time>2026-03-29T07:28:04.97Z</time></trkpt><trkpt lat="40.4829987" lon="17.227516"><ele>6.0</ele><time>2026-03-29T07:28:05.972Z</time></trkpt><trkpt lat="40.4830975" lon="17.2275085"><ele>6.0</ele><time>2026-03-29T07:28:06.971Z</time></trkpt><trkpt lat="40.4831992" lon="17.2275046"><ele>6.0</ele><time>2026-03-29T07:28:07.971Z</time></trkpt><trkpt lat="40.4832983" lon="17.2275041"><ele>6.0</ele><time>2026-03-29T07:28:08.971Z</time></trkpt><trkpt lat="40.4833902" lon="17.2275"><ele>6.0</ele><time>2026-03-29T07:28:09.971Z</time></trkpt><trkpt lat="40.48348" lon="17.2274968"><ele>6.0</ele><time>2026-03-29T07:28:10.971Z</time></trkpt><trkpt lat="40.4835654" lon="17.2274935"><ele>6.0</ele><time>2026-03-29T07:28:11.971Z</time></trkpt><trkpt lat="40.4836468" lon="17.2274899"><ele>6.0</ele><time>2026-03-29T07:28:12.971Z</time></trkpt><trkpt lat="40.4837291" lon="17.2274853"><ele>6.199999999999999</ele><time>2026-03-29T07:28:13.971Z</time></trkpt><trkpt lat="40.4838174" lon="17.2274804"><ele>6.3999999999999995</ele><time>2026-03-29T07:28:14.97Z</time></trkpt><trkpt lat="40.4839124" lon="17.2274759"><ele>6.6</ele><time>2026-03-29T07:28:15.97Z</time></trkpt><trkpt lat="40.4840136" lon="17.2274737"><ele>6.8</ele><time>2026-03-29T07:28:16.971Z</time></trkpt><trkpt lat="40.4841147" lon="17.2274656"><ele>7.0</ele><time>2026-03-29T07:28:17.973Z</time></trkpt><trkpt lat="40.4842121" lon="17.227459"><ele>7.000000000000001</ele><time>2026-03-29T07:28:18.971Z</time></trkpt><trkpt lat="40.4843032" lon="17.2274496"><ele>7.0</ele><time>2026-03-29T07:28:19.971Z</time></trkpt><trkpt lat="40.4843889" lon="17.2274434"><ele>7.0</ele><time>2026-03-29T07:28:20.97Z</time></trkpt><trkpt lat="40.4844732" lon="17.2274373"><ele>7.0</ele><time>2026-03-29T07:28:21.974Z</time></trkpt><trkpt lat="40.4845563" lon="17.2274274"><ele>7.000000000000001</ele><time>2026-03-29T07:28:22.971Z</time></trkpt><trkpt lat="40.4846415" lon="17.227423"><ele>7.0</ele><time>2026-03-29T07:28:23.971Z</time></trkpt><trkpt lat="40.484728" lon="17.2274206"><ele>7.666666666666667</ele><time>2026-03-29T07:28:24.971Z</time></trkpt><trkpt lat="40.4848163" lon="17.2274197"><ele>8.333333333333334</ele><time>2026-03-29T07:28:25.97Z</time></trkpt><trkpt lat="40.4849039" lon="17.2274221"><ele>9.0</ele><time>2026-03-29T07:28:26.971Z</time></trkpt><trkpt lat="40.4849875" lon="17.2274195"><ele>9.666666666666666</ele><time>2026-03-29T07:28:27.972Z</time></trkpt><trkpt lat="40.4850631" lon="17.2274176"><ele>10.333333333333332</ele><time>2026-03-29T07:28:28.971Z</time></trkpt><trkpt lat="40.4851331" lon="17.2274156"><ele>11.0</ele><time>2026-03-29T07:28:29.972Z</time></trkpt><trkpt lat="40.4852029" lon="17.2274108"><ele>11.0</ele><time>2026-03-29T07:28:30.97Z</time></trkpt><trkpt lat="40.4852706" lon="17.2274064"><ele>11.0</ele><time>2026-03-29T07:28:31.971Z</time></trkpt><trkpt lat="40.4853412" lon="17.2274008"><ele>11.0</ele><time>2026-03-29T07:28:32.971Z</time></trkpt><trkpt lat="40.4854139" lon="17.2273919"><ele>11.0</ele><time>2026-03-29T07:28:33.972Z</time></trkpt><trkpt lat="40.4854909" lon="17.2273851"><ele>11.0</ele><time>2026-03-29T07:28:34.97Z</time></trkpt><trkpt lat="40.4855734" lon="17.227377"><ele>11.0</ele><time>2026-03-29T07:28:35.972Z</time></trkpt><trkpt lat="40.4856597" lon="17.2273689"><ele>13.0</ele><time>2026-03-29T07:28:36.971Z</time></trkpt><trkpt lat="40.4857484" lon="17.2273678"><ele>15.0</ele><time>2026-03-29T07:28:37.971Z</time></trkpt><trkpt lat="40.4858346" lon="17.2273769"><ele>17.0</ele><time>2026-03-29T07:28:38.97Z</time></trkpt><trkpt lat="40.4859174" lon="17.2273852"><ele>19.0</ele><time>2026-03-29T07:28:39.971Z</time></trkpt><trkpt lat="40.485999" lon="17.2273998"><ele>21.0</ele><time>2026-03-29T07:28:40.97Z</time></trkpt><trkpt lat="40.4860771" lon="17.227393"><ele>23.0</ele><time>2026-03-29T07:28:41.97Z</time></trkpt><trkpt lat="40.4861453" lon="17.227381"><ele>23.799999999999997</ele><time>2026-03-29T07:28:42.971Z</time></trkpt><trkpt lat="40.4862659" lon="17.227336"><ele>24.6</ele><time>2026-03-29T07:28:44.973Z</time></trkpt><trkpt lat="40.4863845" lon="17.2273544"><ele>25.400000000000002</ele><time>2026-03-29T07:28:46.974Z</time></trkpt><trkpt lat="40.4864836" lon="17.2274199"><ele>26.200000000000003</ele><time>2026-03-29T07:28:48.971Z</time></trkpt><trkpt lat="40.4865606" lon="17.2274683"><ele>27.0</ele><time>2026-03-29T07:28:50.971Z</time></trkpt><trkpt lat="40.4866596" lon="17.2274253"><ele>27.0</ele><time>2026-03-29T07:28:53.971Z</time></trkpt><trkpt lat="40.4867618" lon="17.2273555"><ele>27.000000000000004</ele><time>2026-03-29T07:28:55.971Z</time></trkpt><trkpt lat="40.486874" lon="17.2273259"><ele>27.000000000000004</ele><time>2026-03-29T07:28:57.971Z</time></trkpt><trkpt lat="40.4869388" lon="17.2273326"><ele>27.0</ele><time>2026-03-29T07:28:58.971Z</time></trkpt><trkpt lat="40.4870497" lon="17.2273592"><ele>27.0</ele><time>2026-03-29T07:29:00.971Z</time></trkpt><trkpt lat="40.4871536" lon="17.227384"><ele>26.5</ele><time>2026-03-29T07:29:02.971Z</time></trkpt><trkpt lat="40.4872562" lon="17.2274026"><ele>26.0</ele><time>2026-03-29T07:29:04.971Z</time></trkpt><trkpt lat="40.4873438" lon="17.2274087"><ele>25.5</ele><time>2026-03-29T07:29:06.97Z</time></trkpt><trkpt lat="40.4874497" lon="17.227433"><ele>25.0</ele><time>2026-03-29T07:29:08.971Z</time></trkpt><trkpt lat="40.4875117" lon="17.2274504"><ele>24.5</ele><time>2026-03-29T07:29:09.971Z</time></trkpt><trkpt lat="40.4875766" lon="17.2274646"><ele>24.0</ele><time>2026-03-29T07:29:10.969Z</time></trkpt><trkpt lat="40.4876471" lon="17.2274761"><ele>24.0</ele><time>2026-03-29T07:29:11.971Z</time></trkpt><trkpt lat="40.487722" lon="17.2274934"><ele>24.0</ele><time>2026-03-29T07:29:12.971Z</time></trkpt><trkpt lat="40.4877966" lon="17.2275099"><ele>24.0</ele><time>2026-03-29T07:29:13.973Z</time></trkpt><trkpt lat="40.487867" lon="17.2275265"><ele>24.0</ele><time>2026-03-29T07:29:14.971Z</time></trkpt><trkpt lat="40.487934" lon="17.2275365"><ele>24.0</ele><time>2026-03-29T07:29:15.971Z</time></trkpt><trkpt lat="40.4880441" lon="17.2275495"><ele>24.0</ele><time>2026-03-29T07:29:17.971Z</time></trkpt><trkpt lat="40.4881604" lon="17.2275184"><ele>23.857142857142854</ele><time>2026-03-29T07:29:19.971Z</time></trkpt><trkpt lat="40.4882291" lon="17.2274999"><ele>23.714285714285715</ele><time>2026-03-29T07:29:20.971Z</time></trkpt><trkpt lat="40.4882993" lon="17.2274921"><ele>23.57142857142857</ele><time>2026-03-29T07:29:21.972Z</time></trkpt><trkpt lat="40.4883719" lon="17.2274885"><ele>23.428571428571427</ele><time>2026-03-29T07:29:22.972Z</time></trkpt><trkpt lat="40.4884432" lon="17.2274812"><ele>23.285714285714285</ele><time>2026-03-29T07:29:23.971Z</time></trkpt><trkpt lat="40.4885141" lon="17.2274711"><ele>23.142857142857142</ele><time>2026-03-29T07:29:24.97Z</time></trkpt><trkpt lat="40.4885887" lon="17.2274565"><ele>23.0</ele><time>2026-03-29T07:29:25.971Z</time></trkpt><trkpt lat="40.4886589" lon="17.2274416"><ele>23.0</ele><time>2026-03-29T07:29:26.973Z</time></trkpt><trkpt lat="40.4887334" lon="17.2274309"><ele>23.0</ele><time>2026-03-29T07:29:27.971Z</time></trkpt><trkpt lat="40.4887997" lon="17.2274227"><ele>23.0</ele><time>2026-03-29T07:29:28.971Z</time></trkpt><trkpt lat="40.4888954" lon="17.2274094"><ele>23.0</ele><time>2026-03-29T07:29:30.971Z</time></trkpt><trkpt lat="40.4889564" lon="17.227381"><ele>23.0</ele><time>2026-03-29T07:29:34.97Z</time></trkpt><trkpt lat="40.4890172" lon="17.2273557"><ele>23.0</ele><time>2026-03-29T07:29:36.971Z</time></trkpt><trkpt lat="40.4890868" lon="17.2273372"><ele>23.0</ele><time>2026-03-29T07:29:38.971Z</time></trkpt><trkpt lat="40.4891919" lon="17.227323"><ele>22.666666666666668</ele><time>2026-03-29T07:29:40.971Z</time></trkpt><trkpt lat="40.4892593" lon="17.2273223"><ele>22.333333333333336</ele><time>2026-03-29T07:29:41.972Z</time></trkpt><trkpt lat="40.4893301" lon="17.2273142"><ele>22.0</ele><time>2026-03-29T07:29:42.973Z</time></trkpt><trkpt lat="40.4894067" lon="17.2273036"><ele>21.666666666666668</ele><time>2026-03-29T07:29:43.97Z</time></trkpt><trkpt lat="40.4894866" lon="17.2272914"><ele>21.333333333333332</ele><time>2026-03-29T07:29:44.971Z</time></trkpt><trkpt lat="40.4895713" lon="17.2272725"><ele>21.0</ele><time>2026-03-29T07:29:45.97Z</time></trkpt><trkpt lat="40.4896551" lon="17.2272522"><ele>20.6</ele><time>2026-03-29T07:29:46.97Z</time></trkpt><trkpt lat="40.489747" lon="17.2272326"><ele>20.200000000000003</ele><time>2026-03-29T07:29:47.973Z</time></trkpt><trkpt lat="40.4898507" lon="17.2272146"><ele>19.799999999999997</ele><time>2026-03-29T07:29:48.973Z</time></trkpt><trkpt lat="40.4899579" lon="17.2271992"><ele>19.4</ele><time>2026-03-29T07:29:49.971Z</time></trkpt><trkpt lat="40.4900641" lon="17.2271809"><ele>19.0</ele><time>2026-03-29T07:29:50.971Z</time></trkpt><trkpt lat="40.4901671" lon="17.2271567"><ele>19.0</ele><time>2026-03-29T07:29:51.97Z</time></trkpt><trkpt lat="40.490267" lon="17.2271296"><ele>19.0</ele><time>2026-03-29T07:29:52.972Z</time></trkpt><trkpt lat="40.4903638" lon="17.2270997"><ele>19.0</ele><time>2026-03-29T07:29:53.971Z</time></trkpt><trkpt lat="40.4904563" lon="17.2270723"><ele>19.0</ele><time>2026-03-29T07:29:54.97Z</time></trkpt><trkpt lat="40.4905447" lon="17.2270524"><ele>19.0</ele><time>2026-03-29T07:29:55.971Z</time></trkpt><trkpt lat="40.4906315" lon="17.227035"><ele>19.4</ele><time>2026-03-29T07:29:56.971Z</time></trkpt><trkpt lat="40.4907209" lon="17.2270147"><ele>19.799999999999997</ele><time>2026-03-29T07:29:57.971Z</time></trkpt><trkpt lat="40.4908152" lon="17.2270008"><ele>20.200000000000003</ele><time>2026-03-29T07:29:58.971Z</time></trkpt><trkpt lat="40.490908" lon="17.2269774"><ele>20.6</ele><time>2026-03-29T07:29:59.971Z</time></trkpt><trkpt lat="40.4909984" lon="17.226949"><ele>21.0</ele><time>2026-03-29T07:30:00.971Z</time></trkpt><trkpt lat="40.4910832" lon="17.2269243"><ele>21.0</ele><time>2026-03-29T07:30:01.971Z</time></trkpt><trkpt lat="40.4911544" lon="17.2268877"><ele>21.0</ele><time>2026-03-29T07:30:02.972Z</time></trkpt><trkpt lat="40.4912213" lon="17.2268557"><ele>21.0</ele><time>2026-03-29T07:30:03.971Z</time></trkpt><trkpt lat="40.4912956" lon="17.2268325"><ele>21.0</ele><time>2026-03-29T07:30:04.971Z</time></trkpt><trkpt lat="40.4913797" lon="17.2268139"><ele>21.0</ele><time>2026-03-29T07:30:05.971Z</time></trkpt><trkpt lat="40.4914736" lon="17.2267944"><ele>21.0</ele><time>2026-03-29T07:30:06.971Z</time></trkpt><trkpt lat="40.491568" lon="17.2267773"><ele>20.833333333333332</ele><time>2026-03-29T07:30:07.971Z</time></trkpt><trkpt lat="40.4916561" lon="17.2267506"><ele>20.666666666666668</ele><time>2026-03-29T07:30:08.97Z</time></trkpt><trkpt lat="40.4917332" lon="17.2267258"><ele>20.5</ele><time>2026-03-29T07:30:09.971Z</time></trkpt><trkpt lat="40.4918044" lon="17.2267057"><ele>20.333333333333336</ele><time>2026-03-29T07:30:10.971Z</time></trkpt><trkpt lat="40.4918728" lon="17.2266855"><ele>20.166666666666668</ele><time>2026-03-29T07:30:11.972Z</time></trkpt><trkpt lat="40.4919503" lon="17.2266612"><ele>20.0</ele><time>2026-03-29T07:30:12.971Z</time></trkpt><trkpt lat="40.492033" lon="17.2266372"><ele>19.8</ele><time>2026-03-29T07:30:13.971Z</time></trkpt><trkpt lat="40.492122" lon="17.2266132"><ele>19.6</ele><time>2026-03-29T07:30:14.97Z</time></trkpt><trkpt lat="40.4922163" lon="17.2265915"><ele>19.4</ele><time>2026-03-29T07:30:15.971Z</time></trkpt><trkpt lat="40.4923145" lon="17.2265686"><ele>19.2</ele><time>2026-03-29T07:30:16.973Z</time></trkpt><trkpt lat="40.492416" lon="17.2265463"><ele>19.0</ele><time>2026-03-29T07:30:17.971Z</time></trkpt><trkpt lat="40.4925198" lon="17.2265226"><ele>19.0</ele><time>2026-03-29T07:30:18.971Z</time></trkpt><trkpt lat="40.4926236" lon="17.2264965"><ele>19.0</ele><time>2026-03-29T07:30:19.972Z</time></trkpt><trkpt lat="40.4927297" lon="17.2264725"><ele>19.0</ele><time>2026-03-29T07:30:20.972Z</time></trkpt><trkpt lat="40.4928365" lon="17.2264452"><ele>19.0</ele><time>2026-03-29T07:30:21.971Z</time></trkpt><trkpt lat="40.4929422" lon="17.2264185"><ele>19.0</ele><time>2026-03-29T07:30:22.97Z</time></trkpt><trkpt lat="40.4930434" lon="17.2263935"><ele>19.2</ele><time>2026-03-29T07:30:23.97Z</time></trkpt><trkpt lat="40.4931435" lon="17.2263687"><ele>19.4</ele><time>2026-03-29T07:30:24.971Z</time></trkpt><trkpt lat="40.4932434" lon="17.2263424"><ele>19.6</ele><time>2026-03-29T07:30:25.975Z</time></trkpt><trkpt lat="40.4933428" lon="17.2263182"><ele>19.8</ele><time>2026-03-29T07:30:26.972Z</time></trkpt><trkpt lat="40.49344" lon="17.2262939"><ele>20.0</ele><time>2026-03-29T07:30:27.973Z</time></trkpt><trkpt lat="40.4935391" lon="17.2262744"><ele>20.0</ele><time>2026-03-29T07:30:28.971Z</time></trkpt><trkpt lat="40.4936393" lon="17.2262505"><ele>20.0</ele><time>2026-03-29T07:30:29.972Z</time></trkpt><trkpt lat="40.4937398" lon="17.2262244"><ele>20.0</ele><time>2026-03-29T07:30:30.972Z</time></trkpt><trkpt lat="40.4938372" lon="17.2262021"><ele>20.0</ele><time>2026-03-29T07:30:31.971Z</time></trkpt><trkpt lat="40.4939239" lon="17.2261849"><ele>20.0</ele><time>2026-03-29T07:30:32.971Z</time></trkpt><trkpt lat="40.4940007" lon="17.2261746"><ele>20.2</ele><time>2026-03-29T07:30:33.971Z</time></trkpt><trkpt lat="40.4940705" lon="17.2261771"><ele>20.4</ele><time>2026-03-29T07:30:34.971Z</time></trkpt><trkpt lat="40.4941874" lon="17.2262153"><ele>20.6</ele><time>2026-03-29T07:30:36.971Z</time></trkpt><trkpt lat="40.494295" lon="17.2262714"><ele>20.8</ele><time>2026-03-29T07:30:38.971Z</time></trkpt><trkpt lat="40.4944034" lon="17.2262997"><ele>21.0</ele><time>2026-03-29T07:30:40.972Z</time></trkpt><trkpt lat="40.4944917" lon="17.2262324"><ele>21.0</ele><time>2026-03-29T07:30:42.971Z</time></trkpt><trkpt lat="40.4945415" lon="17.2261693"><ele>21.0</ele><time>2026-03-29T07:30:43.97Z</time></trkpt><trkpt lat="40.494605" lon="17.2261034"><ele>21.0</ele><time>2026-03-29T07:30:44.971Z</time></trkpt><trkpt lat="40.4946894" lon="17.2260492"><ele>21.0</ele><time>2026-03-29T07:30:45.972Z</time></trkpt><trkpt lat="40.4947961" lon="17.2260068"><ele>21.0</ele><time>2026-03-29T07:30:46.972Z</time></trkpt><trkpt lat="40.4949158" lon="17.2259725"><ele>20.5</ele><time>2026-03-29T07:30:47.972Z</time></trkpt><trkpt lat="40.495045" lon="17.2259426"><ele>20.0</ele><time>2026-03-29T07:30:48.972Z</time></trkpt><trkpt lat="40.4951691" lon="17.2259148"><ele>19.5</ele><time>2026-03-29T07:30:49.972Z</time></trkpt><trkpt lat="40.4952909" lon="17.2258864"><ele>19.0</ele><time>2026-03-29T07:30:50.97Z</time></trkpt><trkpt lat="40.4954127" lon="17.2258571"><ele>18.75</ele><time>2026-03-29T07:30:51.971Z</time></trkpt><trkpt lat="40.4955315" lon="17.2258317"><ele>18.5</ele><time>2026-03-29T07:30:52.971Z</time></trkpt><trkpt lat="40.495653" lon="17.2258078"><ele>18.25</ele><time>2026-03-29T07:30:53.971Z</time></trkpt><trkpt lat="40.4957664" lon="17.2257808"><ele>18.0</ele><time>2026-03-29T07:30:54.971Z</time></trkpt><trkpt lat="40.4958739" lon="17.2257539"><ele>18.0</ele><time>2026-03-29T07:30:55.97Z</time></trkpt><trkpt lat="40.4959815" lon="17.2257248"><ele>18.0</ele><time>2026-03-29T07:30:56.971Z</time></trkpt><trkpt lat="40.4960919" lon="17.2256976"><ele>18.0</ele><time>2026-03-29T07:30:57.971Z</time></trkpt><trkpt lat="40.496205" lon="17.2256724"><ele>18.0</ele><time>2026-03-29T07:30:58.972Z</time></trkpt><trkpt lat="40.4963202" lon="17.2256465"><ele>19.0</ele><time>2026-03-29T07:30:59.971Z</time></trkpt><trkpt lat="40.4964397" lon="17.2256248"><ele>20.0</ele><time>2026-03-29T07:31:00.971Z</time></trkpt><trkpt lat="40.4965574" lon="17.2256006"><ele>21.0</ele><time>2026-03-29T07:31:01.974Z</time></trkpt><trkpt lat="40.4966756" lon="17.2255758"><ele>22.0</ele><time>2026-03-29T07:31:02.971Z</time></trkpt><trkpt lat="40.4967903" lon="17.2255477"><ele>22.0</ele><time>2026-03-29T07:31:03.971Z</time></trkpt><trkpt lat="40.4969016" lon="17.225519"><ele>22.0</ele><time>2026-03-29T07:31:04.971Z</time></trkpt><trkpt lat="40.4970132" lon="17.2254882"><ele>22.0</ele><time>2026-03-29T07:31:05.973Z</time></trkpt><trkpt lat="40.4971268" lon="17.2254546"><ele>22.0</ele><time>2026-03-29T07:31:06.972Z</time></trkpt><trkpt lat="40.4972424" lon="17.2254223"><ele>20.75</ele><time>2026-03-29T07:31:07.971Z</time></trkpt><trkpt lat="40.4973553" lon="17.2253928"><ele>19.5</ele><time>2026-03-29T07:31:08.971Z</time></trkpt><trkpt lat="40.4974683" lon="17.2253652"><ele>18.25</ele><time>2026-03-29T07:31:09.972Z</time></trkpt><trkpt lat="40.497583" lon="17.2253396"><ele>17.0</ele><time>2026-03-29T07:31:10.97Z</time></trkpt><trkpt lat="40.4976955" lon="17.2253008"><ele>17.0</ele><time>2026-03-29T07:31:11.971Z</time></trkpt><trkpt lat="40.4978116" lon="17.2252691"><ele>17.0</ele><time>2026-03-29T07:31:12.971Z</time></trkpt><trkpt lat="40.4979258" lon="17.2252408"><ele>17.0</ele><time>2026-03-29T07:31:13.971Z</time></trkpt><trkpt lat="40.4980385" lon="17.2252119"><ele>17.0</ele><time>2026-03-29T07:31:14.971Z</time></trkpt><trkpt lat="40.4981534" lon="17.2251834"><ele>16.25</ele><time>2026-03-29T07:31:15.972Z</time></trkpt><trkpt lat="40.4982703" lon="17.2251556"><ele>15.5</ele><time>2026-03-29T07:31:16.973Z</time></trkpt><trkpt lat="40.4983897" lon="17.2251281"><ele>14.75</ele><time>2026-03-29T07:31:17.971Z</time></trkpt><trkpt lat="40.4985069" lon="17.2250939"><ele>14.0</ele><time>2026-03-29T07:31:18.972Z</time></trkpt><trkpt lat="40.4986221" lon="17.2250585"><ele>14.0</ele><time>2026-03-29T07:31:19.97Z</time></trkpt><trkpt lat="40.4987341" lon="17.2250258"><ele>14.0</ele><time>2026-03-29T07:31:20.972Z</time></trkpt><trkpt lat="40.4988427" lon="17.2249929"><ele>14.0</ele><time>2026-03-29T07:31:21.971Z</time></trkpt><trkpt lat="40.4989531" lon="17.224961"><ele>14.0</ele><time>2026-03-29T07:31:22.973Z</time></trkpt><trkpt lat="40.499063" lon="17.224925"><ele>14.0</ele><time>2026-03-29T07:31:23.973Z</time></trkpt><trkpt lat="40.4991721" lon="17.2248882"><ele>14.0</ele><time>2026-03-29T07:31:24.969Z</time></trkpt><trkpt lat="40.4992812" lon="17.22485"><ele>14.0</ele><time>2026-03-29T07:31:25.97Z</time></trkpt><trkpt lat="40.499391" lon="17.2248121"><ele>14.0</ele><time>2026-03-29T07:31:26.971Z</time></trkpt><trkpt lat="40.4994998" lon="17.2247789"><ele>14.0</ele><time>2026-03-29T07:31:27.971Z</time></trkpt><trkpt lat="40.4996069" lon="17.2247513"><ele>13.999999999999998</ele><time>2026-03-29T07:31:28.97Z</time></trkpt><trkpt lat="40.4997124" lon="17.2247322"><ele>13.999999999999998</ele><time>2026-03-29T07:31:29.971Z</time></trkpt><trkpt lat="40.4998174" lon="17.2247146"><ele>14.0</ele><time>2026-03-29T07:31:30.971Z</time></trkpt><trkpt lat="40.4999214" lon="17.224697"><ele>14.0</ele><time>2026-03-29T07:31:31.971Z</time></trkpt><trkpt lat="40.5000245" lon="17.2246789"><ele>14.0</ele><time>2026-03-29T07:31:32.969Z</time></trkpt><trkpt lat="40.5001264" lon="17.2246595"><ele>13.999999999999998</ele><time>2026-03-29T07:31:33.97Z</time></trkpt><trkpt lat="40.5002326" lon="17.2246396"><ele>13.999999999999998</ele><time>2026-03-29T07:31:34.971Z</time></trkpt><trkpt lat="40.500342" lon="17.2246153"><ele>14.0</ele><time>2026-03-29T07:31:35.97Z</time></trkpt><trkpt lat="40.5004525" lon="17.2245885"><ele>14.0</ele><time>2026-03-29T07:31:36.971Z</time></trkpt><trkpt lat="40.5005629" lon="17.2245576"><ele>15.0</ele><time>2026-03-29T07:31:37.97Z</time></trkpt><trkpt lat="40.5006744" lon="17.2245274"><ele>16.0</ele><time>2026-03-29T07:31:38.97Z</time></trkpt><trkpt lat="40.5007863" lon="17.2244988"><ele>17.0</ele><time>2026-03-29T07:31:39.97Z</time></trkpt><trkpt lat="40.5008967" lon="17.2244692"><ele>18.0</ele><time>2026-03-29T07:31:40.97Z</time></trkpt><trkpt lat="40.5010065" lon="17.2244378"><ele>18.0</ele><time>2026-03-29T07:31:41.97Z</time></trkpt><trkpt lat="40.5011135" lon="17.2244075"><ele>18.0</ele><time>2026-03-29T07:31:42.97Z</time></trkpt><trkpt lat="40.5012213" lon="17.2243801"><ele>18.0</ele><time>2026-03-29T07:31:43.971Z</time></trkpt><trkpt lat="40.5013282" lon="17.2243524"><ele>18.0</ele><time>2026-03-29T07:31:44.97Z</time></trkpt><trkpt lat="40.5014371" lon="17.2243269"><ele>18.0</ele><time>2026-03-29T07:31:45.972Z</time></trkpt><trkpt lat="40.501544" lon="17.224301"><ele>17.8</ele><time>2026-03-29T07:31:46.971Z</time></trkpt><trkpt lat="40.5016494" lon="17.2242752"><ele>17.6</ele><time>2026-03-29T07:31:47.971Z</time></trkpt><trkpt lat="40.5017532" lon="17.2242506"><ele>17.4</ele><time>2026-03-29T07:31:48.971Z</time></trkpt><trkpt lat="40.501859" lon="17.224223"><ele>17.2</ele><time>2026-03-29T07:31:49.971Z</time></trkpt><trkpt lat="40.5019671" lon="17.2241959"><ele>17.0</ele><time>2026-03-29T07:31:50.971Z</time></trkpt><trkpt lat="40.5020758" lon="17.2241664"><ele>16.0</ele><time>2026-03-29T07:31:51.971Z</time></trkpt><trkpt lat="40.5021847" lon="17.2241373"><ele>15.0</ele><time>2026-03-29T07:31:52.97Z</time></trkpt><trkpt lat="40.502295" lon="17.224109"><ele>14.0</ele><time>2026-03-29T07:31:53.97Z</time></trkpt><trkpt lat="40.5024054" lon="17.2240825"><ele>13.0</ele><time>2026-03-29T07:31:54.971Z</time></trkpt><trkpt lat="40.5025182" lon="17.2240563"><ele>13.0</ele><time>2026-03-29T07:31:55.971Z</time></trkpt><trkpt lat="40.5026316" lon="17.2240269"><ele>13.0</ele><time>2026-03-29T07:31:56.971Z</time></trkpt><trkpt lat="40.5027461" lon="17.2239941"><ele>13.0</ele><time>2026-03-29T07:31:57.969Z</time></trkpt><trkpt lat="40.5028622" lon="17.2239645"><ele>13.0</ele><time>2026-03-29T07:31:58.97Z</time></trkpt><trkpt lat="40.5029764" lon="17.2239336"><ele>14.25</ele><time>2026-03-29T07:31:59.97Z</time></trkpt><trkpt lat="40.5030897" lon="17.2239019"><ele>15.5</ele><time>2026-03-29T07:32:00.97Z</time></trkpt><trkpt lat="40.5032003" lon="17.2238703"><ele>16.75</ele><time>2026-03-29T07:32:01.971Z</time></trkpt><trkpt lat="40.5033101" lon="17.2238399"><ele>18.0</ele><time>2026-03-29T07:32:02.97Z</time></trkpt><trkpt lat="40.5034173" lon="17.22381"><ele>18.0</ele><time>2026-03-29T07:32:03.97Z</time></trkpt><trkpt lat="40.5035226" lon="17.2237817"><ele>18.0</ele><time>2026-03-29T07:32:04.97Z</time></trkpt><trkpt lat="40.5036273" lon="17.2237508"><ele>18.0</ele><time>2026-03-29T07:32:05.972Z</time></trkpt><trkpt lat="40.5037317" lon="17.2237222"><ele>18.0</ele><time>2026-03-29T07:32:06.971Z</time></trkpt><trkpt lat="40.5038337" lon="17.2236934"><ele>18.0</ele><time>2026-03-29T07:32:07.971Z</time></trkpt><trkpt lat="40.503934" lon="17.2236663"><ele>18.0</ele><time>2026-03-29T07:32:08.971Z</time></trkpt><trkpt lat="40.5040337" lon="17.2236413"><ele>18.0</ele><time>2026-03-29T07:32:09.972Z</time></trkpt><trkpt lat="40.5041321" lon="17.2236175"><ele>18.0</ele><time>2026-03-29T07:32:10.97Z</time></trkpt><trkpt lat="40.5042303" lon="17.2235912"><ele>18.0</ele><time>2026-03-29T07:32:11.971Z</time></trkpt><trkpt lat="40.5043273" lon="17.2235652"><ele>18.0</ele><time>2026-03-29T07:32:12.97Z</time></trkpt><trkpt lat="40.5044254" lon="17.2235421"><ele>18.0</ele><time>2026-03-29T07:32:13.972Z</time></trkpt><trkpt lat="40.5045244" lon="17.2235179"><ele>18.0</ele><time>2026-03-29T07:32:14.97Z</time></trkpt><trkpt lat="40.504623" lon="17.2234914"><ele>18.0</ele><time>2026-03-29T07:32:15.973Z</time></trkpt><trkpt lat="40.5047227" lon="17.2234671"><ele>18.0</ele><time>2026-03-29T07:32:16.973Z</time></trkpt><trkpt lat="40.5048257" lon="17.2234426"><ele>18.0</ele><time>2026-03-29T07:32:17.97Z</time></trkpt><trkpt lat="40.5049293" lon="17.2234211"><ele>18.0</ele><time>2026-03-29T07:32:18.971Z</time></trkpt><trkpt lat="40.5050353" lon="17.2233961"><ele>18.0</ele><time>2026-03-29T07:32:19.972Z</time></trkpt><trkpt lat="40.5051446" lon="17.2233691"><ele>18.0</ele><time>2026-03-29T07:32:20.971Z</time></trkpt><trkpt lat="40.5052525" lon="17.2233433"><ele>18.0</ele><time>2026-03-29T07:32:21.971Z</time></trkpt><trkpt lat="40.505357" lon="17.2233223"><ele>18.0</ele><time>2026-03-29T07:32:22.971Z</time></trkpt><trkpt lat="40.5054604" lon="17.2233039"><ele>18.0</ele><time>2026-03-29T07:32:23.977Z</time></trkpt><trkpt lat="40.5055627" lon="17.2232835"><ele>18.0</ele><time>2026-03-29T07:32:24.97Z</time></trkpt><trkpt lat="40.5056663" lon="17.2232591"><ele>18.0</ele><time>2026-03-29T07:32:25.971Z</time></trkpt><trkpt lat="40.505772" lon="17.2232335"><ele>18.0</ele><time>2026-03-29T07:32:26.97Z</time></trkpt><trkpt lat="40.5058787" lon="17.2232034"><ele>18.0</ele><time>2026-03-29T07:32:27.97Z</time></trkpt><trkpt lat="40.5059872" lon="17.223176"><ele>18.0</ele><time>2026-03-29T07:32:28.97Z</time></trkpt><trkpt lat="40.5060958" lon="17.2231468"><ele>18.0</ele><time>2026-03-29T07:32:29.97Z</time></trkpt><trkpt lat="40.5062031" lon="17.2231183"><ele>18.0</ele><time>2026-03-29T07:32:30.97Z</time></trkpt><trkpt lat="40.5063112" lon="17.2230917"><ele>18.0</ele><time>2026-03-29T07:32:31.973Z</time></trkpt><trkpt lat="40.5064181" lon="17.2230651"><ele>18.0</ele><time>2026-03-29T07:32:32.97Z</time></trkpt><trkpt lat="40.5065231" lon="17.2230381"><ele>18.6</ele><time>2026-03-29T07:32:33.971Z</time></trkpt><trkpt lat="40.5066254" lon="17.2230109"><ele>19.200000000000003</ele><time>2026-03-29T07:32:34.969Z</time></trkpt><trkpt lat="40.5067271" lon="17.2229829"><ele>19.8</ele><time>2026-03-29T07:32:35.97Z</time></trkpt><trkpt lat="40.5068272" lon="17.2229542"><ele>20.400000000000002</ele><time>2026-03-29T07:32:36.97Z</time></trkpt><trkpt lat="40.506928" lon="17.2229258"><ele>21.0</ele><time>2026-03-29T07:32:37.971Z</time></trkpt><trkpt lat="40.5070306" lon="17.2228974"><ele>20.8</ele><time>2026-03-29T07:32:38.971Z</time></trkpt><trkpt lat="40.5071341" lon="17.2228703"><ele>20.6</ele><time>2026-03-29T07:32:39.972Z</time></trkpt><trkpt lat="40.5072379" lon="17.2228456"><ele>20.4</ele><time>2026-03-29T07:32:40.971Z</time></trkpt><trkpt lat="40.5073438" lon="17.2228202"><ele>20.2</ele><time>2026-03-29T07:32:41.971Z</time></trkpt><trkpt lat="40.5074577" lon="17.2227888"><ele>20.0</ele><time>2026-03-29T07:32:42.971Z</time></trkpt><trkpt lat="40.507579" lon="17.2227511"><ele>20.0</ele><time>2026-03-29T07:32:43.971Z</time></trkpt><trkpt lat="40.5076954" lon="17.2227142"><ele>20.0</ele><time>2026-03-29T07:32:44.971Z</time></trkpt><trkpt lat="40.5078056" lon="17.2226821"><ele>20.0</ele><time>2026-03-29T07:32:45.973Z</time></trkpt><trkpt lat="40.507911" lon="17.2226536"><ele>20.0</ele><time>2026-03-29T07:32:46.973Z</time></trkpt><trkpt lat="40.5080142" lon="17.2226262"><ele>20.0</ele><time>2026-03-29T07:32:47.97Z</time></trkpt><trkpt lat="40.5081201" lon="17.2225951"><ele>20.4</ele><time>2026-03-29T07:32:48.97Z</time></trkpt><trkpt lat="40.5082242" lon="17.2225655"><ele>20.8</ele><time>2026-03-29T07:32:49.971Z</time></trkpt><trkpt lat="40.5083292" lon="17.2225354"><ele>21.200000000000003</ele><time>2026-03-29T07:32:50.97Z</time></trkpt><trkpt lat="40.5084367" lon="17.2225048"><ele>21.6</ele><time>2026-03-29T07:32:51.971Z</time></trkpt><trkpt lat="40.5085453" lon="17.2224761"><ele>22.0</ele><time>2026-03-29T07:32:52.97Z</time></trkpt><trkpt lat="40.5086538" lon="17.2224459"><ele>22.0</ele><time>2026-03-29T07:32:53.97Z</time></trkpt><trkpt lat="40.5087622" lon="17.2224169"><ele>22.0</ele><time>2026-03-29T07:32:54.972Z</time></trkpt><trkpt lat="40.5088694" lon="17.2223849"><ele>22.0</ele><time>2026-03-29T07:32:55.971Z</time></trkpt><trkpt lat="40.5089773" lon="17.2223555"><ele>22.0</ele><time>2026-03-29T07:32:56.971Z</time></trkpt><trkpt lat="40.5090819" lon="17.222328"><ele>22.0</ele><time>2026-03-29T07:32:57.971Z</time></trkpt><trkpt lat="40.5091842" lon="17.2222966"><ele>22.8</ele><time>2026-03-29T07:32:58.969Z</time></trkpt><trkpt lat="40.5092887" lon="17.222266"><ele>23.6</ele><time>2026-03-29T07:32:59.971Z</time></trkpt><trkpt lat="40.5093921" lon="17.2222336"><ele>24.400000000000002</ele><time>2026-03-29T07:33:00.97Z</time></trkpt><trkpt lat="40.5094956" lon="17.2222006"><ele>25.200000000000003</ele><time>2026-03-29T07:33:01.97Z</time></trkpt><trkpt lat="40.5096005" lon="17.222165"><ele>26.0</ele><time>2026-03-29T07:33:02.97Z</time></trkpt><trkpt lat="40.509703" lon="17.2221305"><ele>26.0</ele><time>2026-03-29T07:33:03.971Z</time></trkpt><trkpt lat="40.5098087" lon="17.2220942"><ele>26.0</ele><time>2026-03-29T07:33:04.97Z</time></trkpt><trkpt lat="40.5099078" lon="17.2220651"><ele>26.0</ele><time>2026-03-29T07:33:05.973Z</time></trkpt><trkpt lat="40.5100051" lon="17.2220352"><ele>26.0</ele><time>2026-03-29T07:33:06.97Z</time></trkpt><trkpt lat="40.5101032" lon="17.2220075"><ele>26.0</ele><time>2026-03-29T07:33:07.971Z</time></trkpt><trkpt lat="40.5101976" lon="17.2219858"><ele>26.0</ele><time>2026-03-29T07:33:08.971Z</time></trkpt><trkpt lat="40.5102937" lon="17.2219619"><ele>26.0</ele><time>2026-03-29T07:33:09.97Z</time></trkpt><trkpt lat="40.5103935" lon="17.2219364"><ele>26.0</ele><time>2026-03-29T07:33:10.97Z</time></trkpt><trkpt lat="40.5104976" lon="17.2219099"><ele>26.0</ele><time>2026-03-29T07:33:11.971Z</time></trkpt><trkpt lat="40.5106012" lon="17.2218859"><ele>26.0</ele><time>2026-03-29T07:33:12.971Z</time></trkpt><trkpt lat="40.5107032" lon="17.2218597"><ele>25.0</ele><time>2026-03-29T07:33:13.972Z</time></trkpt><trkpt lat="40.5108094" lon="17.2218354"><ele>24.0</ele><time>2026-03-29T07:33:14.971Z</time></trkpt><trkpt lat="40.5109146" lon="17.221812"><ele>23.0</ele><time>2026-03-29T07:33:15.971Z</time></trkpt><trkpt lat="40.5110182" lon="17.2217876"><ele>22.0</ele><time>2026-03-29T07:33:16.97Z</time></trkpt><trkpt lat="40.5111206" lon="17.2217589"><ele>21.0</ele><time>2026-03-29T07:33:17.971Z</time></trkpt><trkpt lat="40.5112237" lon="17.2217377"><ele>21.0</ele><time>2026-03-29T07:33:18.97Z</time></trkpt><trkpt lat="40.5113228" lon="17.2217158"><ele>21.0</ele><time>2026-03-29T07:33:19.971Z</time></trkpt><trkpt lat="40.5114251" lon="17.2216963"><ele>21.0</ele><time>2026-03-29T07:33:20.971Z</time></trkpt><trkpt lat="40.5115243" lon="17.2216772"><ele>21.0</ele><time>2026-03-29T07:33:21.97Z</time></trkpt><trkpt lat="40.5116237" lon="17.2216561"><ele>21.0</ele><time>2026-03-29T07:33:22.973Z</time></trkpt><trkpt lat="40.5117234" lon="17.2216317"><ele>21.0</ele><time>2026-03-29T07:33:23.971Z</time></trkpt><trkpt lat="40.5118262" lon="17.2216078"><ele>21.0</ele><time>2026-03-29T07:33:24.971Z</time></trkpt><trkpt lat="40.5119314" lon="17.2215828"><ele>21.0</ele><time>2026-03-29T07:33:25.971Z</time></trkpt><trkpt lat="40.5120367" lon="17.2215578"><ele>21.0</ele><time>2026-03-29T07:33:26.97Z</time></trkpt><trkpt lat="40.5121407" lon="17.2215294"><ele>21.0</ele><time>2026-03-29T07:33:27.97Z</time></trkpt><trkpt lat="40.5122425" lon="17.2215027"><ele>21.0</ele><time>2026-03-29T07:33:28.97Z</time></trkpt><trkpt lat="40.5123438" lon="17.2214763"><ele>21.0</ele><time>2026-03-29T07:33:29.971Z</time></trkpt><trkpt lat="40.5124458" lon="17.2214513"><ele>21.0</ele><time>2026-03-29T07:33:30.971Z</time></trkpt><trkpt lat="40.5125488" lon="17.2214252"><ele>21.0</ele><time>2026-03-29T07:33:31.971Z</time></trkpt><trkpt lat="40.5126496" lon="17.221398"><ele>21.0</ele><time>2026-03-29T07:33:32.97Z</time></trkpt><trkpt lat="40.5127508" lon="17.2213701"><ele>21.0</ele><time>2026-03-29T07:33:33.97Z</time></trkpt><trkpt lat="40.5128554" lon="17.2213435"><ele>21.0</ele><time>2026-03-29T07:33:34.97Z</time></trkpt><trkpt lat="40.5129622" lon="17.2213178"><ele>21.0</ele><time>2026-03-29T07:33:35.97Z</time></trkpt><trkpt lat="40.513072" lon="17.2212913"><ele>21.0</ele><time>2026-03-29T07:33:36.971Z</time></trkpt><trkpt lat="40.5131794" lon="17.2212659"><ele>21.0</ele><time>2026-03-29T07:33:37.97Z</time></trkpt><trkpt lat="40.5132873" lon="17.2212396"><ele>21.0</ele><time>2026-03-29T07:33:38.971Z</time></trkpt><trkpt lat="40.5133927" lon="17.2212124"><ele>21.0</ele><time>2026-03-29T07:33:39.972Z</time></trkpt><trkpt lat="40.5134961" lon="17.2211858"><ele>21.0</ele><time>2026-03-29T07:33:40.969Z</time></trkpt><trkpt lat="40.5136008" lon="17.2211621"><ele>21.0</ele><time>2026-03-29T07:33:41.97Z</time></trkpt><trkpt lat="40.5137046" lon="17.2211387"><ele>21.0</ele><time>2026-03-29T07:33:42.971Z</time></trkpt><trkpt lat="40.5138092" lon="17.2211142"><ele>21.4</ele><time>2026-03-29T07:33:43.971Z</time></trkpt><trkpt lat="40.5139114" lon="17.2210894"><ele>21.8</ele><time>2026-03-29T07:33:44.97Z</time></trkpt><trkpt lat="40.5140159" lon="17.2210625"><ele>22.2</ele><time>2026-03-29T07:33:45.972Z</time></trkpt><trkpt lat="40.5141184" lon="17.2210345"><ele>22.599999999999998</ele><time>2026-03-29T07:33:46.973Z</time></trkpt><trkpt lat="40.514217" lon="17.2210041"><ele>23.0</ele><time>2026-03-29T07:33:47.97Z</time></trkpt><trkpt lat="40.514314" lon="17.2209745"><ele>23.0</ele><time>2026-03-29T07:33:48.972Z</time></trkpt><trkpt lat="40.5144132" lon="17.2209489"><ele>23.0</ele><time>2026-03-29T07:33:49.971Z</time></trkpt><trkpt lat="40.5145131" lon="17.2209215"><ele>23.0</ele><time>2026-03-29T07:33:50.971Z</time></trkpt><trkpt lat="40.514615" lon="17.220889"><ele>23.0</ele><time>2026-03-29T07:33:51.972Z</time></trkpt><trkpt lat="40.5147154" lon="17.2208557"><ele>23.0</ele><time>2026-03-29T07:33:52.969Z</time></trkpt><trkpt lat="40.5148167" lon="17.2208222"><ele>23.4</ele><time>2026-03-29T07:33:53.971Z</time></trkpt><trkpt lat="40.5149142" lon="17.2207879"><ele>23.799999999999997</ele><time>2026-03-29T07:33:54.971Z</time></trkpt><trkpt lat="40.5150102" lon="17.2207517"><ele>24.2</ele><time>2026-03-29T07:33:55.97Z</time></trkpt><trkpt lat="40.5151053" lon="17.2207133"><ele>24.6</ele><time>2026-03-29T07:33:56.97Z</time></trkpt><trkpt lat="40.5152016" lon="17.2206676"><ele>25.0</ele><time>2026-03-29T07:33:57.969Z</time></trkpt><trkpt lat="40.5152981" lon="17.2206143"><ele>25.0</ele><time>2026-03-29T07:33:58.971Z</time></trkpt><trkpt lat="40.5153931" lon="17.2205554"><ele>25.0</ele><time>2026-03-29T07:33:59.971Z</time></trkpt><trkpt lat="40.5154847" lon="17.2204931"><ele>25.0</ele><time>2026-03-29T07:34:00.971Z</time></trkpt><trkpt lat="40.5155763" lon="17.2204341"><ele>25.0</ele><time>2026-03-29T07:34:01.969Z</time></trkpt><trkpt lat="40.5156666" lon="17.2203768"><ele>25.0</ele><time>2026-03-29T07:34:02.97Z</time></trkpt><trkpt lat="40.5157572" lon="17.2203192"><ele>25.2</ele><time>2026-03-29T07:34:03.97Z</time></trkpt><trkpt lat="40.5158449" lon="17.2202605"><ele>25.4</ele><time>2026-03-29T07:34:04.972Z</time></trkpt><trkpt lat="40.5159318" lon="17.2201999"><ele>25.6</ele><time>2026-03-29T07:34:05.97Z</time></trkpt><trkpt lat="40.516019" lon="17.2201394"><ele>25.8</ele><time>2026-03-29T07:34:06.971Z</time></trkpt><trkpt lat="40.5161065" lon="17.2200795"><ele>26.0</ele><time>2026-03-29T07:34:07.972Z</time></trkpt><trkpt lat="40.5161887" lon="17.2200185"><ele>26.4</ele><time>2026-03-29T07:34:08.972Z</time></trkpt><trkpt lat="40.5162682" lon="17.2199576"><ele>26.8</ele><time>2026-03-29T07:34:09.971Z</time></trkpt><trkpt lat="40.5163495" lon="17.2198959"><ele>27.199999999999996</ele><time>2026-03-29T07:34:10.971Z</time></trkpt><trkpt lat="40.5164302" lon="17.2198359"><ele>27.599999999999998</ele><time>2026-03-29T07:34:11.972Z</time></trkpt><trkpt lat="40.516514" lon="17.219777"><ele>28.0</ele><time>2026-03-29T07:34:12.971Z</time></trkpt><trkpt lat="40.5166008" lon="17.219718"><ele>28.4</ele><time>2026-03-29T07:34:13.971Z</time></trkpt><trkpt lat="40.5166864" lon="17.2196552"><ele>28.799999999999997</ele><time>2026-03-29T07:34:14.969Z</time></trkpt><trkpt lat="40.5167723" lon="17.2195899"><ele>29.2</ele><time>2026-03-29T07:34:15.974Z</time></trkpt><trkpt lat="40.5168577" lon="17.2195276"><ele>29.6</ele><time>2026-03-29T07:34:16.972Z</time></trkpt><trkpt lat="40.5169428" lon="17.2194706"><ele>30.0</ele><time>2026-03-29T07:34:17.97Z</time></trkpt><trkpt lat="40.5170251" lon="17.2194113"><ele>30.2</ele><time>2026-03-29T07:34:18.97Z</time></trkpt><trkpt lat="40.5171074" lon="17.2193525"><ele>30.4</ele><time>2026-03-29T07:34:19.972Z</time></trkpt><trkpt lat="40.5171923" lon="17.2192961"><ele>30.6</ele><time>2026-03-29T07:34:20.971Z</time></trkpt><trkpt lat="40.5172792" lon="17.2192439"><ele>30.8</ele><time>2026-03-29T07:34:21.971Z</time></trkpt><trkpt lat="40.5173698" lon="17.2191987"><ele>31.0</ele><time>2026-03-29T07:34:22.971Z</time></trkpt><trkpt lat="40.5174654" lon="17.2191588"><ele>31.0</ele><time>2026-03-29T07:34:23.971Z</time></trkpt><trkpt lat="40.5175615" lon="17.2191247"><ele>31.0</ele><time>2026-03-29T07:34:24.97Z</time></trkpt><trkpt lat="40.5176585" lon="17.2190965"><ele>31.0</ele><time>2026-03-29T07:34:25.971Z</time></trkpt><trkpt lat="40.5177555" lon="17.2190743"><ele>31.0</ele><time>2026-03-29T07:34:26.972Z</time></trkpt><trkpt lat="40.5178523" lon="17.219061"><ele>31.0</ele><time>2026-03-29T07:34:27.97Z</time></trkpt><trkpt lat="40.5179435" lon="17.2190568"><ele>31.500000000000004</ele><time>2026-03-29T07:34:28.969Z</time></trkpt><trkpt lat="40.5180273" lon="17.2190572"><ele>32.0</ele><time>2026-03-29T07:34:29.971Z</time></trkpt><trkpt lat="40.5181033" lon="17.2190625"><ele>32.5</ele><time>2026-03-29T07:34:30.97Z</time></trkpt><trkpt lat="40.5181762" lon="17.219072"><ele>33.0</ele><time>2026-03-29T07:34:31.971Z</time></trkpt><trkpt lat="40.5182504" lon="17.2190813"><ele>33.5</ele><time>2026-03-29T07:34:32.971Z</time></trkpt><trkpt lat="40.5183268" lon="17.2190872"><ele>34.0</ele><time>2026-03-29T07:34:33.971Z</time></trkpt><trkpt lat="40.518403" lon="17.2190834"><ele>34.0</ele><time>2026-03-29T07:34:34.97Z</time></trkpt><trkpt lat="40.518479" lon="17.219069"><ele>34.0</ele><time>2026-03-29T07:34:35.971Z</time></trkpt><trkpt lat="40.5185533" lon="17.2190404"><ele>34.0</ele><time>2026-03-29T07:34:36.97Z</time></trkpt><trkpt lat="40.5186236" lon="17.2189935"><ele>34.0</ele><time>2026-03-29T07:34:37.971Z</time></trkpt><trkpt lat="40.5186891" lon="17.2189387"><ele>34.0</ele><time>2026-03-29T07:34:38.97Z</time></trkpt><trkpt lat="40.5187523" lon="17.2188783"><ele>34.0</ele><time>2026-03-29T07:34:39.972Z</time></trkpt><trkpt lat="40.5188112" lon="17.2188122"><ele>34.833333333333336</ele><time>2026-03-29T07:34:40.972Z</time></trkpt><trkpt lat="40.5188657" lon="17.2187358"><ele>35.66666666666667</ele><time>2026-03-29T07:34:41.972Z</time></trkpt><trkpt lat="40.5189186" lon="17.2186529"><ele>36.5</ele><time>2026-03-29T07:34:42.971Z</time></trkpt><trkpt lat="40.5189715" lon="17.218566"><ele>37.333333333333336</ele><time>2026-03-29T07:34:43.971Z</time></trkpt><trkpt lat="40.5190258" lon="17.2184772"><ele>38.166666666666664</ele><time>2026-03-29T07:34:44.97Z</time></trkpt><trkpt lat="40.5190824" lon="17.2183909"><ele>39.0</ele><time>2026-03-29T07:34:45.974Z</time></trkpt><trkpt lat="40.5191435" lon="17.2183102"><ele>39.0</ele><time>2026-03-29T07:34:46.97Z</time></trkpt><trkpt lat="40.5192076" lon="17.2182376"><ele>39.0</ele><time>2026-03-29T07:34:47.972Z</time></trkpt><trkpt lat="40.5192737" lon="17.2181709"><ele>39.0</ele><time>2026-03-29T07:34:48.971Z</time></trkpt><trkpt lat="40.5193436" lon="17.2181095"><ele>39.0</ele><time>2026-03-29T07:34:49.971Z</time></trkpt><trkpt lat="40.5194185" lon="17.2180529"><ele>39.0</ele><time>2026-03-29T07:34:50.971Z</time></trkpt><trkpt lat="40.519498" lon="17.2180005"><ele>39.0</ele><time>2026-03-29T07:34:51.971Z</time></trkpt><trkpt lat="40.5195804" lon="17.217952"><ele>38.833333333333336</ele><time>2026-03-29T07:34:52.971Z</time></trkpt><trkpt lat="40.5196613" lon="17.2179073"><ele>38.666666666666664</ele><time>2026-03-29T07:34:53.971Z</time></trkpt><trkpt lat="40.5197418" lon="17.2178671"><ele>38.5</ele><time>2026-03-29T07:34:54.971Z</time></trkpt><trkpt lat="40.5198223" lon="17.2178293"><ele>38.33333333333333</ele><time>2026-03-29T07:34:55.972Z</time></trkpt><trkpt lat="40.5199018" lon="17.2177897"><ele>38.166666666666664</ele><time>2026-03-29T07:34:56.969Z</time></trkpt><trkpt lat="40.5199817" lon="17.2177498"><ele>38.0</ele><time>2026-03-29T07:34:57.97Z</time></trkpt><trkpt lat="40.520063" lon="17.2177092"><ele>38.0</ele><time>2026-03-29T07:34:58.971Z</time></trkpt><trkpt lat="40.5201475" lon="17.2176739"><ele>38.0</ele><time>2026-03-29T07:34:59.971Z</time></trkpt><trkpt lat="40.5202344" lon="17.2176379"><ele>38.0</ele><time>2026-03-29T07:35:00.97Z</time></trkpt><trkpt lat="40.5203201" lon="17.2176008"><ele>38.0</ele><time>2026-03-29T07:35:01.971Z</time></trkpt><trkpt lat="40.5204062" lon="17.2175612"><ele>38.0</ele><time>2026-03-29T07:35:02.969Z</time></trkpt><trkpt lat="40.5204943" lon="17.2175193"><ele>38.0</ele><time>2026-03-29T07:35:03.971Z</time></trkpt><trkpt lat="40.5205859" lon="17.2174765"><ele>38.0</ele><time>2026-03-29T07:35:04.97Z</time></trkpt><trkpt lat="40.5206785" lon="17.2174329"><ele>38.0</ele><time>2026-03-29T07:35:05.974Z</time></trkpt><trkpt lat="40.5207714" lon="17.2173903"><ele>38.0</ele><time>2026-03-29T07:35:06.974Z</time></trkpt><trkpt lat="40.5208647" lon="17.2173487"><ele>38.0</ele><time>2026-03-29T07:35:07.973Z</time></trkpt><trkpt lat="40.5209562" lon="17.2173098"><ele>38.199999999999996</ele><time>2026-03-29T07:35:08.973Z</time></trkpt><trkpt lat="40.5210466" lon="17.2172708"><ele>38.4</ele><time>2026-03-29T07:35:09.973Z</time></trkpt><trkpt lat="40.5211377" lon="17.21723"><ele>38.599999999999994</ele><time>2026-03-29T07:35:10.972Z</time></trkpt><trkpt lat="40.5212292" lon="17.2171868"><ele>38.8</ele><time>2026-03-29T07:35:11.97Z</time></trkpt><trkpt lat="40.5213213" lon="17.2171408"><ele>39.0</ele><time>2026-03-29T07:35:12.972Z</time></trkpt><trkpt lat="40.5214126" lon="17.2170976"><ele>39.8</ele><time>2026-03-29T07:35:13.971Z</time></trkpt><trkpt lat="40.5215039" lon="17.2170598"><ele>40.599999999999994</ele><time>2026-03-29T07:35:14.971Z</time></trkpt><trkpt lat="40.5215968" lon="17.2170211"><ele>41.4</ele><time>2026-03-29T07:35:15.973Z</time></trkpt><trkpt lat="40.5216872" lon="17.216987"><ele>42.199999999999996</ele><time>2026-03-29T07:35:16.973Z</time></trkpt><trkpt lat="40.5217756" lon="17.2169543"><ele>43.0</ele><time>2026-03-29T07:35:17.971Z</time></trkpt><trkpt lat="40.5218597" lon="17.2169179"><ele>43.0</ele><time>2026-03-29T07:35:18.969Z</time></trkpt><trkpt lat="40.5219409" lon="17.2168801"><ele>43.0</ele><time>2026-03-29T07:35:19.971Z</time></trkpt><trkpt lat="40.5220249" lon="17.2168388"><ele>43.0</ele><time>2026-03-29T07:35:20.97Z</time></trkpt><trkpt lat="40.5221083" lon="17.2167919"><ele>43.0</ele><time>2026-03-29T07:35:21.97Z</time></trkpt><trkpt lat="40.5221911" lon="17.2167429"><ele>43.0</ele><time>2026-03-29T07:35:22.97Z</time></trkpt><trkpt lat="40.5222717" lon="17.2166915"><ele>43.0</ele><time>2026-03-29T07:35:23.971Z</time></trkpt><trkpt lat="40.5223503" lon="17.2166388"><ele>43.0</ele><time>2026-03-29T07:35:24.972Z</time></trkpt><trkpt lat="40.5224275" lon="17.216584"><ele>43.0</ele><time>2026-03-29T07:35:25.971Z</time></trkpt><trkpt lat="40.5225076" lon="17.2165289"><ele>43.0</ele><time>2026-03-29T07:35:26.971Z</time></trkpt><trkpt lat="40.5225879" lon="17.2164672"><ele>43.0</ele><time>2026-03-29T07:35:27.971Z</time></trkpt><trkpt lat="40.5226668" lon="17.2164031"><ele>43.0</ele><time>2026-03-29T07:35:28.971Z</time></trkpt><trkpt lat="40.522744" lon="17.2163383"><ele>43.4</ele><time>2026-03-29T07:35:29.971Z</time></trkpt><trkpt lat="40.5228189" lon="17.2162733"><ele>43.8</ele><time>2026-03-29T07:35:30.971Z</time></trkpt><trkpt lat="40.522895" lon="17.2162106"><ele>44.2</ele><time>2026-03-29T07:35:31.972Z</time></trkpt><trkpt lat="40.5229706" lon="17.2161461"><ele>44.6</ele><time>2026-03-29T07:35:32.972Z</time></trkpt><trkpt lat="40.5230481" lon="17.2160813"><ele>45.0</ele><time>2026-03-29T07:35:33.971Z</time></trkpt><trkpt lat="40.5231281" lon="17.2160122"><ele>45.6</ele><time>2026-03-29T07:35:34.97Z</time></trkpt><trkpt lat="40.5232083" lon="17.2159424"><ele>46.2</ele><time>2026-03-29T07:35:35.971Z</time></trkpt><trkpt lat="40.5232883" lon="17.2158725"><ele>46.8</ele><time>2026-03-29T07:35:36.971Z</time></trkpt><trkpt lat="40.5233686" lon="17.2158033"><ele>47.4</ele><time>2026-03-29T07:35:37.97Z</time></trkpt><trkpt lat="40.5234484" lon="17.2157349"><ele>48.0</ele><time>2026-03-29T07:35:38.969Z</time></trkpt><trkpt lat="40.5235265" lon="17.2156688"><ele>48.0</ele><time>2026-03-29T07:35:39.971Z</time></trkpt><trkpt lat="40.5236034" lon="17.2156058"><ele>48.0</ele><time>2026-03-29T07:35:40.97Z</time></trkpt><trkpt lat="40.5236797" lon="17.2155442"><ele>48.0</ele><time>2026-03-29T07:35:41.971Z</time></trkpt><trkpt lat="40.5237563" lon="17.2154844"><ele>48.0</ele><time>2026-03-29T07:35:42.971Z</time></trkpt><trkpt lat="40.5238313" lon="17.2154226"><ele>48.0</ele><time>2026-03-29T07:35:43.971Z</time></trkpt><trkpt lat="40.5239092" lon="17.215355"><ele>48.0</ele><time>2026-03-29T07:35:44.971Z</time></trkpt><trkpt lat="40.5239879" lon="17.2152833"><ele>48.0</ele><time>2026-03-29T07:35:45.973Z</time></trkpt><trkpt lat="40.5240676" lon="17.2152127"><ele>48.0</ele><time>2026-03-29T07:35:46.973Z</time></trkpt><trkpt lat="40.5241478" lon="17.2151399"><ele>48.0</ele><time>2026-03-29T07:35:47.97Z</time></trkpt><trkpt lat="40.5242275" lon="17.2150687"><ele>48.0</ele><time>2026-03-29T07:35:48.97Z</time></trkpt><trkpt lat="40.5243076" lon="17.2149988"><ele>48.0</ele><time>2026-03-29T07:35:49.971Z</time></trkpt><trkpt lat="40.5243876" lon="17.214932"><ele>48.0</ele><time>2026-03-29T07:35:50.97Z</time></trkpt><trkpt lat="40.524468" lon="17.2148676"><ele>48.0</ele><time>2026-03-29T07:35:51.97Z</time></trkpt><trkpt lat="40.524549" lon="17.2148001"><ele>48.0</ele><time>2026-03-29T07:35:52.97Z</time></trkpt><trkpt lat="40.5246279" lon="17.2147326"><ele>48.0</ele><time>2026-03-29T07:35:53.971Z</time></trkpt><trkpt lat="40.5247064" lon="17.2146645"><ele>47.2</ele><time>2026-03-29T07:35:54.971Z</time></trkpt><trkpt lat="40.5247844" lon="17.2146001"><ele>46.4</ele><time>2026-03-29T07:35:55.971Z</time></trkpt><trkpt lat="40.5248624" lon="17.2145354"><ele>45.6</ele><time>2026-03-29T07:35:56.971Z</time></trkpt><trkpt lat="40.5249394" lon="17.2144713"><ele>44.800000000000004</ele><time>2026-03-29T07:35:57.971Z</time></trkpt><trkpt lat="40.5250144" lon="17.2144057"><ele>44.0</ele><time>2026-03-29T07:35:58.97Z</time></trkpt><trkpt lat="40.525088" lon="17.2143426"><ele>44.0</ele><time>2026-03-29T07:35:59.971Z</time></trkpt><trkpt lat="40.5251613" lon="17.2142807"><ele>44.0</ele><time>2026-03-29T07:36:00.971Z</time></trkpt><trkpt lat="40.5252359" lon="17.2142164"><ele>44.0</ele><time>2026-03-29T07:36:01.971Z</time></trkpt><trkpt lat="40.5253139" lon="17.2141499"><ele>44.0</ele><time>2026-03-29T07:36:02.97Z</time></trkpt><trkpt lat="40.5253929" lon="17.2140833"><ele>44.0</ele><time>2026-03-29T07:36:03.971Z</time></trkpt><trkpt lat="40.5254731" lon="17.214018"><ele>44.800000000000004</ele><time>2026-03-29T07:36:04.97Z</time></trkpt><trkpt lat="40.5255522" lon="17.2139498"><ele>45.6</ele><time>2026-03-29T07:36:05.971Z</time></trkpt><trkpt lat="40.5256319" lon="17.2138785"><ele>46.4</ele><time>2026-03-29T07:36:06.97Z</time></trkpt><trkpt lat="40.525713" lon="17.213808"><ele>47.2</ele><time>2026-03-29T07:36:07.971Z</time></trkpt><trkpt lat="40.5257948" lon="17.2137361"><ele>48.0</ele><time>2026-03-29T07:36:08.971Z</time></trkpt><trkpt lat="40.5258769" lon="17.2136672"><ele>48.0</ele><time>2026-03-29T07:36:09.971Z</time></trkpt><trkpt lat="40.5259573" lon="17.2136042"><ele>48.0</ele><time>2026-03-29T07:36:10.97Z</time></trkpt><trkpt lat="40.5260387" lon="17.2135406"><ele>48.0</ele><time>2026-03-29T07:36:11.971Z</time></trkpt><trkpt lat="40.526122" lon="17.2134797"><ele>48.0</ele><time>2026-03-29T07:36:12.971Z</time></trkpt><trkpt lat="40.5262039" lon="17.2134197"><ele>48.0</ele><time>2026-03-29T07:36:13.97Z</time></trkpt><trkpt lat="40.5262872" lon="17.2133586"><ele>48.4</ele><time>2026-03-29T07:36:14.971Z</time></trkpt><trkpt lat="40.5263705" lon="17.2133002"><ele>48.8</ele><time>2026-03-29T07:36:15.971Z</time></trkpt><trkpt lat="40.5264525" lon="17.2132432"><ele>49.2</ele><time>2026-03-29T07:36:16.972Z</time></trkpt><trkpt lat="40.5265351" lon="17.2131866"><ele>49.6</ele><time>2026-03-29T07:36:17.971Z</time></trkpt><trkpt lat="40.5266196" lon="17.2131336"><ele>50.0</ele><time>2026-03-29T07:36:18.971Z</time></trkpt><trkpt lat="40.5267059" lon="17.2130786"><ele>50.0</ele><time>2026-03-29T07:36:19.971Z</time></trkpt><trkpt lat="40.5267915" lon="17.2130224"><ele>50.0</ele><time>2026-03-29T07:36:20.971Z</time></trkpt><trkpt lat="40.5268769" lon="17.2129699"><ele>50.0</ele><time>2026-03-29T07:36:21.971Z</time></trkpt><trkpt lat="40.5269604" lon="17.2129172"><ele>50.0</ele><time>2026-03-29T07:36:22.97Z</time></trkpt><trkpt lat="40.527041" lon="17.2128666"><ele>50.0</ele><time>2026-03-29T07:36:23.971Z</time></trkpt><trkpt lat="40.5271232" lon="17.212817"><ele>49.8</ele><time>2026-03-29T07:36:24.971Z</time></trkpt><trkpt lat="40.5272075" lon="17.2127648"><ele>49.6</ele><time>2026-03-29T07:36:25.969Z</time></trkpt><trkpt lat="40.5272958" lon="17.2127105"><ele>49.400000000000006</ele><time>2026-03-29T07:36:26.969Z</time></trkpt><trkpt lat="40.5273815" lon="17.2126582"><ele>49.2</ele><time>2026-03-29T07:36:27.971Z</time></trkpt><trkpt lat="40.5274665" lon="17.2126059"><ele>49.0</ele><time>2026-03-29T07:36:28.97Z</time></trkpt><trkpt lat="40.5275514" lon="17.2125547"><ele>49.0</ele><time>2026-03-29T07:36:29.971Z</time></trkpt><trkpt lat="40.5276361" lon="17.2125046"><ele>49.0</ele><time>2026-03-29T07:36:30.971Z</time></trkpt><trkpt lat="40.5277208" lon="17.212457"><ele>49.0</ele><time>2026-03-29T07:36:31.97Z</time></trkpt><trkpt lat="40.5278077" lon="17.2124096"><ele>49.0</ele><time>2026-03-29T07:36:32.97Z</time></trkpt><trkpt lat="40.5278945" lon="17.2123628"><ele>49.0</ele><time>2026-03-29T07:36:33.971Z</time></trkpt><trkpt lat="40.5279803" lon="17.2123171"><ele>49.800000000000004</ele><time>2026-03-29T07:36:34.972Z</time></trkpt><trkpt lat="40.5280671" lon="17.2122712"><ele>50.6</ele><time>2026-03-29T07:36:35.971Z</time></trkpt><trkpt lat="40.5281537" lon="17.2122231"><ele>51.4</ele><time>2026-03-29T07:36:36.971Z</time></trkpt><trkpt lat="40.5282403" lon="17.2121748"><ele>52.2</ele><time>2026-03-29T07:36:37.972Z</time></trkpt><trkpt lat="40.5283266" lon="17.2121279"><ele>53.0</ele><time>2026-03-29T07:36:38.971Z</time></trkpt><trkpt lat="40.5284132" lon="17.2120816"><ele>53.0</ele><time>2026-03-29T07:36:39.971Z</time></trkpt><trkpt lat="40.5284972" lon="17.2120318"><ele>53.0</ele><time>2026-03-29T07:36:40.97Z</time></trkpt><trkpt lat="40.5285813" lon="17.2119838"><ele>53.0</ele><time>2026-03-29T07:36:41.971Z</time></trkpt><trkpt lat="40.5286663" lon="17.2119367"><ele>53.0</ele><time>2026-03-29T07:36:42.971Z</time></trkpt><trkpt lat="40.5287527" lon="17.2118897"><ele>53.0</ele><time>2026-03-29T07:36:43.97Z</time></trkpt><trkpt lat="40.5288395" lon="17.2118417"><ele>53.599999999999994</ele><time>2026-03-29T07:36:44.971Z</time></trkpt><trkpt lat="40.5289248" lon="17.2117888"><ele>54.199999999999996</ele><time>2026-03-29T07:36:45.974Z</time></trkpt><trkpt lat="40.5290105" lon="17.2117417"><ele>54.8</ele><time>2026-03-29T07:36:46.973Z</time></trkpt><trkpt lat="40.5290963" lon="17.2116992"><ele>55.4</ele><time>2026-03-29T07:36:47.97Z</time></trkpt><trkpt lat="40.5291812" lon="17.2116564"><ele>56.0</ele><time>2026-03-29T07:36:48.971Z</time></trkpt><trkpt lat="40.5292648" lon="17.2116127"><ele>56.0</ele><time>2026-03-29T07:36:49.971Z</time></trkpt><trkpt lat="40.5293497" lon="17.2115691"><ele>55.99999999999999</ele><time>2026-03-29T07:36:50.971Z</time></trkpt><trkpt lat="40.5294363" lon="17.2115238"><ele>55.99999999999999</ele><time>2026-03-29T07:36:51.971Z</time></trkpt><trkpt lat="40.5295233" lon="17.211478"><ele>56.0</ele><time>2026-03-29T07:36:52.972Z</time></trkpt><trkpt lat="40.5296116" lon="17.2114309"><ele>56.0</ele><time>2026-03-29T07:36:53.971Z</time></trkpt><trkpt lat="40.5297001" lon="17.2113857"><ele>56.4</ele><time>2026-03-29T07:36:54.971Z</time></trkpt><trkpt lat="40.5297872" lon="17.2113432"><ele>56.8</ele><time>2026-03-29T07:36:55.971Z</time></trkpt><trkpt lat="40.5298736" lon="17.2113068"><ele>57.199999999999996</ele><time>2026-03-29T07:36:56.971Z</time></trkpt><trkpt lat="40.5299605" lon="17.2112738"><ele>57.599999999999994</ele><time>2026-03-29T07:36:57.971Z</time></trkpt><trkpt lat="40.5300471" lon="17.2112448"><ele>58.0</ele><time>2026-03-29T07:36:58.971Z</time></trkpt><trkpt lat="40.530135" lon="17.2112181"><ele>58.0</ele><time>2026-03-29T07:36:59.971Z</time></trkpt><trkpt lat="40.5302246" lon="17.2111937"><ele>58.0</ele><time>2026-03-29T07:37:00.971Z</time></trkpt><trkpt lat="40.530316" lon="17.211166"><ele>58.0</ele><time>2026-03-29T07:37:01.977Z</time></trkpt><trkpt lat="40.5304092" lon="17.2111394"><ele>58.0</ele><time>2026-03-29T07:37:02.971Z</time></trkpt><trkpt lat="40.5305045" lon="17.2111108"><ele>58.0</ele><time>2026-03-29T07:37:03.971Z</time></trkpt><trkpt lat="40.5306015" lon="17.211085"><ele>57.8</ele><time>2026-03-29T07:37:04.971Z</time></trkpt><trkpt lat="40.5306996" lon="17.2110628"><ele>57.599999999999994</ele><time>2026-03-29T07:37:05.971Z</time></trkpt><trkpt lat="40.5307981" lon="17.2110441"><ele>57.400000000000006</ele><time>2026-03-29T07:37:06.97Z</time></trkpt><trkpt lat="40.5308977" lon="17.2110245"><ele>57.2</ele><time>2026-03-29T07:37:07.971Z</time></trkpt><trkpt lat="40.5309965" lon="17.2110028"><ele>57.0</ele><time>2026-03-29T07:37:08.973Z</time></trkpt><trkpt lat="40.531095" lon="17.2109812"><ele>57.0</ele><time>2026-03-29T07:37:09.972Z</time></trkpt><trkpt lat="40.5311933" lon="17.2109606"><ele>57.0</ele><time>2026-03-29T07:37:10.973Z</time></trkpt><trkpt lat="40.5312912" lon="17.2109387"><ele>57.0</ele><time>2026-03-29T07:37:11.971Z</time></trkpt><trkpt lat="40.5313866" lon="17.2109189"><ele>57.0</ele><time>2026-03-29T07:37:12.971Z</time></trkpt><trkpt lat="40.5314819" lon="17.2108978"><ele>57.0</ele><time>2026-03-29T07:37:13.971Z</time></trkpt><trkpt lat="40.5315766" lon="17.2108764"><ele>56.8</ele><time>2026-03-29T07:37:14.972Z</time></trkpt><trkpt lat="40.5316741" lon="17.2108548"><ele>56.6</ele><time>2026-03-29T07:37:15.971Z</time></trkpt><trkpt lat="40.5317736" lon="17.210833"><ele>56.39999999999999</ele><time>2026-03-29T07:37:16.97Z</time></trkpt><trkpt lat="40.5318719" lon="17.2108112"><ele>56.199999999999996</ele><time>2026-03-29T07:37:17.97Z</time></trkpt><trkpt lat="40.53197" lon="17.2107907"><ele>56.0</ele><time>2026-03-29T07:37:18.97Z</time></trkpt><trkpt lat="40.5320682" lon="17.2107689"><ele>56.0</ele><time>2026-03-29T07:37:19.971Z</time></trkpt><trkpt lat="40.5321659" lon="17.2107455"><ele>55.99999999999999</ele><time>2026-03-29T07:37:20.97Z</time></trkpt><trkpt lat="40.5322659" lon="17.2107232"><ele>55.99999999999999</ele><time>2026-03-29T07:37:21.971Z</time></trkpt><trkpt lat="40.5323665" lon="17.2107018"><ele>56.0</ele><time>2026-03-29T07:37:22.971Z</time></trkpt><trkpt lat="40.5324667" lon="17.2106826"><ele>56.0</ele><time>2026-03-29T07:37:23.971Z</time></trkpt><trkpt lat="40.5325653" lon="17.2106647"><ele>55.8</ele><time>2026-03-29T07:37:24.972Z</time></trkpt><trkpt lat="40.5326603" lon="17.2106461"><ele>55.599999999999994</ele><time>2026-03-29T07:37:25.971Z</time></trkpt><trkpt lat="40.5327519" lon="17.2106279"><ele>55.4</ele><time>2026-03-29T07:37:26.97Z</time></trkpt><trkpt lat="40.5328404" lon="17.2106109"><ele>55.2</ele><time>2026-03-29T07:37:27.972Z</time></trkpt><trkpt lat="40.5329273" lon="17.2105931"><ele>55.0</ele><time>2026-03-29T07:37:28.971Z</time></trkpt><trkpt lat="40.5330149" lon="17.2105772"><ele>55.0</ele><time>2026-03-29T07:37:29.971Z</time></trkpt><trkpt lat="40.5331033" lon="17.2105596"><ele>55.0</ele><time>2026-03-29T07:37:30.971Z</time></trkpt><trkpt lat="40.533193" lon="17.2105421"><ele>55.0</ele><time>2026-03-29T07:37:31.971Z</time></trkpt><trkpt lat="40.5332874" lon="17.2105243"><ele>55.0</ele><time>2026-03-29T07:37:32.971Z</time></trkpt><trkpt lat="40.5333818" lon="17.2105071"><ele>55.0</ele><time>2026-03-29T07:37:33.971Z</time></trkpt><trkpt lat="40.5334766" lon="17.210491"><ele>55.0</ele><time>2026-03-29T07:37:34.97Z</time></trkpt><trkpt lat="40.5335702" lon="17.2104745"><ele>55.0</ele><time>2026-03-29T07:37:35.972Z</time></trkpt><trkpt lat="40.5336632" lon="17.2104562"><ele>55.0</ele><time>2026-03-29T07:37:36.971Z</time></trkpt><trkpt lat="40.5337539" lon="17.2104384"><ele>55.0</ele><time>2026-03-29T07:37:37.971Z</time></trkpt><trkpt lat="40.5338464" lon="17.210422"><ele>55.0</ele><time>2026-03-29T07:37:38.97Z</time></trkpt><trkpt lat="40.5339377" lon="17.2104067"><ele>55.8</ele><time>2026-03-29T07:37:39.971Z</time></trkpt><trkpt lat="40.5340311" lon="17.2103921"><ele>56.6</ele><time>2026-03-29T07:37:40.97Z</time></trkpt><trkpt lat="40.5341277" lon="17.2103748"><ele>57.400000000000006</ele><time>2026-03-29T07:37:41.97Z</time></trkpt><trkpt lat="40.5342265" lon="17.2103567"><ele>58.2</ele><time>2026-03-29T07:37:42.97Z</time></trkpt><trkpt lat="40.5343256" lon="17.2103382"><ele>59.0</ele><time>2026-03-29T07:37:43.971Z</time></trkpt><trkpt lat="40.5344251" lon="17.2103199"><ele>59.0</ele><time>2026-03-29T07:37:44.97Z</time></trkpt><trkpt lat="40.5345237" lon="17.2102986"><ele>59.00000000000001</ele><time>2026-03-29T07:37:45.971Z</time></trkpt><trkpt lat="40.5346207" lon="17.2102782"><ele>59.00000000000001</ele><time>2026-03-29T07:37:46.974Z</time></trkpt><trkpt lat="40.5347169" lon="17.2102594"><ele>59.0</ele><time>2026-03-29T07:37:47.971Z</time></trkpt><trkpt lat="40.5348104" lon="17.2102411"><ele>59.0</ele><time>2026-03-29T07:37:48.971Z</time></trkpt><trkpt lat="40.5349019" lon="17.2102222"><ele>59.333333333333336</ele><time>2026-03-29T07:37:49.972Z</time></trkpt><trkpt lat="40.534992" lon="17.2102073"><ele>59.66666666666667</ele><time>2026-03-29T07:37:50.972Z</time></trkpt><trkpt lat="40.5350803" lon="17.2101896"><ele>60.0</ele><time>2026-03-29T07:37:51.97Z</time></trkpt><trkpt lat="40.5351656" lon="17.2101739"><ele>60.33333333333333</ele><time>2026-03-29T07:37:52.972Z</time></trkpt><trkpt lat="40.5352513" lon="17.2101577"><ele>60.666666666666664</ele><time>2026-03-29T07:37:53.973Z</time></trkpt><trkpt lat="40.5353396" lon="17.2101416"><ele>61.0</ele><time>2026-03-29T07:37:54.97Z</time></trkpt><trkpt lat="40.5354311" lon="17.210125"><ele>61.599999999999994</ele><time>2026-03-29T07:37:55.971Z</time></trkpt><trkpt lat="40.5355231" lon="17.2101094"><ele>62.199999999999996</ele><time>2026-03-29T07:37:56.97Z</time></trkpt><trkpt lat="40.5356177" lon="17.2100912"><ele>62.800000000000004</ele><time>2026-03-29T07:37:57.971Z</time></trkpt><trkpt lat="40.5357132" lon="17.2100739"><ele>63.400000000000006</ele><time>2026-03-29T07:37:58.971Z</time></trkpt><trkpt lat="40.5358085" lon="17.2100594"><ele>64.0</ele><time>2026-03-29T07:37:59.973Z</time></trkpt><trkpt lat="40.5359049" lon="17.2100439"><ele>64.0</ele><time>2026-03-29T07:38:00.971Z</time></trkpt><trkpt lat="40.5360017" lon="17.2100287"><ele>64.0</ele><time>2026-03-29T07:38:01.971Z</time></trkpt><trkpt lat="40.5360998" lon="17.2100125"><ele>64.0</ele><time>2026-03-29T07:38:02.971Z</time></trkpt><trkpt lat="40.5361997" lon="17.2099977"><ele>64.0</ele><time>2026-03-29T07:38:03.97Z</time></trkpt><trkpt lat="40.5363016" lon="17.2099823"><ele>64.0</ele><time>2026-03-29T07:38:04.971Z</time></trkpt><trkpt lat="40.5364021" lon="17.2099665"><ele>64.4</ele><time>2026-03-29T07:38:05.972Z</time></trkpt><trkpt lat="40.5365033" lon="17.20995"><ele>64.80000000000001</ele><time>2026-03-29T07:38:06.971Z</time></trkpt><trkpt lat="40.5366037" lon="17.2099334"><ele>65.19999999999999</ele><time>2026-03-29T07:38:07.972Z</time></trkpt><trkpt lat="40.5367005" lon="17.2099147"><ele>65.6</ele><time>2026-03-29T07:38:08.971Z</time></trkpt><trkpt lat="40.5367983" lon="17.2098978"><ele>66.0</ele><time>2026-03-29T07:38:09.971Z</time></trkpt><trkpt lat="40.5368966" lon="17.2098817"><ele>66.0</ele><time>2026-03-29T07:38:10.971Z</time></trkpt><trkpt lat="40.536995" lon="17.2098634"><ele>66.0</ele><time>2026-03-29T07:38:11.971Z</time></trkpt><trkpt lat="40.537095" lon="17.209845"><ele>66.0</ele><time>2026-03-29T07:38:12.97Z</time></trkpt><trkpt lat="40.5371963" lon="17.2098277"><ele>66.0</ele><time>2026-03-29T07:38:13.971Z</time></trkpt><trkpt lat="40.5372979" lon="17.2098139"><ele>66.0</ele><time>2026-03-29T07:38:14.971Z</time></trkpt><trkpt lat="40.5374025" lon="17.2097991"><ele>66.2</ele><time>2026-03-29T07:38:15.974Z</time></trkpt><trkpt lat="40.5375065" lon="17.2097834"><ele>66.39999999999999</ele><time>2026-03-29T07:38:16.973Z</time></trkpt><trkpt lat="40.5376088" lon="17.2097677"><ele>66.6</ele><time>2026-03-29T07:38:17.97Z</time></trkpt><trkpt lat="40.5377101" lon="17.2097478"><ele>66.8</ele><time>2026-03-29T07:38:18.971Z</time></trkpt><trkpt lat="40.537809" lon="17.2097278"><ele>67.0</ele><time>2026-03-29T07:38:19.972Z</time></trkpt><trkpt lat="40.5379056" lon="17.2097062"><ele>68.0</ele><time>2026-03-29T07:38:20.971Z</time></trkpt><trkpt lat="40.538002" lon="17.2096846"><ele>69.0</ele><time>2026-03-29T07:38:21.971Z</time></trkpt><trkpt lat="40.5380997" lon="17.2096618"><ele>70.0</ele><time>2026-03-29T07:38:22.97Z</time></trkpt><trkpt lat="40.5381966" lon="17.2096345"><ele>71.0</ele><time>2026-03-29T07:38:23.972Z</time></trkpt><trkpt lat="40.5382916" lon="17.2096064"><ele>72.0</ele><time>2026-03-29T07:38:24.97Z</time></trkpt><trkpt lat="40.5383862" lon="17.2095771"><ele>72.0</ele><time>2026-03-29T07:38:25.97Z</time></trkpt><trkpt lat="40.5384802" lon="17.2095423"><ele>72.0</ele><time>2026-03-29T07:38:26.97Z</time></trkpt><trkpt lat="40.5385735" lon="17.2095037"><ele>72.0</ele><time>2026-03-29T07:38:27.972Z</time></trkpt><trkpt lat="40.5386676" lon="17.2094636"><ele>72.0</ele><time>2026-03-29T07:38:28.969Z</time></trkpt><trkpt lat="40.5387643" lon="17.2094232"><ele>72.0</ele><time>2026-03-29T07:38:29.971Z</time></trkpt><trkpt lat="40.5388643" lon="17.2093818"><ele>72.4</ele><time>2026-03-29T07:38:30.971Z</time></trkpt><trkpt lat="40.5389648" lon="17.2093419"><ele>72.80000000000001</ele><time>2026-03-29T07:38:31.97Z</time></trkpt><trkpt lat="40.5390594" lon="17.2093035"><ele>73.2</ele><time>2026-03-29T07:38:32.97Z</time></trkpt><trkpt lat="40.5391504" lon="17.2092671"><ele>73.60000000000001</ele><time>2026-03-29T07:38:33.971Z</time></trkpt><trkpt lat="40.5392408" lon="17.2092334"><ele>74.0</ele><time>2026-03-29T07:38:34.969Z</time></trkpt><trkpt lat="40.5393319" lon="17.2091978"><ele>74.0</ele><time>2026-03-29T07:38:35.973Z</time></trkpt><trkpt lat="40.539425" lon="17.2091624"><ele>74.0</ele><time>2026-03-29T07:38:36.971Z</time></trkpt><trkpt lat="40.5395195" lon="17.2091279"><ele>74.0</ele><time>2026-03-29T07:38:37.972Z</time></trkpt><trkpt lat="40.5396153" lon="17.2090909"><ele>74.0</ele><time>2026-03-29T07:38:38.972Z</time></trkpt><trkpt lat="40.5397114" lon="17.209053"><ele>74.0</ele><time>2026-03-29T07:38:39.97Z</time></trkpt><trkpt lat="40.5398079" lon="17.2090142"><ele>74.4</ele><time>2026-03-29T07:38:40.97Z</time></trkpt><trkpt lat="40.5399079" lon="17.2089813"><ele>74.80000000000001</ele><time>2026-03-29T07:38:41.971Z</time></trkpt><trkpt lat="40.5400084" lon="17.2089548"><ele>75.19999999999999</ele><time>2026-03-29T07:38:42.971Z</time></trkpt><trkpt lat="40.5401086" lon="17.2089296"><ele>75.6</ele><time>2026-03-29T07:38:43.972Z</time></trkpt><trkpt lat="40.5402072" lon="17.2089047"><ele>76.0</ele><time>2026-03-29T07:38:44.97Z</time></trkpt><trkpt lat="40.5403054" lon="17.2088851"><ele>76.6</ele><time>2026-03-29T07:38:45.971Z</time></trkpt><trkpt lat="40.5404019" lon="17.2088655"><ele>77.19999999999999</ele><time>2026-03-29T07:38:46.97Z</time></trkpt><trkpt lat="40.5405024" lon="17.2088472"><ele>77.80000000000001</ele><time>2026-03-29T07:38:47.971Z</time></trkpt><trkpt lat="40.5406099" lon="17.2088263"><ele>78.4</ele><time>2026-03-29T07:38:48.97Z</time></trkpt><trkpt lat="40.5407178" lon="17.2088081"><ele>79.0</ele><time>2026-03-29T07:38:49.971Z</time></trkpt><trkpt lat="40.5408244" lon="17.2087907"><ele>79.0</ele><time>2026-03-29T07:38:50.97Z</time></trkpt><trkpt lat="40.5409282" lon="17.2087709"><ele>79.0</ele><time>2026-03-29T07:38:51.974Z</time></trkpt><trkpt lat="40.5410325" lon="17.208751"><ele>79.0</ele><time>2026-03-29T07:38:52.974Z</time></trkpt><trkpt lat="40.5411376" lon="17.2087317"><ele>79.0</ele><time>2026-03-29T07:38:53.974Z</time></trkpt><trkpt lat="40.541241" lon="17.2087102"><ele>79.0</ele><time>2026-03-29T07:38:54.971Z</time></trkpt><trkpt lat="40.5413483" lon="17.2086911"><ele>79.6</ele><time>2026-03-29T07:38:55.972Z</time></trkpt><trkpt lat="40.5414604" lon="17.2086736"><ele>80.2</ele><time>2026-03-29T07:38:56.971Z</time></trkpt><trkpt lat="40.5415714" lon="17.2086556"><ele>80.8</ele><time>2026-03-29T07:38:57.974Z</time></trkpt><trkpt lat="40.5416815" lon="17.2086374"><ele>81.39999999999999</ele><time>2026-03-29T07:38:58.971Z</time></trkpt><trkpt lat="40.5417889" lon="17.208618"><ele>82.0</ele><time>2026-03-29T07:38:59.971Z</time></trkpt><trkpt lat="40.5418938" lon="17.2086006"><ele>82.0</ele><time>2026-03-29T07:39:00.971Z</time></trkpt><trkpt lat="40.5419953" lon="17.2085827"><ele>82.0</ele><time>2026-03-29T07:39:01.971Z</time></trkpt><trkpt lat="40.5420952" lon="17.2085611"><ele>82.0</ele><time>2026-03-29T07:39:02.971Z</time></trkpt><trkpt lat="40.542196" lon="17.2085416"><ele>82.0</ele><time>2026-03-29T07:39:03.97Z</time></trkpt><trkpt lat="40.5422972" lon="17.2085207"><ele>82.0</ele><time>2026-03-29T07:39:04.973Z</time></trkpt><trkpt lat="40.5423981" lon="17.2084985"><ele>82.19999999999999</ele><time>2026-03-29T07:39:05.973Z</time></trkpt><trkpt lat="40.5424981" lon="17.2084815"><ele>82.4</ele><time>2026-03-29T07:39:06.971Z</time></trkpt><trkpt lat="40.5425995" lon="17.2084659"><ele>82.6</ele><time>2026-03-29T07:39:07.971Z</time></trkpt><trkpt lat="40.5426981" lon="17.2084497"><ele>82.80000000000001</ele><time>2026-03-29T07:39:08.969Z</time></trkpt><trkpt lat="40.5427948" lon="17.2084315"><ele>83.0</ele><time>2026-03-29T07:39:09.97Z</time></trkpt><trkpt lat="40.5428931" lon="17.2084156"><ele>83.60000000000001</ele><time>2026-03-29T07:39:10.97Z</time></trkpt><trkpt lat="40.5429934" lon="17.2083971"><ele>84.2</ele><time>2026-03-29T07:39:11.971Z</time></trkpt><trkpt lat="40.543092" lon="17.2083777"><ele>84.8</ele><time>2026-03-29T07:39:12.973Z</time></trkpt><trkpt lat="40.5431885" lon="17.2083569"><ele>85.4</ele><time>2026-03-29T07:39:13.971Z</time></trkpt><trkpt lat="40.5432838" lon="17.2083363"><ele>86.0</ele><time>2026-03-29T07:39:14.971Z</time></trkpt><trkpt lat="40.5433777" lon="17.20832"><ele>86.0</ele><time>2026-03-29T07:39:15.974Z</time></trkpt><trkpt lat="40.5434716" lon="17.2083025"><ele>86.0</ele><time>2026-03-29T07:39:16.97Z</time></trkpt><trkpt lat="40.5435664" lon="17.208285"><ele>86.0</ele><time>2026-03-29T07:39:17.97Z</time></trkpt><trkpt lat="40.5436644" lon="17.208265"><ele>86.0</ele><time>2026-03-29T07:39:18.971Z</time></trkpt><trkpt lat="40.5437648" lon="17.2082447"><ele>86.0</ele><time>2026-03-29T07:39:19.971Z</time></trkpt><trkpt lat="40.5438653" lon="17.2082234"><ele>86.4</ele><time>2026-03-29T07:39:20.969Z</time></trkpt><trkpt lat="40.5439659" lon="17.2082041"><ele>86.8</ele><time>2026-03-29T07:39:21.971Z</time></trkpt><trkpt lat="40.5440671" lon="17.2081884"><ele>87.2</ele><time>2026-03-29T07:39:22.971Z</time></trkpt><trkpt lat="40.5441695" lon="17.2081699"><ele>87.60000000000001</ele><time>2026-03-29T07:39:23.971Z</time></trkpt><trkpt lat="40.5442743" lon="17.2081507"><ele>88.0</ele><time>2026-03-29T07:39:24.971Z</time></trkpt><trkpt lat="40.5443813" lon="17.2081349"><ele>88.2</ele><time>2026-03-29T07:39:25.972Z</time></trkpt><trkpt lat="40.5444867" lon="17.2081193"><ele>88.4</ele><time>2026-03-29T07:39:26.971Z</time></trkpt><trkpt lat="40.5445897" lon="17.2081055"><ele>88.60000000000001</ele><time>2026-03-29T07:39:27.971Z</time></trkpt><trkpt lat="40.5446889" lon="17.2080932"><ele>88.80000000000001</ele><time>2026-03-29T07:39:28.971Z</time></trkpt><trkpt lat="40.5447853" lon="17.2080822"><ele>89.0</ele><time>2026-03-29T07:39:29.971Z</time></trkpt><trkpt lat="40.5448818" lon="17.2080696"><ele>89.2</ele><time>2026-03-29T07:39:30.971Z</time></trkpt><trkpt lat="40.5449813" lon="17.2080558"><ele>89.4</ele><time>2026-03-29T07:39:31.971Z</time></trkpt><trkpt lat="40.5450813" lon="17.2080429"><ele>89.6</ele><time>2026-03-29T07:39:32.971Z</time></trkpt><trkpt lat="40.5451828" lon="17.2080297"><ele>89.8</ele><time>2026-03-29T07:39:33.971Z</time></trkpt><trkpt lat="40.5452834" lon="17.2080175"><ele>90.0</ele><time>2026-03-29T07:39:34.97Z</time></trkpt><trkpt lat="40.5453849" lon="17.2080057"><ele>90.2</ele><time>2026-03-29T07:39:35.971Z</time></trkpt><trkpt lat="40.5454852" lon="17.207994"><ele>90.4</ele><time>2026-03-29T07:39:36.971Z</time></trkpt><trkpt lat="40.5455834" lon="17.2079812"><ele>90.6</ele><time>2026-03-29T07:39:37.971Z</time></trkpt><trkpt lat="40.5456815" lon="17.2079651"><ele>90.8</ele><time>2026-03-29T07:39:38.97Z</time></trkpt><trkpt lat="40.5457799" lon="17.2079449"><ele>91.0</ele><time>2026-03-29T07:39:39.971Z</time></trkpt><trkpt lat="40.545877" lon="17.2079241"><ele>91.0</ele><time>2026-03-29T07:39:40.971Z</time></trkpt><trkpt lat="40.5459737" lon="17.2079009"><ele>91.0</ele><time>2026-03-29T07:39:41.971Z</time></trkpt><trkpt lat="40.5460717" lon="17.2078769"><ele>91.0</ele><time>2026-03-29T07:39:42.971Z</time></trkpt><trkpt lat="40.5461673" lon="17.2078529"><ele>91.0</ele><time>2026-03-29T07:39:43.971Z</time></trkpt><trkpt lat="40.5462637" lon="17.2078289"><ele>91.0</ele><time>2026-03-29T07:39:44.971Z</time></trkpt><trkpt lat="40.5463606" lon="17.2078035"><ele>91.6</ele><time>2026-03-29T07:39:45.973Z</time></trkpt><trkpt lat="40.54646" lon="17.2077794"><ele>92.19999999999999</ele><time>2026-03-29T07:39:46.971Z</time></trkpt><trkpt lat="40.5465588" lon="17.2077535"><ele>92.80000000000001</ele><time>2026-03-29T07:39:47.971Z</time></trkpt><trkpt lat="40.5466584" lon="17.2077282"><ele>93.4</ele><time>2026-03-29T07:39:48.971Z</time></trkpt><trkpt lat="40.5467583" lon="17.2077043"><ele>94.0</ele><time>2026-03-29T07:39:49.971Z</time></trkpt><trkpt lat="40.5468594" lon="17.2076826"><ele>94.0</ele><time>2026-03-29T07:39:50.971Z</time></trkpt><trkpt lat="40.5469658" lon="17.2076595"><ele>94.0</ele><time>2026-03-29T07:39:51.971Z</time></trkpt><trkpt lat="40.5470803" lon="17.2076334"><ele>94.0</ele><time>2026-03-29T07:39:52.97Z</time></trkpt><trkpt lat="40.5471979" lon="17.2076045"><ele>94.0</ele><time>2026-03-29T07:39:53.971Z</time></trkpt><trkpt lat="40.5473104" lon="17.2075762"><ele>94.4</ele><time>2026-03-29T07:39:54.971Z</time></trkpt><trkpt lat="40.5474149" lon="17.2075445"><ele>94.80000000000001</ele><time>2026-03-29T07:39:55.971Z</time></trkpt><trkpt lat="40.5475139" lon="17.2075182"><ele>95.19999999999999</ele><time>2026-03-29T07:39:56.97Z</time></trkpt><trkpt lat="40.5476088" lon="17.2074927"><ele>95.6</ele><time>2026-03-29T07:39:57.971Z</time></trkpt><trkpt lat="40.5477008" lon="17.2074654"><ele>96.0</ele><time>2026-03-29T07:39:58.97Z</time></trkpt><trkpt lat="40.5477894" lon="17.2074352"><ele>96.0</ele><time>2026-03-29T07:39:59.972Z</time></trkpt><trkpt lat="40.5478743" lon="17.2074067"><ele>96.0</ele><time>2026-03-29T07:40:00.971Z</time></trkpt><trkpt lat="40.5479601" lon="17.2073784"><ele>96.0</ele><time>2026-03-29T07:40:01.971Z</time></trkpt><trkpt lat="40.5480455" lon="17.2073493"><ele>96.0</ele><time>2026-03-29T07:40:02.97Z</time></trkpt><trkpt lat="40.5481307" lon="17.2073226"><ele>96.0</ele><time>2026-03-29T07:40:03.97Z</time></trkpt><trkpt lat="40.5482172" lon="17.207297"><ele>96.0</ele><time>2026-03-29T07:40:04.971Z</time></trkpt><trkpt lat="40.5483066" lon="17.2072682"><ele>96.0</ele><time>2026-03-29T07:40:05.973Z</time></trkpt><trkpt lat="40.5483964" lon="17.2072379"><ele>96.0</ele><time>2026-03-29T07:40:06.972Z</time></trkpt><trkpt lat="40.5484878" lon="17.2072095"><ele>96.0</ele><time>2026-03-29T07:40:07.972Z</time></trkpt><trkpt lat="40.5485756" lon="17.207183"><ele>96.0</ele><time>2026-03-29T07:40:08.971Z</time></trkpt><trkpt lat="40.5486635" lon="17.2071566"><ele>96.0</ele><time>2026-03-29T07:40:09.971Z</time></trkpt><trkpt lat="40.5487514" lon="17.2071295"><ele>96.33333333333333</ele><time>2026-03-29T07:40:10.971Z</time></trkpt><trkpt lat="40.5488386" lon="17.2071032"><ele>96.66666666666666</ele><time>2026-03-29T07:40:11.97Z</time></trkpt><trkpt lat="40.5489251" lon="17.2070831"><ele>97.0</ele><time>2026-03-29T07:40:12.97Z</time></trkpt><trkpt lat="40.54901" lon="17.2070679"><ele>97.33333333333333</ele><time>2026-03-29T07:40:13.971Z</time></trkpt><trkpt lat="40.5490961" lon="17.2070623"><ele>97.66666666666666</ele><time>2026-03-29T07:40:14.971Z</time></trkpt><trkpt lat="40.5491846" lon="17.2070727"><ele>98.0</ele><time>2026-03-29T07:40:15.973Z</time></trkpt><trkpt lat="40.5492781" lon="17.2070976"><ele>97.99999999999999</ele><time>2026-03-29T07:40:16.973Z</time></trkpt><trkpt lat="40.5493702" lon="17.2071262"><ele>98.0</ele><time>2026-03-29T07:40:17.97Z</time></trkpt><trkpt lat="40.54946" lon="17.2071527"><ele>98.0</ele><time>2026-03-29T07:40:18.971Z</time></trkpt><trkpt lat="40.5495469" lon="17.2071709"><ele>98.0</ele><time>2026-03-29T07:40:19.97Z</time></trkpt><trkpt lat="40.5496307" lon="17.2071785"><ele>97.99999999999999</ele><time>2026-03-29T07:40:20.971Z</time></trkpt><trkpt lat="40.5497152" lon="17.2071721"><ele>98.0</ele><time>2026-03-29T07:40:21.971Z</time></trkpt><trkpt lat="40.5498014" lon="17.2071532"><ele>98.2</ele><time>2026-03-29T07:40:22.97Z</time></trkpt><trkpt lat="40.5498883" lon="17.2071216"><ele>98.4</ele><time>2026-03-29T07:40:23.971Z</time></trkpt><trkpt lat="40.5499803" lon="17.2070823"><ele>98.60000000000001</ele><time>2026-03-29T07:40:24.972Z</time></trkpt><trkpt lat="40.5500734" lon="17.207037"><ele>98.80000000000001</ele><time>2026-03-29T07:40:25.971Z</time></trkpt><trkpt lat="40.5501684" lon="17.2069883"><ele>99.0</ele><time>2026-03-29T07:40:26.971Z</time></trkpt><trkpt lat="40.5502627" lon="17.2069384"><ele>99.0</ele><time>2026-03-29T07:40:27.971Z</time></trkpt><trkpt lat="40.5503534" lon="17.2068904"><ele>99.0</ele><time>2026-03-29T07:40:28.971Z</time></trkpt><trkpt lat="40.5504388" lon="17.2068368"><ele>99.0</ele><time>2026-03-29T07:40:29.971Z</time></trkpt><trkpt lat="40.550518" lon="17.206778"><ele>99.0</ele><time>2026-03-29T07:40:30.971Z</time></trkpt><trkpt lat="40.5505928" lon="17.2067161"><ele>99.0</ele><time>2026-03-29T07:40:31.97Z</time></trkpt><trkpt lat="40.550667" lon="17.2066541"><ele>99.0</ele><time>2026-03-29T07:40:32.972Z</time></trkpt><trkpt lat="40.5507443" lon="17.206588"><ele>99.0</ele><time>2026-03-29T07:40:33.971Z</time></trkpt><trkpt lat="40.5508255" lon="17.2065214"><ele>99.0</ele><time>2026-03-29T07:40:34.97Z</time></trkpt><trkpt lat="40.5509118" lon="17.2064544"><ele>99.0</ele><time>2026-03-29T07:40:35.969Z</time></trkpt><trkpt lat="40.5510007" lon="17.206393"><ele>99.0</ele><time>2026-03-29T07:40:36.97Z</time></trkpt><trkpt lat="40.5510908" lon="17.2063416"><ele>99.2</ele><time>2026-03-29T07:40:37.971Z</time></trkpt><trkpt lat="40.5511839" lon="17.2063"><ele>99.4</ele><time>2026-03-29T07:40:38.97Z</time></trkpt><trkpt lat="40.551279" lon="17.2062627"><ele>99.6</ele><time>2026-03-29T07:40:39.971Z</time></trkpt><trkpt lat="40.5513704" lon="17.2062243"><ele>99.8</ele><time>2026-03-29T07:40:40.97Z</time></trkpt><trkpt lat="40.5514592" lon="17.2061833"><ele>100.0</ele><time>2026-03-29T07:40:41.97Z</time></trkpt><trkpt lat="40.5515511" lon="17.206144"><ele>100.0</ele><time>2026-03-29T07:40:42.971Z</time></trkpt><trkpt lat="40.5516481" lon="17.2061136"><ele>100.0</ele><time>2026-03-29T07:40:43.971Z</time></trkpt><trkpt lat="40.5517457" lon="17.2060856"><ele>100.0</ele><time>2026-03-29T07:40:44.974Z</time></trkpt><trkpt lat="40.5518427" lon="17.2060557"><ele>100.0</ele><time>2026-03-29T07:40:45.97Z</time></trkpt><trkpt lat="40.551938" lon="17.2060248"><ele>100.0</ele><time>2026-03-29T07:40:46.97Z</time></trkpt><trkpt lat="40.5520329" lon="17.2059951"><ele>99.8</ele><time>2026-03-29T07:40:47.971Z</time></trkpt><trkpt lat="40.5521279" lon="17.2059648"><ele>99.6</ele><time>2026-03-29T07:40:48.971Z</time></trkpt><trkpt lat="40.5522245" lon="17.2059333"><ele>99.4</ele><time>2026-03-29T07:40:49.971Z</time></trkpt><trkpt lat="40.5523226" lon="17.2059021"><ele>99.2</ele><time>2026-03-29T07:40:50.971Z</time></trkpt><trkpt lat="40.5524227" lon="17.205871"><ele>99.0</ele><time>2026-03-29T07:40:51.971Z</time></trkpt><trkpt lat="40.5525233" lon="17.2058382"><ele>99.0</ele><time>2026-03-29T07:40:52.973Z</time></trkpt><trkpt lat="40.5526234" lon="17.205805"><ele>99.0</ele><time>2026-03-29T07:40:53.971Z</time></trkpt><trkpt lat="40.5527219" lon="17.2057681"><ele>99.0</ele><time>2026-03-29T07:40:54.973Z</time></trkpt><trkpt lat="40.5528198" lon="17.2057277"><ele>99.0</ele><time>2026-03-29T07:40:55.972Z</time></trkpt><trkpt lat="40.5529148" lon="17.2056885"><ele>99.0</ele><time>2026-03-29T07:40:56.971Z</time></trkpt><trkpt lat="40.5530095" lon="17.2056559"><ele>99.0</ele><time>2026-03-29T07:40:57.972Z</time></trkpt><trkpt lat="40.5531034" lon="17.2056235"><ele>99.0</ele><time>2026-03-29T07:40:58.971Z</time></trkpt><trkpt lat="40.5531956" lon="17.2055913"><ele>99.0</ele><time>2026-03-29T07:40:59.971Z</time></trkpt><trkpt lat="40.5532901" lon="17.2055582"><ele>99.0</ele><time>2026-03-29T07:41:00.971Z</time></trkpt><trkpt lat="40.553389" lon="17.2055259"><ele>99.0</ele><time>2026-03-29T07:41:01.971Z</time></trkpt><trkpt lat="40.5534906" lon="17.2054925"><ele>99.0</ele><time>2026-03-29T07:41:02.972Z</time></trkpt><trkpt lat="40.5535908" lon="17.2054563"><ele>99.0</ele><time>2026-03-29T07:41:03.971Z</time></trkpt><trkpt lat="40.5536882" lon="17.2054192"><ele>99.0</ele><time>2026-03-29T07:41:04.97Z</time></trkpt><trkpt lat="40.5537864" lon="17.2053842"><ele>99.0</ele><time>2026-03-29T07:41:05.971Z</time></trkpt><trkpt lat="40.5538836" lon="17.2053499"><ele>99.0</ele><time>2026-03-29T07:41:06.971Z</time></trkpt><trkpt lat="40.5539817" lon="17.2053174"><ele>99.2</ele><time>2026-03-29T07:41:07.971Z</time></trkpt><trkpt lat="40.5540799" lon="17.2052873"><ele>99.4</ele><time>2026-03-29T07:41:08.971Z</time></trkpt><trkpt lat="40.5541783" lon="17.2052627"><ele>99.6</ele><time>2026-03-29T07:41:09.971Z</time></trkpt><trkpt lat="40.5542824" lon="17.2052489"><ele>99.8</ele><time>2026-03-29T07:41:10.97Z</time></trkpt><trkpt lat="40.5543894" lon="17.2052434"><ele>100.0</ele><time>2026-03-29T07:41:11.971Z</time></trkpt><trkpt lat="40.554495" lon="17.2052445"><ele>100.2</ele><time>2026-03-29T07:41:12.971Z</time></trkpt><trkpt lat="40.5545974" lon="17.2052507"><ele>100.4</ele><time>2026-03-29T07:41:13.972Z</time></trkpt><trkpt lat="40.5546989" lon="17.2052594"><ele>100.6</ele><time>2026-03-29T07:41:14.972Z</time></trkpt><trkpt lat="40.5548017" lon="17.2052677"><ele>100.8</ele><time>2026-03-29T07:41:15.971Z</time></trkpt><trkpt lat="40.5549063" lon="17.2052792"><ele>101.0</ele><time>2026-03-29T07:41:16.971Z</time></trkpt><trkpt lat="40.5550113" lon="17.2052928"><ele>101.0</ele><time>2026-03-29T07:41:17.972Z</time></trkpt><trkpt lat="40.5551161" lon="17.2053084"><ele>101.0</ele><time>2026-03-29T07:41:18.971Z</time></trkpt><trkpt lat="40.5552195" lon="17.2053245"><ele>101.0</ele><time>2026-03-29T07:41:19.971Z</time></trkpt><trkpt lat="40.5553202" lon="17.2053426"><ele>101.0</ele><time>2026-03-29T07:41:20.97Z</time></trkpt><trkpt lat="40.5554187" lon="17.2053615"><ele>101.0</ele><time>2026-03-29T07:41:21.972Z</time></trkpt><trkpt lat="40.5555165" lon="17.2053828"><ele>101.4</ele><time>2026-03-29T07:41:22.97Z</time></trkpt><trkpt lat="40.5556106" lon="17.2054033"><ele>101.8</ele><time>2026-03-29T07:41:23.971Z</time></trkpt><trkpt lat="40.5557066" lon="17.20542"><ele>102.2</ele><time>2026-03-29T07:41:24.971Z</time></trkpt><trkpt lat="40.5558021" lon="17.2054381"><ele>102.60000000000001</ele><time>2026-03-29T07:41:25.971Z</time></trkpt><trkpt lat="40.5558989" lon="17.2054577"><ele>103.0</ele><time>2026-03-29T07:41:26.97Z</time></trkpt><trkpt lat="40.5559998" lon="17.2054791"><ele>103.0</ele><time>2026-03-29T07:41:27.971Z</time></trkpt><trkpt lat="40.5561041" lon="17.2055001"><ele>103.0</ele><time>2026-03-29T07:41:28.971Z</time></trkpt><trkpt lat="40.5562079" lon="17.2055233"><ele>103.0</ele><time>2026-03-29T07:41:29.971Z</time></trkpt><trkpt lat="40.556313" lon="17.2055475"><ele>103.0</ele><time>2026-03-29T07:41:30.97Z</time></trkpt><trkpt lat="40.5564168" lon="17.2055698"><ele>103.0</ele><time>2026-03-29T07:41:31.972Z</time></trkpt><trkpt lat="40.5565198" lon="17.2055915"><ele>103.0</ele><time>2026-03-29T07:41:32.971Z</time></trkpt><trkpt lat="40.5566191" lon="17.2056125"><ele>103.0</ele><time>2026-03-29T07:41:33.971Z</time></trkpt><trkpt lat="40.5567175" lon="17.2056328"><ele>103.0</ele><time>2026-03-29T07:41:34.97Z</time></trkpt><trkpt lat="40.5568126" lon="17.2056557"><ele>103.0</ele><time>2026-03-29T07:41:35.971Z</time></trkpt><trkpt lat="40.5569071" lon="17.2056766"><ele>103.0</ele><time>2026-03-29T07:41:36.972Z</time></trkpt><trkpt lat="40.5570017" lon="17.2056948"><ele>103.60000000000001</ele><time>2026-03-29T07:41:37.971Z</time></trkpt><trkpt lat="40.5570914" lon="17.2057124"><ele>104.2</ele><time>2026-03-29T07:41:38.969Z</time></trkpt><trkpt lat="40.5571798" lon="17.2057291"><ele>104.8</ele><time>2026-03-29T07:41:39.971Z</time></trkpt><trkpt lat="40.5572692" lon="17.2057456"><ele>105.4</ele><time>2026-03-29T07:41:40.97Z</time></trkpt><trkpt lat="40.5573591" lon="17.2057666"><ele>106.0</ele><time>2026-03-29T07:41:41.971Z</time></trkpt><trkpt lat="40.5574515" lon="17.2057887"><ele>106.0</ele><time>2026-03-29T07:41:42.97Z</time></trkpt><trkpt lat="40.5575473" lon="17.2058119"><ele>106.0</ele><time>2026-03-29T07:41:43.971Z</time></trkpt><trkpt lat="40.5576431" lon="17.2058357"><ele>106.0</ele><time>2026-03-29T07:41:44.971Z</time></trkpt><trkpt lat="40.5577414" lon="17.2058577"><ele>106.0</ele><time>2026-03-29T07:41:45.974Z</time></trkpt><trkpt lat="40.5578408" lon="17.2058777"><ele>106.0</ele><time>2026-03-29T07:41:46.974Z</time></trkpt><trkpt lat="40.5579414" lon="17.2059007"><ele>106.4</ele><time>2026-03-29T07:41:47.97Z</time></trkpt><trkpt lat="40.5580415" lon="17.2059257"><ele>106.8</ele><time>2026-03-29T07:41:48.971Z</time></trkpt><trkpt lat="40.5581411" lon="17.2059466"><ele>107.20000000000002</ele><time>2026-03-29T07:41:49.97Z</time></trkpt><trkpt lat="40.5582419" lon="17.2059702"><ele>107.60000000000001</ele><time>2026-03-29T07:41:50.97Z</time></trkpt><trkpt lat="40.5583398" lon="17.2059947"><ele>108.0</ele><time>2026-03-29T07:41:51.971Z</time></trkpt><trkpt lat="40.5584373" lon="17.2060164"><ele>108.0</ele><time>2026-03-29T07:41:52.969Z</time></trkpt><trkpt lat="40.5585361" lon="17.2060394"><ele>108.00000000000001</ele><time>2026-03-29T07:41:53.974Z</time></trkpt><trkpt lat="40.5586359" lon="17.2060622"><ele>108.00000000000001</ele><time>2026-03-29T07:41:54.971Z</time></trkpt><trkpt lat="40.5587361" lon="17.2060832"><ele>108.0</ele><time>2026-03-29T07:41:55.975Z</time></trkpt><trkpt lat="40.5588307" lon="17.2061032"><ele>108.0</ele><time>2026-03-29T07:41:56.971Z</time></trkpt><trkpt lat="40.558924" lon="17.206122"><ele>108.0</ele><time>2026-03-29T07:41:57.971Z</time></trkpt><trkpt lat="40.5590162" lon="17.2061381"><ele>108.0</ele><time>2026-03-29T07:41:58.972Z</time></trkpt><trkpt lat="40.5591049" lon="17.2061556"><ele>108.0</ele><time>2026-03-29T07:41:59.971Z</time></trkpt><trkpt lat="40.5591911" lon="17.2061758"><ele>108.0</ele><time>2026-03-29T07:42:00.972Z</time></trkpt><trkpt lat="40.5592769" lon="17.2061945"><ele>108.0</ele><time>2026-03-29T07:42:01.971Z</time></trkpt><trkpt lat="40.5593621" lon="17.2062107"><ele>108.0</ele><time>2026-03-29T07:42:02.971Z</time></trkpt><trkpt lat="40.5594445" lon="17.2062219"><ele>108.0</ele><time>2026-03-29T07:42:03.971Z</time></trkpt><trkpt lat="40.5595246" lon="17.2062311"><ele>108.0</ele><time>2026-03-29T07:42:04.97Z</time></trkpt><trkpt lat="40.5596055" lon="17.2062403"><ele>108.0</ele><time>2026-03-29T07:42:05.972Z</time></trkpt><trkpt lat="40.5596815" lon="17.2062584"><ele>108.0</ele><time>2026-03-29T07:42:06.971Z</time></trkpt><trkpt lat="40.559749" lon="17.2062795"><ele>108.0</ele><time>2026-03-29T07:42:07.971Z</time></trkpt><trkpt lat="40.5598545" lon="17.2063044"><ele>108.0</ele><time>2026-03-29T07:42:09.971Z</time></trkpt><trkpt lat="40.5599573" lon="17.206341"><ele>108.80000000000001</ele><time>2026-03-29T07:42:11.971Z</time></trkpt><trkpt lat="40.5600807" lon="17.2063896"><ele>109.60000000000001</ele><time>2026-03-29T07:42:13.97Z</time></trkpt><trkpt lat="40.5601522" lon="17.2063992"><ele>110.39999999999999</ele><time>2026-03-29T07:42:14.971Z</time></trkpt><trkpt lat="40.5602294" lon="17.2063997"><ele>111.19999999999999</ele><time>2026-03-29T07:42:15.974Z</time></trkpt><trkpt lat="40.560315" lon="17.2063973"><ele>112.0</ele><time>2026-03-29T07:42:16.977Z</time></trkpt><trkpt lat="40.5604009" lon="17.2064042"><ele>113.00000000000001</ele><time>2026-03-29T07:42:17.969Z</time></trkpt><trkpt lat="40.5604884" lon="17.2064146"><ele>114.0</ele><time>2026-03-29T07:42:18.971Z</time></trkpt><trkpt lat="40.5605761" lon="17.2064272"><ele>115.0</ele><time>2026-03-29T07:42:19.972Z</time></trkpt><trkpt lat="40.5606657" lon="17.206442"><ele>116.0</ele><time>2026-03-29T07:42:20.972Z</time></trkpt><trkpt lat="40.5607506" lon="17.2064607"><ele>117.00000000000001</ele><time>2026-03-29T07:42:21.972Z</time></trkpt><trkpt lat="40.5608212" lon="17.2064858"><ele>118.0</ele><time>2026-03-29T07:42:22.971Z</time></trkpt><trkpt lat="40.5608786" lon="17.206521"><ele>118.33333333333334</ele><time>2026-03-29T07:42:23.971Z</time></trkpt><trkpt lat="40.5609609" lon="17.2066257"><ele>118.66666666666667</ele><time>2026-03-29T07:42:25.971Z</time></trkpt><trkpt lat="40.5609926" lon="17.2067001"><ele>119.0</ele><time>2026-03-29T07:42:26.97Z</time></trkpt><trkpt lat="40.5610245" lon="17.2067867"><ele>119.33333333333334</ele><time>2026-03-29T07:42:27.97Z</time></trkpt><trkpt lat="40.5610535" lon="17.2068771"><ele>119.66666666666667</ele><time>2026-03-29T07:42:28.97Z</time></trkpt><trkpt lat="40.5610804" lon="17.2069533"><ele>120.0</ele><time>2026-03-29T07:42:29.972Z</time></trkpt><trkpt lat="40.5611287" lon="17.2070415"><ele>120.0</ele><time>2026-03-29T07:42:31.973Z</time></trkpt><trkpt lat="40.5611943" lon="17.2070345"><ele>120.0</ele><time>2026-03-29T07:42:35.97Z</time></trkpt><trkpt lat="40.5612523" lon="17.2069812"><ele>120.0</ele><time>2026-03-29T07:42:39.97Z</time></trkpt><trkpt lat="40.5613016" lon="17.2068964"><ele>120.0</ele><time>2026-03-29T07:42:41.97Z</time></trkpt><trkpt lat="40.561339" lon="17.2067883"><ele>120.0</ele><time>2026-03-29T07:42:43.971Z</time></trkpt><trkpt lat="40.5613831" lon="17.2066466"><ele>120.0</ele><time>2026-03-29T07:42:45.972Z</time></trkpt><trkpt lat="40.5614155" lon="17.2065707"><ele>120.71428571428572</ele><time>2026-03-29T07:42:46.972Z</time></trkpt><trkpt lat="40.5614444" lon="17.2064866"><ele>121.42857142857142</ele><time>2026-03-29T07:42:47.974Z</time></trkpt><trkpt lat="40.5614714" lon="17.2064018"><ele>122.14285714285714</ele><time>2026-03-29T07:42:48.97Z</time></trkpt><trkpt lat="40.5614955" lon="17.206319"><ele>122.85714285714286</ele><time>2026-03-29T07:42:49.971Z</time></trkpt><trkpt lat="40.5615198" lon="17.2062294"><ele>123.57142857142858</ele><time>2026-03-29T07:42:50.971Z</time></trkpt><trkpt lat="40.5615362" lon="17.2061352"><ele>124.28571428571428</ele><time>2026-03-29T07:42:51.972Z</time></trkpt><trkpt lat="40.5615502" lon="17.2060374"><ele>125.0</ele><time>2026-03-29T07:42:52.971Z</time></trkpt><trkpt lat="40.5615631" lon="17.2059453"><ele>124.99999999999999</ele><time>2026-03-29T07:42:53.971Z</time></trkpt><trkpt lat="40.5615752" lon="17.205852"><ele>125.0</ele><time>2026-03-29T07:42:54.972Z</time></trkpt><trkpt lat="40.5615878" lon="17.2057536"><ele>125.0</ele><time>2026-03-29T07:42:55.97Z</time></trkpt><trkpt lat="40.5615993" lon="17.2056451"><ele>125.0</ele><time>2026-03-29T07:42:56.97Z</time></trkpt><trkpt lat="40.561612" lon="17.2055317"><ele>124.99999999999999</ele><time>2026-03-29T07:42:57.97Z</time></trkpt><trkpt lat="40.5616236" lon="17.2054163"><ele>125.0</ele><time>2026-03-29T07:42:58.97Z</time></trkpt><trkpt lat="40.561635" lon="17.2053112"><ele>125.16666666666666</ele><time>2026-03-29T07:42:59.971Z</time></trkpt><trkpt lat="40.5616443" lon="17.2052232"><ele>125.33333333333333</ele><time>2026-03-29T07:43:00.971Z</time></trkpt><trkpt lat="40.5616507" lon="17.2051011"><ele>125.5</ele><time>2026-03-29T07:43:02.97Z</time></trkpt><trkpt lat="40.5617169" lon="17.2050237"><ele>125.66666666666666</ele><time>2026-03-29T07:43:05.971Z</time></trkpt><trkpt lat="40.5618055" lon="17.2050511"><ele>125.83333333333333</ele><time>2026-03-29T07:43:07.972Z</time></trkpt><trkpt lat="40.5618801" lon="17.2051233"><ele>126.0</ele><time>2026-03-29T07:43:09.97Z</time></trkpt><trkpt lat="40.5619193" lon="17.20519"><ele>126.0</ele><time>2026-03-29T07:43:11.971Z</time></trkpt><trkpt lat="40.5619467" lon="17.205105"><ele>126.0</ele><time>2026-03-29T07:43:37.977Z</time></trkpt><trkpt lat="40.56201" lon="17.2050617"><ele>126.0</ele><time>2026-03-29T07:43:40.97Z</time></trkpt><trkpt lat="40.5621018" lon="17.2050386"><ele>126.0</ele><time>2026-03-29T07:43:43.971Z</time></trkpt><trkpt lat="40.5621734" lon="17.2050198"><ele>126.0</ele><time>2026-03-29T07:43:45.97Z</time></trkpt><trkpt lat="40.5622391" lon="17.2050106"><ele>126.0</ele><time>2026-03-29T07:43:47.971Z</time></trkpt><trkpt lat="40.5623084" lon="17.2050005"><ele>126.0</ele><time>2026-03-29T07:43:49.971Z</time></trkpt><trkpt lat="40.5623723" lon="17.2049876"><ele>127.33333333333333</ele><time>2026-03-29T07:43:51.971Z</time></trkpt><trkpt lat="40.5624354" lon="17.2049756"><ele>128.66666666666666</ele><time>2026-03-29T07:43:53.971Z</time></trkpt><trkpt lat="40.5624658" lon="17.2050688"><ele>130.0</ele><time>2026-03-29T07:43:58.972Z</time></trkpt><trkpt lat="40.5624559" lon="17.2051685"><ele>131.33333333333331</ele><time>2026-03-29T07:44:00.971Z</time></trkpt><trkpt lat="40.5624535" lon="17.2052764"><ele>132.66666666666666</ele><time>2026-03-29T07:44:02.971Z</time></trkpt><trkpt lat="40.5624515" lon="17.2054002"><ele>134.0</ele><time>2026-03-29T07:44:04.972Z</time></trkpt><trkpt lat="40.5624404" lon="17.2055462"><ele>134.16666666666666</ele><time>2026-03-29T07:44:06.97Z</time></trkpt><trkpt lat="40.5624356" lon="17.205689"><ele>134.33333333333331</ele><time>2026-03-29T07:44:08.971Z</time></trkpt><trkpt lat="40.5624316" lon="17.205817"><ele>134.5</ele><time>2026-03-29T07:44:10.97Z</time></trkpt><trkpt lat="40.5624255" lon="17.2059296"><ele>134.66666666666666</ele><time>2026-03-29T07:44:12.971Z</time></trkpt><trkpt lat="40.5624189" lon="17.206036"><ele>134.83333333333334</ele><time>2026-03-29T07:44:14.971Z</time></trkpt><trkpt lat="40.5624161" lon="17.2061285"><ele>135.0</ele><time>2026-03-29T07:44:16.971Z</time></trkpt><trkpt lat="40.5624246" lon="17.2062298"><ele>135.0</ele><time>2026-03-29T07:44:18.972Z</time></trkpt><trkpt lat="40.5624153" lon="17.2063339"><ele>135.0</ele><time>2026-03-29T07:44:20.97Z</time></trkpt><trkpt lat="40.5624043" lon="17.2064474"><ele>135.0</ele><time>2026-03-29T07:44:22.971Z</time></trkpt><trkpt lat="40.5623974" lon="17.2065549"><ele>135.0</ele><time>2026-03-29T07:44:24.971Z</time></trkpt><trkpt lat="40.5623882" lon="17.2066376"><ele>135.0</ele><time>2026-03-29T07:44:26.972Z</time></trkpt><trkpt lat="40.562377" lon="17.2067273"><ele>135.0</ele><time>2026-03-29T07:44:28.97Z</time></trkpt><trkpt lat="40.5623489" lon="17.2068405"><ele>135.2</ele><time>2026-03-29T07:44:30.971Z</time></trkpt><trkpt lat="40.5623324" lon="17.2069507"><ele>135.4</ele><time>2026-03-29T07:44:32.97Z</time></trkpt><trkpt lat="40.5623408" lon="17.2070682"><ele>135.6</ele><time>2026-03-29T07:44:35.971Z</time></trkpt><trkpt lat="40.5624354" lon="17.2070941"><ele>135.8</ele><time>2026-03-29T07:44:38.971Z</time></trkpt><trkpt lat="40.5625243" lon="17.2070816"><ele>136.0</ele><time>2026-03-29T07:44:40.971Z</time></trkpt><trkpt lat="40.5626278" lon="17.2070861"><ele>136.0</ele><time>2026-03-29T07:44:42.971Z</time></trkpt><trkpt lat="40.5627083" lon="17.2071032"><ele>136.0</ele><time>2026-03-29T07:44:44.971Z</time></trkpt><trkpt lat="40.562769" lon="17.2071271"><ele>136.0</ele><time>2026-03-29T07:44:46.971Z</time></trkpt><trkpt lat="40.5628547" lon="17.2071409"><ele>136.0</ele><time>2026-03-29T07:44:48.971Z</time></trkpt><trkpt lat="40.5629481" lon="17.2071478"><ele>136.0</ele><time>2026-03-29T07:44:50.971Z</time></trkpt><trkpt lat="40.5630152" lon="17.20716"><ele>136.0</ele><time>2026-03-29T07:44:52.971Z</time></trkpt><trkpt lat="40.5630627" lon="17.2070486"><ele>136.8</ele><time>2026-03-29T07:44:58.971Z</time></trkpt><trkpt lat="40.5630767" lon="17.2069167"><ele>137.6</ele><time>2026-03-29T07:45:00.972Z</time></trkpt><trkpt lat="40.5630767" lon="17.2067733"><ele>138.4</ele><time>2026-03-29T07:45:02.972Z</time></trkpt><trkpt lat="40.5630833" lon="17.2066283"><ele>139.2</ele><time>2026-03-29T07:45:04.971Z</time></trkpt><trkpt lat="40.5630867" lon="17.206495"><ele>140.0</ele><time>2026-03-29T07:45:06.972Z</time></trkpt><trkpt lat="40.5630933" lon="17.20637"><ele>140.0</ele><time>2026-03-29T07:45:08.971Z</time></trkpt><trkpt lat="40.5630933" lon="17.2062517"><ele>140.0</ele><time>2026-03-29T07:45:10.97Z</time></trkpt><trkpt lat="40.5631" lon="17.20613"><ele>140.0</ele><time>2026-03-29T07:45:12.976Z</time></trkpt><trkpt lat="40.5631167" lon="17.205995"><ele>140.0</ele><time>2026-03-29T07:45:14.97Z</time></trkpt><trkpt lat="40.5631217" lon="17.2059033"><ele>140.0</ele><time>2026-03-29T07:45:16.971Z</time></trkpt><trkpt lat="40.5631633" lon="17.2058083"><ele>140.0</ele><time>2026-03-29T07:45:20.971Z</time></trkpt><trkpt lat="40.5632567" lon="17.205795"><ele>140.0</ele><time>2026-03-29T07:45:23.97Z</time></trkpt><trkpt lat="40.56333" lon="17.20581"><ele>140.0</ele><time>2026-03-29T07:45:25.972Z</time></trkpt><trkpt lat="40.5633933" lon="17.205825"><ele>140.0</ele><time>2026-03-29T07:45:28.97Z</time></trkpt><trkpt lat="40.5634917" lon="17.2058317"><ele>140.0</ele><time>2026-03-29T07:45:31.97Z</time></trkpt><trkpt lat="40.5636183" lon="17.2058367"><ele>140.0</ele><time>2026-03-29T07:45:33.971Z</time></trkpt><trkpt lat="40.5636917" lon="17.2058417"><ele>140.0</ele><time>2026-03-29T07:45:34.97Z</time></trkpt><trkpt lat="40.5637617" lon="17.2058467"><ele>140.4</ele><time>2026-03-29T07:45:35.969Z</time></trkpt><trkpt lat="40.5638251" lon="17.2058533"><ele>140.8</ele><time>2026-03-29T07:45:36.971Z</time></trkpt><trkpt lat="40.5639383" lon="17.2058532"><ele>141.2</ele><time>2026-03-29T07:45:38.97Z</time></trkpt><trkpt lat="40.5640585" lon="17.2058704"><ele>141.6</ele><time>2026-03-29T07:45:40.97Z</time></trkpt><trkpt lat="40.5641745" lon="17.205886"><ele>142.0</ele><time>2026-03-29T07:45:42.97Z</time></trkpt><trkpt lat="40.5642392" lon="17.2058902"><ele>142.0</ele><time>2026-03-29T07:45:45.97Z</time></trkpt><trkpt lat="40.5643272" lon="17.2058705"><ele>142.0</ele><time>2026-03-29T07:45:48.97Z</time></trkpt><trkpt lat="40.5643927" lon="17.2058753"><ele>142.0</ele><time>2026-03-29T07:45:49.971Z</time></trkpt><trkpt lat="40.5644645" lon="17.2058847"><ele>142.0</ele><time>2026-03-29T07:45:50.969Z</time></trkpt><trkpt lat="40.5645444" lon="17.2058945"><ele>142.0</ele><time>2026-03-29T07:45:51.971Z</time></trkpt><trkpt lat="40.5646246" lon="17.2059085"><ele>142.0</ele><time>2026-03-29T07:45:52.97Z</time></trkpt><trkpt lat="40.5647006" lon="17.2059193"><ele>142.66666666666669</ele><time>2026-03-29T07:45:53.971Z</time></trkpt><trkpt lat="40.5647714" lon="17.205928"><ele>143.33333333333334</ele><time>2026-03-29T07:45:54.972Z</time></trkpt><trkpt lat="40.5648356" lon="17.2059393"><ele>144.0</ele><time>2026-03-29T07:45:55.971Z</time></trkpt><trkpt lat="40.5649458" lon="17.2059554"><ele>144.66666666666666</ele><time>2026-03-29T07:45:57.972Z</time></trkpt><trkpt lat="40.5650369" lon="17.2059674"><ele>145.33333333333331</ele><time>2026-03-29T07:45:59.97Z</time></trkpt><trkpt lat="40.5651365" lon="17.2059763"><ele>146.0</ele><time>2026-03-29T07:46:01.974Z</time></trkpt><trkpt lat="40.5652569" lon="17.2059965"><ele>146.0</ele><time>2026-03-29T07:46:03.973Z</time></trkpt><trkpt lat="40.5653601" lon="17.2060085"><ele>146.0</ele><time>2026-03-29T07:46:05.971Z</time></trkpt><trkpt lat="40.5654302" lon="17.2060172"><ele>146.0</ele><time>2026-03-29T07:46:09.97Z</time></trkpt><trkpt lat="40.565455" lon="17.2059379"><ele>146.0</ele><time>2026-03-29T07:46:13.97Z</time></trkpt><trkpt lat="40.5654582" lon="17.2058272"><ele>146.0</ele><time>2026-03-29T07:46:15.97Z</time></trkpt><trkpt lat="40.5654624" lon="17.2056766"><ele>146.0</ele><time>2026-03-29T07:46:17.972Z</time></trkpt><trkpt lat="40.5654893" lon="17.2055271"><ele>146.0</ele><time>2026-03-29T07:46:19.969Z</time></trkpt><trkpt lat="40.5655098" lon="17.2054045"><ele>146.0</ele><time>2026-03-29T07:46:21.97Z</time></trkpt><trkpt lat="40.5655694" lon="17.2053266"><ele>146.0</ele><time>2026-03-29T07:46:24.97Z</time></trkpt><trkpt lat="40.5656649" lon="17.2053306"><ele>146.0</ele><time>2026-03-29T07:46:26.97Z</time></trkpt><trkpt lat="40.5657319" lon="17.2053375"><ele>146.0</ele><time>2026-03-29T07:46:27.97Z</time></trkpt><trkpt lat="40.5658103" lon="17.2053455"><ele>146.0</ele><time>2026-03-29T07:46:28.972Z</time></trkpt><trkpt lat="40.5659016" lon="17.2053548"><ele>146.0</ele><time>2026-03-29T07:46:29.971Z</time></trkpt><trkpt lat="40.5659943" lon="17.2053645"><ele>146.0</ele><time>2026-03-29T07:46:30.97Z</time></trkpt><trkpt lat="40.5660861" lon="17.2053743"><ele>146.0</ele><time>2026-03-29T07:46:31.971Z</time></trkpt><trkpt lat="40.5661764" lon="17.2053846"><ele>146.0</ele><time>2026-03-29T07:46:32.971Z</time></trkpt><trkpt lat="40.5662671" lon="17.205392"><ele>146.0</ele><time>2026-03-29T07:46:33.971Z</time></trkpt><trkpt lat="40.5663499" lon="17.2053993"><ele>146.33333333333331</ele><time>2026-03-29T07:46:34.97Z</time></trkpt><trkpt lat="40.5664212" lon="17.2054053"><ele>146.66666666666666</ele><time>2026-03-29T07:46:35.97Z</time></trkpt><trkpt lat="40.566485" lon="17.2054093"><ele>147.0</ele><time>2026-03-29T07:46:36.97Z</time></trkpt><trkpt lat="40.5666085" lon="17.2054191"><ele>147.33333333333334</ele><time>2026-03-29T07:46:38.971Z</time></trkpt><trkpt lat="40.5666732" lon="17.2054295"><ele>147.66666666666669</ele><time>2026-03-29T07:46:39.971Z</time></trkpt><trkpt lat="40.5667495" lon="17.2054387"><ele>148.0</ele><time>2026-03-29T07:46:40.97Z</time></trkpt><trkpt lat="40.5668324" lon="17.205446"><ele>148.0</ele><time>2026-03-29T07:46:41.97Z</time></trkpt><trkpt lat="40.5669189" lon="17.2054599"><ele>148.0</ele><time>2026-03-29T07:46:42.97Z</time></trkpt><trkpt lat="40.5670007" lon="17.2054762"><ele>148.0</ele><time>2026-03-29T07:46:43.97Z</time></trkpt><trkpt lat="40.5670745" lon="17.2054886"><ele>148.0</ele><time>2026-03-29T07:46:44.971Z</time></trkpt><trkpt lat="40.5671403" lon="17.2054973"><ele>148.0</ele><time>2026-03-29T07:46:45.973Z</time></trkpt><trkpt lat="40.5672042" lon="17.2055033"><ele>148.0</ele><time>2026-03-29T07:46:46.973Z</time></trkpt><trkpt lat="40.5672715" lon="17.205511"><ele>148.0</ele><time>2026-03-29T07:46:47.972Z</time></trkpt><trkpt lat="40.5673421" lon="17.2055168"><ele>148.6</ele><time>2026-03-29T07:46:48.971Z</time></trkpt><trkpt lat="40.5674129" lon="17.2055224"><ele>149.20000000000002</ele><time>2026-03-29T07:46:49.971Z</time></trkpt><trkpt lat="40.5675372" lon="17.2055394"><ele>149.8</ele><time>2026-03-29T07:46:51.972Z</time></trkpt><trkpt lat="40.5676649" lon="17.2055545"><ele>150.4</ele><time>2026-03-29T07:46:53.971Z</time></trkpt><trkpt lat="40.5677331" lon="17.2055609"><ele>151.0</ele><time>2026-03-29T07:46:54.971Z</time></trkpt><trkpt lat="40.5678028" lon="17.2055669"><ele>151.2857142857143</ele><time>2026-03-29T07:46:55.97Z</time></trkpt><trkpt lat="40.5678716" lon="17.2055761"><ele>151.57142857142858</ele><time>2026-03-29T07:46:56.969Z</time></trkpt><trkpt lat="40.5679413" lon="17.2055874"><ele>151.85714285714286</ele><time>2026-03-29T07:46:57.971Z</time></trkpt><trkpt lat="40.5680118" lon="17.2055947"><ele>152.14285714285717</ele><time>2026-03-29T07:46:58.97Z</time></trkpt><trkpt lat="40.5680877" lon="17.2056011"><ele>152.42857142857144</ele><time>2026-03-29T07:46:59.97Z</time></trkpt><trkpt lat="40.5681615" lon="17.2056077"><ele>152.71428571428572</ele><time>2026-03-29T07:47:00.97Z</time></trkpt><trkpt lat="40.5682283" lon="17.2056131"><ele>153.0</ele><time>2026-03-29T07:47:01.97Z</time></trkpt><trkpt lat="40.5683534" lon="17.2056237"><ele>153.0</ele><time>2026-03-29T07:47:03.971Z</time></trkpt><trkpt lat="40.5684493" lon="17.2056296"><ele>153.0</ele><time>2026-03-29T07:47:05.97Z</time></trkpt><trkpt lat="40.5685132" lon="17.2056331"><ele>153.0</ele><time>2026-03-29T07:47:09.972Z</time></trkpt><trkpt lat="40.5685861" lon="17.2056387"><ele>153.0</ele><time>2026-03-29T07:47:13.97Z</time></trkpt><trkpt lat="40.5686632" lon="17.2056791"><ele>153.0</ele><time>2026-03-29T07:47:16.97Z</time></trkpt><trkpt lat="40.5687293" lon="17.2057183"><ele>153.0</ele><time>2026-03-29T07:47:19.97Z</time></trkpt><trkpt lat="40.5687922" lon="17.2056619"><ele>153.0</ele><time>2026-03-29T07:47:22.97Z</time></trkpt><trkpt lat="40.5687326" lon="17.2056153"><ele>153.0</ele><time>2026-03-29T07:47:26.971Z</time></trkpt><trkpt lat="40.5686499" lon="17.2056114"><ele>153.0</ele><time>2026-03-29T07:47:29.97Z</time></trkpt><trkpt lat="40.5685606" lon="17.2056055"><ele>153.0</ele><time>2026-03-29T07:47:32.97Z</time></trkpt><trkpt lat="40.5684961" lon="17.2055999"><ele>153.0</ele><time>2026-03-29T07:47:34.97Z</time></trkpt><trkpt lat="40.5684209" lon="17.2055952"><ele>153.0</ele><time>2026-03-29T07:47:36.97Z</time></trkpt><trkpt lat="40.5683232" lon="17.2055856"><ele>153.0</ele><time>2026-03-29T07:47:38.971Z</time></trkpt><trkpt lat="40.5682166" lon="17.2055782"><ele>153.0</ele><time>2026-03-29T07:47:40.971Z</time></trkpt><trkpt lat="40.5681123" lon="17.2055668"><ele>153.0</ele><time>2026-03-29T07:47:42.971Z</time></trkpt><trkpt lat="40.5680239" lon="17.2055597"><ele>153.0</ele><time>2026-03-29T07:47:44.969Z</time></trkpt><trkpt lat="40.5679498" lon="17.2055275"><ele>153.0</ele><time>2026-03-29T07:47:46.975Z</time></trkpt><trkpt lat="40.5679195" lon="17.2054444"><ele>153.0</ele><time>2026-03-29T07:47:48.971Z</time></trkpt><trkpt lat="40.5679045" lon="17.2053591"><ele>153.0</ele><time>2026-03-29T07:47:50.97Z</time></trkpt><trkpt lat="40.5678769" lon="17.2052438"><ele>153.0</ele><time>2026-03-29T07:47:52.97Z</time></trkpt><trkpt lat="40.5678471" lon="17.2050947"><ele>153.0</ele><time>2026-03-29T07:47:54.973Z</time></trkpt><trkpt lat="40.5678324" lon="17.2050133"><ele>153.0</ele><time>2026-03-29T07:47:55.971Z</time></trkpt><trkpt lat="40.5678157" lon="17.2049267"><ele>153.0</ele><time>2026-03-29T07:47:56.971Z</time></trkpt><trkpt lat="40.5677967" lon="17.204834"><ele>153.0</ele><time>2026-03-29T07:47:57.97Z</time></trkpt><trkpt lat="40.5677774" lon="17.2047348"><ele>152.6</ele><time>2026-03-29T07:47:58.971Z</time></trkpt><trkpt lat="40.5677588" lon="17.2046265"><ele>152.20000000000002</ele><time>2026-03-29T07:47:59.97Z</time></trkpt><trkpt lat="40.5677386" lon="17.2045126"><ele>151.8</ele><time>2026-03-29T07:48:00.972Z</time></trkpt><trkpt lat="40.5677183" lon="17.2043942"><ele>151.4</ele><time>2026-03-29T07:48:01.971Z</time></trkpt><trkpt lat="40.5677008" lon="17.2042724"><ele>151.0</ele><time>2026-03-29T07:48:02.972Z</time></trkpt><trkpt lat="40.5676842" lon="17.2041527"><ele>151.0</ele><time>2026-03-29T07:48:03.971Z</time></trkpt><trkpt lat="40.5676686" lon="17.2040359"><ele>151.0</ele><time>2026-03-29T07:48:04.97Z</time></trkpt><trkpt lat="40.5676539" lon="17.2039238"><ele>151.0</ele><time>2026-03-29T07:48:05.971Z</time></trkpt><trkpt lat="40.5676433" lon="17.2038222"><ele>151.0</ele><time>2026-03-29T07:48:06.971Z</time></trkpt><trkpt lat="40.5676325" lon="17.2037222"><ele>151.0</ele><time>2026-03-29T07:48:07.972Z</time></trkpt><trkpt lat="40.5676213" lon="17.2036225"><ele>151.0</ele><time>2026-03-29T07:48:08.972Z</time></trkpt><trkpt lat="40.5676114" lon="17.2035229"><ele>151.0</ele><time>2026-03-29T07:48:09.971Z</time></trkpt><trkpt lat="40.5676058" lon="17.2034286"><ele>151.0</ele><time>2026-03-29T07:48:10.971Z</time></trkpt><trkpt lat="40.56761" lon="17.20328"><ele>151.0</ele><time>2026-03-29T07:48:12.971Z</time></trkpt><trkpt lat="40.5676067" lon="17.2031533"><ele>151.0</ele><time>2026-03-29T07:48:14.971Z</time></trkpt><trkpt lat="40.56761" lon="17.2030233"><ele>151.0</ele><time>2026-03-29T07:48:16.974Z</time></trkpt><trkpt lat="40.567625" lon="17.20292"><ele>151.2</ele><time>2026-03-29T07:48:18.972Z</time></trkpt><trkpt lat="40.56766" lon="17.20284"><ele>151.39999999999998</ele><time>2026-03-29T07:48:20.971Z</time></trkpt><trkpt lat="40.5677183" lon="17.202775"><ele>151.6</ele><time>2026-03-29T07:48:22.971Z</time></trkpt><trkpt lat="40.5677983" lon="17.2027217"><ele>151.79999999999998</ele><time>2026-03-29T07:48:24.97Z</time></trkpt><trkpt lat="40.567895" lon="17.2026833"><ele>152.0</ele><time>2026-03-29T07:48:26.971Z</time></trkpt><trkpt lat="40.568005" lon="17.2026417"><ele>152.2</ele><time>2026-03-29T07:48:28.971Z</time></trkpt><trkpt lat="40.5681283" lon="17.2026"><ele>152.39999999999998</ele><time>2026-03-29T07:48:30.971Z</time></trkpt><trkpt lat="40.5681933" lon="17.2025767"><ele>152.60000000000002</ele><time>2026-03-29T07:48:31.971Z</time></trkpt><trkpt lat="40.568255" lon="17.2025567"><ele>152.8</ele><time>2026-03-29T07:48:32.97Z</time></trkpt><trkpt lat="40.5683617" lon="17.20251"><ele>153.0</ele><time>2026-03-29T07:48:34.969Z</time></trkpt><trkpt lat="40.5684683" lon="17.202455"><ele>153.0</ele><time>2026-03-29T07:48:36.971Z</time></trkpt><trkpt lat="40.5685883" lon="17.2023933"><ele>153.0</ele><time>2026-03-29T07:48:38.969Z</time></trkpt><trkpt lat="40.5686517" lon="17.2023633"><ele>153.0</ele><time>2026-03-29T07:48:39.97Z</time></trkpt><trkpt lat="40.56872" lon="17.2023283"><ele>153.0</ele><time>2026-03-29T07:48:40.974Z</time></trkpt><trkpt lat="40.568795" lon="17.202295"><ele>153.0</ele><time>2026-03-29T07:48:41.971Z</time></trkpt><trkpt lat="40.5688733" lon="17.20226"><ele>153.0</ele><time>2026-03-29T07:48:42.971Z</time></trkpt><trkpt lat="40.568955" lon="17.202225"><ele>153.4</ele><time>2026-03-29T07:48:43.971Z</time></trkpt><trkpt lat="40.5690383" lon="17.2021917"><ele>153.8</ele><time>2026-03-29T07:48:44.972Z</time></trkpt><trkpt lat="40.5691192" lon="17.2021592"><ele>154.2</ele><time>2026-03-29T07:48:45.971Z</time></trkpt><trkpt lat="40.5691998" lon="17.2021237"><ele>154.6</ele><time>2026-03-29T07:48:46.973Z</time></trkpt><trkpt lat="40.5692889" lon="17.2020754"><ele>155.0</ele><time>2026-03-29T07:48:47.971Z</time></trkpt><trkpt lat="40.5693857" lon="17.202024"><ele>155.0</ele><time>2026-03-29T07:48:48.972Z</time></trkpt><trkpt lat="40.569481" lon="17.2019816"><ele>155.0</ele><time>2026-03-29T07:48:49.971Z</time></trkpt><trkpt lat="40.5695663" lon="17.2019462"><ele>155.0</ele><time>2026-03-29T07:48:50.973Z</time></trkpt><trkpt lat="40.5696441" lon="17.2019155"><ele>155.0</ele><time>2026-03-29T07:48:51.971Z</time></trkpt><trkpt lat="40.5697185" lon="17.2018804"><ele>155.0</ele><time>2026-03-29T07:48:52.971Z</time></trkpt><trkpt lat="40.569792" lon="17.2018413"><ele>155.0</ele><time>2026-03-29T07:48:53.972Z</time></trkpt><trkpt lat="40.5698685" lon="17.2018065"><ele>155.28571428571428</ele><time>2026-03-29T07:48:54.97Z</time></trkpt><trkpt lat="40.5699431" lon="17.2017749"><ele>155.57142857142856</ele><time>2026-03-29T07:48:55.97Z</time></trkpt><trkpt lat="40.5700148" lon="17.2017506"><ele>155.85714285714283</ele><time>2026-03-29T07:48:56.97Z</time></trkpt><trkpt lat="40.5700869" lon="17.2017322"><ele>156.14285714285714</ele><time>2026-03-29T07:48:57.97Z</time></trkpt><trkpt lat="40.5701542" lon="17.20171"><ele>156.42857142857142</ele><time>2026-03-29T07:48:58.971Z</time></trkpt><trkpt lat="40.5702191" lon="17.2016886"><ele>156.7142857142857</ele><time>2026-03-29T07:48:59.97Z</time></trkpt><trkpt lat="40.5702924" lon="17.2016666"><ele>157.0</ele><time>2026-03-29T07:49:00.97Z</time></trkpt><trkpt lat="40.5703732" lon="17.2016399"><ele>157.5</ele><time>2026-03-29T07:49:01.97Z</time></trkpt><trkpt lat="40.5704544" lon="17.2016122"><ele>158.0</ele><time>2026-03-29T07:49:02.97Z</time></trkpt><trkpt lat="40.5705269" lon="17.2015857"><ele>158.5</ele><time>2026-03-29T07:49:03.971Z</time></trkpt><trkpt lat="40.5705908" lon="17.2015649"><ele>159.0</ele><time>2026-03-29T07:49:04.97Z</time></trkpt><trkpt lat="40.5706831" lon="17.2015467"><ele>159.5</ele><time>2026-03-29T07:49:06.97Z</time></trkpt><trkpt lat="40.5707509" lon="17.2015957"><ele>160.0</ele><time>2026-03-29T07:49:08.971Z</time></trkpt><trkpt lat="40.5707705" lon="17.2017617"><ele>160.0</ele><time>2026-03-29T07:49:10.972Z</time></trkpt><trkpt lat="40.5707754" lon="17.2018765"><ele>160.0</ele><time>2026-03-29T07:49:11.97Z</time></trkpt><trkpt lat="40.5707842" lon="17.2019935"><ele>160.0</ele><time>2026-03-29T07:49:12.971Z</time></trkpt><trkpt lat="40.5707942" lon="17.2021085"><ele>160.0</ele><time>2026-03-29T07:49:13.971Z</time></trkpt><trkpt lat="40.5708055" lon="17.2022276"><ele>160.0</ele><time>2026-03-29T07:49:14.97Z</time></trkpt><trkpt lat="40.570817" lon="17.2023413"><ele>160.0</ele><time>2026-03-29T07:49:15.97Z</time></trkpt><trkpt lat="40.5708287" lon="17.2024432"><ele>160.16666666666669</ele><time>2026-03-29T07:49:16.97Z</time></trkpt><trkpt lat="40.5708377" lon="17.2025307"><ele>160.33333333333334</ele><time>2026-03-29T07:49:17.97Z</time></trkpt><trkpt lat="40.5708503" lon="17.2026571"><ele>160.5</ele><time>2026-03-29T07:49:19.971Z</time></trkpt><trkpt lat="40.5708881" lon="17.2027614"><ele>160.66666666666666</ele><time>2026-03-29T07:49:29.97Z</time></trkpt><trkpt lat="40.570987" lon="17.2027539"><ele>160.83333333333331</ele><time>2026-03-29T07:49:31.971Z</time></trkpt><trkpt lat="40.5710556" lon="17.2027357"><ele>161.0</ele><time>2026-03-29T07:49:32.97Z</time></trkpt><trkpt lat="40.5711302" lon="17.2027174"><ele>161.8</ele><time>2026-03-29T07:49:33.971Z</time></trkpt><trkpt lat="40.5712117" lon="17.2026905"><ele>162.60000000000002</ele><time>2026-03-29T07:49:34.971Z</time></trkpt><trkpt lat="40.5712996" lon="17.2026638"><ele>163.4</ele><time>2026-03-29T07:49:35.97Z</time></trkpt><trkpt lat="40.5713907" lon="17.2026311"><ele>164.2</ele><time>2026-03-29T07:49:36.971Z</time></trkpt><trkpt lat="40.5714843" lon="17.2025848"><ele>165.0</ele><time>2026-03-29T07:49:37.972Z</time></trkpt><trkpt lat="40.571577" lon="17.2025302"><ele>165.0</ele><time>2026-03-29T07:49:38.97Z</time></trkpt><trkpt lat="40.5716707" lon="17.2024628"><ele>165.0</ele><time>2026-03-29T07:49:39.971Z</time></trkpt><trkpt lat="40.5717629" lon="17.2023928"><ele>165.0</ele><time>2026-03-29T07:49:40.972Z</time></trkpt><trkpt lat="40.5718519" lon="17.2023194"><ele>165.0</ele><time>2026-03-29T07:49:41.971Z</time></trkpt><trkpt lat="40.5719402" lon="17.2022455"><ele>165.0</ele><time>2026-03-29T07:49:42.971Z</time></trkpt><trkpt lat="40.5720228" lon="17.2021758"><ele>165.5</ele><time>2026-03-29T07:49:43.97Z</time></trkpt><trkpt lat="40.5720945" lon="17.2021186"><ele>166.0</ele><time>2026-03-29T07:49:44.97Z</time></trkpt><trkpt lat="40.572154" lon="17.2020747"><ele>166.5</ele><time>2026-03-29T07:49:45.973Z</time></trkpt><trkpt lat="40.5722372" lon="17.2020063"><ele>167.0</ele><time>2026-03-29T07:49:47.969Z</time></trkpt><trkpt lat="40.5722953" lon="17.2019583"><ele>167.5</ele><time>2026-03-29T07:49:51.971Z</time></trkpt><trkpt lat="40.5723528" lon="17.2019054"><ele>168.0</ele><time>2026-03-29T07:50:06.971Z</time></trkpt><trkpt lat="40.5724431" lon="17.2018286"><ele>168.0</ele><time>2026-03-29T07:50:08.97Z</time></trkpt><trkpt lat="40.5724991" lon="17.2017748"><ele>168.0</ele><time>2026-03-29T07:50:09.971Z</time></trkpt><trkpt lat="40.5725599" lon="17.2017141"><ele>168.0</ele><time>2026-03-29T07:50:10.97Z</time></trkpt><trkpt lat="40.572629" lon="17.2016475"><ele>168.0</ele><time>2026-03-29T07:50:11.97Z</time></trkpt><trkpt lat="40.5727068" lon="17.2015729"><ele>168.0</ele><time>2026-03-29T07:50:12.97Z</time></trkpt><trkpt lat="40.5727904" lon="17.2014941"><ele>168.0</ele><time>2026-03-29T07:50:13.971Z</time></trkpt><trkpt lat="40.5728779" lon="17.2014119"><ele>169.25</ele><time>2026-03-29T07:50:14.971Z</time></trkpt><trkpt lat="40.5729682" lon="17.2013212"><ele>170.5</ele><time>2026-03-29T07:50:15.973Z</time></trkpt><trkpt lat="40.5730588" lon="17.2012308"><ele>171.75</ele><time>2026-03-29T07:50:16.973Z</time></trkpt><trkpt lat="40.573148" lon="17.2011378"><ele>173.0</ele><time>2026-03-29T07:50:17.97Z</time></trkpt><trkpt lat="40.5732379" lon="17.2010457"><ele>173.0</ele><time>2026-03-29T07:50:18.971Z</time></trkpt><trkpt lat="40.5733281" lon="17.2009554"><ele>173.0</ele><time>2026-03-29T07:50:19.972Z</time></trkpt><trkpt lat="40.5734195" lon="17.200867"><ele>173.0</ele><time>2026-03-29T07:50:20.97Z</time></trkpt><trkpt lat="40.5735152" lon="17.2007775"><ele>173.0</ele><time>2026-03-29T07:50:21.971Z</time></trkpt><trkpt lat="40.573608" lon="17.2006902"><ele>173.66666666666666</ele><time>2026-03-29T07:50:22.97Z</time></trkpt><trkpt lat="40.5736942" lon="17.2006077"><ele>174.33333333333331</ele><time>2026-03-29T07:50:23.97Z</time></trkpt><trkpt lat="40.5737651" lon="17.2005334"><ele>175.0</ele><time>2026-03-29T07:50:24.974Z</time></trkpt><trkpt lat="40.5738177" lon="17.2004702"><ele>175.66666666666666</ele><time>2026-03-29T07:50:25.973Z</time></trkpt><trkpt lat="40.573884" lon="17.2003882"><ele>176.33333333333334</ele><time>2026-03-29T07:50:27.97Z</time></trkpt><trkpt lat="40.5739494" lon="17.2003743"><ele>177.0</ele><time>2026-03-29T07:50:42.971Z</time></trkpt><trkpt lat="40.5740054" lon="17.2003339"><ele>177.0</ele><time>2026-03-29T07:50:44.973Z</time></trkpt><trkpt lat="40.574064" lon="17.2002972"><ele>177.0</ele><time>2026-03-29T07:50:46.974Z</time></trkpt><trkpt lat="40.5741372" lon="17.2002526"><ele>177.0</ele><time>2026-03-29T07:50:48.975Z</time></trkpt><trkpt lat="40.5742063" lon="17.2002025"><ele>177.0</ele><time>2026-03-29T07:50:50.973Z</time></trkpt><trkpt lat="40.574261" lon="17.2001612"><ele>177.0</ele><time>2026-03-29T07:50:52.973Z</time></trkpt><trkpt lat="40.5742033" lon="17.2002079"><ele>177.0</ele><time>2026-03-29T07:51:05.97Z</time></trkpt><trkpt lat="40.5741271" lon="17.200249"><ele>177.0</ele><time>2026-03-29T07:51:12.972Z</time></trkpt><trkpt lat="40.5740671" lon="17.2002978"><ele>177.0</ele><time>2026-03-29T07:51:16.973Z</time></trkpt><trkpt lat="40.5740012" lon="17.2003452"><ele>177.0</ele><time>2026-03-29T07:51:21.972Z</time></trkpt><trkpt lat="40.5739428" lon="17.2003913"><ele>177.0</ele><time>2026-03-29T07:51:27.971Z</time></trkpt><trkpt lat="40.5738811" lon="17.2004322"><ele>177.0</ele><time>2026-03-29T07:51:33.971Z</time></trkpt><trkpt lat="40.5738617" lon="17.20034"><ele>177.0</ele><time>2026-03-29T07:52:12.971Z</time></trkpt><trkpt lat="40.5738617" lon="17.2001717"><ele>177.0</ele><time>2026-03-29T07:52:14.971Z</time></trkpt><trkpt lat="40.5738583" lon="17.20007"><ele>177.0</ele><time>2026-03-29T07:52:15.973Z</time></trkpt><trkpt lat="40.573855" lon="17.1999583"><ele>177.0</ele><time>2026-03-29T07:52:16.973Z</time></trkpt><trkpt lat="40.5738517" lon="17.1998383"><ele>177.0</ele><time>2026-03-29T07:52:17.971Z</time></trkpt><trkpt lat="40.5738483" lon="17.1997183"><ele>177.0</ele><time>2026-03-29T07:52:18.971Z</time></trkpt><trkpt lat="40.5738433" lon="17.199595"><ele>177.0</ele><time>2026-03-29T07:52:19.971Z</time></trkpt><trkpt lat="40.5738367" lon="17.1994667"><ele>176.8</ele><time>2026-03-29T07:52:20.971Z</time></trkpt><trkpt lat="40.57383" lon="17.1993367"><ele>176.6</ele><time>2026-03-29T07:52:21.971Z</time></trkpt><trkpt lat="40.5738267" lon="17.1992067"><ele>176.4</ele><time>2026-03-29T07:52:22.97Z</time></trkpt><trkpt lat="40.573825" lon="17.1990767"><ele>176.20000000000002</ele><time>2026-03-29T07:52:23.973Z</time></trkpt><trkpt lat="40.573825" lon="17.1989533"><ele>176.0</ele><time>2026-03-29T07:52:24.971Z</time></trkpt><trkpt lat="40.5738283" lon="17.19884"><ele>175.66666666666666</ele><time>2026-03-29T07:52:25.971Z</time></trkpt><trkpt lat="40.5738317" lon="17.198745"><ele>175.33333333333331</ele><time>2026-03-29T07:52:26.971Z</time></trkpt><trkpt lat="40.5738383" lon="17.1986617"><ele>175.0</ele><time>2026-03-29T07:52:27.971Z</time></trkpt><trkpt lat="40.573865" lon="17.19857"><ele>174.66666666666666</ele><time>2026-03-29T07:52:29.973Z</time></trkpt><trkpt lat="40.5738433" lon="17.1984833"><ele>174.33333333333334</ele><time>2026-03-29T07:52:44.971Z</time></trkpt><trkpt lat="40.5738467" lon="17.1983217"><ele>174.0</ele><time>2026-03-29T07:52:46.975Z</time></trkpt><trkpt lat="40.5738583" lon="17.1982317"><ele>173.83333333333334</ele><time>2026-03-29T07:52:47.972Z</time></trkpt><trkpt lat="40.5738733" lon="17.1981417"><ele>173.66666666666666</ele><time>2026-03-29T07:52:48.971Z</time></trkpt><trkpt lat="40.5738917" lon="17.1980583"><ele>173.5</ele><time>2026-03-29T07:52:49.97Z</time></trkpt><trkpt lat="40.5739233" lon="17.1979267"><ele>173.33333333333331</ele><time>2026-03-29T07:52:51.972Z</time></trkpt><trkpt lat="40.5739567" lon="17.1978283"><ele>173.16666666666666</ele><time>2026-03-29T07:52:53.97Z</time></trkpt><trkpt lat="40.5739883" lon="17.1977383"><ele>173.0</ele><time>2026-03-29T07:52:56.971Z</time></trkpt><trkpt lat="40.5739267" lon="17.1977633"><ele>173.0</ele><time>2026-03-29T07:53:01.971Z</time></trkpt><trkpt lat="40.5739233" lon="17.197865"><ele>173.0</ele><time>2026-03-29T07:53:03.97Z</time></trkpt><trkpt lat="40.5738909" lon="17.1980187"><ele>173.0</ele><time>2026-03-29T07:53:05.971Z</time></trkpt><trkpt lat="40.5738716" lon="17.198111"><ele>173.0</ele><time>2026-03-29T07:53:06.971Z</time></trkpt><trkpt lat="40.5738554" lon="17.1982174"><ele>173.0</ele><time>2026-03-29T07:53:07.971Z</time></trkpt><trkpt lat="40.5738424" lon="17.1983349"><ele>173.0</ele><time>2026-03-29T07:53:08.971Z</time></trkpt><trkpt lat="40.5738327" lon="17.1984581"><ele>173.2</ele><time>2026-03-29T07:53:09.972Z</time></trkpt><trkpt lat="40.5738264" lon="17.1985877"><ele>173.4</ele><time>2026-03-29T07:53:10.971Z</time></trkpt><trkpt lat="40.573822" lon="17.1987261"><ele>173.6</ele><time>2026-03-29T07:53:11.971Z</time></trkpt><trkpt lat="40.5738184" lon="17.1988746"><ele>173.79999999999998</ele><time>2026-03-29T07:53:12.97Z</time></trkpt><trkpt lat="40.5738183" lon="17.199027"><ele>174.0</ele><time>2026-03-29T07:53:13.971Z</time></trkpt><trkpt lat="40.5738212" lon="17.1991799"><ele>174.39999999999998</ele><time>2026-03-29T07:53:14.973Z</time></trkpt><trkpt lat="40.5738251" lon="17.1993275"><ele>174.8</ele><time>2026-03-29T07:53:15.974Z</time></trkpt><trkpt lat="40.5738343" lon="17.1994667"><ele>175.2</ele><time>2026-03-29T07:53:16.976Z</time></trkpt><trkpt lat="40.573845" lon="17.1996049"><ele>175.60000000000002</ele><time>2026-03-29T07:53:17.971Z</time></trkpt><trkpt lat="40.5738542" lon="17.1997457"><ele>176.0</ele><time>2026-03-29T07:53:18.971Z</time></trkpt><trkpt lat="40.5738566" lon="17.1998859"><ele>176.16666666666666</ele><time>2026-03-29T07:53:19.971Z</time></trkpt><trkpt lat="40.5738567" lon="17.2000171"><ele>176.33333333333331</ele><time>2026-03-29T07:53:20.971Z</time></trkpt><trkpt lat="40.5738573" lon="17.2001314"><ele>176.5</ele><time>2026-03-29T07:53:21.971Z</time></trkpt><trkpt lat="40.5738589" lon="17.200234"><ele>176.66666666666666</ele><time>2026-03-29T07:53:22.971Z</time></trkpt><trkpt lat="40.5738565" lon="17.2003236"><ele>176.83333333333334</ele><time>2026-03-29T07:53:23.972Z</time></trkpt><trkpt lat="40.573828" lon="17.2004522"><ele>177.0</ele><time>2026-03-29T07:53:25.97Z</time></trkpt><trkpt lat="40.5737746" lon="17.2005412"><ele>176.2</ele><time>2026-03-29T07:53:27.974Z</time></trkpt><trkpt lat="40.5736852" lon="17.2006344"><ele>175.39999999999998</ele><time>2026-03-29T07:53:29.972Z</time></trkpt><trkpt lat="40.5736237" lon="17.2006892"><ele>174.60000000000002</ele><time>2026-03-29T07:53:30.972Z</time></trkpt><trkpt lat="40.5735535" lon="17.2007505"><ele>173.8</ele><time>2026-03-29T07:53:31.971Z</time></trkpt><trkpt lat="40.5734801" lon="17.2008234"><ele>173.0</ele><time>2026-03-29T07:53:32.973Z</time></trkpt><trkpt lat="40.5734062" lon="17.2008989"><ele>173.0</ele><time>2026-03-29T07:53:33.97Z</time></trkpt><trkpt lat="40.5733281" lon="17.2009742"><ele>173.0</ele><time>2026-03-29T07:53:34.971Z</time></trkpt><trkpt lat="40.5732489" lon="17.2010519"><ele>173.0</ele><time>2026-03-29T07:53:35.972Z</time></trkpt><trkpt lat="40.5731731" lon="17.2011272"><ele>173.0</ele><time>2026-03-29T07:53:36.973Z</time></trkpt><trkpt lat="40.5730972" lon="17.2011994"><ele>173.0</ele><time>2026-03-29T07:53:37.974Z</time></trkpt><trkpt lat="40.573019" lon="17.2012783"><ele>173.0</ele><time>2026-03-29T07:53:38.971Z</time></trkpt><trkpt lat="40.5729377" lon="17.2013588"><ele>173.0</ele><time>2026-03-29T07:53:39.971Z</time></trkpt><trkpt lat="40.572857" lon="17.2014393"><ele>173.0</ele><time>2026-03-29T07:53:40.971Z</time></trkpt><trkpt lat="40.5727782" lon="17.2015187"><ele>173.0</ele><time>2026-03-29T07:53:41.971Z</time></trkpt><trkpt lat="40.5727031" lon="17.2015919"><ele>173.0</ele><time>2026-03-29T07:53:42.97Z</time></trkpt><trkpt lat="40.5726312" lon="17.2016582"><ele>172.0</ele><time>2026-03-29T07:53:43.97Z</time></trkpt><trkpt lat="40.572569" lon="17.2017154"><ele>171.0</ele><time>2026-03-29T07:53:44.971Z</time></trkpt><trkpt lat="40.5725008" lon="17.2018511"><ele>170.0</ele><time>2026-03-29T07:53:46.974Z</time></trkpt><trkpt lat="40.5724852" lon="17.2019473"><ele>169.0</ele><time>2026-03-29T07:53:47.971Z</time></trkpt><trkpt lat="40.5724763" lon="17.2020604"><ele>168.0</ele><time>2026-03-29T07:53:48.972Z</time></trkpt><trkpt lat="40.5724682" lon="17.2021864"><ele>168.0</ele><time>2026-03-29T07:53:49.971Z</time></trkpt><trkpt lat="40.5724589" lon="17.2023247"><ele>168.0</ele><time>2026-03-29T07:53:50.972Z</time></trkpt><trkpt lat="40.5724509" lon="17.2024696"><ele>168.0</ele><time>2026-03-29T07:53:51.972Z</time></trkpt><trkpt lat="40.5724427" lon="17.202619"><ele>168.0</ele><time>2026-03-29T07:53:52.971Z</time></trkpt><trkpt lat="40.572436" lon="17.2027698"><ele>168.0</ele><time>2026-03-29T07:53:53.97Z</time></trkpt><trkpt lat="40.5724307" lon="17.2029145"><ele>168.0</ele><time>2026-03-29T07:53:54.971Z</time></trkpt><trkpt lat="40.5724259" lon="17.2030511"><ele>168.0</ele><time>2026-03-29T07:53:55.976Z</time></trkpt><trkpt lat="40.5724158" lon="17.2031786"><ele>168.0</ele><time>2026-03-29T07:53:56.971Z</time></trkpt><trkpt lat="40.5724082" lon="17.2033025"><ele>168.0</ele><time>2026-03-29T07:53:57.971Z</time></trkpt><trkpt lat="40.5724035" lon="17.2034169"><ele>168.0</ele><time>2026-03-29T07:53:58.971Z</time></trkpt><trkpt lat="40.5723987" lon="17.2035191"><ele>168.0</ele><time>2026-03-29T07:53:59.971Z</time></trkpt><trkpt lat="40.572393" lon="17.2036191"><ele>168.0</ele><time>2026-03-29T07:54:00.972Z</time></trkpt><trkpt lat="40.5723869" lon="17.2037256"><ele>168.0</ele><time>2026-03-29T07:54:01.971Z</time></trkpt><trkpt lat="40.5723811" lon="17.2038407"><ele>168.0</ele><time>2026-03-29T07:54:02.97Z</time></trkpt><trkpt lat="40.5723766" lon="17.2039573"><ele>168.0</ele><time>2026-03-29T07:54:03.971Z</time></trkpt><trkpt lat="40.5723689" lon="17.2040736"><ele>168.0</ele><time>2026-03-29T07:54:04.971Z</time></trkpt><trkpt lat="40.5723616" lon="17.2041929"><ele>168.0</ele><time>2026-03-29T07:54:05.969Z</time></trkpt><trkpt lat="40.5723537" lon="17.2043219"><ele>168.0</ele><time>2026-03-29T07:54:06.974Z</time></trkpt><trkpt lat="40.5723434" lon="17.2044609"><ele>168.0</ele><time>2026-03-29T07:54:07.97Z</time></trkpt><trkpt lat="40.5723346" lon="17.2046135"><ele>168.0</ele><time>2026-03-29T07:54:08.97Z</time></trkpt><trkpt lat="40.5723277" lon="17.2047787"><ele>168.0</ele><time>2026-03-29T07:54:09.971Z</time></trkpt><trkpt lat="40.5723219" lon="17.2049397"><ele>167.8</ele><time>2026-03-29T07:54:10.97Z</time></trkpt><trkpt lat="40.5723154" lon="17.2050842"><ele>167.60000000000002</ele><time>2026-03-29T07:54:11.971Z</time></trkpt><trkpt lat="40.5723076" lon="17.2052123"><ele>167.39999999999998</ele><time>2026-03-29T07:54:12.97Z</time></trkpt><trkpt lat="40.5722976" lon="17.2053246"><ele>167.2</ele><time>2026-03-29T07:54:13.97Z</time></trkpt><trkpt lat="40.5722893" lon="17.2054226"><ele>167.0</ele><time>2026-03-29T07:54:14.97Z</time></trkpt><trkpt lat="40.5722778" lon="17.2055731"><ele>167.2</ele><time>2026-03-29T07:54:16.974Z</time></trkpt><trkpt lat="40.5722673" lon="17.2056996"><ele>167.39999999999998</ele><time>2026-03-29T07:54:18.971Z</time></trkpt><trkpt lat="40.5722642" lon="17.2058378"><ele>167.60000000000002</ele><time>2026-03-29T07:54:20.97Z</time></trkpt><trkpt lat="40.5722626" lon="17.205942"><ele>167.8</ele><time>2026-03-29T07:54:22.97Z</time></trkpt><trkpt lat="40.5722997" lon="17.2060118"><ele>168.0</ele><time>2026-03-29T07:54:28.971Z</time></trkpt><trkpt lat="40.5724116" lon="17.2060636"><ele>168.0</ele><time>2026-03-29T07:54:30.969Z</time></trkpt><trkpt lat="40.5724872" lon="17.2060742"><ele>168.0</ele><time>2026-03-29T07:54:31.969Z</time></trkpt><trkpt lat="40.5725707" lon="17.2060802"><ele>168.0</ele><time>2026-03-29T07:54:32.97Z</time></trkpt><trkpt lat="40.57266" lon="17.2060866"><ele>168.0</ele><time>2026-03-29T07:54:33.971Z</time></trkpt><trkpt lat="40.5727581" lon="17.2060933"><ele>168.0</ele><time>2026-03-29T07:54:34.972Z</time></trkpt><trkpt lat="40.5728603" lon="17.2061026"><ele>168.60000000000002</ele><time>2026-03-29T07:54:35.971Z</time></trkpt><trkpt lat="40.5729615" lon="17.2061158"><ele>169.20000000000002</ele><time>2026-03-29T07:54:36.971Z</time></trkpt><trkpt lat="40.5730622" lon="17.2061279"><ele>169.8</ele><time>2026-03-29T07:54:37.97Z</time></trkpt><trkpt lat="40.5731623" lon="17.206138"><ele>170.4</ele><time>2026-03-29T07:54:38.97Z</time></trkpt><trkpt lat="40.5732563" lon="17.2061474"><ele>171.0</ele><time>2026-03-29T07:54:39.972Z</time></trkpt><trkpt lat="40.5733349" lon="17.2061516"><ele>170.99999999999997</ele><time>2026-03-29T07:54:40.971Z</time></trkpt><trkpt lat="40.5734032" lon="17.2061544"><ele>171.0</ele><time>2026-03-29T07:54:41.97Z</time></trkpt><trkpt lat="40.5734661" lon="17.2061593"><ele>171.0</ele><time>2026-03-29T07:54:42.97Z</time></trkpt><trkpt lat="40.573531" lon="17.2061659"><ele>171.0</ele><time>2026-03-29T07:54:43.97Z</time></trkpt><trkpt lat="40.5735969" lon="17.2061742"><ele>171.0</ele><time>2026-03-29T07:54:44.97Z</time></trkpt><trkpt lat="40.5736607" lon="17.2061899"><ele>170.99999999999997</ele><time>2026-03-29T07:54:45.97Z</time></trkpt><trkpt lat="40.5737265" lon="17.2062171"><ele>171.0</ele><time>2026-03-29T07:54:46.971Z</time></trkpt><trkpt lat="40.5737917" lon="17.2062528"><ele>172.0</ele><time>2026-03-29T07:54:47.971Z</time></trkpt><trkpt lat="40.5738525" lon="17.2062826"><ele>173.0</ele><time>2026-03-29T07:54:48.971Z</time></trkpt><trkpt lat="40.5739456" lon="17.2062902"><ele>174.0</ele><time>2026-03-29T07:54:50.971Z</time></trkpt><trkpt lat="40.5740375" lon="17.2062447"><ele>175.0</ele><time>2026-03-29T07:54:52.97Z</time></trkpt><trkpt lat="40.5741703" lon="17.2062229"><ele>176.0</ele><time>2026-03-29T07:54:54.971Z</time></trkpt><trkpt lat="40.5742488" lon="17.2062306"><ele>176.0</ele><time>2026-03-29T07:54:55.971Z</time></trkpt><trkpt lat="40.5743285" lon="17.2062421"><ele>176.0</ele><time>2026-03-29T07:54:56.971Z</time></trkpt><trkpt lat="40.5744095" lon="17.2062539"><ele>176.0</ele><time>2026-03-29T07:54:57.971Z</time></trkpt><trkpt lat="40.5744929" lon="17.2062654"><ele>176.0</ele><time>2026-03-29T07:54:58.971Z</time></trkpt><trkpt lat="40.5745807" lon="17.2062763"><ele>176.0</ele><time>2026-03-29T07:54:59.971Z</time></trkpt><trkpt lat="40.574668" lon="17.2062878"><ele>176.0</ele><time>2026-03-29T07:55:00.971Z</time></trkpt><trkpt lat="40.5747563" lon="17.2062998"><ele>176.83333333333331</ele><time>2026-03-29T07:55:01.971Z</time></trkpt><trkpt lat="40.5748433" lon="17.2063137"><ele>177.66666666666666</ele><time>2026-03-29T07:55:02.971Z</time></trkpt><trkpt lat="40.5749273" lon="17.2063263"><ele>178.5</ele><time>2026-03-29T07:55:03.972Z</time></trkpt><trkpt lat="40.5750115" lon="17.206337"><ele>179.33333333333334</ele><time>2026-03-29T07:55:04.971Z</time></trkpt><trkpt lat="40.5750961" lon="17.2063461"><ele>180.16666666666669</ele><time>2026-03-29T07:55:05.97Z</time></trkpt><trkpt lat="40.575181" lon="17.206358"><ele>181.0</ele><time>2026-03-29T07:55:06.971Z</time></trkpt><trkpt lat="40.5752634" lon="17.2063704"><ele>181.0</ele><time>2026-03-29T07:55:07.971Z</time></trkpt><trkpt lat="40.5753434" lon="17.2063821"><ele>181.0</ele><time>2026-03-29T07:55:08.971Z</time></trkpt><trkpt lat="40.5754214" lon="17.2063886"><ele>181.0</ele><time>2026-03-29T07:55:09.969Z</time></trkpt><trkpt lat="40.5754923" lon="17.2063896"><ele>181.0</ele><time>2026-03-29T07:55:10.971Z</time></trkpt><trkpt lat="40.57556" lon="17.2063882"><ele>181.0</ele><time>2026-03-29T07:55:11.97Z</time></trkpt><trkpt lat="40.5756226" lon="17.2063794"><ele>181.0</ele><time>2026-03-29T07:55:12.97Z</time></trkpt><trkpt lat="40.5757217" lon="17.206312"><ele>182.33333333333334</ele><time>2026-03-29T07:55:14.97Z</time></trkpt><trkpt lat="40.5757663" lon="17.2061828"><ele>183.66666666666669</ele><time>2026-03-29T07:55:16.973Z</time></trkpt><trkpt lat="40.5757746" lon="17.2060954"><ele>185.0</ele><time>2026-03-29T07:55:17.973Z</time></trkpt><trkpt lat="40.5757733" lon="17.2060005"><ele>186.33333333333334</ele><time>2026-03-29T07:55:18.973Z</time></trkpt><trkpt lat="40.5757643" lon="17.2058962"><ele>187.66666666666666</ele><time>2026-03-29T07:55:19.974Z</time></trkpt><trkpt lat="40.5757486" lon="17.2057789"><ele>189.0</ele><time>2026-03-29T07:55:20.972Z</time></trkpt><trkpt lat="40.5757279" lon="17.205653"><ele>189.39999999999998</ele><time>2026-03-29T07:55:21.973Z</time></trkpt><trkpt lat="40.5757057" lon="17.2055204"><ele>189.8</ele><time>2026-03-29T07:55:22.973Z</time></trkpt><trkpt lat="40.5756859" lon="17.2053832"><ele>190.2</ele><time>2026-03-29T07:55:23.973Z</time></trkpt><trkpt lat="40.5756665" lon="17.2052484"><ele>190.60000000000002</ele><time>2026-03-29T07:55:24.971Z</time></trkpt><trkpt lat="40.5756572" lon="17.2051237"><ele>191.0</ele><time>2026-03-29T07:55:25.97Z</time></trkpt><trkpt lat="40.5756615" lon="17.2050123"><ele>191.0</ele><time>2026-03-29T07:55:26.969Z</time></trkpt><trkpt lat="40.5756788" lon="17.2049086"><ele>191.0</ele><time>2026-03-29T07:55:27.971Z</time></trkpt><trkpt lat="40.5757098" lon="17.2048168"><ele>191.0</ele><time>2026-03-29T07:55:28.97Z</time></trkpt><trkpt lat="40.5757495" lon="17.2047423"><ele>191.0</ele><time>2026-03-29T07:55:29.97Z</time></trkpt><trkpt lat="40.5757996" lon="17.2046797"><ele>191.0</ele><time>2026-03-29T07:55:30.97Z</time></trkpt><trkpt lat="40.5758614" lon="17.204624"><ele>191.0</ele><time>2026-03-29T07:55:31.974Z</time></trkpt><trkpt lat="40.5759346" lon="17.2045752"><ele>190.66666666666666</ele><time>2026-03-29T07:55:32.971Z</time></trkpt><trkpt lat="40.5760071" lon="17.2045365"><ele>190.33333333333331</ele><time>2026-03-29T07:55:33.972Z</time></trkpt><trkpt lat="40.576078" lon="17.2044987"><ele>190.0</ele><time>2026-03-29T07:55:34.972Z</time></trkpt><trkpt lat="40.576152" lon="17.2044628"><ele>189.66666666666666</ele><time>2026-03-29T07:55:35.97Z</time></trkpt><trkpt lat="40.5762281" lon="17.2044271"><ele>189.33333333333334</ele><time>2026-03-29T07:55:36.97Z</time></trkpt><trkpt lat="40.5763024" lon="17.2043908"><ele>189.0</ele><time>2026-03-29T07:55:37.97Z</time></trkpt><trkpt lat="40.5763763" lon="17.2043583"><ele>188.16666666666666</ele><time>2026-03-29T07:55:38.97Z</time></trkpt><trkpt lat="40.5764542" lon="17.2043303"><ele>187.33333333333334</ele><time>2026-03-29T07:55:39.971Z</time></trkpt><trkpt lat="40.5765355" lon="17.2043088"><ele>186.5</ele><time>2026-03-29T07:55:40.97Z</time></trkpt><trkpt lat="40.5766144" lon="17.2042956"><ele>185.66666666666669</ele><time>2026-03-29T07:55:41.97Z</time></trkpt><trkpt lat="40.5766884" lon="17.2042915"><ele>184.83333333333334</ele><time>2026-03-29T07:55:42.971Z</time></trkpt><trkpt lat="40.5767573" lon="17.2042932"><ele>184.0</ele><time>2026-03-29T07:55:43.97Z</time></trkpt><trkpt lat="40.5768237" lon="17.2043005"><ele>184.0</ele><time>2026-03-29T07:55:44.97Z</time></trkpt><trkpt lat="40.5768931" lon="17.2043137"><ele>184.0</ele><time>2026-03-29T07:55:45.972Z</time></trkpt><trkpt lat="40.5769601" lon="17.2043362"><ele>184.0</ele><time>2026-03-29T07:55:46.973Z</time></trkpt><trkpt lat="40.5770287" lon="17.2043654"><ele>184.0</ele><time>2026-03-29T07:55:47.971Z</time></trkpt><trkpt lat="40.5770973" lon="17.2043953"><ele>184.0</ele><time>2026-03-29T07:55:48.97Z</time></trkpt><trkpt lat="40.5771675" lon="17.2044316"><ele>184.0</ele><time>2026-03-29T07:55:49.969Z</time></trkpt><trkpt lat="40.5772401" lon="17.2044724"><ele>184.0</ele><time>2026-03-29T07:55:50.97Z</time></trkpt><trkpt lat="40.5773143" lon="17.2045178"><ele>181.66666666666669</ele><time>2026-03-29T07:55:51.97Z</time></trkpt><trkpt lat="40.5773879" lon="17.2045653"><ele>179.33333333333334</ele><time>2026-03-29T07:55:52.971Z</time></trkpt><trkpt lat="40.5774601" lon="17.2046104"><ele>177.0</ele><time>2026-03-29T07:55:53.97Z</time></trkpt><trkpt lat="40.5775331" lon="17.2046546"><ele>174.66666666666666</ele><time>2026-03-29T07:55:54.971Z</time></trkpt><trkpt lat="40.5776078" lon="17.2046998"><ele>172.33333333333331</ele><time>2026-03-29T07:55:55.97Z</time></trkpt><trkpt lat="40.5776833" lon="17.204744"><ele>170.0</ele><time>2026-03-29T07:55:56.97Z</time></trkpt><trkpt lat="40.5777585" lon="17.2047889"><ele>171.0</ele><time>2026-03-29T07:55:57.971Z</time></trkpt><trkpt lat="40.5778346" lon="17.2048392"><ele>172.0</ele><time>2026-03-29T07:55:58.97Z</time></trkpt><trkpt lat="40.5779162" lon="17.2048937"><ele>173.0</ele><time>2026-03-29T07:55:59.971Z</time></trkpt><trkpt lat="40.5779993" lon="17.2049504"><ele>174.0</ele><time>2026-03-29T07:56:00.97Z</time></trkpt><trkpt lat="40.5780782" lon="17.2049979"><ele>175.0</ele><time>2026-03-29T07:56:01.971Z</time></trkpt><trkpt lat="40.5781516" lon="17.2050371"><ele>176.0</ele><time>2026-03-29T07:56:02.97Z</time></trkpt><trkpt lat="40.5782162" lon="17.2050637"><ele>176.0</ele><time>2026-03-29T07:56:03.97Z</time></trkpt><trkpt lat="40.5783241" lon="17.2050926"><ele>176.0</ele><time>2026-03-29T07:56:05.969Z</time></trkpt><trkpt lat="40.5784054" lon="17.2051131"><ele>176.0</ele><time>2026-03-29T07:56:07.97Z</time></trkpt><trkpt lat="40.5784932" lon="17.2051034"><ele>176.0</ele><time>2026-03-29T07:56:09.97Z</time></trkpt><trkpt lat="40.5785691" lon="17.2050131"><ele>176.0</ele><time>2026-03-29T07:56:11.97Z</time></trkpt><trkpt lat="40.5785865" lon="17.2049329"><ele>176.0</ele><time>2026-03-29T07:56:12.971Z</time></trkpt><trkpt lat="40.5785932" lon="17.2048417"><ele>174.66666666666666</ele><time>2026-03-29T07:56:13.971Z</time></trkpt><trkpt lat="40.5786025" lon="17.2047426"><ele>173.33333333333331</ele><time>2026-03-29T07:56:14.97Z</time></trkpt><trkpt lat="40.5786221" lon="17.2046429"><ele>172.0</ele><time>2026-03-29T07:56:15.969Z</time></trkpt><trkpt lat="40.5786576" lon="17.2045461"><ele>170.66666666666666</ele><time>2026-03-29T07:56:16.974Z</time></trkpt><trkpt lat="40.578704" lon="17.2044539"><ele>169.33333333333334</ele><time>2026-03-29T07:56:17.972Z</time></trkpt><trkpt lat="40.5787581" lon="17.2043675"><ele>168.0</ele><time>2026-03-29T07:56:18.971Z</time></trkpt><trkpt lat="40.5788133" lon="17.2042811"><ele>168.0</ele><time>2026-03-29T07:56:19.97Z</time></trkpt><trkpt lat="40.5788723" lon="17.2041961"><ele>168.0</ele><time>2026-03-29T07:56:20.974Z</time></trkpt><trkpt lat="40.5789302" lon="17.2041176"><ele>168.0</ele><time>2026-03-29T07:56:21.973Z</time></trkpt><trkpt lat="40.57899" lon="17.2040522"><ele>168.0</ele><time>2026-03-29T07:56:22.973Z</time></trkpt><trkpt lat="40.5790557" lon="17.2039899"><ele>168.0</ele><time>2026-03-29T07:56:23.973Z</time></trkpt><trkpt lat="40.5791273" lon="17.2039361"><ele>168.0</ele><time>2026-03-29T07:56:24.97Z</time></trkpt><trkpt lat="40.5792051" lon="17.203885"><ele>167.66666666666666</ele><time>2026-03-29T07:56:25.969Z</time></trkpt><trkpt lat="40.5792827" lon="17.2038349"><ele>167.33333333333334</ele><time>2026-03-29T07:56:26.97Z</time></trkpt><trkpt lat="40.579356" lon="17.20379"><ele>167.0</ele><time>2026-03-29T07:56:27.969Z</time></trkpt><trkpt lat="40.5794266" lon="17.2037501"><ele>166.66666666666669</ele><time>2026-03-29T07:56:28.97Z</time></trkpt><trkpt lat="40.579497" lon="17.2037136"><ele>166.33333333333334</ele><time>2026-03-29T07:56:29.97Z</time></trkpt><trkpt lat="40.5795712" lon="17.2036802"><ele>166.0</ele><time>2026-03-29T07:56:30.972Z</time></trkpt><trkpt lat="40.5796434" lon="17.2036544"><ele>164.83333333333334</ele><time>2026-03-29T07:56:31.969Z</time></trkpt><trkpt lat="40.5797149" lon="17.2036348"><ele>163.66666666666669</ele><time>2026-03-29T07:56:32.969Z</time></trkpt><trkpt lat="40.5797835" lon="17.2036185"><ele>162.5</ele><time>2026-03-29T07:56:33.971Z</time></trkpt><trkpt lat="40.5798528" lon="17.2036011"><ele>161.33333333333334</ele><time>2026-03-29T07:56:34.971Z</time></trkpt><trkpt lat="40.5799215" lon="17.2035831"><ele>160.16666666666666</ele><time>2026-03-29T07:56:35.97Z</time></trkpt><trkpt lat="40.5799884" lon="17.2035699"><ele>159.0</ele><time>2026-03-29T07:56:36.971Z</time></trkpt><trkpt lat="40.5801136" lon="17.2035683"><ele>159.0</ele><time>2026-03-29T07:56:38.97Z</time></trkpt><trkpt lat="40.5801851" lon="17.2035838"><ele>159.0</ele><time>2026-03-29T07:56:39.97Z</time></trkpt><trkpt lat="40.5802672" lon="17.2036052"><ele>159.0</ele><time>2026-03-29T07:56:40.97Z</time></trkpt><trkpt lat="40.580354" lon="17.2036295"><ele>159.0</ele><time>2026-03-29T07:56:41.97Z</time></trkpt><trkpt lat="40.5804357" lon="17.2036538"><ele>159.0</ele><time>2026-03-29T07:56:42.971Z</time></trkpt><trkpt lat="40.580512" lon="17.2036802"><ele>159.0</ele><time>2026-03-29T07:56:43.973Z</time></trkpt><trkpt lat="40.5805826" lon="17.2037011"><ele>157.8</ele><time>2026-03-29T07:56:44.969Z</time></trkpt><trkpt lat="40.580651" lon="17.2037103"><ele>156.60000000000002</ele><time>2026-03-29T07:56:45.973Z</time></trkpt><trkpt lat="40.5807167" lon="17.203699"><ele>155.4</ele><time>2026-03-29T07:56:46.973Z</time></trkpt><trkpt lat="40.5807903" lon="17.2035819"><ele>154.20000000000002</ele><time>2026-03-29T07:56:48.974Z</time></trkpt><trkpt lat="40.5807328" lon="17.2034359"><ele>153.0</ele><time>2026-03-29T07:56:50.974Z</time></trkpt><trkpt lat="40.5806622" lon="17.2033683"><ele>153.0</ele><time>2026-03-29T07:56:51.972Z</time></trkpt><trkpt lat="40.5805978" lon="17.203301"><ele>153.0</ele><time>2026-03-29T07:56:52.973Z</time></trkpt><trkpt lat="40.5805418" lon="17.2032347"><ele>153.0</ele><time>2026-03-29T07:56:53.973Z</time></trkpt><trkpt lat="40.5804921" lon="17.2031666"><ele>153.0</ele><time>2026-03-29T07:56:54.969Z</time></trkpt><trkpt lat="40.5804522" lon="17.2030939"><ele>153.0</ele><time>2026-03-29T07:56:55.97Z</time></trkpt><trkpt lat="40.5804405" lon="17.2029446"><ele>153.0</ele><time>2026-03-29T07:56:57.969Z</time></trkpt><trkpt lat="40.5804718" lon="17.2028725"><ele>152.16666666666666</ele><time>2026-03-29T07:56:58.97Z</time></trkpt><trkpt lat="40.5805151" lon="17.2028062"><ele>151.33333333333334</ele><time>2026-03-29T07:56:59.97Z</time></trkpt><trkpt lat="40.5805658" lon="17.202744"><ele>150.5</ele><time>2026-03-29T07:57:00.971Z</time></trkpt><trkpt lat="40.5806173" lon="17.2026839"><ele>149.66666666666669</ele><time>2026-03-29T07:57:01.972Z</time></trkpt><trkpt lat="40.5806629" lon="17.2026257"><ele>148.83333333333334</ele><time>2026-03-29T07:57:02.97Z</time></trkpt><trkpt lat="40.580748" lon="17.2025193"><ele>148.0</ele><time>2026-03-29T07:57:04.97Z</time></trkpt><trkpt lat="40.5808286" lon="17.2024261"><ele>148.0</ele><time>2026-03-29T07:57:06.97Z</time></trkpt><trkpt lat="40.5809129" lon="17.2023467"><ele>148.0</ele><time>2026-03-29T07:57:08.97Z</time></trkpt><trkpt lat="40.5810088" lon="17.2022997"><ele>148.0</ele><time>2026-03-29T07:57:10.97Z</time></trkpt><trkpt lat="40.5811214" lon="17.2022782"><ele>148.0</ele><time>2026-03-29T07:57:12.971Z</time></trkpt><trkpt lat="40.5811847" lon="17.2022721"><ele>148.0</ele><time>2026-03-29T07:57:13.97Z</time></trkpt><trkpt lat="40.5812515" lon="17.2022646"><ele>148.0</ele><time>2026-03-29T07:57:14.97Z</time></trkpt><trkpt lat="40.5813217" lon="17.2022528"><ele>148.0</ele><time>2026-03-29T07:57:15.971Z</time></trkpt><trkpt lat="40.5813962" lon="17.2022433"><ele>148.0</ele><time>2026-03-29T07:57:16.973Z</time></trkpt><trkpt lat="40.5814716" lon="17.2022307"><ele>148.0</ele><time>2026-03-29T07:57:17.971Z</time></trkpt><trkpt lat="40.5815448" lon="17.2022121"><ele>148.0</ele><time>2026-03-29T07:57:18.973Z</time></trkpt><trkpt lat="40.5816168" lon="17.2021931"><ele>148.0</ele><time>2026-03-29T07:57:19.973Z</time></trkpt><trkpt lat="40.5816883" lon="17.2021691"><ele>148.0</ele><time>2026-03-29T07:57:20.973Z</time></trkpt><trkpt lat="40.581761" lon="17.2021279"><ele>148.0</ele><time>2026-03-29T07:57:21.973Z</time></trkpt><trkpt lat="40.5818317" lon="17.2020643"><ele>148.0</ele><time>2026-03-29T07:57:22.974Z</time></trkpt><trkpt lat="40.5819044" lon="17.2019817"><ele>148.0</ele><time>2026-03-29T07:57:23.975Z</time></trkpt><trkpt lat="40.5819777" lon="17.2018882"><ele>148.0</ele><time>2026-03-29T07:57:24.97Z</time></trkpt><trkpt lat="40.58205" lon="17.2017911"><ele>148.0</ele><time>2026-03-29T07:57:25.972Z</time></trkpt><trkpt lat="40.5821233" lon="17.2016959"><ele>148.20000000000002</ele><time>2026-03-29T07:57:26.972Z</time></trkpt><trkpt lat="40.5822023" lon="17.2016035"><ele>148.4</ele><time>2026-03-29T07:57:27.97Z</time></trkpt><trkpt lat="40.5822869" lon="17.2015202"><ele>148.60000000000002</ele><time>2026-03-29T07:57:28.97Z</time></trkpt><trkpt lat="40.5823755" lon="17.2014461"><ele>148.8</ele><time>2026-03-29T07:57:29.974Z</time></trkpt><trkpt lat="40.5824656" lon="17.2013794"><ele>149.0</ele><time>2026-03-29T07:57:30.973Z</time></trkpt><trkpt lat="40.582556" lon="17.2013164"><ele>149.0</ele><time>2026-03-29T07:57:31.971Z</time></trkpt><trkpt lat="40.5826421" lon="17.2012538"><ele>149.0</ele><time>2026-03-29T07:57:32.971Z</time></trkpt><trkpt lat="40.5827229" lon="17.2011917"><ele>149.0</ele><time>2026-03-29T07:57:33.97Z</time></trkpt><trkpt lat="40.582801" lon="17.2011345"><ele>149.0</ele><time>2026-03-29T07:57:34.97Z</time></trkpt><trkpt lat="40.5828734" lon="17.201085"><ele>149.0</ele><time>2026-03-29T07:57:35.97Z</time></trkpt><trkpt lat="40.5829415" lon="17.2010402"><ele>149.0</ele><time>2026-03-29T07:57:36.971Z</time></trkpt><trkpt lat="40.5830006" lon="17.2010028"><ele>149.16666666666666</ele><time>2026-03-29T07:57:37.973Z</time></trkpt><trkpt lat="40.5830922" lon="17.2009563"><ele>149.33333333333331</ele><time>2026-03-29T07:57:39.97Z</time></trkpt><trkpt lat="40.5831649" lon="17.2009299"><ele>149.5</ele><time>2026-03-29T07:57:41.971Z</time></trkpt><trkpt lat="40.5832405" lon="17.2008934"><ele>149.66666666666666</ele><time>2026-03-29T07:57:44.97Z</time></trkpt><trkpt lat="40.5832985" lon="17.2008159"><ele>149.83333333333334</ele><time>2026-03-29T07:57:46.973Z</time></trkpt><trkpt lat="40.5833552" lon="17.200693"><ele>150.0</ele><time>2026-03-29T07:57:48.971Z</time></trkpt><trkpt lat="40.5834046" lon="17.2005521"><ele>150.16666666666666</ele><time>2026-03-29T07:57:50.973Z</time></trkpt><trkpt lat="40.5834316" lon="17.2004726"><ele>150.33333333333334</ele><time>2026-03-29T07:57:51.973Z</time></trkpt><trkpt lat="40.5834637" lon="17.2003805"><ele>150.5</ele><time>2026-03-29T07:57:52.971Z</time></trkpt><trkpt lat="40.5834974" lon="17.20028"><ele>150.66666666666669</ele><time>2026-03-29T07:57:53.973Z</time></trkpt><trkpt lat="40.5835311" lon="17.2001736"><ele>150.83333333333334</ele><time>2026-03-29T07:57:54.971Z</time></trkpt><trkpt lat="40.5835633" lon="17.2000564"><ele>151.0</ele><time>2026-03-29T07:57:55.97Z</time></trkpt><trkpt lat="40.5835921" lon="17.1999335"><ele>151.5</ele><time>2026-03-29T07:57:56.97Z</time></trkpt><trkpt lat="40.5836167" lon="17.1998108"><ele>152.0</ele><time>2026-03-29T07:57:57.971Z</time></trkpt><trkpt lat="40.5836361" lon="17.1996877"><ele>152.5</ele><time>2026-03-29T07:57:58.974Z</time></trkpt><trkpt lat="40.5836537" lon="17.1995681"><ele>153.0</ele><time>2026-03-29T07:57:59.974Z</time></trkpt><trkpt lat="40.5836701" lon="17.1994664"><ele>153.5</ele><time>2026-03-29T07:58:00.971Z</time></trkpt><trkpt lat="40.5836905" lon="17.1993859"><ele>154.0</ele><time>2026-03-29T07:58:01.97Z</time></trkpt><trkpt lat="40.5837663" lon="17.1992928"><ele>154.0</ele><time>2026-03-29T07:58:03.97Z</time></trkpt><trkpt lat="40.5838887" lon="17.1992094"><ele>154.0</ele><time>2026-03-29T07:58:05.971Z</time></trkpt><trkpt lat="40.5839688" lon="17.1991587"><ele>154.0</ele><time>2026-03-29T07:58:06.971Z</time></trkpt><trkpt lat="40.5840585" lon="17.199103"><ele>154.0</ele><time>2026-03-29T07:58:07.971Z</time></trkpt><trkpt lat="40.5841529" lon="17.1990425"><ele>154.0</ele><time>2026-03-29T07:58:08.971Z</time></trkpt><trkpt lat="40.5842529" lon="17.198988"><ele>154.4</ele><time>2026-03-29T07:58:09.971Z</time></trkpt><trkpt lat="40.5843544" lon="17.1989318"><ele>154.8</ele><time>2026-03-29T07:58:10.971Z</time></trkpt><trkpt lat="40.5844547" lon="17.1988694"><ele>155.2</ele><time>2026-03-29T07:58:11.972Z</time></trkpt><trkpt lat="40.5845548" lon="17.1988087"><ele>155.6</ele><time>2026-03-29T07:58:12.971Z</time></trkpt><trkpt lat="40.5846565" lon="17.1987478"><ele>156.0</ele><time>2026-03-29T07:58:13.971Z</time></trkpt><trkpt lat="40.5847614" lon="17.1986901"><ele>156.2</ele><time>2026-03-29T07:58:14.971Z</time></trkpt><trkpt lat="40.5848667" lon="17.1986398"><ele>156.39999999999998</ele><time>2026-03-29T07:58:15.974Z</time></trkpt><trkpt lat="40.58497" lon="17.1985981"><ele>156.6</ele><time>2026-03-29T07:58:16.974Z</time></trkpt><trkpt lat="40.5850733" lon="17.198566"><ele>156.79999999999998</ele><time>2026-03-29T07:58:17.97Z</time></trkpt><trkpt lat="40.58518" lon="17.1985378"><ele>157.0</ele><time>2026-03-29T07:58:18.972Z</time></trkpt><trkpt lat="40.585287" lon="17.1985202"><ele>157.5</ele><time>2026-03-29T07:58:19.971Z</time></trkpt><trkpt lat="40.5853855" lon="17.1985125"><ele>158.0</ele><time>2026-03-29T07:58:20.972Z</time></trkpt><trkpt lat="40.5854714" lon="17.1985109"><ele>158.5</ele><time>2026-03-29T07:58:21.971Z</time></trkpt><trkpt lat="40.5855436" lon="17.1985107"><ele>159.0</ele><time>2026-03-29T07:58:22.97Z</time></trkpt><trkpt lat="40.5856555" lon="17.1985085"><ele>159.5</ele><time>2026-03-29T07:58:24.97Z</time></trkpt><trkpt lat="40.585723" lon="17.1985069"><ele>160.0</ele><time>2026-03-29T07:58:26.971Z</time></trkpt><trkpt lat="40.5857817" lon="17.1984642"><ele>160.0</ele><time>2026-03-29T07:58:28.974Z</time></trkpt><trkpt lat="40.5858683" lon="17.1983996"><ele>160.0</ele><time>2026-03-29T07:58:30.971Z</time></trkpt><trkpt lat="40.5859826" lon="17.1983179"><ele>160.0</ele><time>2026-03-29T07:58:32.971Z</time></trkpt><trkpt lat="40.5860467" lon="17.1982728"><ele>160.0</ele><time>2026-03-29T07:58:33.97Z</time></trkpt><trkpt lat="40.5861096" lon="17.1982285"><ele>160.0</ele><time>2026-03-29T07:58:34.97Z</time></trkpt><trkpt lat="40.5861703" lon="17.1981809"><ele>160.0</ele><time>2026-03-29T07:58:35.972Z</time></trkpt><trkpt lat="40.5862342" lon="17.1981335"><ele>161.0</ele><time>2026-03-29T07:58:36.971Z</time></trkpt><trkpt lat="40.5863053" lon="17.1980863"><ele>162.0</ele><time>2026-03-29T07:58:37.97Z</time></trkpt><trkpt lat="40.5863817" lon="17.1980391"><ele>163.0</ele><time>2026-03-29T07:58:38.971Z</time></trkpt><trkpt lat="40.5864604" lon="17.1979869"><ele>164.0</ele><time>2026-03-29T07:58:39.972Z</time></trkpt><trkpt lat="40.5865422" lon="17.197939"><ele>165.0</ele><time>2026-03-29T07:58:40.971Z</time></trkpt><trkpt lat="40.5866258" lon="17.1978937"><ele>166.0</ele><time>2026-03-29T07:58:41.971Z</time></trkpt><trkpt lat="40.5867092" lon="17.1978473"><ele>166.0</ele><time>2026-03-29T07:58:42.971Z</time></trkpt><trkpt lat="40.5867872" lon="17.1978033"><ele>166.0</ele><time>2026-03-29T07:58:43.971Z</time></trkpt><trkpt lat="40.5868635" lon="17.1977629"><ele>166.0</ele><time>2026-03-29T07:58:44.973Z</time></trkpt><trkpt lat="40.5869384" lon="17.1977296"><ele>166.0</ele><time>2026-03-29T07:58:45.974Z</time></trkpt><trkpt lat="40.5870118" lon="17.1977002"><ele>166.0</ele><time>2026-03-29T07:58:46.974Z</time></trkpt><trkpt lat="40.5870834" lon="17.1976721"><ele>166.0</ele><time>2026-03-29T07:58:47.971Z</time></trkpt><trkpt lat="40.5871562" lon="17.1976496"><ele>166.5</ele><time>2026-03-29T07:58:48.972Z</time></trkpt><trkpt lat="40.5872295" lon="17.197625"><ele>167.0</ele><time>2026-03-29T07:58:49.971Z</time></trkpt><trkpt lat="40.5873062" lon="17.1975943"><ele>167.5</ele><time>2026-03-29T07:58:50.97Z</time></trkpt><trkpt lat="40.5873875" lon="17.1975572"><ele>168.0</ele><time>2026-03-29T07:58:51.972Z</time></trkpt><trkpt lat="40.5874738" lon="17.1975185"><ele>168.5</ele><time>2026-03-29T07:58:52.971Z</time></trkpt><trkpt lat="40.5875654" lon="17.1974781"><ele>169.0</ele><time>2026-03-29T07:58:53.971Z</time></trkpt><trkpt lat="40.5876592" lon="17.1974388"><ele>169.0</ele><time>2026-03-29T07:58:54.971Z</time></trkpt><trkpt lat="40.587753" lon="17.1974011"><ele>169.0</ele><time>2026-03-29T07:58:55.97Z</time></trkpt><trkpt lat="40.5878465" lon="17.1973643"><ele>169.0</ele><time>2026-03-29T07:58:56.971Z</time></trkpt><trkpt lat="40.5879382" lon="17.1973263"><ele>169.0</ele><time>2026-03-29T07:58:57.971Z</time></trkpt><trkpt lat="40.5880269" lon="17.1972908"><ele>169.0</ele><time>2026-03-29T07:58:58.97Z</time></trkpt><trkpt lat="40.5881095" lon="17.1972571"><ele>169.83333333333334</ele><time>2026-03-29T07:58:59.971Z</time></trkpt><trkpt lat="40.5881876" lon="17.1972226"><ele>170.66666666666669</ele><time>2026-03-29T07:59:00.972Z</time></trkpt><trkpt lat="40.5882652" lon="17.1971866"><ele>171.5</ele><time>2026-03-29T07:59:01.971Z</time></trkpt><trkpt lat="40.5883514" lon="17.1971498"><ele>172.33333333333334</ele><time>2026-03-29T07:59:02.971Z</time></trkpt><trkpt lat="40.5884424" lon="17.1971122"><ele>173.16666666666666</ele><time>2026-03-29T07:59:03.973Z</time></trkpt><trkpt lat="40.5885345" lon="17.197076"><ele>174.0</ele><time>2026-03-29T07:59:04.972Z</time></trkpt><trkpt lat="40.5886287" lon="17.1970387"><ele>174.2</ele><time>2026-03-29T07:59:05.971Z</time></trkpt><trkpt lat="40.5887246" lon="17.1970054"><ele>174.39999999999998</ele><time>2026-03-29T07:59:06.971Z</time></trkpt><trkpt lat="40.5888176" lon="17.1969697"><ele>174.6</ele><time>2026-03-29T07:59:07.971Z</time></trkpt><trkpt lat="40.5889061" lon="17.1969311"><ele>174.8</ele><time>2026-03-29T07:59:08.972Z</time></trkpt><trkpt lat="40.5889962" lon="17.196891"><ele>175.0</ele><time>2026-03-29T07:59:09.971Z</time></trkpt><trkpt lat="40.5890851" lon="17.1968466"><ele>175.0</ele><time>2026-03-29T07:59:10.972Z</time></trkpt><trkpt lat="40.5891748" lon="17.1967939"><ele>175.0</ele><time>2026-03-29T07:59:11.973Z</time></trkpt><trkpt lat="40.5892633" lon="17.1967371"><ele>175.0</ele><time>2026-03-29T07:59:12.974Z</time></trkpt><trkpt lat="40.5893502" lon="17.1966733"><ele>175.0</ele><time>2026-03-29T07:59:13.972Z</time></trkpt><trkpt lat="40.5894396" lon="17.1966129"><ele>175.0</ele><time>2026-03-29T07:59:14.972Z</time></trkpt><trkpt lat="40.5895299" lon="17.1965559"><ele>176.2</ele><time>2026-03-29T07:59:15.97Z</time></trkpt><trkpt lat="40.5896184" lon="17.196499"><ele>177.4</ele><time>2026-03-29T07:59:16.971Z</time></trkpt><trkpt lat="40.5897091" lon="17.1964418"><ele>178.60000000000002</ele><time>2026-03-29T07:59:17.971Z</time></trkpt><trkpt lat="40.5898041" lon="17.1963806"><ele>179.8</ele><time>2026-03-29T07:59:18.972Z</time></trkpt><trkpt lat="40.5899022" lon="17.1963155"><ele>181.0</ele><time>2026-03-29T07:59:19.971Z</time></trkpt><trkpt lat="40.5900041" lon="17.1962507"><ele>181.0</ele><time>2026-03-29T07:59:20.971Z</time></trkpt><trkpt lat="40.5901095" lon="17.1961834"><ele>181.0</ele><time>2026-03-29T07:59:21.971Z</time></trkpt><trkpt lat="40.5902175" lon="17.1961174"><ele>181.0</ele><time>2026-03-29T07:59:22.97Z</time></trkpt><trkpt lat="40.5903248" lon="17.1960538"><ele>181.0</ele><time>2026-03-29T07:59:23.971Z</time></trkpt><trkpt lat="40.5904318" lon="17.1959885"><ele>180.60000000000002</ele><time>2026-03-29T07:59:24.971Z</time></trkpt><trkpt lat="40.5905373" lon="17.1959211"><ele>180.2</ele><time>2026-03-29T07:59:25.971Z</time></trkpt><trkpt lat="40.5906394" lon="17.1958528"><ele>179.8</ele><time>2026-03-29T07:59:26.971Z</time></trkpt><trkpt lat="40.590738" lon="17.1957891"><ele>179.39999999999998</ele><time>2026-03-29T07:59:27.971Z</time></trkpt><trkpt lat="40.5908341" lon="17.1957281"><ele>179.0</ele><time>2026-03-29T07:59:28.974Z</time></trkpt><trkpt lat="40.5909286" lon="17.1956678"><ele>180.0</ele><time>2026-03-29T07:59:29.97Z</time></trkpt><trkpt lat="40.5910237" lon="17.1956076"><ele>181.0</ele><time>2026-03-29T07:59:30.971Z</time></trkpt><trkpt lat="40.591119" lon="17.1955455"><ele>182.0</ele><time>2026-03-29T07:59:31.971Z</time></trkpt><trkpt lat="40.5912141" lon="17.1954832"><ele>183.0</ele><time>2026-03-29T07:59:32.971Z</time></trkpt><trkpt lat="40.5913036" lon="17.1954236"><ele>184.0</ele><time>2026-03-29T07:59:33.972Z</time></trkpt><trkpt lat="40.59138" lon="17.1953745"><ele>184.0</ele><time>2026-03-29T07:59:34.971Z</time></trkpt><trkpt lat="40.5914437" lon="17.1953324"><ele>184.0</ele><time>2026-03-29T07:59:35.971Z</time></trkpt><trkpt lat="40.5915317" lon="17.1952564"><ele>184.0</ele><time>2026-03-29T07:59:37.973Z</time></trkpt><trkpt lat="40.5915565" lon="17.1951486"><ele>184.0</ele><time>2026-03-29T07:59:39.973Z</time></trkpt><trkpt lat="40.5915413" lon="17.1950161"><ele>184.0</ele><time>2026-03-29T07:59:41.974Z</time></trkpt><trkpt lat="40.5915236" lon="17.1948682"><ele>185.75</ele><time>2026-03-29T07:59:43.971Z</time></trkpt><trkpt lat="40.5915145" lon="17.1947127"><ele>187.5</ele><time>2026-03-29T07:59:45.974Z</time></trkpt><trkpt lat="40.5914951" lon="17.1945578"><ele>189.25</ele><time>2026-03-29T07:59:47.97Z</time></trkpt><trkpt lat="40.5914856" lon="17.1944063"><ele>191.0</ele><time>2026-03-29T07:59:49.971Z</time></trkpt><trkpt lat="40.5914766" lon="17.1942482"><ele>191.0</ele><time>2026-03-29T07:59:51.971Z</time></trkpt><trkpt lat="40.5914644" lon="17.1940919"><ele>191.0</ele><time>2026-03-29T07:59:53.972Z</time></trkpt><trkpt lat="40.5914681" lon="17.1939314"><ele>191.0</ele><time>2026-03-29T07:59:55.971Z</time></trkpt><trkpt lat="40.5914738" lon="17.193785"><ele>191.0</ele><time>2026-03-29T07:59:57.973Z</time></trkpt><trkpt lat="40.5914595" lon="17.1936564"><ele>191.66666666666666</ele><time>2026-03-29T07:59:59.973Z</time></trkpt><trkpt lat="40.5914546" lon="17.1935068"><ele>192.33333333333331</ele><time>2026-03-29T08:00:01.971Z</time></trkpt><trkpt lat="40.5914533" lon="17.1934175"><ele>193.0</ele><time>2026-03-29T08:00:02.97Z</time></trkpt><trkpt lat="40.5914488" lon="17.1933266"><ele>193.66666666666666</ele><time>2026-03-29T08:00:03.972Z</time></trkpt><trkpt lat="40.5914445" lon="17.19324"><ele>194.33333333333334</ele><time>2026-03-29T08:00:04.971Z</time></trkpt><trkpt lat="40.5914415" lon="17.1930782"><ele>195.0</ele><time>2026-03-29T08:00:06.971Z</time></trkpt><trkpt lat="40.5914288" lon="17.1929036"><ele>195.0</ele><time>2026-03-29T08:00:08.971Z</time></trkpt><trkpt lat="40.5914224" lon="17.1928078"><ele>195.0</ele><time>2026-03-29T08:00:09.971Z</time></trkpt><trkpt lat="40.5914178" lon="17.1927105"><ele>195.0</ele><time>2026-03-29T08:00:10.971Z</time></trkpt><trkpt lat="40.591411" lon="17.1926108"><ele>195.0</ele><time>2026-03-29T08:00:11.971Z</time></trkpt><trkpt lat="40.5914074" lon="17.1925066"><ele>195.0</ele><time>2026-03-29T08:00:12.971Z</time></trkpt><trkpt lat="40.5914028" lon="17.1924022"><ele>195.0</ele><time>2026-03-29T08:00:13.972Z</time></trkpt><trkpt lat="40.5913976" lon="17.1922985"><ele>195.0</ele><time>2026-03-29T08:00:14.971Z</time></trkpt><trkpt lat="40.5913925" lon="17.1921964"><ele>195.0</ele><time>2026-03-29T08:00:15.974Z</time></trkpt><trkpt lat="40.5913884" lon="17.1920989"><ele>195.0</ele><time>2026-03-29T08:00:16.974Z</time></trkpt><trkpt lat="40.5913843" lon="17.1920015"><ele>195.0</ele><time>2026-03-29T08:00:17.97Z</time></trkpt><trkpt lat="40.5913779" lon="17.1918932"><ele>195.0</ele><time>2026-03-29T08:00:18.972Z</time></trkpt><trkpt lat="40.5913671" lon="17.1917755"><ele>195.0</ele><time>2026-03-29T08:00:19.971Z</time></trkpt><trkpt lat="40.5913571" lon="17.1916423"><ele>194.25</ele><time>2026-03-29T08:00:20.97Z</time></trkpt><trkpt lat="40.5913395" lon="17.1914915"><ele>193.5</ele><time>2026-03-29T08:00:21.971Z</time></trkpt><trkpt lat="40.5913193" lon="17.1913288"><ele>192.75</ele><time>2026-03-29T08:00:22.971Z</time></trkpt><trkpt lat="40.5913046" lon="17.1911557"><ele>192.0</ele><time>2026-03-29T08:00:23.971Z</time></trkpt><trkpt lat="40.591293" lon="17.1909769"><ele>192.0</ele><time>2026-03-29T08:00:24.971Z</time></trkpt><trkpt lat="40.5912827" lon="17.1908091"><ele>192.0</ele><time>2026-03-29T08:00:25.971Z</time></trkpt><trkpt lat="40.5912713" lon="17.1906551"><ele>192.0</ele><time>2026-03-29T08:00:26.971Z</time></trkpt><trkpt lat="40.591264" lon="17.1905158"><ele>192.0</ele><time>2026-03-29T08:00:27.971Z</time></trkpt><trkpt lat="40.591259" lon="17.1903894"><ele>192.0</ele><time>2026-03-29T08:00:28.971Z</time></trkpt><trkpt lat="40.5912559" lon="17.1902748"><ele>192.0</ele><time>2026-03-29T08:00:29.971Z</time></trkpt><trkpt lat="40.5912531" lon="17.1901765"><ele>192.0</ele><time>2026-03-29T08:00:30.973Z</time></trkpt><trkpt lat="40.5912484" lon="17.1900867"><ele>192.0</ele><time>2026-03-29T08:00:31.971Z</time></trkpt><trkpt lat="40.5912426" lon="17.1899991"><ele>192.0</ele><time>2026-03-29T08:00:32.97Z</time></trkpt><trkpt lat="40.5912353" lon="17.1899114"><ele>192.0</ele><time>2026-03-29T08:00:33.971Z</time></trkpt><trkpt lat="40.5912215" lon="17.1897593"><ele>192.0</ele><time>2026-03-29T08:00:35.971Z</time></trkpt><trkpt lat="40.5912173" lon="17.1896588"><ele>192.16666666666666</ele><time>2026-03-29T08:00:37.973Z</time></trkpt><trkpt lat="40.5912542" lon="17.189589"><ele>192.33333333333331</ele><time>2026-03-29T08:00:40.971Z</time></trkpt><trkpt lat="40.5913197" lon="17.1895911"><ele>192.5</ele><time>2026-03-29T08:00:42.971Z</time></trkpt><trkpt lat="40.5914098" lon="17.1895815"><ele>192.66666666666666</ele><time>2026-03-29T08:00:45.974Z</time></trkpt><trkpt lat="40.5914789" lon="17.1895655"><ele>192.83333333333331</ele><time>2026-03-29T08:00:47.971Z</time></trkpt><trkpt lat="40.5916" lon="17.1895617"><ele>193.0</ele><time>2026-03-29T08:01:00.971Z</time></trkpt><trkpt lat="40.591665" lon="17.1895517"><ele>192.99999999999997</ele><time>2026-03-29T08:01:01.971Z</time></trkpt><trkpt lat="40.59173" lon="17.18954"><ele>193.0</ele><time>2026-03-29T08:01:02.972Z</time></trkpt><trkpt lat="40.591795" lon="17.18953"><ele>193.0</ele><time>2026-03-29T08:01:03.971Z</time></trkpt><trkpt lat="40.5918617" lon="17.18952"><ele>193.0</ele><time>2026-03-29T08:01:04.971Z</time></trkpt><trkpt lat="40.5919283" lon="17.1895083"><ele>192.99999999999997</ele><time>2026-03-29T08:01:05.971Z</time></trkpt><trkpt lat="40.592" lon="17.189495"><ele>193.0</ele><time>2026-03-29T08:01:06.971Z</time></trkpt><trkpt lat="40.5921363" lon="17.1894689"><ele>193.16666666666666</ele><time>2026-03-29T08:01:08.971Z</time></trkpt><trkpt lat="40.5922141" lon="17.1894583"><ele>193.33333333333331</ele><time>2026-03-29T08:01:09.971Z</time></trkpt><trkpt lat="40.5922891" lon="17.1894506"><ele>193.5</ele><time>2026-03-29T08:01:10.971Z</time></trkpt><trkpt lat="40.5923694" lon="17.1894414"><ele>193.66666666666669</ele><time>2026-03-29T08:01:11.971Z</time></trkpt><trkpt lat="40.5924497" lon="17.1894345"><ele>193.83333333333334</ele><time>2026-03-29T08:01:12.97Z</time></trkpt><trkpt lat="40.5925235" lon="17.1894277"><ele>194.0</ele><time>2026-03-29T08:01:13.971Z</time></trkpt><trkpt lat="40.5926006" lon="17.1894201"><ele>194.00000000000003</ele><time>2026-03-29T08:01:14.971Z</time></trkpt><trkpt lat="40.5926765" lon="17.1894117"><ele>194.0</ele><time>2026-03-29T08:01:15.974Z</time></trkpt><trkpt lat="40.5927556" lon="17.189402"><ele>194.0</ele><time>2026-03-29T08:01:16.974Z</time></trkpt><trkpt lat="40.5928326" lon="17.189393"><ele>194.0</ele><time>2026-03-29T08:01:17.971Z</time></trkpt><trkpt lat="40.5929115" lon="17.189389"><ele>194.00000000000003</ele><time>2026-03-29T08:01:18.974Z</time></trkpt><trkpt lat="40.5929891" lon="17.1893798"><ele>194.0</ele><time>2026-03-29T08:01:19.972Z</time></trkpt><trkpt lat="40.5930661" lon="17.1893711"><ele>194.16666666666669</ele><time>2026-03-29T08:01:20.971Z</time></trkpt><trkpt lat="40.5931429" lon="17.1893618"><ele>194.33333333333334</ele><time>2026-03-29T08:01:21.971Z</time></trkpt><trkpt lat="40.5932195" lon="17.1893509"><ele>194.5</ele><time>2026-03-29T08:01:22.972Z</time></trkpt><trkpt lat="40.593296" lon="17.1893401"><ele>194.66666666666669</ele><time>2026-03-29T08:01:23.972Z</time></trkpt><trkpt lat="40.593371" lon="17.1893318"><ele>194.83333333333334</ele><time>2026-03-29T08:01:24.973Z</time></trkpt><trkpt lat="40.593447" lon="17.1893236"><ele>195.0</ele><time>2026-03-29T08:01:25.971Z</time></trkpt><trkpt lat="40.5935237" lon="17.1893157"><ele>195.0</ele><time>2026-03-29T08:01:26.971Z</time></trkpt><trkpt lat="40.5935978" lon="17.189307"><ele>195.0</ele><time>2026-03-29T08:01:27.971Z</time></trkpt><trkpt lat="40.5936699" lon="17.1892977"><ele>195.0</ele><time>2026-03-29T08:01:28.971Z</time></trkpt><trkpt lat="40.593744" lon="17.189288"><ele>195.0</ele><time>2026-03-29T08:01:29.971Z</time></trkpt><trkpt lat="40.5938177" lon="17.1892743"><ele>195.0</ele><time>2026-03-29T08:01:30.971Z</time></trkpt><trkpt lat="40.59389" lon="17.1892619"><ele>195.0</ele><time>2026-03-29T08:01:31.973Z</time></trkpt><trkpt lat="40.5939619" lon="17.1892535"><ele>195.0</ele><time>2026-03-29T08:01:32.972Z</time></trkpt><trkpt lat="40.5940338" lon="17.1892475"><ele>195.57142857142856</ele><time>2026-03-29T08:01:33.971Z</time></trkpt><trkpt lat="40.5941078" lon="17.1892404"><ele>196.14285714285714</ele><time>2026-03-29T08:01:34.971Z</time></trkpt><trkpt lat="40.5941815" lon="17.1892338"><ele>196.71428571428572</ele><time>2026-03-29T08:01:35.971Z</time></trkpt><trkpt lat="40.5942533" lon="17.1892294"><ele>197.28571428571428</ele><time>2026-03-29T08:01:36.971Z</time></trkpt><trkpt lat="40.5943224" lon="17.1892242"><ele>197.85714285714286</ele><time>2026-03-29T08:01:37.972Z</time></trkpt><trkpt lat="40.5943919" lon="17.1892145"><ele>198.42857142857142</ele><time>2026-03-29T08:01:38.973Z</time></trkpt><trkpt lat="40.5944618" lon="17.1892074"><ele>199.0</ele><time>2026-03-29T08:01:39.971Z</time></trkpt><trkpt lat="40.5945316" lon="17.1892063"><ele>199.28571428571428</ele><time>2026-03-29T08:01:40.971Z</time></trkpt><trkpt lat="40.5946024" lon="17.1892039"><ele>199.57142857142856</ele><time>2026-03-29T08:01:41.971Z</time></trkpt><trkpt lat="40.5946741" lon="17.1891996"><ele>199.85714285714283</ele><time>2026-03-29T08:01:42.971Z</time></trkpt><trkpt lat="40.594746" lon="17.1891928"><ele>200.14285714285714</ele><time>2026-03-29T08:01:43.971Z</time></trkpt><trkpt lat="40.5948163" lon="17.1891868"><ele>200.42857142857144</ele><time>2026-03-29T08:01:44.972Z</time></trkpt><trkpt lat="40.594886" lon="17.1891805"><ele>200.7142857142857</ele><time>2026-03-29T08:01:45.974Z</time></trkpt><trkpt lat="40.5949519" lon="17.1891737"><ele>201.0</ele><time>2026-03-29T08:01:46.973Z</time></trkpt><trkpt lat="40.5950166" lon="17.1891662"><ele>201.0</ele><time>2026-03-29T08:01:47.974Z</time></trkpt><trkpt lat="40.5950813" lon="17.1891604"><ele>201.0</ele><time>2026-03-29T08:01:48.971Z</time></trkpt><trkpt lat="40.5951487" lon="17.1891528"><ele>201.0</ele><time>2026-03-29T08:01:49.971Z</time></trkpt><trkpt lat="40.5952161" lon="17.1891439"><ele>201.0</ele><time>2026-03-29T08:01:50.971Z</time></trkpt><trkpt lat="40.5952842" lon="17.1891354"><ele>201.0</ele><time>2026-03-29T08:01:51.971Z</time></trkpt><trkpt lat="40.5953541" lon="17.1891257"><ele>201.0</ele><time>2026-03-29T08:01:52.974Z</time></trkpt><trkpt lat="40.5954239" lon="17.1891132"><ele>201.0</ele><time>2026-03-29T08:01:53.97Z</time></trkpt><trkpt lat="40.5954926" lon="17.189102"><ele>201.66666666666666</ele><time>2026-03-29T08:01:54.971Z</time></trkpt><trkpt lat="40.5955612" lon="17.189093"><ele>202.33333333333331</ele><time>2026-03-29T08:01:55.971Z</time></trkpt><trkpt lat="40.595628" lon="17.1890827"><ele>203.0</ele><time>2026-03-29T08:01:56.971Z</time></trkpt><trkpt lat="40.5956959" lon="17.1890771"><ele>203.66666666666666</ele><time>2026-03-29T08:01:57.971Z</time></trkpt><trkpt lat="40.5957615" lon="17.1890745"><ele>204.33333333333331</ele><time>2026-03-29T08:01:58.972Z</time></trkpt><trkpt lat="40.5958818" lon="17.1890581"><ele>205.0</ele><time>2026-03-29T08:02:00.971Z</time></trkpt><trkpt lat="40.5959849" lon="17.1890449"><ele>204.99999999999997</ele><time>2026-03-29T08:02:02.973Z</time></trkpt><trkpt lat="40.5960696" lon="17.1890372"><ele>205.0</ele><time>2026-03-29T08:02:04.974Z</time></trkpt><trkpt lat="40.5961244" lon="17.1889882"><ele>205.0</ele><time>2026-03-29T08:02:06.972Z</time></trkpt><trkpt lat="40.5961282" lon="17.1888963"><ele>205.0</ele><time>2026-03-29T08:02:08.972Z</time></trkpt><trkpt lat="40.5961121" lon="17.1887771"><ele>204.99999999999997</ele><time>2026-03-29T08:02:10.97Z</time></trkpt><trkpt lat="40.5961099" lon="17.1886882"><ele>205.0</ele><time>2026-03-29T08:02:12.97Z</time></trkpt><trkpt lat="40.5961288" lon="17.1887943"><ele>204.99999999999997</ele><time>2026-03-29T08:02:26.971Z</time></trkpt><trkpt lat="40.5961368" lon="17.188902"><ele>205.0</ele><time>2026-03-29T08:02:30.971Z</time></trkpt><trkpt lat="40.5961279" lon="17.1890016"><ele>205.0</ele><time>2026-03-29T08:02:41.971Z</time></trkpt><trkpt lat="40.5960665" lon="17.1890363"><ele>205.0</ele><time>2026-03-29T08:02:43.971Z</time></trkpt><trkpt lat="40.5959687" lon="17.189053"><ele>204.99999999999997</ele><time>2026-03-29T08:02:45.975Z</time></trkpt><trkpt lat="40.5958663" lon="17.1890612"><ele>205.0</ele><time>2026-03-29T08:02:47.97Z</time></trkpt><trkpt lat="40.5957669" lon="17.1890788"><ele>205.0</ele><time>2026-03-29T08:02:49.975Z</time></trkpt><trkpt lat="40.5956777" lon="17.1890925"><ele>205.0</ele><time>2026-03-29T08:02:51.971Z</time></trkpt><trkpt lat="40.5955896" lon="17.1890945"><ele>205.0</ele><time>2026-03-29T08:02:53.974Z</time></trkpt><trkpt lat="40.5954929" lon="17.1891047"><ele>205.0</ele><time>2026-03-29T08:02:55.97Z</time></trkpt><trkpt lat="40.5953964" lon="17.18912"><ele>205.0</ele><time>2026-03-29T08:02:57.972Z</time></trkpt><trkpt lat="40.5953141" lon="17.1891297"><ele>204.33333333333331</ele><time>2026-03-29T08:02:59.971Z</time></trkpt><trkpt lat="40.5952405" lon="17.1891343"><ele>203.66666666666666</ele><time>2026-03-29T08:03:03.97Z</time></trkpt><trkpt lat="40.5951681" lon="17.189141"><ele>203.0</ele><time>2026-03-29T08:03:06.971Z</time></trkpt><trkpt lat="40.5950826" lon="17.1891492"><ele>202.33333333333331</ele><time>2026-03-29T08:03:08.971Z</time></trkpt><trkpt lat="40.5949891" lon="17.1891605"><ele>201.66666666666666</ele><time>2026-03-29T08:03:10.971Z</time></trkpt><trkpt lat="40.5949038" lon="17.189169"><ele>201.0</ele><time>2026-03-29T08:03:12.972Z</time></trkpt><trkpt lat="40.5948357" lon="17.1891774"><ele>201.0</ele><time>2026-03-29T08:03:14.97Z</time></trkpt><trkpt lat="40.5947561" lon="17.1891856"><ele>201.0</ele><time>2026-03-29T08:03:16.974Z</time></trkpt><trkpt lat="40.594664" lon="17.1891984"><ele>201.0</ele><time>2026-03-29T08:03:18.972Z</time></trkpt><trkpt lat="40.5945661" lon="17.1892129"><ele>201.0</ele><time>2026-03-29T08:03:20.972Z</time></trkpt><trkpt lat="40.5944761" lon="17.1892263"><ele>201.0</ele><time>2026-03-29T08:03:22.971Z</time></trkpt><trkpt lat="40.5944079" lon="17.1892291"><ele>201.0</ele><time>2026-03-29T08:03:25.972Z</time></trkpt><trkpt lat="40.5943495" lon="17.1891629"><ele>200.60000000000002</ele><time>2026-03-29T08:03:30.971Z</time></trkpt><trkpt lat="40.5943352" lon="17.1890612"><ele>200.2</ele><time>2026-03-29T08:03:32.97Z</time></trkpt><trkpt lat="40.5943247" lon="17.1889484"><ele>199.8</ele><time>2026-03-29T08:03:34.971Z</time></trkpt><trkpt lat="40.5943259" lon="17.1888172"><ele>199.39999999999998</ele><time>2026-03-29T08:03:36.972Z</time></trkpt><trkpt lat="40.5943302" lon="17.1886757"><ele>199.0</ele><time>2026-03-29T08:03:38.972Z</time></trkpt><trkpt lat="40.5943291" lon="17.1885394"><ele>198.5</ele><time>2026-03-29T08:03:40.972Z</time></trkpt><trkpt lat="40.5943376" lon="17.1884023"><ele>198.0</ele><time>2026-03-29T08:03:42.971Z</time></trkpt><trkpt lat="40.5943414" lon="17.1882482"><ele>197.5</ele><time>2026-03-29T08:03:44.971Z</time></trkpt><trkpt lat="40.5943434" lon="17.1880925"><ele>197.0</ele><time>2026-03-29T08:03:46.973Z</time></trkpt><trkpt lat="40.5943448" lon="17.1879293"><ele>196.39999999999998</ele><time>2026-03-29T08:03:48.971Z</time></trkpt><trkpt lat="40.5943453" lon="17.1877678"><ele>195.79999999999998</ele><time>2026-03-29T08:03:50.972Z</time></trkpt><trkpt lat="40.5943453" lon="17.187606"><ele>195.2</ele><time>2026-03-29T08:03:52.97Z</time></trkpt><trkpt lat="40.5943439" lon="17.1875203"><ele>194.6</ele><time>2026-03-29T08:03:53.971Z</time></trkpt><trkpt lat="40.5943421" lon="17.1874335"><ele>194.0</ele><time>2026-03-29T08:03:54.971Z</time></trkpt><trkpt lat="40.5943401" lon="17.1872804"><ele>194.00000000000003</ele><time>2026-03-29T08:03:56.969Z</time></trkpt><trkpt lat="40.5943428" lon="17.1871629"><ele>194.0</ele><time>2026-03-29T08:03:58.972Z</time></trkpt><trkpt lat="40.5943663" lon="17.1870584"><ele>194.0</ele><time>2026-03-29T08:04:00.972Z</time></trkpt><trkpt lat="40.5944156" lon="17.1869962"><ele>194.0</ele><time>2026-03-29T08:04:02.972Z</time></trkpt><trkpt lat="40.5944857" lon="17.1869769"><ele>194.00000000000003</ele><time>2026-03-29T08:04:04.971Z</time></trkpt><trkpt lat="40.5945722" lon="17.1869762"><ele>194.0</ele><time>2026-03-29T08:04:06.97Z</time></trkpt><trkpt lat="40.5946649" lon="17.1869669"><ele>194.39999999999998</ele><time>2026-03-29T08:04:08.97Z</time></trkpt><trkpt lat="40.5947635" lon="17.1869496"><ele>194.8</ele><time>2026-03-29T08:04:10.97Z</time></trkpt><trkpt lat="40.5948527" lon="17.1869427"><ele>195.2</ele><time>2026-03-29T08:04:12.972Z</time></trkpt><trkpt lat="40.5949433" lon="17.1869356"><ele>195.60000000000002</ele><time>2026-03-29T08:04:14.969Z</time></trkpt><trkpt lat="40.5950412" lon="17.1869306"><ele>196.0</ele><time>2026-03-29T08:04:16.974Z</time></trkpt><trkpt lat="40.5951416" lon="17.1869275"><ele>196.0</ele><time>2026-03-29T08:04:18.97Z</time></trkpt><trkpt lat="40.5952371" lon="17.1869229"><ele>196.0</ele><time>2026-03-29T08:04:20.969Z</time></trkpt><trkpt lat="40.5953195" lon="17.1869142"><ele>196.0</ele><time>2026-03-29T08:04:22.972Z</time></trkpt><trkpt lat="40.5954015" lon="17.1869034"><ele>196.0</ele><time>2026-03-29T08:04:24.972Z</time></trkpt><trkpt lat="40.5954934" lon="17.1868869"><ele>196.0</ele><time>2026-03-29T08:04:26.969Z</time></trkpt><trkpt lat="40.595592" lon="17.186871"><ele>196.20000000000002</ele><time>2026-03-29T08:04:28.97Z</time></trkpt><trkpt lat="40.5956922" lon="17.1868602"><ele>196.4</ele><time>2026-03-29T08:04:30.971Z</time></trkpt><trkpt lat="40.5957964" lon="17.1868463"><ele>196.6</ele><time>2026-03-29T08:04:32.97Z</time></trkpt><trkpt lat="40.5958969" lon="17.1868364"><ele>196.8</ele><time>2026-03-29T08:04:34.971Z</time></trkpt><trkpt lat="40.5959937" lon="17.1868296"><ele>197.0</ele><time>2026-03-29T08:04:36.971Z</time></trkpt><trkpt lat="40.5960913" lon="17.1868268"><ele>197.00000000000003</ele><time>2026-03-29T08:04:38.971Z</time></trkpt><trkpt lat="40.5961545" lon="17.1868137"><ele>197.0</ele><time>2026-03-29T08:04:41.971Z</time></trkpt><trkpt lat="40.5962283" lon="17.1868067"><ele>197.0</ele><time>2026-03-29T08:05:05.971Z</time></trkpt><trkpt lat="40.5961583" lon="17.1868317"><ele>197.0</ele><time>2026-03-29T08:05:31.972Z</time></trkpt><trkpt lat="40.5960617" lon="17.1868417"><ele>197.00000000000003</ele><time>2026-03-29T08:05:34.971Z</time></trkpt><trkpt lat="40.5959917" lon="17.18685"><ele>197.0</ele><time>2026-03-29T08:05:36.97Z</time></trkpt><trkpt lat="40.5959168" lon="17.186844"><ele>197.0</ele><time>2026-03-29T08:05:38.97Z</time></trkpt><trkpt lat="40.5958446" lon="17.1868507"><ele>197.0</ele><time>2026-03-29T08:05:40.971Z</time></trkpt><trkpt lat="40.5957762" lon="17.1868591"><ele>197.0</ele><time>2026-03-29T08:05:42.971Z</time></trkpt><trkpt lat="40.5956995" lon="17.1868653"><ele>197.0</ele><time>2026-03-29T08:05:44.97Z</time></trkpt><trkpt lat="40.5956216" lon="17.1868757"><ele>197.0</ele><time>2026-03-29T08:05:46.971Z</time></trkpt><trkpt lat="40.595551" lon="17.1868883"><ele>197.0</ele><time>2026-03-29T08:05:48.97Z</time></trkpt><trkpt lat="40.5954715" lon="17.1869026"><ele>197.0</ele><time>2026-03-29T08:05:50.969Z</time></trkpt><trkpt lat="40.5953876" lon="17.1869187"><ele>196.83333333333334</ele><time>2026-03-29T08:05:52.971Z</time></trkpt><trkpt lat="40.5953159" lon="17.1869281"><ele>196.66666666666669</ele><time>2026-03-29T08:05:54.973Z</time></trkpt><trkpt lat="40.5952503" lon="17.1869268"><ele>196.5</ele><time>2026-03-29T08:05:56.971Z</time></trkpt><trkpt lat="40.5951744" lon="17.1869302"><ele>196.33333333333331</ele><time>2026-03-29T08:05:58.971Z</time></trkpt><trkpt lat="40.5950932" lon="17.1869335"><ele>196.16666666666666</ele><time>2026-03-29T08:06:00.972Z</time></trkpt><trkpt lat="40.5949964" lon="17.186942"><ele>196.0</ele><time>2026-03-29T08:06:02.972Z</time></trkpt><trkpt lat="40.5949032" lon="17.1869524"><ele>196.0</ele><time>2026-03-29T08:06:04.97Z</time></trkpt><trkpt lat="40.59484" lon="17.1869696"><ele>196.0</ele><time>2026-03-29T08:06:06.971Z</time></trkpt><trkpt lat="40.5947772" lon="17.1869816"><ele>196.0</ele><time>2026-03-29T08:06:09.97Z</time></trkpt><trkpt lat="40.5946995" lon="17.1869873"><ele>196.0</ele><time>2026-03-29T08:06:11.97Z</time></trkpt><trkpt lat="40.5946163" lon="17.1869993"><ele>196.0</ele><time>2026-03-29T08:06:13.97Z</time></trkpt><trkpt lat="40.5945467" lon="17.1870088"><ele>196.0</ele><time>2026-03-29T08:06:15.973Z</time></trkpt><trkpt lat="40.5944731" lon="17.1870257"><ele>196.0</ele><time>2026-03-29T08:06:17.972Z</time></trkpt><trkpt lat="40.5944129" lon="17.1870658"><ele>195.60000000000002</ele><time>2026-03-29T08:06:19.972Z</time></trkpt><trkpt lat="40.5943555" lon="17.1871627"><ele>195.2</ele><time>2026-03-29T08:06:22.971Z</time></trkpt><trkpt lat="40.5943435" lon="17.1872525"><ele>194.8</ele><time>2026-03-29T08:06:24.972Z</time></trkpt><trkpt lat="40.5943415" lon="17.1873682"><ele>194.39999999999998</ele><time>2026-03-29T08:06:26.972Z</time></trkpt><trkpt lat="40.594343" lon="17.1875172"><ele>194.0</ele><time>2026-03-29T08:06:28.97Z</time></trkpt><trkpt lat="40.5943398" lon="17.1876734"><ele>194.0</ele><time>2026-03-29T08:06:30.972Z</time></trkpt><trkpt lat="40.5943386" lon="17.1878291"><ele>194.0</ele><time>2026-03-29T08:06:32.971Z</time></trkpt><trkpt lat="40.5943367" lon="17.1879811"><ele>194.0</ele><time>2026-03-29T08:06:34.97Z</time></trkpt><trkpt lat="40.5943368" lon="17.1881319"><ele>194.0</ele><time>2026-03-29T08:06:36.971Z</time></trkpt><trkpt lat="40.5943328" lon="17.1882854"><ele>194.6</ele><time>2026-03-29T08:06:38.97Z</time></trkpt><trkpt lat="40.5943344" lon="17.1884442"><ele>195.2</ele><time>2026-03-29T08:06:40.97Z</time></trkpt><trkpt lat="40.5943368" lon="17.1886014"><ele>195.79999999999998</ele><time>2026-03-29T08:06:42.971Z</time></trkpt><trkpt lat="40.5943341" lon="17.1887665"><ele>196.39999999999998</ele><time>2026-03-29T08:06:44.97Z</time></trkpt><trkpt lat="40.5943297" lon="17.1888604"><ele>197.0</ele><time>2026-03-29T08:06:45.973Z</time></trkpt><trkpt lat="40.5943292" lon="17.1889506"><ele>197.39999999999998</ele><time>2026-03-29T08:06:46.974Z</time></trkpt><trkpt lat="40.5943496" lon="17.1890888"><ele>197.79999999999998</ele><time>2026-03-29T08:06:48.97Z</time></trkpt><trkpt lat="40.5943699" lon="17.18917"><ele>198.2</ele><time>2026-03-29T08:06:51.97Z</time></trkpt><trkpt lat="40.5942928" lon="17.189242"><ele>198.6</ele><time>2026-03-29T08:06:54.971Z</time></trkpt><trkpt lat="40.5941914" lon="17.1892499"><ele>199.0</ele><time>2026-03-29T08:06:56.971Z</time></trkpt><trkpt lat="40.5940811" lon="17.1892641"><ele>199.0</ele><time>2026-03-29T08:06:58.97Z</time></trkpt><trkpt lat="40.5939669" lon="17.18928"><ele>199.0</ele><time>2026-03-29T08:07:00.972Z</time></trkpt><trkpt lat="40.5938453" lon="17.1892974"><ele>199.0</ele><time>2026-03-29T08:07:02.971Z</time></trkpt><trkpt lat="40.5937205" lon="17.1893078"><ele>199.0</ele><time>2026-03-29T08:07:04.971Z</time></trkpt><trkpt lat="40.5935928" lon="17.1893205"><ele>198.42857142857142</ele><time>2026-03-29T08:07:06.973Z</time></trkpt><trkpt lat="40.5935269" lon="17.1893283"><ele>197.85714285714286</ele><time>2026-03-29T08:07:07.972Z</time></trkpt><trkpt lat="40.5934577" lon="17.1893369"><ele>197.28571428571428</ele><time>2026-03-29T08:07:08.97Z</time></trkpt><trkpt lat="40.5933862" lon="17.1893467"><ele>196.71428571428572</ele><time>2026-03-29T08:07:09.972Z</time></trkpt><trkpt lat="40.5933132" lon="17.189357"><ele>196.14285714285714</ele><time>2026-03-29T08:07:10.971Z</time></trkpt><trkpt lat="40.5932369" lon="17.1893657"><ele>195.57142857142856</ele><time>2026-03-29T08:07:11.973Z</time></trkpt><trkpt lat="40.5931599" lon="17.1893746"><ele>195.0</ele><time>2026-03-29T08:07:12.971Z</time></trkpt><trkpt lat="40.5930825" lon="17.1893816"><ele>195.0</ele><time>2026-03-29T08:07:13.971Z</time></trkpt><trkpt lat="40.5930057" lon="17.1893884"><ele>195.0</ele><time>2026-03-29T08:07:14.972Z</time></trkpt><trkpt lat="40.5929275" lon="17.1893964"><ele>195.0</ele><time>2026-03-29T08:07:15.974Z</time></trkpt><trkpt lat="40.5928519" lon="17.1894054"><ele>195.0</ele><time>2026-03-29T08:07:16.974Z</time></trkpt><trkpt lat="40.592774" lon="17.1894119"><ele>195.0</ele><time>2026-03-29T08:07:17.972Z</time></trkpt><trkpt lat="40.5926941" lon="17.1894199"><ele>195.0</ele><time>2026-03-29T08:07:18.974Z</time></trkpt><trkpt lat="40.59261" lon="17.1894286"><ele>194.85714285714286</ele><time>2026-03-29T08:07:19.972Z</time></trkpt><trkpt lat="40.5925273" lon="17.1894392"><ele>194.71428571428572</ele><time>2026-03-29T08:07:20.973Z</time></trkpt><trkpt lat="40.5924473" lon="17.1894466"><ele>194.57142857142856</ele><time>2026-03-29T08:07:21.974Z</time></trkpt><trkpt lat="40.5923743" lon="17.1894512"><ele>194.42857142857144</ele><time>2026-03-29T08:07:22.973Z</time></trkpt><trkpt lat="40.5923031" lon="17.1894571"><ele>194.2857142857143</ele><time>2026-03-29T08:07:23.972Z</time></trkpt><trkpt lat="40.5922358" lon="17.1894607"><ele>194.14285714285714</ele><time>2026-03-29T08:07:24.971Z</time></trkpt><trkpt lat="40.592167" lon="17.1894678"><ele>194.0</ele><time>2026-03-29T08:07:25.972Z</time></trkpt><trkpt lat="40.5920983" lon="17.189476"><ele>194.0</ele><time>2026-03-29T08:07:26.971Z</time></trkpt><trkpt lat="40.5920296" lon="17.1894842"><ele>194.0</ele><time>2026-03-29T08:07:27.972Z</time></trkpt><trkpt lat="40.5919588" lon="17.1894916"><ele>194.0</ele><time>2026-03-29T08:07:28.971Z</time></trkpt><trkpt lat="40.5918899" lon="17.1894958"><ele>194.0</ele><time>2026-03-29T08:07:29.974Z</time></trkpt><trkpt lat="40.5918202" lon="17.1895039"><ele>194.0</ele><time>2026-03-29T08:07:30.971Z</time></trkpt><trkpt lat="40.5917498" lon="17.1895107"><ele>194.0</ele><time>2026-03-29T08:07:31.972Z</time></trkpt><trkpt lat="40.5916757" lon="17.1895169"><ele>194.0</ele><time>2026-03-29T08:07:32.971Z</time></trkpt><trkpt lat="40.5916005" lon="17.1895231"><ele>193.83333333333334</ele><time>2026-03-29T08:07:33.972Z</time></trkpt><trkpt lat="40.5915257" lon="17.1895383"><ele>193.66666666666669</ele><time>2026-03-29T08:07:34.971Z</time></trkpt><trkpt lat="40.5914519" lon="17.1895528"><ele>193.5</ele><time>2026-03-29T08:07:35.972Z</time></trkpt><trkpt lat="40.5913757" lon="17.1895637"><ele>193.33333333333331</ele><time>2026-03-29T08:07:36.972Z</time></trkpt><trkpt lat="40.5912978" lon="17.189572"><ele>193.16666666666666</ele><time>2026-03-29T08:07:37.972Z</time></trkpt><trkpt lat="40.5912207" lon="17.1895779"><ele>193.0</ele><time>2026-03-29T08:07:38.971Z</time></trkpt><trkpt lat="40.5911463" lon="17.1895811"><ele>192.66666666666666</ele><time>2026-03-29T08:07:39.972Z</time></trkpt><trkpt lat="40.5910788" lon="17.1895885"><ele>192.33333333333331</ele><time>2026-03-29T08:07:40.972Z</time></trkpt><trkpt lat="40.5909717" lon="17.1896037"><ele>192.0</ele><time>2026-03-29T08:07:42.973Z</time></trkpt><trkpt lat="40.5909005" lon="17.1896187"><ele>191.66666666666666</ele><time>2026-03-29T08:07:45.974Z</time></trkpt><trkpt lat="40.5908268" lon="17.1896202"><ele>191.33333333333331</ele><time>2026-03-29T08:07:48.972Z</time></trkpt><trkpt lat="40.590751" lon="17.1896274"><ele>191.0</ele><time>2026-03-29T08:07:50.971Z</time></trkpt><trkpt lat="40.5906695" lon="17.1896394"><ele>191.0</ele><time>2026-03-29T08:07:52.971Z</time></trkpt><trkpt lat="40.5906026" lon="17.1896468"><ele>191.0</ele><time>2026-03-29T08:07:54.971Z</time></trkpt><trkpt lat="40.5907017" lon="17.18966"><ele>191.0</ele><time>2026-03-29T08:08:10.97Z</time></trkpt><trkpt lat="40.5907883" lon="17.1896417"><ele>191.0</ele><time>2026-03-29T08:08:12.971Z</time></trkpt><trkpt lat="40.5908765" lon="17.1896303"><ele>191.0</ele><time>2026-03-29T08:08:14.971Z</time></trkpt><trkpt lat="40.590988" lon="17.1896072"><ele>191.0</ele><time>2026-03-29T08:08:16.974Z</time></trkpt><trkpt lat="40.5910749" lon="17.1895925"><ele>191.0</ele><time>2026-03-29T08:08:18.973Z</time></trkpt><trkpt lat="40.5911512" lon="17.1895852"><ele>191.0</ele><time>2026-03-29T08:08:20.97Z</time></trkpt><trkpt lat="40.5912144" lon="17.1896397"><ele>191.0</ele><time>2026-03-29T08:08:22.974Z</time></trkpt><trkpt lat="40.5912348" lon="17.1897521"><ele>191.0</ele><time>2026-03-29T08:08:24.97Z</time></trkpt><trkpt lat="40.5912398" lon="17.1899192"><ele>191.16666666666666</ele><time>2026-03-29T08:08:26.97Z</time></trkpt><trkpt lat="40.5912425" lon="17.1900144"><ele>191.33333333333331</ele><time>2026-03-29T08:08:27.971Z</time></trkpt><trkpt lat="40.5912454" lon="17.1901184"><ele>191.5</ele><time>2026-03-29T08:08:28.971Z</time></trkpt><trkpt lat="40.5912484" lon="17.1902316"><ele>191.66666666666666</ele><time>2026-03-29T08:08:29.971Z</time></trkpt><trkpt lat="40.5912545" lon="17.1903466"><ele>191.83333333333334</ele><time>2026-03-29T08:08:30.971Z</time></trkpt><trkpt lat="40.5912632" lon="17.1904624"><ele>192.0</ele><time>2026-03-29T08:08:31.971Z</time></trkpt><trkpt lat="40.5912719" lon="17.1905779"><ele>192.0</ele><time>2026-03-29T08:08:32.971Z</time></trkpt><trkpt lat="40.5912803" lon="17.1906935"><ele>192.0</ele><time>2026-03-29T08:08:33.97Z</time></trkpt><trkpt lat="40.5912884" lon="17.1908131"><ele>192.0</ele><time>2026-03-29T08:08:34.97Z</time></trkpt><trkpt lat="40.5912976" lon="17.1909373"><ele>192.0</ele><time>2026-03-29T08:08:35.971Z</time></trkpt><trkpt lat="40.5913047" lon="17.1910683"><ele>192.0</ele><time>2026-03-29T08:08:36.971Z</time></trkpt><trkpt lat="40.5913099" lon="17.1911935"><ele>192.0</ele><time>2026-03-29T08:08:37.972Z</time></trkpt><trkpt lat="40.5913159" lon="17.1913045"><ele>192.0</ele><time>2026-03-29T08:08:38.971Z</time></trkpt><trkpt lat="40.591324" lon="17.1914005"><ele>192.0</ele><time>2026-03-29T08:08:39.973Z</time></trkpt><trkpt lat="40.5913296" lon="17.1914883"><ele>192.0</ele><time>2026-03-29T08:08:40.971Z</time></trkpt><trkpt lat="40.5913348" lon="17.1915775"><ele>192.0</ele><time>2026-03-29T08:08:41.973Z</time></trkpt><trkpt lat="40.591343" lon="17.1916775"><ele>192.0</ele><time>2026-03-29T08:08:42.974Z</time></trkpt><trkpt lat="40.5913546" lon="17.1917926"><ele>192.6</ele><time>2026-03-29T08:08:43.973Z</time></trkpt><trkpt lat="40.5913652" lon="17.1919195"><ele>193.2</ele><time>2026-03-29T08:08:44.97Z</time></trkpt><trkpt lat="40.5913688" lon="17.1920448"><ele>193.8</ele><time>2026-03-29T08:08:45.974Z</time></trkpt><trkpt lat="40.5913706" lon="17.1921652"><ele>194.4</ele><time>2026-03-29T08:08:46.974Z</time></trkpt><trkpt lat="40.5913772" lon="17.1922826"><ele>195.0</ele><time>2026-03-29T08:08:47.974Z</time></trkpt><trkpt lat="40.5913846" lon="17.192395"><ele>195.16666666666666</ele><time>2026-03-29T08:08:48.973Z</time></trkpt><trkpt lat="40.5913888" lon="17.192503"><ele>195.33333333333331</ele><time>2026-03-29T08:08:49.971Z</time></trkpt><trkpt lat="40.5913945" lon="17.1926106"><ele>195.5</ele><time>2026-03-29T08:08:50.974Z</time></trkpt><trkpt lat="40.5914044" lon="17.1927149"><ele>195.66666666666666</ele><time>2026-03-29T08:08:51.973Z</time></trkpt><trkpt lat="40.591416" lon="17.1928151"><ele>195.83333333333331</ele><time>2026-03-29T08:08:52.974Z</time></trkpt><trkpt lat="40.5914221" lon="17.1929152"><ele>196.0</ele><time>2026-03-29T08:08:53.977Z</time></trkpt><trkpt lat="40.591424" lon="17.1930091"><ele>196.0</ele><time>2026-03-29T08:08:54.97Z</time></trkpt><trkpt lat="40.5914337" lon="17.1931603"><ele>196.0</ele><time>2026-03-29T08:08:56.971Z</time></trkpt><trkpt lat="40.5914407" lon="17.1932827"><ele>196.0</ele><time>2026-03-29T08:08:58.971Z</time></trkpt><trkpt lat="40.5914511" lon="17.1934217"><ele>196.0</ele><time>2026-03-29T08:09:00.971Z</time></trkpt><trkpt lat="40.591462" lon="17.193535"><ele>196.0</ele><time>2026-03-29T08:09:02.971Z</time></trkpt><trkpt lat="40.5914532" lon="17.1936484"><ele>195.83333333333331</ele><time>2026-03-29T08:09:05.971Z</time></trkpt><trkpt lat="40.5914614" lon="17.1937681"><ele>195.66666666666666</ele><time>2026-03-29T08:09:07.971Z</time></trkpt><trkpt lat="40.5914802" lon="17.1939227"><ele>195.5</ele><time>2026-03-29T08:09:09.971Z</time></trkpt><trkpt lat="40.5914831" lon="17.1940116"><ele>195.33333333333331</ele><time>2026-03-29T08:09:10.971Z</time></trkpt><trkpt lat="40.5914846" lon="17.1941053"><ele>195.16666666666666</ele><time>2026-03-29T08:09:11.971Z</time></trkpt><trkpt lat="40.5914865" lon="17.1941994"><ele>195.0</ele><time>2026-03-29T08:09:12.971Z</time></trkpt><trkpt lat="40.5914836" lon="17.1942864"><ele>194.2</ele><time>2026-03-29T08:09:13.972Z</time></trkpt><trkpt lat="40.5914854" lon="17.1944432"><ele>193.4</ele><time>2026-03-29T08:09:15.974Z</time></trkpt><trkpt lat="40.5914891" lon="17.1945927"><ele>192.60000000000002</ele><time>2026-03-29T08:09:17.974Z</time></trkpt><trkpt lat="40.5915049" lon="17.1947212"><ele>191.8</ele><time>2026-03-29T08:09:19.973Z</time></trkpt><trkpt lat="40.591517" lon="17.1948525"><ele>191.0</ele><time>2026-03-29T08:09:21.974Z</time></trkpt><trkpt lat="40.59152" lon="17.1949738"><ele>189.83333333333331</ele><time>2026-03-29T08:09:23.974Z</time></trkpt><trkpt lat="40.5915282" lon="17.1950819"><ele>188.66666666666666</ele><time>2026-03-29T08:09:25.972Z</time></trkpt><trkpt lat="40.5915481" lon="17.1951754"><ele>187.5</ele><time>2026-03-29T08:09:28.971Z</time></trkpt><trkpt lat="40.5916266" lon="17.1951871"><ele>186.33333333333334</ele><time>2026-03-29T08:09:33.972Z</time></trkpt><trkpt lat="40.5917156" lon="17.1951263"><ele>185.16666666666669</ele><time>2026-03-29T08:09:35.972Z</time></trkpt><trkpt lat="40.5917699" lon="17.1950807"><ele>184.0</ele><time>2026-03-29T08:09:36.972Z</time></trkpt><trkpt lat="40.5918301" lon="17.1950317"><ele>184.0</ele><time>2026-03-29T08:09:37.972Z</time></trkpt><trkpt lat="40.591894" lon="17.1949809"><ele>184.0</ele><time>2026-03-29T08:09:38.971Z</time></trkpt><trkpt lat="40.5919608" lon="17.1949291"><ele>184.0</ele><time>2026-03-29T08:09:39.971Z</time></trkpt><trkpt lat="40.5920306" lon="17.1948758"><ele>184.0</ele><time>2026-03-29T08:09:40.971Z</time></trkpt><trkpt lat="40.5921035" lon="17.1948221"><ele>184.0</ele><time>2026-03-29T08:09:41.971Z</time></trkpt><trkpt lat="40.5921771" lon="17.1947684"><ele>184.0</ele><time>2026-03-29T08:09:42.971Z</time></trkpt><trkpt lat="40.5922537" lon="17.1947151"><ele>185.0</ele><time>2026-03-29T08:09:43.971Z</time></trkpt><trkpt lat="40.592331" lon="17.1946633"><ele>186.0</ele><time>2026-03-29T08:09:44.971Z</time></trkpt><trkpt lat="40.5924078" lon="17.1946128"><ele>187.0</ele><time>2026-03-29T08:09:45.974Z</time></trkpt><trkpt lat="40.592483" lon="17.1945655"><ele>188.0</ele><time>2026-03-29T08:09:46.973Z</time></trkpt><trkpt lat="40.592558" lon="17.1945172"><ele>189.0</ele><time>2026-03-29T08:09:47.971Z</time></trkpt><trkpt lat="40.5926329" lon="17.1944637"><ele>190.0</ele><time>2026-03-29T08:09:48.971Z</time></trkpt><trkpt lat="40.592707" lon="17.1944141"><ele>190.0</ele><time>2026-03-29T08:09:49.972Z</time></trkpt><trkpt lat="40.5927852" lon="17.194367"><ele>190.0</ele><time>2026-03-29T08:09:50.971Z</time></trkpt><trkpt lat="40.5928579" lon="17.1943218"><ele>190.0</ele><time>2026-03-29T08:09:51.971Z</time></trkpt><trkpt lat="40.5929296" lon="17.1942755"><ele>190.0</ele><time>2026-03-29T08:09:52.971Z</time></trkpt><trkpt lat="40.5930027" lon="17.1942248"><ele>190.0</ele><time>2026-03-29T08:09:53.972Z</time></trkpt><trkpt lat="40.5930731" lon="17.1941797"><ele>190.0</ele><time>2026-03-29T08:09:54.972Z</time></trkpt><trkpt lat="40.59314" lon="17.1941392"><ele>190.0</ele><time>2026-03-29T08:09:55.972Z</time></trkpt><trkpt lat="40.5932051" lon="17.1940943"><ele>190.0</ele><time>2026-03-29T08:09:56.971Z</time></trkpt><trkpt lat="40.5932728" lon="17.1940474"><ele>190.0</ele><time>2026-03-29T08:09:57.973Z</time></trkpt><trkpt lat="40.5933439" lon="17.1940031"><ele>190.0</ele><time>2026-03-29T08:09:58.971Z</time></trkpt><trkpt lat="40.59342" lon="17.1939597"><ele>190.0</ele><time>2026-03-29T08:09:59.972Z</time></trkpt><trkpt lat="40.5934973" lon="17.1939156"><ele>190.0</ele><time>2026-03-29T08:10:00.971Z</time></trkpt><trkpt lat="40.5935745" lon="17.1938737"><ele>190.6</ele><time>2026-03-29T08:10:01.972Z</time></trkpt><trkpt lat="40.5936526" lon="17.1938284"><ele>191.2</ele><time>2026-03-29T08:10:02.971Z</time></trkpt><trkpt lat="40.5937311" lon="17.1937846"><ele>191.8</ele><time>2026-03-29T08:10:03.972Z</time></trkpt><trkpt lat="40.593814" lon="17.1937413"><ele>192.4</ele><time>2026-03-29T08:10:04.971Z</time></trkpt><trkpt lat="40.5939021" lon="17.1936966"><ele>193.0</ele><time>2026-03-29T08:10:05.973Z</time></trkpt><trkpt lat="40.5939924" lon="17.1936487"><ele>193.2</ele><time>2026-03-29T08:10:06.971Z</time></trkpt><trkpt lat="40.5940828" lon="17.1936027"><ele>193.4</ele><time>2026-03-29T08:10:07.972Z</time></trkpt><trkpt lat="40.5941716" lon="17.1935577"><ele>193.6</ele><time>2026-03-29T08:10:08.971Z</time></trkpt><trkpt lat="40.5942628" lon="17.1935117"><ele>193.79999999999998</ele><time>2026-03-29T08:10:09.972Z</time></trkpt><trkpt lat="40.5943562" lon="17.1934662"><ele>194.0</ele><time>2026-03-29T08:10:10.971Z</time></trkpt><trkpt lat="40.5944527" lon="17.1934226"><ele>194.0</ele><time>2026-03-29T08:10:11.973Z</time></trkpt><trkpt lat="40.5945568" lon="17.1933838"><ele>194.0</ele><time>2026-03-29T08:10:12.972Z</time></trkpt><trkpt lat="40.5946624" lon="17.193345"><ele>194.0</ele><time>2026-03-29T08:10:13.972Z</time></trkpt><trkpt lat="40.5947649" lon="17.193308"><ele>194.0</ele><time>2026-03-29T08:10:14.972Z</time></trkpt><trkpt lat="40.5948626" lon="17.1932704"><ele>194.0</ele><time>2026-03-29T08:10:15.974Z</time></trkpt><trkpt lat="40.5949631" lon="17.193236"><ele>194.0</ele><time>2026-03-29T08:10:16.974Z</time></trkpt><trkpt lat="40.5950688" lon="17.1931998"><ele>194.0</ele><time>2026-03-29T08:10:17.971Z</time></trkpt><trkpt lat="40.5951814" lon="17.193163"><ele>194.0</ele><time>2026-03-29T08:10:18.97Z</time></trkpt><trkpt lat="40.5952898" lon="17.1931349"><ele>194.0</ele><time>2026-03-29T08:10:19.971Z</time></trkpt><trkpt lat="40.5953921" lon="17.1931092"><ele>194.0</ele><time>2026-03-29T08:10:20.97Z</time></trkpt><trkpt lat="40.5954864" lon="17.1930837"><ele>194.66666666666669</ele><time>2026-03-29T08:10:21.971Z</time></trkpt><trkpt lat="40.5955734" lon="17.19306"><ele>195.33333333333334</ele><time>2026-03-29T08:10:22.97Z</time></trkpt><trkpt lat="40.5956565" lon="17.1930355"><ele>196.0</ele><time>2026-03-29T08:10:23.971Z</time></trkpt><trkpt lat="40.5957393" lon="17.1930066"><ele>196.66666666666669</ele><time>2026-03-29T08:10:24.971Z</time></trkpt><trkpt lat="40.5958223" lon="17.1929754"><ele>197.33333333333334</ele><time>2026-03-29T08:10:25.974Z</time></trkpt><trkpt lat="40.5959039" lon="17.1929436"><ele>198.0</ele><time>2026-03-29T08:10:26.972Z</time></trkpt><trkpt lat="40.5959811" lon="17.192913"><ele>198.0</ele><time>2026-03-29T08:10:27.97Z</time></trkpt><trkpt lat="40.5960575" lon="17.1928849"><ele>198.0</ele><time>2026-03-29T08:10:28.971Z</time></trkpt><trkpt lat="40.5961379" lon="17.1928627"><ele>198.0</ele><time>2026-03-29T08:10:29.971Z</time></trkpt><trkpt lat="40.5962184" lon="17.192843"><ele>198.0</ele><time>2026-03-29T08:10:30.971Z</time></trkpt><trkpt lat="40.5963015" lon="17.1928273"><ele>198.0</ele><time>2026-03-29T08:10:31.97Z</time></trkpt><trkpt lat="40.5963863" lon="17.1928168"><ele>198.0</ele><time>2026-03-29T08:10:32.97Z</time></trkpt><trkpt lat="40.596474" lon="17.192811"><ele>198.0</ele><time>2026-03-29T08:10:33.971Z</time></trkpt><trkpt lat="40.5965623" lon="17.1928025"><ele>198.0</ele><time>2026-03-29T08:10:34.971Z</time></trkpt><trkpt lat="40.5966496" lon="17.1927968"><ele>198.0</ele><time>2026-03-29T08:10:35.97Z</time></trkpt><trkpt lat="40.5967387" lon="17.1927906"><ele>198.0</ele><time>2026-03-29T08:10:36.972Z</time></trkpt><trkpt lat="40.5968246" lon="17.1927827"><ele>198.0</ele><time>2026-03-29T08:10:37.971Z</time></trkpt><trkpt lat="40.5969081" lon="17.1927708"><ele>198.0</ele><time>2026-03-29T08:10:38.971Z</time></trkpt><trkpt lat="40.5969885" lon="17.1927601"><ele>197.83333333333334</ele><time>2026-03-29T08:10:39.971Z</time></trkpt><trkpt lat="40.5970671" lon="17.1927473"><ele>197.66666666666669</ele><time>2026-03-29T08:10:40.971Z</time></trkpt><trkpt lat="40.5971478" lon="17.1927363"><ele>197.5</ele><time>2026-03-29T08:10:41.971Z</time></trkpt><trkpt lat="40.5972266" lon="17.192722"><ele>197.33333333333334</ele><time>2026-03-29T08:10:42.971Z</time></trkpt><trkpt lat="40.5973061" lon="17.1927029"><ele>197.16666666666669</ele><time>2026-03-29T08:10:43.97Z</time></trkpt><trkpt lat="40.5973847" lon="17.1926819"><ele>197.0</ele><time>2026-03-29T08:10:44.972Z</time></trkpt><trkpt lat="40.5974604" lon="17.1926565"><ele>197.00000000000003</ele><time>2026-03-29T08:10:45.974Z</time></trkpt><trkpt lat="40.597534" lon="17.192627"><ele>197.0</ele><time>2026-03-29T08:10:46.974Z</time></trkpt><trkpt lat="40.5976084" lon="17.1925979"><ele>197.0</ele><time>2026-03-29T08:10:47.972Z</time></trkpt><trkpt lat="40.5976846" lon="17.1925639"><ele>197.0</ele><time>2026-03-29T08:10:48.972Z</time></trkpt><trkpt lat="40.5977626" lon="17.1925284"><ele>197.00000000000003</ele><time>2026-03-29T08:10:49.972Z</time></trkpt><trkpt lat="40.5978413" lon="17.1924932"><ele>197.0</ele><time>2026-03-29T08:10:50.971Z</time></trkpt><trkpt lat="40.5979214" lon="17.1924567"><ele>196.66666666666669</ele><time>2026-03-29T08:10:51.971Z</time></trkpt><trkpt lat="40.5980043" lon="17.1924184"><ele>196.33333333333334</ele><time>2026-03-29T08:10:52.971Z</time></trkpt><trkpt lat="40.5980866" lon="17.1923804"><ele>196.0</ele><time>2026-03-29T08:10:53.971Z</time></trkpt><trkpt lat="40.5981697" lon="17.1923438"><ele>195.66666666666669</ele><time>2026-03-29T08:10:54.972Z</time></trkpt><trkpt lat="40.5982516" lon="17.1923113"><ele>195.33333333333334</ele><time>2026-03-29T08:10:55.972Z</time></trkpt><trkpt lat="40.5983332" lon="17.1922782"><ele>195.0</ele><time>2026-03-29T08:10:56.973Z</time></trkpt><trkpt lat="40.5984136" lon="17.1922475"><ele>196.83333333333334</ele><time>2026-03-29T08:10:57.971Z</time></trkpt><trkpt lat="40.5984953" lon="17.1922232"><ele>198.66666666666669</ele><time>2026-03-29T08:10:58.971Z</time></trkpt><trkpt lat="40.5985787" lon="17.1922047"><ele>200.5</ele><time>2026-03-29T08:10:59.971Z</time></trkpt><trkpt lat="40.5986637" lon="17.1921884"><ele>202.33333333333334</ele><time>2026-03-29T08:11:00.971Z</time></trkpt><trkpt lat="40.5987502" lon="17.1921707"><ele>204.16666666666669</ele><time>2026-03-29T08:11:01.973Z</time></trkpt><trkpt lat="40.598838" lon="17.1921514"><ele>206.0</ele><time>2026-03-29T08:11:02.972Z</time></trkpt><trkpt lat="40.5989264" lon="17.1921383"><ele>206.50000000000003</ele><time>2026-03-29T08:11:03.971Z</time></trkpt><trkpt lat="40.5990137" lon="17.1921261"><ele>207.0</ele><time>2026-03-29T08:11:04.97Z</time></trkpt><trkpt lat="40.5991029" lon="17.1921155"><ele>207.5</ele><time>2026-03-29T08:11:05.971Z</time></trkpt><trkpt lat="40.5991916" lon="17.1921043"><ele>208.0</ele><time>2026-03-29T08:11:06.971Z</time></trkpt><trkpt lat="40.5992814" lon="17.1920937"><ele>208.50000000000003</ele><time>2026-03-29T08:11:07.971Z</time></trkpt><trkpt lat="40.599373" lon="17.1920825"><ele>209.0</ele><time>2026-03-29T08:11:08.971Z</time></trkpt><trkpt lat="40.5994648" lon="17.1920708"><ele>208.2</ele><time>2026-03-29T08:11:09.972Z</time></trkpt><trkpt lat="40.5995566" lon="17.1920541"><ele>207.39999999999998</ele><time>2026-03-29T08:11:10.971Z</time></trkpt><trkpt lat="40.599647" lon="17.1920293"><ele>206.6</ele><time>2026-03-29T08:11:11.971Z</time></trkpt><trkpt lat="40.5997367" lon="17.1920005"><ele>205.8</ele><time>2026-03-29T08:11:12.971Z</time></trkpt><trkpt lat="40.5998248" lon="17.1919603"><ele>205.0</ele><time>2026-03-29T08:11:13.97Z</time></trkpt><trkpt lat="40.5999117" lon="17.1919177"><ele>205.0</ele><time>2026-03-29T08:11:14.971Z</time></trkpt><trkpt lat="40.5999983" lon="17.1918672"><ele>205.0</ele><time>2026-03-29T08:11:15.973Z</time></trkpt><trkpt lat="40.6000849" lon="17.1918105"><ele>205.0</ele><time>2026-03-29T08:11:16.973Z</time></trkpt><trkpt lat="40.6001725" lon="17.191753"><ele>205.0</ele><time>2026-03-29T08:11:17.971Z</time></trkpt><trkpt lat="40.600258" lon="17.1916943"><ele>205.0</ele><time>2026-03-29T08:11:18.971Z</time></trkpt><trkpt lat="40.6003389" lon="17.191641"><ele>204.49999999999997</ele><time>2026-03-29T08:11:19.971Z</time></trkpt><trkpt lat="40.6004131" lon="17.1915922"><ele>204.0</ele><time>2026-03-29T08:11:20.97Z</time></trkpt><trkpt lat="40.6004791" lon="17.1915499"><ele>203.5</ele><time>2026-03-29T08:11:21.971Z</time></trkpt><trkpt lat="40.600539" lon="17.1915077"><ele>203.0</ele><time>2026-03-29T08:11:22.971Z</time></trkpt><trkpt lat="40.6006032" lon="17.1914663"><ele>202.49999999999997</ele><time>2026-03-29T08:11:23.971Z</time></trkpt><trkpt lat="40.6006754" lon="17.1914207"><ele>202.0</ele><time>2026-03-29T08:11:24.971Z</time></trkpt><trkpt lat="40.6007521" lon="17.1913736"><ele>203.39999999999998</ele><time>2026-03-29T08:11:25.971Z</time></trkpt><trkpt lat="40.6008323" lon="17.1913264"><ele>204.79999999999998</ele><time>2026-03-29T08:11:26.971Z</time></trkpt><trkpt lat="40.6009188" lon="17.1912752"><ele>206.2</ele><time>2026-03-29T08:11:27.97Z</time></trkpt><trkpt lat="40.6010093" lon="17.1912245"><ele>207.6</ele><time>2026-03-29T08:11:28.971Z</time></trkpt><trkpt lat="40.601108" lon="17.191176"><ele>209.0</ele><time>2026-03-29T08:11:29.971Z</time></trkpt><trkpt lat="40.6012115" lon="17.1911319"><ele>209.0</ele><time>2026-03-29T08:11:30.971Z</time></trkpt><trkpt lat="40.6013198" lon="17.1910919"><ele>209.0</ele><time>2026-03-29T08:11:31.972Z</time></trkpt><trkpt lat="40.6014301" lon="17.1910572"><ele>209.0</ele><time>2026-03-29T08:11:32.973Z</time></trkpt><trkpt lat="40.6015389" lon="17.1910329"><ele>209.0</ele><time>2026-03-29T08:11:33.97Z</time></trkpt><trkpt lat="40.6016407" lon="17.1910133"><ele>209.0</ele><time>2026-03-29T08:11:34.971Z</time></trkpt><trkpt lat="40.6017376" lon="17.1910018"><ele>209.00000000000003</ele><time>2026-03-29T08:11:35.972Z</time></trkpt><trkpt lat="40.601825" lon="17.1909953"><ele>209.0</ele><time>2026-03-29T08:11:36.971Z</time></trkpt><trkpt lat="40.6019023" lon="17.1909917"><ele>209.0</ele><time>2026-03-29T08:11:37.971Z</time></trkpt><trkpt lat="40.6019678" lon="17.1909907"><ele>209.0</ele><time>2026-03-29T08:11:38.971Z</time></trkpt><trkpt lat="40.6020803" lon="17.1909935"><ele>209.00000000000003</ele><time>2026-03-29T08:11:40.971Z</time></trkpt><trkpt lat="40.6021672" lon="17.1909894"><ele>209.0</ele><time>2026-03-29T08:11:42.971Z</time></trkpt><trkpt lat="40.6022292" lon="17.1909485"><ele>209.00000000000003</ele><time>2026-03-29T08:11:44.971Z</time></trkpt><trkpt lat="40.60224" lon="17.1908191"><ele>209.0</ele><time>2026-03-29T08:11:47.971Z</time></trkpt><trkpt lat="40.6022056" lon="17.1906883"><ele>209.0</ele><time>2026-03-29T08:11:49.971Z</time></trkpt><trkpt lat="40.6021857" lon="17.1906062"><ele>209.0</ele><time>2026-03-29T08:11:50.972Z</time></trkpt><trkpt lat="40.6021631" lon="17.1905144"><ele>209.00000000000003</ele><time>2026-03-29T08:11:51.97Z</time></trkpt><trkpt lat="40.6021361" lon="17.1904093"><ele>209.0</ele><time>2026-03-29T08:11:52.971Z</time></trkpt><trkpt lat="40.6021075" lon="17.190298"><ele>210.0</ele><time>2026-03-29T08:11:53.972Z</time></trkpt><trkpt lat="40.602076" lon="17.1901864"><ele>211.0</ele><time>2026-03-29T08:11:54.971Z</time></trkpt><trkpt lat="40.6020456" lon="17.190075"><ele>211.99999999999997</ele><time>2026-03-29T08:11:55.971Z</time></trkpt><trkpt lat="40.602018" lon="17.1899601"><ele>213.0</ele><time>2026-03-29T08:11:56.973Z</time></trkpt><trkpt lat="40.6019908" lon="17.1898426"><ele>214.0</ele><time>2026-03-29T08:11:57.971Z</time></trkpt><trkpt lat="40.6019637" lon="17.1897207"><ele>215.16666666666666</ele><time>2026-03-29T08:11:58.973Z</time></trkpt><trkpt lat="40.6019345" lon="17.1896001"><ele>216.33333333333331</ele><time>2026-03-29T08:11:59.972Z</time></trkpt><trkpt lat="40.6019041" lon="17.1894844"><ele>217.5</ele><time>2026-03-29T08:12:00.971Z</time></trkpt><trkpt lat="40.6018741" lon="17.1893787"><ele>218.66666666666669</ele><time>2026-03-29T08:12:01.972Z</time></trkpt><trkpt lat="40.6018452" lon="17.1892775"><ele>219.83333333333334</ele><time>2026-03-29T08:12:02.972Z</time></trkpt><trkpt lat="40.6018163" lon="17.1891735"><ele>221.0</ele><time>2026-03-29T08:12:03.972Z</time></trkpt><trkpt lat="40.6017867" lon="17.189068"><ele>221.66666666666669</ele><time>2026-03-29T08:12:04.971Z</time></trkpt><trkpt lat="40.6017594" lon="17.1889649"><ele>222.33333333333334</ele><time>2026-03-29T08:12:05.973Z</time></trkpt><trkpt lat="40.6017337" lon="17.1888605"><ele>223.0</ele><time>2026-03-29T08:12:06.972Z</time></trkpt><trkpt lat="40.6017089" lon="17.1887593"><ele>223.66666666666669</ele><time>2026-03-29T08:12:07.971Z</time></trkpt><trkpt lat="40.6016842" lon="17.1886743"><ele>224.33333333333334</ele><time>2026-03-29T08:12:08.973Z</time></trkpt><trkpt lat="40.601637" lon="17.1885388"><ele>225.0</ele><time>2026-03-29T08:12:10.971Z</time></trkpt><trkpt lat="40.6016092" lon="17.1884285"><ele>225.0</ele><time>2026-03-29T08:12:12.973Z</time></trkpt><trkpt lat="40.6015922" lon="17.1882993"><ele>225.0</ele><time>2026-03-29T08:12:14.972Z</time></trkpt><trkpt lat="40.6015883" lon="17.1881337"><ele>225.0</ele><time>2026-03-29T08:12:16.974Z</time></trkpt><trkpt lat="40.6015943" lon="17.1880332"><ele>225.0</ele><time>2026-03-29T08:12:17.972Z</time></trkpt><trkpt lat="40.6016063" lon="17.1879251"><ele>225.0</ele><time>2026-03-29T08:12:18.972Z</time></trkpt><trkpt lat="40.6016184" lon="17.187814"><ele>224.83333333333334</ele><time>2026-03-29T08:12:19.972Z</time></trkpt><trkpt lat="40.601628" lon="17.18771"><ele>224.66666666666669</ele><time>2026-03-29T08:12:20.972Z</time></trkpt><trkpt lat="40.6016382" lon="17.1876055"><ele>224.5</ele><time>2026-03-29T08:12:21.973Z</time></trkpt><trkpt lat="40.6016471" lon="17.1874961"><ele>224.33333333333334</ele><time>2026-03-29T08:12:22.972Z</time></trkpt><trkpt lat="40.6016561" lon="17.1873764"><ele>224.16666666666669</ele><time>2026-03-29T08:12:23.972Z</time></trkpt><trkpt lat="40.6016682" lon="17.187246"><ele>224.0</ele><time>2026-03-29T08:12:24.972Z</time></trkpt><trkpt lat="40.6016806" lon="17.1871024"><ele>223.25</ele><time>2026-03-29T08:12:25.971Z</time></trkpt><trkpt lat="40.6016942" lon="17.1869536"><ele>222.5</ele><time>2026-03-29T08:12:26.973Z</time></trkpt><trkpt lat="40.6017094" lon="17.1867944"><ele>221.75</ele><time>2026-03-29T08:12:27.973Z</time></trkpt><trkpt lat="40.6017274" lon="17.1866236"><ele>221.0</ele><time>2026-03-29T08:12:28.972Z</time></trkpt><trkpt lat="40.60175" lon="17.1864481"><ele>220.60000000000002</ele><time>2026-03-29T08:12:29.972Z</time></trkpt><trkpt lat="40.6017709" lon="17.1862819"><ele>220.20000000000002</ele><time>2026-03-29T08:12:30.972Z</time></trkpt><trkpt lat="40.6017894" lon="17.1861315"><ele>219.79999999999998</ele><time>2026-03-29T08:12:31.973Z</time></trkpt><trkpt lat="40.6018049" lon="17.1859967"><ele>219.39999999999998</ele><time>2026-03-29T08:12:32.973Z</time></trkpt><trkpt lat="40.6018185" lon="17.1858729"><ele>219.0</ele><time>2026-03-29T08:12:33.972Z</time></trkpt><trkpt lat="40.6018304" lon="17.1857604"><ele>219.16666666666666</ele><time>2026-03-29T08:12:34.972Z</time></trkpt><trkpt lat="40.6018378" lon="17.1856608"><ele>219.33333333333331</ele><time>2026-03-29T08:12:35.97Z</time></trkpt><trkpt lat="40.6018453" lon="17.1855703"><ele>219.5</ele><time>2026-03-29T08:12:36.971Z</time></trkpt><trkpt lat="40.6018557" lon="17.1854293"><ele>219.66666666666666</ele><time>2026-03-29T08:12:38.97Z</time></trkpt><trkpt lat="40.6018657" lon="17.1853169"><ele>219.83333333333331</ele><time>2026-03-29T08:12:40.971Z</time></trkpt><trkpt lat="40.6018762" lon="17.1852015"><ele>220.0</ele><time>2026-03-29T08:12:42.973Z</time></trkpt><trkpt lat="40.6018884" lon="17.1850928"><ele>219.99999999999997</ele><time>2026-03-29T08:12:44.972Z</time></trkpt><trkpt lat="40.6019096" lon="17.1850049"><ele>220.0</ele><time>2026-03-29T08:13:14.971Z</time></trkpt><trkpt lat="40.6020034" lon="17.1849873"><ele>220.0</ele><time>2026-03-29T08:13:16.969Z</time></trkpt><trkpt lat="40.6020776" lon="17.1849899"><ele>220.0</ele><time>2026-03-29T08:13:17.97Z</time></trkpt><trkpt lat="40.6021489" lon="17.1849966"><ele>219.99999999999997</ele><time>2026-03-29T08:13:18.97Z</time></trkpt><trkpt lat="40.6022743" lon="17.185007"><ele>220.0</ele><time>2026-03-29T08:13:21.969Z</time></trkpt><trkpt lat="40.6023383" lon="17.1850061"><ele>220.33333333333331</ele><time>2026-03-29T08:13:25.97Z</time></trkpt><trkpt lat="40.6024268" lon="17.1850095"><ele>220.66666666666666</ele><time>2026-03-29T08:13:27.971Z</time></trkpt><trkpt lat="40.6025454" lon="17.1850192"><ele>221.0</ele><time>2026-03-29T08:13:29.969Z</time></trkpt><trkpt lat="40.6026152" lon="17.1850237"><ele>221.33333333333331</ele><time>2026-03-29T08:13:30.969Z</time></trkpt><trkpt lat="40.6026913" lon="17.1850259"><ele>221.66666666666666</ele><time>2026-03-29T08:13:31.969Z</time></trkpt><trkpt lat="40.6027761" lon="17.1850316"><ele>222.0</ele><time>2026-03-29T08:13:32.97Z</time></trkpt><trkpt lat="40.6028684" lon="17.1850392"><ele>222.8</ele><time>2026-03-29T08:13:33.971Z</time></trkpt><trkpt lat="40.602963" lon="17.1850434"><ele>223.6</ele><time>2026-03-29T08:13:34.971Z</time></trkpt><trkpt lat="40.6030564" lon="17.1850464"><ele>224.40000000000003</ele><time>2026-03-29T08:13:35.969Z</time></trkpt><trkpt lat="40.6031486" lon="17.1850507"><ele>225.20000000000002</ele><time>2026-03-29T08:13:36.97Z</time></trkpt><trkpt lat="40.603242" lon="17.1850531"><ele>226.0</ele><time>2026-03-29T08:13:37.97Z</time></trkpt><trkpt lat="40.6033322" lon="17.1850521"><ele>225.99999999999997</ele><time>2026-03-29T08:13:38.971Z</time></trkpt><trkpt lat="40.6034151" lon="17.1850471"><ele>226.0</ele><time>2026-03-29T08:13:39.97Z</time></trkpt><trkpt lat="40.6034927" lon="17.1850354"><ele>226.0</ele><time>2026-03-29T08:13:40.97Z</time></trkpt><trkpt lat="40.6035656" lon="17.1850217"><ele>226.0</ele><time>2026-03-29T08:13:41.97Z</time></trkpt><trkpt lat="40.6036365" lon="17.1850051"><ele>225.99999999999997</ele><time>2026-03-29T08:13:42.97Z</time></trkpt><trkpt lat="40.6037102" lon="17.1849873"><ele>226.0</ele><time>2026-03-29T08:13:43.971Z</time></trkpt><trkpt lat="40.60379" lon="17.184967"><ele>227.20000000000002</ele><time>2026-03-29T08:13:44.969Z</time></trkpt><trkpt lat="40.6038766" lon="17.1849423"><ele>228.40000000000003</ele><time>2026-03-29T08:13:45.973Z</time></trkpt><trkpt lat="40.6039674" lon="17.1849122"><ele>229.6</ele><time>2026-03-29T08:13:46.973Z</time></trkpt><trkpt lat="40.6040623" lon="17.1848793"><ele>230.8</ele><time>2026-03-29T08:13:47.971Z</time></trkpt><trkpt lat="40.6041592" lon="17.1848452"><ele>232.0</ele><time>2026-03-29T08:13:48.971Z</time></trkpt><trkpt lat="40.6042534" lon="17.1848129"><ele>231.99999999999997</ele><time>2026-03-29T08:13:49.97Z</time></trkpt><trkpt lat="40.6043438" lon="17.1847848"><ele>232.0</ele><time>2026-03-29T08:13:50.97Z</time></trkpt><trkpt lat="40.6044279" lon="17.1847606"><ele>232.0</ele><time>2026-03-29T08:13:51.971Z</time></trkpt><trkpt lat="40.6045032" lon="17.1847372"><ele>232.0</ele><time>2026-03-29T08:13:52.971Z</time></trkpt><trkpt lat="40.6045713" lon="17.1847198"><ele>231.99999999999997</ele><time>2026-03-29T08:13:53.971Z</time></trkpt><trkpt lat="40.6046329" lon="17.1847007"><ele>232.0</ele><time>2026-03-29T08:13:54.971Z</time></trkpt><trkpt lat="40.6047488" lon="17.1846698"><ele>233.75</ele><time>2026-03-29T08:13:56.973Z</time></trkpt><trkpt lat="40.6048545" lon="17.1846519"><ele>235.5</ele><time>2026-03-29T08:13:58.97Z</time></trkpt><trkpt lat="40.6049607" lon="17.1846393"><ele>237.25</ele><time>2026-03-29T08:14:00.97Z</time></trkpt><trkpt lat="40.6050768" lon="17.1846312"><ele>239.0</ele><time>2026-03-29T08:14:02.971Z</time></trkpt><trkpt lat="40.6052031" lon="17.18462"><ele>239.0</ele><time>2026-03-29T08:14:04.971Z</time></trkpt><trkpt lat="40.6052679" lon="17.1846116"><ele>238.99999999999997</ele><time>2026-03-29T08:14:05.972Z</time></trkpt><trkpt lat="40.6053878" lon="17.1845933"><ele>238.99999999999997</ele><time>2026-03-29T08:14:07.971Z</time></trkpt><trkpt lat="40.6055019" lon="17.1845785"><ele>239.0</ele><time>2026-03-29T08:14:09.971Z</time></trkpt><trkpt lat="40.605624" lon="17.1845601"><ele>239.0</ele><time>2026-03-29T08:14:11.971Z</time></trkpt><trkpt lat="40.6056877" lon="17.1845512"><ele>239.71428571428575</ele><time>2026-03-29T08:14:12.971Z</time></trkpt><trkpt lat="40.605753" lon="17.184545"><ele>240.42857142857144</ele><time>2026-03-29T08:14:13.974Z</time></trkpt><trkpt lat="40.6058196" lon="17.1845395"><ele>241.14285714285714</ele><time>2026-03-29T08:14:14.971Z</time></trkpt><trkpt lat="40.6058893" lon="17.1845316"><ele>241.85714285714286</ele><time>2026-03-29T08:14:15.973Z</time></trkpt><trkpt lat="40.6059595" lon="17.1845235"><ele>242.57142857142856</ele><time>2026-03-29T08:14:16.974Z</time></trkpt><trkpt lat="40.6060257" lon="17.184516"><ele>243.28571428571425</ele><time>2026-03-29T08:14:17.97Z</time></trkpt><trkpt lat="40.6060906" lon="17.1845065"><ele>243.99999999999997</ele><time>2026-03-29T08:14:18.971Z</time></trkpt><trkpt lat="40.6061549" lon="17.1844994"><ele>244.16666666666666</ele><time>2026-03-29T08:14:19.97Z</time></trkpt><trkpt lat="40.6062182" lon="17.1844929"><ele>244.33333333333331</ele><time>2026-03-29T08:14:20.969Z</time></trkpt><trkpt lat="40.6062811" lon="17.1844864"><ele>244.5</ele><time>2026-03-29T08:14:21.973Z</time></trkpt><trkpt lat="40.6063924" lon="17.1844731"><ele>244.66666666666669</ele><time>2026-03-29T08:14:23.973Z</time></trkpt><trkpt lat="40.6064787" lon="17.1844603"><ele>244.83333333333334</ele><time>2026-03-29T08:14:25.97Z</time></trkpt><trkpt lat="40.6064047" lon="17.1844737"><ele>245.0</ele><time>2026-03-29T08:14:34.97Z</time></trkpt><trkpt lat="40.6064233" lon="17.18431"><ele>245.0</ele><time>2026-03-29T08:14:50.974Z</time></trkpt><trkpt lat="40.606425" lon="17.18422"><ele>245.0</ele><time>2026-03-29T08:14:51.974Z</time></trkpt><trkpt lat="40.6064317" lon="17.18412"><ele>245.0</ele><time>2026-03-29T08:14:52.973Z</time></trkpt><trkpt lat="40.6064383" lon="17.1840183"><ele>245.0</ele><time>2026-03-29T08:14:53.973Z</time></trkpt><trkpt lat="40.6064533" lon="17.1838117"><ele>245.0</ele><time>2026-03-29T08:14:55.971Z</time></trkpt><trkpt lat="40.6064735" lon="17.1836006"><ele>245.16666666666669</ele><time>2026-03-29T08:14:57.972Z</time></trkpt><trkpt lat="40.6064826" lon="17.1834764"><ele>245.33333333333334</ele><time>2026-03-29T08:14:58.971Z</time></trkpt><trkpt lat="40.606492" lon="17.1833583"><ele>245.5</ele><time>2026-03-29T08:14:59.97Z</time></trkpt><trkpt lat="40.6065002" lon="17.1832437"><ele>245.66666666666669</ele><time>2026-03-29T08:15:00.972Z</time></trkpt><trkpt lat="40.6065089" lon="17.1831353"><ele>245.83333333333334</ele><time>2026-03-29T08:15:01.972Z</time></trkpt><trkpt lat="40.6065194" lon="17.1830364"><ele>246.0</ele><time>2026-03-29T08:15:02.971Z</time></trkpt><trkpt lat="40.6065292" lon="17.1829414"><ele>246.0</ele><time>2026-03-29T08:15:03.971Z</time></trkpt><trkpt lat="40.6065387" lon="17.1828401"><ele>246.0</ele><time>2026-03-29T08:15:04.97Z</time></trkpt><trkpt lat="40.6065453" lon="17.1827323"><ele>246.0</ele><time>2026-03-29T08:15:05.971Z</time></trkpt><trkpt lat="40.60655" lon="17.1826214"><ele>246.0</ele><time>2026-03-29T08:15:06.971Z</time></trkpt><trkpt lat="40.6065579" lon="17.1825112"><ele>246.0</ele><time>2026-03-29T08:15:07.971Z</time></trkpt><trkpt lat="40.6065658" lon="17.1824011"><ele>246.0</ele><time>2026-03-29T08:15:08.97Z</time></trkpt><trkpt lat="40.606574" lon="17.1822885"><ele>246.0</ele><time>2026-03-29T08:15:09.971Z</time></trkpt><trkpt lat="40.6065823" lon="17.1821714"><ele>246.00000000000003</ele><time>2026-03-29T08:15:10.971Z</time></trkpt><trkpt lat="40.6065908" lon="17.18205"><ele>246.00000000000003</ele><time>2026-03-29T08:15:11.971Z</time></trkpt><trkpt lat="40.6066001" lon="17.181928"><ele>246.0</ele><time>2026-03-29T08:15:12.971Z</time></trkpt><trkpt lat="40.6066083" lon="17.1818048"><ele>246.0</ele><time>2026-03-29T08:15:13.971Z</time></trkpt><trkpt lat="40.6066166" lon="17.1816816"><ele>246.0</ele><time>2026-03-29T08:15:14.97Z</time></trkpt><trkpt lat="40.6066237" lon="17.1815648"><ele>246.0</ele><time>2026-03-29T08:15:15.974Z</time></trkpt><trkpt lat="40.6066288" lon="17.1814562"><ele>246.0</ele><time>2026-03-29T08:15:16.973Z</time></trkpt><trkpt lat="40.6066344" lon="17.1813622"><ele>246.0</ele><time>2026-03-29T08:15:17.973Z</time></trkpt><trkpt lat="40.6066412" lon="17.1812727"><ele>246.0</ele><time>2026-03-29T08:15:18.97Z</time></trkpt><trkpt lat="40.6066479" lon="17.181188"><ele>246.0</ele><time>2026-03-29T08:15:19.971Z</time></trkpt><trkpt lat="40.6066567" lon="17.18105"><ele>246.0</ele><time>2026-03-29T08:15:21.97Z</time></trkpt><trkpt lat="40.6066673" lon="17.1809145"><ele>246.0</ele><time>2026-03-29T08:15:23.972Z</time></trkpt><trkpt lat="40.6066784" lon="17.180755"><ele>246.0</ele><time>2026-03-29T08:15:25.971Z</time></trkpt><trkpt lat="40.6066841" lon="17.1806646"><ele>246.0</ele><time>2026-03-29T08:15:26.97Z</time></trkpt><trkpt lat="40.60669" lon="17.1805737"><ele>246.0</ele><time>2026-03-29T08:15:27.97Z</time></trkpt><trkpt lat="40.6066953" lon="17.1804896"><ele>246.0</ele><time>2026-03-29T08:15:28.969Z</time></trkpt><trkpt lat="40.6067007" lon="17.1803755"><ele>246.0</ele><time>2026-03-29T08:15:30.97Z</time></trkpt><trkpt lat="40.6066165" lon="17.1803407"><ele>246.0</ele><time>2026-03-29T08:15:34.971Z</time></trkpt><trkpt lat="40.6065477" lon="17.1803441"><ele>246.0</ele><time>2026-03-29T08:15:36.971Z</time></trkpt><trkpt lat="40.606471" lon="17.1803406"><ele>246.0</ele><time>2026-03-29T08:15:38.971Z</time></trkpt><trkpt lat="40.6063768" lon="17.1803384"><ele>246.0</ele><time>2026-03-29T08:15:40.97Z</time></trkpt><trkpt lat="40.6062603" lon="17.1803309"><ele>246.0</ele><time>2026-03-29T08:15:42.97Z</time></trkpt><trkpt lat="40.6061345" lon="17.1803273"><ele>245.66666666666666</ele><time>2026-03-29T08:15:44.971Z</time></trkpt><trkpt lat="40.606066" lon="17.1803255"><ele>245.33333333333331</ele><time>2026-03-29T08:15:45.974Z</time></trkpt><trkpt lat="40.6059958" lon="17.1803246"><ele>245.0</ele><time>2026-03-29T08:15:46.973Z</time></trkpt><trkpt lat="40.6059283" lon="17.1803233"><ele>244.66666666666666</ele><time>2026-03-29T08:15:47.974Z</time></trkpt><trkpt lat="40.6058045" lon="17.1803168"><ele>244.33333333333331</ele><time>2026-03-29T08:15:49.97Z</time></trkpt><trkpt lat="40.6056906" lon="17.1803134"><ele>244.0</ele><time>2026-03-29T08:15:51.971Z</time></trkpt><trkpt lat="40.6056118" lon="17.1803083"><ele>243.99999999999997</ele><time>2026-03-29T08:15:53.97Z</time></trkpt><trkpt lat="40.6055615" lon="17.180257"><ele>244.0</ele><time>2026-03-29T08:15:57.969Z</time></trkpt><trkpt lat="40.6056367" lon="17.1803017"><ele>243.99999999999997</ele><time>2026-03-29T08:16:25.972Z</time></trkpt><trkpt lat="40.6057067" lon="17.18031"><ele>243.99999999999997</ele><time>2026-03-29T08:16:27.971Z</time></trkpt><trkpt lat="40.6057767" lon="17.1803183"><ele>244.0</ele><time>2026-03-29T08:16:29.971Z</time></trkpt><trkpt lat="40.6058467" lon="17.1803233"><ele>243.99999999999997</ele><time>2026-03-29T08:16:31.972Z</time></trkpt><trkpt lat="40.6059167" lon="17.1803233"><ele>243.99999999999997</ele><time>2026-03-29T08:16:33.971Z</time></trkpt><trkpt lat="40.6060033" lon="17.180325"><ele>244.0</ele><time>2026-03-29T08:16:35.972Z</time></trkpt><trkpt lat="40.6061" lon="17.1803283"><ele>243.99999999999997</ele><time>2026-03-29T08:16:37.971Z</time></trkpt><trkpt lat="40.6062033" lon="17.1803283"><ele>243.99999999999997</ele><time>2026-03-29T08:16:39.972Z</time></trkpt><trkpt lat="40.6063133" lon="17.1803317"><ele>244.0</ele><time>2026-03-29T08:16:41.971Z</time></trkpt><trkpt lat="40.6064267" lon="17.1803367"><ele>244.0</ele><time>2026-03-29T08:16:43.97Z</time></trkpt><trkpt lat="40.6065433" lon="17.1803483"><ele>244.39999999999998</ele><time>2026-03-29T08:16:45.974Z</time></trkpt><trkpt lat="40.6066267" lon="17.1803567"><ele>244.79999999999998</ele><time>2026-03-29T08:16:47.97Z</time></trkpt><trkpt lat="40.6066917" lon="17.1804"><ele>245.20000000000002</ele><time>2026-03-29T08:16:49.97Z</time></trkpt><trkpt lat="40.6067017" lon="17.18051"><ele>245.60000000000002</ele><time>2026-03-29T08:16:51.971Z</time></trkpt><trkpt lat="40.606685" lon="17.1806667"><ele>246.0</ele><time>2026-03-29T08:16:53.971Z</time></trkpt><trkpt lat="40.606675" lon="17.1808283"><ele>246.0</ele><time>2026-03-29T08:16:55.97Z</time></trkpt><trkpt lat="40.6066683" lon="17.18097"><ele>246.0</ele><time>2026-03-29T08:16:57.97Z</time></trkpt><trkpt lat="40.6066617" lon="17.181065"><ele>246.0</ele><time>2026-03-29T08:16:59.971Z</time></trkpt><trkpt lat="40.6066517" lon="17.1811717"><ele>246.0</ele><time>2026-03-29T08:17:10.971Z</time></trkpt><trkpt lat="40.6066433" lon="17.18128"><ele>246.0</ele><time>2026-03-29T08:17:12.971Z</time></trkpt><trkpt lat="40.6066417" lon="17.1814133"><ele>246.0</ele><time>2026-03-29T08:17:14.97Z</time></trkpt><trkpt lat="40.60664" lon="17.1815683"><ele>246.00000000000003</ele><time>2026-03-29T08:17:16.974Z</time></trkpt><trkpt lat="40.6066367" lon="17.18166"><ele>246.0</ele><time>2026-03-29T08:17:17.972Z</time></trkpt><trkpt lat="40.60663" lon="17.1817517"><ele>246.00000000000003</ele><time>2026-03-29T08:17:18.972Z</time></trkpt><trkpt lat="40.6066217" lon="17.181845"><ele>246.00000000000003</ele><time>2026-03-29T08:17:19.971Z</time></trkpt><trkpt lat="40.6066133" lon="17.1819433"><ele>246.0</ele><time>2026-03-29T08:17:20.971Z</time></trkpt><trkpt lat="40.606605" lon="17.1820467"><ele>246.00000000000003</ele><time>2026-03-29T08:17:21.972Z</time></trkpt><trkpt lat="40.606595" lon="17.1821567"><ele>246.00000000000003</ele><time>2026-03-29T08:17:22.97Z</time></trkpt><trkpt lat="40.6065883" lon="17.182275"><ele>246.0</ele><time>2026-03-29T08:17:23.972Z</time></trkpt><trkpt lat="40.6065833" lon="17.1824017"><ele>246.00000000000003</ele><time>2026-03-29T08:17:24.972Z</time></trkpt><trkpt lat="40.6065783" lon="17.18253"><ele>246.00000000000003</ele><time>2026-03-29T08:17:25.971Z</time></trkpt><trkpt lat="40.606575" lon="17.1826567"><ele>246.0</ele><time>2026-03-29T08:17:26.971Z</time></trkpt><trkpt lat="40.6065683" lon="17.1827833"><ele>246.0</ele><time>2026-03-29T08:17:27.971Z</time></trkpt><trkpt lat="40.6065667" lon="17.1828967"><ele>246.0</ele><time>2026-03-29T08:17:28.971Z</time></trkpt><trkpt lat="40.6065617" lon="17.1829967"><ele>246.00000000000003</ele><time>2026-03-29T08:17:29.972Z</time></trkpt><trkpt lat="40.6065583" lon="17.1831467"><ele>246.00000000000003</ele><time>2026-03-29T08:17:31.971Z</time></trkpt><trkpt lat="40.6065483" lon="17.183285"><ele>246.0</ele><time>2026-03-29T08:17:33.971Z</time></trkpt><trkpt lat="40.6065383" lon="17.1834417"><ele>246.0</ele><time>2026-03-29T08:17:35.971Z</time></trkpt><trkpt lat="40.6065317" lon="17.18353"><ele>246.0</ele><time>2026-03-29T08:17:36.97Z</time></trkpt><trkpt lat="40.606525" lon="17.18362"><ele>246.0</ele><time>2026-03-29T08:17:37.972Z</time></trkpt><trkpt lat="40.6065167" lon="17.183715"><ele>246.0</ele><time>2026-03-29T08:17:38.971Z</time></trkpt><trkpt lat="40.606505" lon="17.1838183"><ele>246.0</ele><time>2026-03-29T08:17:39.97Z</time></trkpt><trkpt lat="40.6064933" lon="17.1839267"><ele>246.0</ele><time>2026-03-29T08:17:40.97Z</time></trkpt><trkpt lat="40.6064833" lon="17.1840333"><ele>246.0</ele><time>2026-03-29T08:17:41.971Z</time></trkpt><trkpt lat="40.6064767" lon="17.184135"><ele>245.8</ele><time>2026-03-29T08:17:42.971Z</time></trkpt><trkpt lat="40.6064733" lon="17.1842233"><ele>245.60000000000002</ele><time>2026-03-29T08:17:43.971Z</time></trkpt><trkpt lat="40.60646" lon="17.184345"><ele>245.4</ele><time>2026-03-29T08:17:45.97Z</time></trkpt><trkpt lat="40.6065152" lon="17.184428"><ele>245.2</ele><time>2026-03-29T08:17:50.97Z</time></trkpt><trkpt lat="40.6066146" lon="17.1844409"><ele>245.0</ele><time>2026-03-29T08:17:52.97Z</time></trkpt><trkpt lat="40.6067443" lon="17.1844231"><ele>245.0</ele><time>2026-03-29T08:17:54.971Z</time></trkpt><trkpt lat="40.6068185" lon="17.1844144"><ele>245.0</ele><time>2026-03-29T08:17:55.969Z</time></trkpt><trkpt lat="40.6068948" lon="17.184407"><ele>245.0</ele><time>2026-03-29T08:17:56.97Z</time></trkpt><trkpt lat="40.6069745" lon="17.1843997"><ele>245.0</ele><time>2026-03-29T08:17:57.97Z</time></trkpt><trkpt lat="40.6071439" lon="17.1843869"><ele>245.0</ele><time>2026-03-29T08:17:59.97Z</time></trkpt><trkpt lat="40.6072325" lon="17.1843832"><ele>245.16666666666669</ele><time>2026-03-29T08:18:00.971Z</time></trkpt><trkpt lat="40.6073199" lon="17.1843786"><ele>245.33333333333334</ele><time>2026-03-29T08:18:01.971Z</time></trkpt><trkpt lat="40.6074041" lon="17.1843731"><ele>245.5</ele><time>2026-03-29T08:18:02.971Z</time></trkpt><trkpt lat="40.607485" lon="17.1843737"><ele>245.66666666666669</ele><time>2026-03-29T08:18:03.97Z</time></trkpt><trkpt lat="40.6075621" lon="17.1843766"><ele>245.83333333333334</ele><time>2026-03-29T08:18:04.972Z</time></trkpt><trkpt lat="40.6076309" lon="17.1843806"><ele>246.0</ele><time>2026-03-29T08:18:05.972Z</time></trkpt><trkpt lat="40.6077614" lon="17.1843876"><ele>245.5</ele><time>2026-03-29T08:18:07.971Z</time></trkpt><trkpt lat="40.6078331" lon="17.1843957"><ele>245.0</ele><time>2026-03-29T08:18:08.972Z</time></trkpt><trkpt lat="40.6079069" lon="17.1844043"><ele>244.5</ele><time>2026-03-29T08:18:09.971Z</time></trkpt><trkpt lat="40.6079834" lon="17.1844129"><ele>244.0</ele><time>2026-03-29T08:18:10.97Z</time></trkpt><trkpt lat="40.6080644" lon="17.1844217"><ele>243.5</ele><time>2026-03-29T08:18:11.97Z</time></trkpt><trkpt lat="40.608148" lon="17.1844312"><ele>243.0</ele><time>2026-03-29T08:18:12.972Z</time></trkpt><trkpt lat="40.608229" lon="17.1844426"><ele>243.0</ele><time>2026-03-29T08:18:13.971Z</time></trkpt><trkpt lat="40.608306" lon="17.1844532"><ele>243.0</ele><time>2026-03-29T08:18:14.971Z</time></trkpt><trkpt lat="40.6083808" lon="17.1844621"><ele>243.0</ele><time>2026-03-29T08:18:15.975Z</time></trkpt><trkpt lat="40.6084508" lon="17.1844699"><ele>243.0</ele><time>2026-03-29T08:18:16.974Z</time></trkpt><trkpt lat="40.6085671" lon="17.1844925"><ele>243.0</ele><time>2026-03-29T08:18:18.972Z</time></trkpt><trkpt lat="40.608648" lon="17.1845125"><ele>243.0</ele><time>2026-03-29T08:18:20.972Z</time></trkpt><trkpt lat="40.6087133" lon="17.1845033"><ele>242.66666666666666</ele><time>2026-03-29T08:18:30.972Z</time></trkpt><trkpt lat="40.6087983" lon="17.1845083"><ele>242.33333333333331</ele><time>2026-03-29T08:18:32.971Z</time></trkpt><trkpt lat="40.608865" lon="17.1845183"><ele>242.0</ele><time>2026-03-29T08:18:33.971Z</time></trkpt><trkpt lat="40.6089383" lon="17.1845317"><ele>241.66666666666666</ele><time>2026-03-29T08:18:34.972Z</time></trkpt><trkpt lat="40.6090167" lon="17.184545"><ele>241.33333333333331</ele><time>2026-03-29T08:18:35.971Z</time></trkpt><trkpt lat="40.6091" lon="17.1845617"><ele>241.0</ele><time>2026-03-29T08:18:36.971Z</time></trkpt><trkpt lat="40.6091933" lon="17.184575"><ele>241.0</ele><time>2026-03-29T08:18:37.97Z</time></trkpt><trkpt lat="40.6092867" lon="17.18459"><ele>241.0</ele><time>2026-03-29T08:18:38.971Z</time></trkpt><trkpt lat="40.6093817" lon="17.1846067"><ele>241.0</ele><time>2026-03-29T08:18:39.97Z</time></trkpt><trkpt lat="40.6095606" lon="17.1846257"><ele>241.0</ele><time>2026-03-29T08:18:41.97Z</time></trkpt><trkpt lat="40.6096605" lon="17.1846405"><ele>241.0</ele><time>2026-03-29T08:18:42.972Z</time></trkpt><trkpt lat="40.6097563" lon="17.1846596"><ele>241.00000000000003</ele><time>2026-03-29T08:18:43.972Z</time></trkpt><trkpt lat="40.609853" lon="17.1846801"><ele>241.00000000000003</ele><time>2026-03-29T08:18:44.972Z</time></trkpt><trkpt lat="40.6099485" lon="17.1846996"><ele>241.0</ele><time>2026-03-29T08:18:45.974Z</time></trkpt><trkpt lat="40.6100438" lon="17.1847206"><ele>241.0</ele><time>2026-03-29T08:18:46.974Z</time></trkpt><trkpt lat="40.6101376" lon="17.1847392"><ele>241.0</ele><time>2026-03-29T08:18:47.971Z</time></trkpt><trkpt lat="40.6102374" lon="17.1847573"><ele>241.00000000000003</ele><time>2026-03-29T08:18:48.971Z</time></trkpt><trkpt lat="40.6103377" lon="17.1847755"><ele>241.00000000000003</ele><time>2026-03-29T08:18:49.971Z</time></trkpt><trkpt lat="40.6104343" lon="17.1847926"><ele>241.0</ele><time>2026-03-29T08:18:50.972Z</time></trkpt><trkpt lat="40.610531" lon="17.1848081"><ele>241.0</ele><time>2026-03-29T08:18:51.972Z</time></trkpt><trkpt lat="40.6106292" lon="17.1848239"><ele>240.60000000000002</ele><time>2026-03-29T08:18:52.97Z</time></trkpt><trkpt lat="40.6107292" lon="17.1848427"><ele>240.20000000000002</ele><time>2026-03-29T08:18:53.97Z</time></trkpt><trkpt lat="40.6108297" lon="17.184863"><ele>239.79999999999998</ele><time>2026-03-29T08:18:54.971Z</time></trkpt><trkpt lat="40.6109301" lon="17.184882"><ele>239.39999999999998</ele><time>2026-03-29T08:18:55.972Z</time></trkpt><trkpt lat="40.6110301" lon="17.1848976"><ele>239.0</ele><time>2026-03-29T08:18:56.971Z</time></trkpt><trkpt lat="40.6111275" lon="17.1849116"><ele>238.39999999999998</ele><time>2026-03-29T08:18:57.971Z</time></trkpt><trkpt lat="40.6112239" lon="17.184928"><ele>237.79999999999998</ele><time>2026-03-29T08:18:58.972Z</time></trkpt><trkpt lat="40.6113186" lon="17.1849445"><ele>237.20000000000002</ele><time>2026-03-29T08:18:59.971Z</time></trkpt><trkpt lat="40.6114093" lon="17.1849599"><ele>236.60000000000002</ele><time>2026-03-29T08:19:00.971Z</time></trkpt><trkpt lat="40.6114966" lon="17.1849749"><ele>236.0</ele><time>2026-03-29T08:19:01.971Z</time></trkpt><trkpt lat="40.6115828" lon="17.1849886"><ele>236.00000000000003</ele><time>2026-03-29T08:19:02.971Z</time></trkpt><trkpt lat="40.6116692" lon="17.185002"><ele>236.0</ele><time>2026-03-29T08:19:03.971Z</time></trkpt><trkpt lat="40.6117557" lon="17.1850136"><ele>236.0</ele><time>2026-03-29T08:19:04.972Z</time></trkpt><trkpt lat="40.6118407" lon="17.1850264"><ele>236.0</ele><time>2026-03-29T08:19:05.971Z</time></trkpt><trkpt lat="40.6119186" lon="17.1850375"><ele>236.00000000000003</ele><time>2026-03-29T08:19:06.972Z</time></trkpt><trkpt lat="40.6119925" lon="17.1850467"><ele>236.0</ele><time>2026-03-29T08:19:07.972Z</time></trkpt><trkpt lat="40.6120655" lon="17.1850568"><ele>235.85714285714283</ele><time>2026-03-29T08:19:08.97Z</time></trkpt><trkpt lat="40.6121359" lon="17.1850679"><ele>235.71428571428572</ele><time>2026-03-29T08:19:09.971Z</time></trkpt><trkpt lat="40.6122041" lon="17.1850785"><ele>235.57142857142856</ele><time>2026-03-29T08:19:10.97Z</time></trkpt><trkpt lat="40.6122705" lon="17.1850871"><ele>235.42857142857142</ele><time>2026-03-29T08:19:11.973Z</time></trkpt><trkpt lat="40.612334" lon="17.1850976"><ele>235.28571428571428</ele><time>2026-03-29T08:19:12.973Z</time></trkpt><trkpt lat="40.6123982" lon="17.1851105"><ele>235.14285714285714</ele><time>2026-03-29T08:19:13.972Z</time></trkpt><trkpt lat="40.6124667" lon="17.185125"><ele>235.0</ele><time>2026-03-29T08:19:14.972Z</time></trkpt><trkpt lat="40.6125417" lon="17.18514"><ele>234.99999999999997</ele><time>2026-03-29T08:19:15.974Z</time></trkpt><trkpt lat="40.6126233" lon="17.185155"><ele>235.0</ele><time>2026-03-29T08:19:16.974Z</time></trkpt><trkpt lat="40.6127083" lon="17.1851717"><ele>235.0</ele><time>2026-03-29T08:19:17.974Z</time></trkpt><trkpt lat="40.612795" lon="17.18519"><ele>235.0</ele><time>2026-03-29T08:19:18.974Z</time></trkpt><trkpt lat="40.6128883" lon="17.185205"><ele>234.99999999999997</ele><time>2026-03-29T08:19:19.973Z</time></trkpt><trkpt lat="40.612985" lon="17.1852217"><ele>235.0</ele><time>2026-03-29T08:19:20.973Z</time></trkpt><trkpt lat="40.61308" lon="17.1852367"><ele>235.8</ele><time>2026-03-29T08:19:21.974Z</time></trkpt><trkpt lat="40.6131783" lon="17.1852517"><ele>236.6</ele><time>2026-03-29T08:19:22.974Z</time></trkpt><trkpt lat="40.6132817" lon="17.185265"><ele>237.39999999999998</ele><time>2026-03-29T08:19:23.974Z</time></trkpt><trkpt lat="40.613385" lon="17.1852767"><ele>238.2</ele><time>2026-03-29T08:19:24.97Z</time></trkpt><trkpt lat="40.6134883" lon="17.1852933"><ele>239.0</ele><time>2026-03-29T08:19:25.971Z</time></trkpt><trkpt lat="40.6135917" lon="17.18531"><ele>239.79999999999998</ele><time>2026-03-29T08:19:26.972Z</time></trkpt><trkpt lat="40.6136983" lon="17.185325"><ele>240.59999999999997</ele><time>2026-03-29T08:19:27.972Z</time></trkpt><trkpt lat="40.6138033" lon="17.185345"><ele>241.4</ele><time>2026-03-29T08:19:28.971Z</time></trkpt><trkpt lat="40.6139083" lon="17.18536"><ele>242.2</ele><time>2026-03-29T08:19:29.971Z</time></trkpt><trkpt lat="40.6140117" lon="17.1853783"><ele>243.0</ele><time>2026-03-29T08:19:30.971Z</time></trkpt><trkpt lat="40.6141133" lon="17.1853933"><ele>243.0</ele><time>2026-03-29T08:19:31.971Z</time></trkpt><trkpt lat="40.6142117" lon="17.1854083"><ele>243.0</ele><time>2026-03-29T08:19:32.971Z</time></trkpt><trkpt lat="40.6143117" lon="17.1854217"><ele>243.0</ele><time>2026-03-29T08:19:33.972Z</time></trkpt><trkpt lat="40.6144117" lon="17.18544"><ele>243.0</ele><time>2026-03-29T08:19:34.97Z</time></trkpt><trkpt lat="40.61451" lon="17.1854567"><ele>243.0</ele><time>2026-03-29T08:19:35.971Z</time></trkpt><trkpt lat="40.614605" lon="17.1854717"><ele>243.8</ele><time>2026-03-29T08:19:36.971Z</time></trkpt><trkpt lat="40.6147" lon="17.1854867"><ele>244.60000000000002</ele><time>2026-03-29T08:19:37.971Z</time></trkpt><trkpt lat="40.6147933" lon="17.1855017"><ele>245.39999999999998</ele><time>2026-03-29T08:19:38.971Z</time></trkpt><trkpt lat="40.614885" lon="17.1855183"><ele>246.2</ele><time>2026-03-29T08:19:39.971Z</time></trkpt><trkpt lat="40.61498" lon="17.185535"><ele>247.0</ele><time>2026-03-29T08:19:40.971Z</time></trkpt><trkpt lat="40.615075" lon="17.18555"><ele>246.99999999999997</ele><time>2026-03-29T08:19:41.97Z</time></trkpt><trkpt lat="40.61517" lon="17.185565"><ele>247.0</ele><time>2026-03-29T08:19:42.973Z</time></trkpt><trkpt lat="40.6152633" lon="17.1855767"><ele>247.0</ele><time>2026-03-29T08:19:43.971Z</time></trkpt><trkpt lat="40.6153517" lon="17.18559"><ele>247.0</ele><time>2026-03-29T08:19:44.971Z</time></trkpt><trkpt lat="40.6154383" lon="17.1856067"><ele>246.99999999999997</ele><time>2026-03-29T08:19:45.974Z</time></trkpt><trkpt lat="40.6155183" lon="17.1856267"><ele>247.0</ele><time>2026-03-29T08:19:46.973Z</time></trkpt><trkpt lat="40.6155883" lon="17.1856433"><ele>247.33333333333331</ele><time>2026-03-29T08:19:47.97Z</time></trkpt><trkpt lat="40.615655" lon="17.1856567"><ele>247.66666666666666</ele><time>2026-03-29T08:19:48.972Z</time></trkpt><trkpt lat="40.6157187" lon="17.1856672"><ele>248.0</ele><time>2026-03-29T08:19:49.971Z</time></trkpt><trkpt lat="40.6158431" lon="17.185686"><ele>248.33333333333331</ele><time>2026-03-29T08:19:51.971Z</time></trkpt><trkpt lat="40.6159109" lon="17.1856989"><ele>248.66666666666666</ele><time>2026-03-29T08:19:52.971Z</time></trkpt><trkpt lat="40.6159797" lon="17.1857099"><ele>249.0</ele><time>2026-03-29T08:19:53.971Z</time></trkpt><trkpt lat="40.6160452" lon="17.185717"><ele>247.0</ele><time>2026-03-29T08:19:54.97Z</time></trkpt><trkpt lat="40.6161565" lon="17.1857315"><ele>244.99999999999997</ele><time>2026-03-29T08:19:56.972Z</time></trkpt><trkpt lat="40.6162471" lon="17.1857517"><ele>242.99999999999997</ele><time>2026-03-29T08:19:58.97Z</time></trkpt><trkpt lat="40.6163345" lon="17.1858023"><ele>241.0</ele><time>2026-03-29T08:20:00.972Z</time></trkpt><trkpt lat="40.6163918" lon="17.1858748"><ele>239.0</ele><time>2026-03-29T08:20:02.971Z</time></trkpt><trkpt lat="40.6164238" lon="17.18596"><ele>239.0</ele><time>2026-03-29T08:20:04.971Z</time></trkpt><trkpt lat="40.6164364" lon="17.1860926"><ele>238.99999999999997</ele><time>2026-03-29T08:20:06.971Z</time></trkpt><trkpt lat="40.6164305" lon="17.1862347"><ele>238.99999999999997</ele><time>2026-03-29T08:20:08.971Z</time></trkpt><trkpt lat="40.6164175" lon="17.1863812"><ele>239.0</ele><time>2026-03-29T08:20:10.972Z</time></trkpt><trkpt lat="40.6164136" lon="17.1865177"><ele>239.0</ele><time>2026-03-29T08:20:12.971Z</time></trkpt><trkpt lat="40.6164083" lon="17.1866344"><ele>238.0</ele><time>2026-03-29T08:20:14.971Z</time></trkpt><trkpt lat="40.6164135" lon="17.1867406"><ele>236.99999999999997</ele><time>2026-03-29T08:20:16.975Z</time></trkpt><trkpt lat="40.6164139" lon="17.1868313"><ele>235.99999999999997</ele><time>2026-03-29T08:20:18.974Z</time></trkpt><trkpt lat="40.6164883" lon="17.186865"><ele>235.0</ele><time>2026-03-29T08:20:45.974Z</time></trkpt><trkpt lat="40.6165833" lon="17.186675"><ele>234.0</ele><time>2026-03-29T08:20:48.973Z</time></trkpt><trkpt lat="40.6166183" lon="17.1865967"><ele>234.0</ele><time>2026-03-29T08:20:49.974Z</time></trkpt><trkpt lat="40.616655" lon="17.1865167"><ele>234.00000000000003</ele><time>2026-03-29T08:20:50.973Z</time></trkpt><trkpt lat="40.61669" lon="17.1864383"><ele>234.0</ele><time>2026-03-29T08:20:51.973Z</time></trkpt><trkpt lat="40.6167233" lon="17.1863633"><ele>234.0</ele><time>2026-03-29T08:20:52.974Z</time></trkpt><trkpt lat="40.6167633" lon="17.1862783"><ele>234.00000000000003</ele><time>2026-03-29T08:20:53.974Z</time></trkpt><trkpt lat="40.6168067" lon="17.1861917"><ele>234.0</ele><time>2026-03-29T08:20:54.97Z</time></trkpt><trkpt lat="40.61685" lon="17.1861017"><ele>234.0</ele><time>2026-03-29T08:20:55.972Z</time></trkpt><trkpt lat="40.6168983" lon="17.1860067"><ele>234.39999999999998</ele><time>2026-03-29T08:20:56.971Z</time></trkpt><trkpt lat="40.61695" lon="17.1859117"><ele>234.79999999999998</ele><time>2026-03-29T08:20:57.972Z</time></trkpt><trkpt lat="40.6170033" lon="17.18581"><ele>235.20000000000002</ele><time>2026-03-29T08:20:58.97Z</time></trkpt><trkpt lat="40.6170567" lon="17.185705"><ele>235.60000000000002</ele><time>2026-03-29T08:20:59.971Z</time></trkpt><trkpt lat="40.61711" lon="17.1855983"><ele>236.0</ele><time>2026-03-29T08:21:00.972Z</time></trkpt><trkpt lat="40.6171633" lon="17.1854917"><ele>236.60000000000002</ele><time>2026-03-29T08:21:01.972Z</time></trkpt><trkpt lat="40.6172133" lon="17.185385"><ele>237.20000000000002</ele><time>2026-03-29T08:21:02.971Z</time></trkpt><trkpt lat="40.61726" lon="17.1852783"><ele>237.79999999999998</ele><time>2026-03-29T08:21:03.972Z</time></trkpt><trkpt lat="40.617305" lon="17.1851667"><ele>238.39999999999998</ele><time>2026-03-29T08:21:04.972Z</time></trkpt><trkpt lat="40.6173433" lon="17.18505"><ele>239.0</ele><time>2026-03-29T08:21:05.972Z</time></trkpt><trkpt lat="40.617375" lon="17.1849317"><ele>239.2</ele><time>2026-03-29T08:21:06.972Z</time></trkpt><trkpt lat="40.6174017" lon="17.1848083"><ele>239.39999999999998</ele><time>2026-03-29T08:21:07.971Z</time></trkpt><trkpt lat="40.6174267" lon="17.1846833"><ele>239.6</ele><time>2026-03-29T08:21:08.972Z</time></trkpt><trkpt lat="40.6174533" lon="17.18456"><ele>239.8</ele><time>2026-03-29T08:21:09.972Z</time></trkpt><trkpt lat="40.61748" lon="17.1844333"><ele>240.0</ele><time>2026-03-29T08:21:10.971Z</time></trkpt><trkpt lat="40.6175083" lon="17.1843067"><ele>240.0</ele><time>2026-03-29T08:21:11.972Z</time></trkpt><trkpt lat="40.617535" lon="17.1841817"><ele>240.0</ele><time>2026-03-29T08:21:12.971Z</time></trkpt><trkpt lat="40.617565" lon="17.1840617"><ele>240.0</ele><time>2026-03-29T08:21:13.972Z</time></trkpt><trkpt lat="40.6175967" lon="17.18394"><ele>240.0</ele><time>2026-03-29T08:21:14.971Z</time></trkpt><trkpt lat="40.6176267" lon="17.18382"><ele>240.0</ele><time>2026-03-29T08:21:15.974Z</time></trkpt><trkpt lat="40.6176567" lon="17.1836983"><ele>241.0</ele><time>2026-03-29T08:21:16.974Z</time></trkpt><trkpt lat="40.6176783" lon="17.183575"><ele>242.0</ele><time>2026-03-29T08:21:17.974Z</time></trkpt><trkpt lat="40.6176983" lon="17.1834483"><ele>243.0</ele><time>2026-03-29T08:21:18.974Z</time></trkpt><trkpt lat="40.6177167" lon="17.1833183"><ele>244.0</ele><time>2026-03-29T08:21:19.974Z</time></trkpt><trkpt lat="40.6177333" lon="17.1831933"><ele>245.0</ele><time>2026-03-29T08:21:20.974Z</time></trkpt><trkpt lat="40.617745" lon="17.1830683"><ele>245.4</ele><time>2026-03-29T08:21:21.974Z</time></trkpt><trkpt lat="40.6177533" lon="17.1829467"><ele>245.8</ele><time>2026-03-29T08:21:22.974Z</time></trkpt><trkpt lat="40.6177583" lon="17.182825"><ele>246.2</ele><time>2026-03-29T08:21:23.974Z</time></trkpt><trkpt lat="40.6177567" lon="17.1827017"><ele>246.6</ele><time>2026-03-29T08:21:24.973Z</time></trkpt><trkpt lat="40.6177517" lon="17.182575"><ele>247.0</ele><time>2026-03-29T08:21:25.972Z</time></trkpt><trkpt lat="40.6177433" lon="17.1824467"><ele>247.2</ele><time>2026-03-29T08:21:26.972Z</time></trkpt><trkpt lat="40.6177283" lon="17.182315"><ele>247.39999999999998</ele><time>2026-03-29T08:21:27.972Z</time></trkpt><trkpt lat="40.6177133" lon="17.1821867"><ele>247.60000000000002</ele><time>2026-03-29T08:21:28.972Z</time></trkpt><trkpt lat="40.6176983" lon="17.182055"><ele>247.8</ele><time>2026-03-29T08:21:29.973Z</time></trkpt><trkpt lat="40.6176833" lon="17.1819233"><ele>248.0</ele><time>2026-03-29T08:21:30.971Z</time></trkpt><trkpt lat="40.6176617" lon="17.1817967"><ele>248.00000000000003</ele><time>2026-03-29T08:21:31.972Z</time></trkpt><trkpt lat="40.617635" lon="17.1816767"><ele>248.0</ele><time>2026-03-29T08:21:32.972Z</time></trkpt><trkpt lat="40.617605" lon="17.1815633"><ele>248.0</ele><time>2026-03-29T08:21:33.971Z</time></trkpt><trkpt lat="40.6175767" lon="17.1814567"><ele>248.0</ele><time>2026-03-29T08:21:34.972Z</time></trkpt><trkpt lat="40.6175483" lon="17.181355"><ele>248.00000000000003</ele><time>2026-03-29T08:21:35.972Z</time></trkpt><trkpt lat="40.6175183" lon="17.1812467"><ele>248.0</ele><time>2026-03-29T08:21:36.972Z</time></trkpt><trkpt lat="40.617485" lon="17.1811333"><ele>248.4</ele><time>2026-03-29T08:21:37.972Z</time></trkpt><trkpt lat="40.6174533" lon="17.181015"><ele>248.8</ele><time>2026-03-29T08:21:38.972Z</time></trkpt><trkpt lat="40.6174183" lon="17.1808933"><ele>249.2</ele><time>2026-03-29T08:21:39.972Z</time></trkpt><trkpt lat="40.617385" lon="17.1807633"><ele>249.6</ele><time>2026-03-29T08:21:40.972Z</time></trkpt><trkpt lat="40.61735" lon="17.1806233"><ele>250.0</ele><time>2026-03-29T08:21:41.972Z</time></trkpt><trkpt lat="40.617315" lon="17.1804717"><ele>250.5</ele><time>2026-03-29T08:21:42.972Z</time></trkpt><trkpt lat="40.6172817" lon="17.1803083"><ele>251.0</ele><time>2026-03-29T08:21:43.972Z</time></trkpt><trkpt lat="40.6172533" lon="17.1801433"><ele>251.5</ele><time>2026-03-29T08:21:44.972Z</time></trkpt><trkpt lat="40.6172367" lon="17.1799933"><ele>252.0</ele><time>2026-03-29T08:21:45.974Z</time></trkpt><trkpt lat="40.6172317" lon="17.1798617"><ele>252.5</ele><time>2026-03-29T08:21:46.974Z</time></trkpt><trkpt lat="40.6172433" lon="17.1797267"><ele>253.0</ele><time>2026-03-29T08:21:47.972Z</time></trkpt><trkpt lat="40.61727" lon="17.17958"><ele>253.5</ele><time>2026-03-29T08:21:48.972Z</time></trkpt><trkpt lat="40.6173067" lon="17.1794283"><ele>254.0</ele><time>2026-03-29T08:21:49.972Z</time></trkpt><trkpt lat="40.61735" lon="17.1792767"><ele>254.0</ele><time>2026-03-29T08:21:50.971Z</time></trkpt><trkpt lat="40.6174017" lon="17.1791267"><ele>254.0</ele><time>2026-03-29T08:21:51.972Z</time></trkpt><trkpt lat="40.6174567" lon="17.1789883"><ele>254.0</ele><time>2026-03-29T08:21:52.972Z</time></trkpt><trkpt lat="40.6175133" lon="17.1788583"><ele>254.0</ele><time>2026-03-29T08:21:53.972Z</time></trkpt><trkpt lat="40.6175667" lon="17.1787317"><ele>253.6</ele><time>2026-03-29T08:21:54.973Z</time></trkpt><trkpt lat="40.6176183" lon="17.178615"><ele>253.2</ele><time>2026-03-29T08:21:55.972Z</time></trkpt><trkpt lat="40.6176633" lon="17.1785083"><ele>252.79999999999998</ele><time>2026-03-29T08:21:56.971Z</time></trkpt><trkpt lat="40.6177083" lon="17.1784033"><ele>252.39999999999998</ele><time>2026-03-29T08:21:57.971Z</time></trkpt><trkpt lat="40.6177567" lon="17.1783017"><ele>252.0</ele><time>2026-03-29T08:21:58.972Z</time></trkpt><trkpt lat="40.6178067" lon="17.1781967"><ele>252.39999999999998</ele><time>2026-03-29T08:21:59.971Z</time></trkpt><trkpt lat="40.6178617" lon="17.1780867"><ele>252.79999999999998</ele><time>2026-03-29T08:22:00.972Z</time></trkpt><trkpt lat="40.61792" lon="17.1779683"><ele>253.2</ele><time>2026-03-29T08:22:01.972Z</time></trkpt><trkpt lat="40.6179817" lon="17.1778417"><ele>253.6</ele><time>2026-03-29T08:22:02.972Z</time></trkpt><trkpt lat="40.618045" lon="17.1777117"><ele>254.0</ele><time>2026-03-29T08:22:03.972Z</time></trkpt><trkpt lat="40.6181067" lon="17.1775717"><ele>254.0</ele><time>2026-03-29T08:22:04.97Z</time></trkpt><trkpt lat="40.6181667" lon="17.17743"><ele>254.0</ele><time>2026-03-29T08:22:05.971Z</time></trkpt><trkpt lat="40.6182233" lon="17.1772817"><ele>254.0</ele><time>2026-03-29T08:22:06.972Z</time></trkpt><trkpt lat="40.6182783" lon="17.1771367"><ele>254.0</ele><time>2026-03-29T08:22:07.972Z</time></trkpt><trkpt lat="40.6183333" lon="17.1769967"><ele>253.5</ele><time>2026-03-29T08:22:08.971Z</time></trkpt><trkpt lat="40.618385" lon="17.17686"><ele>253.0</ele><time>2026-03-29T08:22:09.972Z</time></trkpt><trkpt lat="40.6184383" lon="17.1767217"><ele>252.5</ele><time>2026-03-29T08:22:10.971Z</time></trkpt><trkpt lat="40.6184917" lon="17.1765833"><ele>252.0</ele><time>2026-03-29T08:22:11.971Z</time></trkpt><trkpt lat="40.618545" lon="17.1764433"><ele>251.75</ele><time>2026-03-29T08:22:12.972Z</time></trkpt><trkpt lat="40.6186033" lon="17.1763067"><ele>251.5</ele><time>2026-03-29T08:22:13.971Z</time></trkpt><trkpt lat="40.6186733" lon="17.1761733"><ele>251.25</ele><time>2026-03-29T08:22:14.971Z</time></trkpt><trkpt lat="40.6187533" lon="17.17604"><ele>251.0</ele><time>2026-03-29T08:22:15.974Z</time></trkpt><trkpt lat="40.6188417" lon="17.1759067"><ele>251.0</ele><time>2026-03-29T08:22:16.973Z</time></trkpt><trkpt lat="40.61893" lon="17.1757783"><ele>251.0</ele><time>2026-03-29T08:22:17.972Z</time></trkpt><trkpt lat="40.6190133" lon="17.1756617"><ele>251.0</ele><time>2026-03-29T08:22:18.972Z</time></trkpt><trkpt lat="40.6190933" lon="17.1755467"><ele>251.0</ele><time>2026-03-29T08:22:19.971Z</time></trkpt><trkpt lat="40.61917" lon="17.1754283"><ele>250.60000000000002</ele><time>2026-03-29T08:22:20.971Z</time></trkpt><trkpt lat="40.6192333" lon="17.17531"><ele>250.20000000000002</ele><time>2026-03-29T08:22:21.971Z</time></trkpt><trkpt lat="40.61928" lon="17.1751917"><ele>249.79999999999998</ele><time>2026-03-29T08:22:22.971Z</time></trkpt><trkpt lat="40.6193133" lon="17.1750683"><ele>249.39999999999998</ele><time>2026-03-29T08:22:23.971Z</time></trkpt><trkpt lat="40.6193267" lon="17.1749417"><ele>249.0</ele><time>2026-03-29T08:22:24.972Z</time></trkpt><trkpt lat="40.6193183" lon="17.1748033"><ele>248.79999999999998</ele><time>2026-03-29T08:22:25.974Z</time></trkpt><trkpt lat="40.6193033" lon="17.1746517"><ele>248.59999999999997</ele><time>2026-03-29T08:22:26.971Z</time></trkpt><trkpt lat="40.61929" lon="17.1745"><ele>248.4</ele><time>2026-03-29T08:22:27.971Z</time></trkpt><trkpt lat="40.6192783" lon="17.17437"><ele>248.2</ele><time>2026-03-29T08:22:28.971Z</time></trkpt><trkpt lat="40.6192767" lon="17.17426"><ele>248.0</ele><time>2026-03-29T08:22:29.971Z</time></trkpt><trkpt lat="40.61929" lon="17.1741617"><ele>248.00000000000003</ele><time>2026-03-29T08:22:30.972Z</time></trkpt><trkpt lat="40.6193133" lon="17.174075"><ele>248.0</ele><time>2026-03-29T08:22:31.971Z</time></trkpt><trkpt lat="40.6193467" lon="17.173985"><ele>248.0</ele><time>2026-03-29T08:22:32.971Z</time></trkpt><trkpt lat="40.6193783" lon="17.1738867"><ele>248.0</ele><time>2026-03-29T08:22:33.971Z</time></trkpt><trkpt lat="40.61941" lon="17.1737867"><ele>248.00000000000003</ele><time>2026-03-29T08:22:34.971Z</time></trkpt><trkpt lat="40.6194367" lon="17.17368"><ele>248.0</ele><time>2026-03-29T08:22:35.972Z</time></trkpt><trkpt lat="40.6194617" lon="17.1735783"><ele>248.66666666666669</ele><time>2026-03-29T08:22:36.972Z</time></trkpt><trkpt lat="40.6194883" lon="17.1734767"><ele>249.33333333333334</ele><time>2026-03-29T08:22:37.971Z</time></trkpt><trkpt lat="40.6195167" lon="17.173375"><ele>250.0</ele><time>2026-03-29T08:22:38.971Z</time></trkpt><trkpt lat="40.6195417" lon="17.173275"><ele>250.66666666666669</ele><time>2026-03-29T08:22:39.971Z</time></trkpt><trkpt lat="40.6195667" lon="17.173175"><ele>251.33333333333334</ele><time>2026-03-29T08:22:40.971Z</time></trkpt><trkpt lat="40.6195917" lon="17.1730833"><ele>252.0</ele><time>2026-03-29T08:22:41.97Z</time></trkpt><trkpt lat="40.6196133" lon="17.1729917"><ele>252.0</ele><time>2026-03-29T08:22:42.972Z</time></trkpt><trkpt lat="40.61963" lon="17.1729117"><ele>252.0</ele><time>2026-03-29T08:22:43.971Z</time></trkpt><trkpt lat="40.6196533" lon="17.1727933"><ele>252.0</ele><time>2026-03-29T08:22:45.973Z</time></trkpt><trkpt lat="40.6196717" lon="17.1727133"><ele>252.0</ele><time>2026-03-29T08:22:47.969Z</time></trkpt><trkpt lat="40.61969" lon="17.17261"><ele>252.0</ele><time>2026-03-29T08:22:49.971Z</time></trkpt><trkpt lat="40.61972" lon="17.172465"><ele>252.0</ele><time>2026-03-29T08:22:51.972Z</time></trkpt><trkpt lat="40.6197433" lon="17.1723733"><ele>251.8</ele><time>2026-03-29T08:22:52.971Z</time></trkpt><trkpt lat="40.6197717" lon="17.1722617"><ele>251.6</ele><time>2026-03-29T08:22:53.971Z</time></trkpt><trkpt lat="40.6198" lon="17.1721367"><ele>251.40000000000003</ele><time>2026-03-29T08:22:54.971Z</time></trkpt><trkpt lat="40.6198267" lon="17.1720033"><ele>251.20000000000002</ele><time>2026-03-29T08:22:55.971Z</time></trkpt><trkpt lat="40.619855" lon="17.1718683"><ele>251.0</ele><time>2026-03-29T08:22:56.971Z</time></trkpt><trkpt lat="40.619885" lon="17.17173"><ele>251.0</ele><time>2026-03-29T08:22:57.971Z</time></trkpt><trkpt lat="40.6199133" lon="17.17159"><ele>251.00000000000003</ele><time>2026-03-29T08:22:58.969Z</time></trkpt><trkpt lat="40.6199383" lon="17.1714567"><ele>251.00000000000003</ele><time>2026-03-29T08:22:59.971Z</time></trkpt><trkpt lat="40.6199617" lon="17.17134"><ele>251.0</ele><time>2026-03-29T08:23:00.971Z</time></trkpt><trkpt lat="40.619985" lon="17.1712333"><ele>251.0</ele><time>2026-03-29T08:23:01.97Z</time></trkpt><trkpt lat="40.620005" lon="17.1711417"><ele>250.66666666666669</ele><time>2026-03-29T08:23:02.971Z</time></trkpt><trkpt lat="40.620025" lon="17.1710617"><ele>250.33333333333334</ele><time>2026-03-29T08:23:03.97Z</time></trkpt><trkpt lat="40.6200433" lon="17.1709783"><ele>250.0</ele><time>2026-03-29T08:23:04.971Z</time></trkpt><trkpt lat="40.62007" lon="17.1708833"><ele>249.66666666666669</ele><time>2026-03-29T08:23:05.971Z</time></trkpt><trkpt lat="40.6201017" lon="17.1707817"><ele>249.33333333333334</ele><time>2026-03-29T08:23:06.971Z</time></trkpt><trkpt lat="40.62014" lon="17.17067"><ele>249.0</ele><time>2026-03-29T08:23:07.97Z</time></trkpt><trkpt lat="40.62018" lon="17.17055"><ele>249.0</ele><time>2026-03-29T08:23:08.971Z</time></trkpt><trkpt lat="40.6202217" lon="17.1704217"><ele>248.99999999999997</ele><time>2026-03-29T08:23:09.971Z</time></trkpt><trkpt lat="40.6202667" lon="17.1702933"><ele>248.99999999999997</ele><time>2026-03-29T08:23:10.969Z</time></trkpt><trkpt lat="40.62031" lon="17.1701667"><ele>249.0</ele><time>2026-03-29T08:23:11.97Z</time></trkpt><trkpt lat="40.6203533" lon="17.17004"><ele>249.0</ele><time>2026-03-29T08:23:12.971Z</time></trkpt><trkpt lat="40.620395" lon="17.169915"><ele>249.79999999999998</ele><time>2026-03-29T08:23:13.971Z</time></trkpt><trkpt lat="40.620435" lon="17.1697917"><ele>250.59999999999997</ele><time>2026-03-29T08:23:14.973Z</time></trkpt><trkpt lat="40.6204767" lon="17.1696717"><ele>251.4</ele><time>2026-03-29T08:23:15.973Z</time></trkpt><trkpt lat="40.6205183" lon="17.169555"><ele>252.2</ele><time>2026-03-29T08:23:16.97Z</time></trkpt><trkpt lat="40.620555" lon="17.1694367"><ele>253.0</ele><time>2026-03-29T08:23:17.971Z</time></trkpt><trkpt lat="40.62059" lon="17.16932"><ele>253.0</ele><time>2026-03-29T08:23:18.971Z</time></trkpt><trkpt lat="40.6206217" lon="17.1691983"><ele>253.0</ele><time>2026-03-29T08:23:19.971Z</time></trkpt><trkpt lat="40.6206567" lon="17.169075"><ele>253.0</ele><time>2026-03-29T08:23:20.971Z</time></trkpt><trkpt lat="40.6206933" lon="17.16895"><ele>253.0</ele><time>2026-03-29T08:23:21.971Z</time></trkpt><trkpt lat="40.6207333" lon="17.168825"><ele>253.0</ele><time>2026-03-29T08:23:22.971Z</time></trkpt><trkpt lat="40.6207733" lon="17.1687"><ele>252.49999999999997</ele><time>2026-03-29T08:23:23.971Z</time></trkpt><trkpt lat="40.6208167" lon="17.168575"><ele>252.0</ele><time>2026-03-29T08:23:24.97Z</time></trkpt><trkpt lat="40.6208583" lon="17.1684583"><ele>251.5</ele><time>2026-03-29T08:23:25.971Z</time></trkpt><trkpt lat="40.6209" lon="17.1683533"><ele>251.0</ele><time>2026-03-29T08:23:26.97Z</time></trkpt><trkpt lat="40.620945" lon="17.168265"><ele>250.49999999999997</ele><time>2026-03-29T08:23:27.971Z</time></trkpt><trkpt lat="40.62099" lon="17.1681883"><ele>250.0</ele><time>2026-03-29T08:23:28.971Z</time></trkpt><trkpt lat="40.6210417" lon="17.1681183"><ele>249.83333333333331</ele><time>2026-03-29T08:23:29.971Z</time></trkpt><trkpt lat="40.6210933" lon="17.1680483"><ele>249.66666666666666</ele><time>2026-03-29T08:23:30.97Z</time></trkpt><trkpt lat="40.62114" lon="17.1679633"><ele>249.5</ele><time>2026-03-29T08:23:31.971Z</time></trkpt><trkpt lat="40.6211767" lon="17.167865"><ele>249.33333333333331</ele><time>2026-03-29T08:23:32.971Z</time></trkpt><trkpt lat="40.6212" lon="17.1677567"><ele>249.16666666666666</ele><time>2026-03-29T08:23:33.971Z</time></trkpt><trkpt lat="40.62121" lon="17.1676367"><ele>249.0</ele><time>2026-03-29T08:23:34.97Z</time></trkpt><trkpt lat="40.621215" lon="17.1675133"><ele>249.39999999999998</ele><time>2026-03-29T08:23:35.971Z</time></trkpt><trkpt lat="40.62122" lon="17.167385"><ele>249.79999999999998</ele><time>2026-03-29T08:23:36.971Z</time></trkpt><trkpt lat="40.6212317" lon="17.167255"><ele>250.20000000000002</ele><time>2026-03-29T08:23:37.975Z</time></trkpt><trkpt lat="40.6212483" lon="17.167125"><ele>250.60000000000002</ele><time>2026-03-29T08:23:38.97Z</time></trkpt><trkpt lat="40.6212667" lon="17.1669983"><ele>251.0</ele><time>2026-03-29T08:23:39.971Z</time></trkpt><trkpt lat="40.6212917" lon="17.1668733"><ele>251.4</ele><time>2026-03-29T08:23:40.971Z</time></trkpt><trkpt lat="40.6213217" lon="17.1667533"><ele>251.8</ele><time>2026-03-29T08:23:41.971Z</time></trkpt><trkpt lat="40.621355" lon="17.1666317"><ele>252.20000000000002</ele><time>2026-03-29T08:23:42.972Z</time></trkpt><trkpt lat="40.6213867" lon="17.1665083"><ele>252.60000000000002</ele><time>2026-03-29T08:23:43.971Z</time></trkpt><trkpt lat="40.62142" lon="17.1663883"><ele>253.0</ele><time>2026-03-29T08:23:44.97Z</time></trkpt><trkpt lat="40.621455" lon="17.1662683"><ele>253.33333333333331</ele><time>2026-03-29T08:23:45.973Z</time></trkpt><trkpt lat="40.6214867" lon="17.1661517"><ele>253.66666666666666</ele><time>2026-03-29T08:23:46.973Z</time></trkpt><trkpt lat="40.621515" lon="17.16604"><ele>254.0</ele><time>2026-03-29T08:23:47.971Z</time></trkpt><trkpt lat="40.6215417" lon="17.1659317"><ele>254.33333333333331</ele><time>2026-03-29T08:23:48.972Z</time></trkpt><trkpt lat="40.62157" lon="17.1658333"><ele>254.66666666666666</ele><time>2026-03-29T08:23:49.971Z</time></trkpt><trkpt lat="40.6215917" lon="17.1657517"><ele>255.0</ele><time>2026-03-29T08:23:50.971Z</time></trkpt><trkpt lat="40.6216217" lon="17.165645"><ele>255.16666666666666</ele><time>2026-03-29T08:23:52.972Z</time></trkpt><trkpt lat="40.6216583" lon="17.1655417"><ele>255.33333333333331</ele><time>2026-03-29T08:24:12.972Z</time></trkpt><trkpt lat="40.6216817" lon="17.1654483"><ele>255.5</ele><time>2026-03-29T08:24:13.971Z</time></trkpt><trkpt lat="40.6217083" lon="17.165345"><ele>255.66666666666666</ele><time>2026-03-29T08:24:14.971Z</time></trkpt><trkpt lat="40.6217333" lon="17.1652367"><ele>255.83333333333331</ele><time>2026-03-29T08:24:15.973Z</time></trkpt><trkpt lat="40.621755" lon="17.1651267"><ele>256.0</ele><time>2026-03-29T08:24:16.974Z</time></trkpt><trkpt lat="40.6217783" lon="17.165015"><ele>256.0</ele><time>2026-03-29T08:24:17.973Z</time></trkpt><trkpt lat="40.6218" lon="17.164905"><ele>256.0</ele><time>2026-03-29T08:24:18.971Z</time></trkpt><trkpt lat="40.62182" lon="17.1647917"><ele>256.0</ele><time>2026-03-29T08:24:19.971Z</time></trkpt><trkpt lat="40.6218367" lon="17.164675"><ele>256.0</ele><time>2026-03-29T08:24:20.971Z</time></trkpt><trkpt lat="40.6218483" lon="17.1645533"><ele>256.0</ele><time>2026-03-29T08:24:21.97Z</time></trkpt><trkpt lat="40.6218583" lon="17.1644233"><ele>256.2</ele><time>2026-03-29T08:24:22.972Z</time></trkpt><trkpt lat="40.6218717" lon="17.1642883"><ele>256.40000000000003</ele><time>2026-03-29T08:24:23.972Z</time></trkpt><trkpt lat="40.6218837" lon="17.1641481"><ele>256.6</ele><time>2026-03-29T08:24:24.971Z</time></trkpt><trkpt lat="40.6218933" lon="17.1640017"><ele>256.8</ele><time>2026-03-29T08:24:25.972Z</time></trkpt><trkpt lat="40.6219044" lon="17.1638504"><ele>257.0</ele><time>2026-03-29T08:24:26.971Z</time></trkpt><trkpt lat="40.6219131" lon="17.163696"><ele>257.75</ele><time>2026-03-29T08:24:27.972Z</time></trkpt><trkpt lat="40.6219244" lon="17.1635419"><ele>258.5</ele><time>2026-03-29T08:24:28.971Z</time></trkpt><trkpt lat="40.6219349" lon="17.1633862"><ele>259.25</ele><time>2026-03-29T08:24:29.971Z</time></trkpt><trkpt lat="40.6219447" lon="17.1632265"><ele>260.0</ele><time>2026-03-29T08:24:30.971Z</time></trkpt><trkpt lat="40.6219564" lon="17.1630602"><ele>261.0</ele><time>2026-03-29T08:24:31.971Z</time></trkpt><trkpt lat="40.6219723" lon="17.1628888"><ele>262.0</ele><time>2026-03-29T08:24:32.972Z</time></trkpt><trkpt lat="40.6219913" lon="17.1627177"><ele>263.0</ele><time>2026-03-29T08:24:33.97Z</time></trkpt><trkpt lat="40.6220088" lon="17.1625478"><ele>264.0</ele><time>2026-03-29T08:24:34.976Z</time></trkpt><trkpt lat="40.6220231" lon="17.1623779"><ele>265.75</ele><time>2026-03-29T08:24:35.971Z</time></trkpt><trkpt lat="40.6220368" lon="17.1622056"><ele>267.5</ele><time>2026-03-29T08:24:36.972Z</time></trkpt><trkpt lat="40.6220502" lon="17.1620325"><ele>269.25</ele><time>2026-03-29T08:24:37.972Z</time></trkpt><trkpt lat="40.6220617" lon="17.1618594"><ele>271.0</ele><time>2026-03-29T08:24:38.97Z</time></trkpt><trkpt lat="40.6220696" lon="17.161685"><ele>271.0</ele><time>2026-03-29T08:24:39.971Z</time></trkpt><trkpt lat="40.6220737" lon="17.161507"><ele>271.0</ele><time>2026-03-29T08:24:40.97Z</time></trkpt><trkpt lat="40.622082" lon="17.1613211"><ele>271.0</ele><time>2026-03-29T08:24:41.971Z</time></trkpt><trkpt lat="40.622094" lon="17.1611322"><ele>271.0</ele><time>2026-03-29T08:24:42.972Z</time></trkpt><trkpt lat="40.6221084" lon="17.1609476"><ele>271.0</ele><time>2026-03-29T08:24:43.97Z</time></trkpt><trkpt lat="40.622122" lon="17.160773"><ele>271.0</ele><time>2026-03-29T08:24:44.971Z</time></trkpt><trkpt lat="40.6221339" lon="17.1606127"><ele>271.0</ele><time>2026-03-29T08:24:45.973Z</time></trkpt><trkpt lat="40.6221425" lon="17.1604687"><ele>271.0</ele><time>2026-03-29T08:24:46.974Z</time></trkpt><trkpt lat="40.6221506" lon="17.1603282"><ele>271.75</ele><time>2026-03-29T08:24:47.971Z</time></trkpt><trkpt lat="40.6221584" lon="17.1601854"><ele>272.5</ele><time>2026-03-29T08:24:48.971Z</time></trkpt><trkpt lat="40.6221683" lon="17.1600393"><ele>273.25</ele><time>2026-03-29T08:24:49.971Z</time></trkpt><trkpt lat="40.6221813" lon="17.1598893"><ele>274.0</ele><time>2026-03-29T08:24:50.971Z</time></trkpt><trkpt lat="40.6221993" lon="17.1597363"><ele>274.0</ele><time>2026-03-29T08:24:51.971Z</time></trkpt><trkpt lat="40.6222201" lon="17.1595825"><ele>274.0</ele><time>2026-03-29T08:24:52.971Z</time></trkpt><trkpt lat="40.6222449" lon="17.1594318"><ele>274.0</ele><time>2026-03-29T08:24:53.97Z</time></trkpt><trkpt lat="40.6222696" lon="17.1592919"><ele>274.0</ele><time>2026-03-29T08:24:54.97Z</time></trkpt><trkpt lat="40.6222916" lon="17.1591596"><ele>274.0</ele><time>2026-03-29T08:24:55.97Z</time></trkpt><trkpt lat="40.6223127" lon="17.1590329"><ele>274.0</ele><time>2026-03-29T08:24:56.972Z</time></trkpt><trkpt lat="40.6223361" lon="17.1589175"><ele>274.0</ele><time>2026-03-29T08:24:57.971Z</time></trkpt><trkpt lat="40.6223593" lon="17.1588077"><ele>274.0</ele><time>2026-03-29T08:24:58.971Z</time></trkpt><trkpt lat="40.6223825" lon="17.1586999"><ele>274.0</ele><time>2026-03-29T08:24:59.97Z</time></trkpt><trkpt lat="40.6224059" lon="17.1585905"><ele>274.0</ele><time>2026-03-29T08:25:00.972Z</time></trkpt><trkpt lat="40.6224295" lon="17.1584795"><ele>274.0</ele><time>2026-03-29T08:25:01.971Z</time></trkpt><trkpt lat="40.6224498" lon="17.1583667"><ele>274.0</ele><time>2026-03-29T08:25:02.971Z</time></trkpt><trkpt lat="40.6224721" lon="17.1582531"><ele>274.0</ele><time>2026-03-29T08:25:03.97Z</time></trkpt><trkpt lat="40.6225" lon="17.1581396"><ele>274.0</ele><time>2026-03-29T08:25:04.971Z</time></trkpt><trkpt lat="40.6225292" lon="17.158025"><ele>274.0</ele><time>2026-03-29T08:25:05.971Z</time></trkpt><trkpt lat="40.6225603" lon="17.1579125"><ele>274.0</ele><time>2026-03-29T08:25:06.97Z</time></trkpt><trkpt lat="40.622598" lon="17.1578023"><ele>273.59999999999997</ele><time>2026-03-29T08:25:07.971Z</time></trkpt><trkpt lat="40.6226386" lon="17.1576915"><ele>273.2</ele><time>2026-03-29T08:25:08.97Z</time></trkpt><trkpt lat="40.622681" lon="17.1575801"><ele>272.79999999999995</ele><time>2026-03-29T08:25:09.971Z</time></trkpt><trkpt lat="40.6227246" lon="17.1574682"><ele>272.4</ele><time>2026-03-29T08:25:10.97Z</time></trkpt><trkpt lat="40.6227668" lon="17.1573522"><ele>272.0</ele><time>2026-03-29T08:25:11.972Z</time></trkpt><trkpt lat="40.6228071" lon="17.157238"><ele>272.33333333333337</ele><time>2026-03-29T08:25:12.971Z</time></trkpt><trkpt lat="40.6228453" lon="17.1571279"><ele>272.6666666666667</ele><time>2026-03-29T08:25:13.971Z</time></trkpt><trkpt lat="40.6228818" lon="17.1570209"><ele>273.0</ele><time>2026-03-29T08:25:14.971Z</time></trkpt><trkpt lat="40.6229141" lon="17.1569171"><ele>273.3333333333333</ele><time>2026-03-29T08:25:15.974Z</time></trkpt><trkpt lat="40.6229422" lon="17.1568159"><ele>273.66666666666663</ele><time>2026-03-29T08:25:16.973Z</time></trkpt><trkpt lat="40.6229654" lon="17.1567175"><ele>274.0</ele><time>2026-03-29T08:25:17.972Z</time></trkpt><trkpt lat="40.6229839" lon="17.156631"><ele>273.8</ele><time>2026-03-29T08:25:18.972Z</time></trkpt><trkpt lat="40.6230058" lon="17.1565003"><ele>273.59999999999997</ele><time>2026-03-29T08:25:20.971Z</time></trkpt><trkpt lat="40.6230234" lon="17.1564121"><ele>273.4</ele><time>2026-03-29T08:25:23.971Z</time></trkpt><trkpt lat="40.6230451" lon="17.1562824"><ele>273.2</ele><time>2026-03-29T08:25:26.971Z</time></trkpt><trkpt lat="40.6230697" lon="17.1561504"><ele>273.0</ele><time>2026-03-29T08:25:28.97Z</time></trkpt><trkpt lat="40.6230938" lon="17.1560406"><ele>273.0</ele><time>2026-03-29T08:25:30.972Z</time></trkpt><trkpt lat="40.6231279" lon="17.1559356"><ele>273.0</ele><time>2026-03-29T08:25:34.972Z</time></trkpt><trkpt lat="40.6231657" lon="17.1558517"><ele>273.0</ele><time>2026-03-29T08:25:37.972Z</time></trkpt><trkpt lat="40.6232023" lon="17.1557681"><ele>273.0</ele><time>2026-03-29T08:25:39.971Z</time></trkpt><trkpt lat="40.6232647" lon="17.1556597"><ele>273.0</ele><time>2026-03-29T08:25:41.972Z</time></trkpt><trkpt lat="40.6233566" lon="17.1555375"><ele>272.6666666666667</ele><time>2026-03-29T08:25:43.971Z</time></trkpt><trkpt lat="40.6234102" lon="17.1554709"><ele>272.3333333333333</ele><time>2026-03-29T08:25:44.972Z</time></trkpt><trkpt lat="40.6234672" lon="17.1554006"><ele>272.0</ele><time>2026-03-29T08:25:45.973Z</time></trkpt><trkpt lat="40.6235271" lon="17.1553241"><ele>271.66666666666663</ele><time>2026-03-29T08:25:46.974Z</time></trkpt><trkpt lat="40.6235861" lon="17.1552411"><ele>271.3333333333333</ele><time>2026-03-29T08:25:47.974Z</time></trkpt><trkpt lat="40.6236418" lon="17.1551496"><ele>271.0</ele><time>2026-03-29T08:25:48.974Z</time></trkpt><trkpt lat="40.623698" lon="17.1550558"><ele>271.0</ele><time>2026-03-29T08:25:49.974Z</time></trkpt><trkpt lat="40.6237557" lon="17.1549646"><ele>271.0</ele><time>2026-03-29T08:25:50.974Z</time></trkpt><trkpt lat="40.6238085" lon="17.1548675"><ele>271.0</ele><time>2026-03-29T08:25:51.973Z</time></trkpt><trkpt lat="40.6238554" lon="17.1547602"><ele>271.0</ele><time>2026-03-29T08:25:52.974Z</time></trkpt><trkpt lat="40.6238946" lon="17.1546479"><ele>271.0</ele><time>2026-03-29T08:25:53.974Z</time></trkpt><trkpt lat="40.6239304" lon="17.1545271"><ele>270.40000000000003</ele><time>2026-03-29T08:25:54.971Z</time></trkpt><trkpt lat="40.6239664" lon="17.1544025"><ele>269.8</ele><time>2026-03-29T08:25:55.971Z</time></trkpt><trkpt lat="40.6240032" lon="17.1542743"><ele>269.20000000000005</ele><time>2026-03-29T08:25:56.971Z</time></trkpt><trkpt lat="40.624041" lon="17.1541452"><ele>268.6</ele><time>2026-03-29T08:25:57.974Z</time></trkpt><trkpt lat="40.624082" lon="17.1540167"><ele>268.0</ele><time>2026-03-29T08:25:58.972Z</time></trkpt><trkpt lat="40.6241251" lon="17.153884"><ele>267.8</ele><time>2026-03-29T08:25:59.971Z</time></trkpt><trkpt lat="40.6241688" lon="17.1537473"><ele>267.6</ele><time>2026-03-29T08:26:00.971Z</time></trkpt><trkpt lat="40.6242138" lon="17.1536075"><ele>267.4</ele><time>2026-03-29T08:26:01.971Z</time></trkpt><trkpt lat="40.6242548" lon="17.1534716"><ele>267.2</ele><time>2026-03-29T08:26:02.97Z</time></trkpt><trkpt lat="40.624292" lon="17.1533456"><ele>267.0</ele><time>2026-03-29T08:26:03.97Z</time></trkpt><trkpt lat="40.624321" lon="17.1532236"><ele>266.6</ele><time>2026-03-29T08:26:04.971Z</time></trkpt><trkpt lat="40.6243385" lon="17.1530969"><ele>266.2</ele><time>2026-03-29T08:26:05.971Z</time></trkpt><trkpt lat="40.624348" lon="17.1529657"><ele>265.8</ele><time>2026-03-29T08:26:06.971Z</time></trkpt><trkpt lat="40.6243496" lon="17.1528338"><ele>265.4</ele><time>2026-03-29T08:26:07.971Z</time></trkpt><trkpt lat="40.6243464" lon="17.1527047"><ele>265.0</ele><time>2026-03-29T08:26:08.971Z</time></trkpt><trkpt lat="40.6243463" lon="17.1525765"><ele>265.0</ele><time>2026-03-29T08:26:09.972Z</time></trkpt><trkpt lat="40.6243536" lon="17.1524494"><ele>265.0</ele><time>2026-03-29T08:26:10.974Z</time></trkpt><trkpt lat="40.6243656" lon="17.1523247"><ele>265.0</ele><time>2026-03-29T08:26:11.972Z</time></trkpt><trkpt lat="40.6243781" lon="17.1522044"><ele>265.0</ele><time>2026-03-29T08:26:12.972Z</time></trkpt><trkpt lat="40.6243884" lon="17.1520849"><ele>265.0</ele><time>2026-03-29T08:26:13.971Z</time></trkpt><trkpt lat="40.6243889" lon="17.1519614"><ele>264.6</ele><time>2026-03-29T08:26:14.971Z</time></trkpt><trkpt lat="40.6243761" lon="17.1518313"><ele>264.2</ele><time>2026-03-29T08:26:15.974Z</time></trkpt><trkpt lat="40.6243498" lon="17.1516965"><ele>263.8</ele><time>2026-03-29T08:26:16.973Z</time></trkpt><trkpt lat="40.6243097" lon="17.1515617"><ele>263.4</ele><time>2026-03-29T08:26:17.974Z</time></trkpt><trkpt lat="40.6242556" lon="17.1514308"><ele>263.0</ele><time>2026-03-29T08:26:18.974Z</time></trkpt><trkpt lat="40.6241918" lon="17.151305"><ele>262.6</ele><time>2026-03-29T08:26:19.974Z</time></trkpt><trkpt lat="40.6241318" lon="17.1511842"><ele>262.20000000000005</ele><time>2026-03-29T08:26:20.973Z</time></trkpt><trkpt lat="40.6240872" lon="17.151069"><ele>261.8</ele><time>2026-03-29T08:26:21.974Z</time></trkpt><trkpt lat="40.624054" lon="17.1509581"><ele>261.40000000000003</ele><time>2026-03-29T08:26:22.972Z</time></trkpt><trkpt lat="40.6240297" lon="17.1508509"><ele>261.0</ele><time>2026-03-29T08:26:23.974Z</time></trkpt><trkpt lat="40.6240245" lon="17.1507528"><ele>261.0</ele><time>2026-03-29T08:26:24.972Z</time></trkpt><trkpt lat="40.6240392" lon="17.1506713"><ele>261.0</ele><time>2026-03-29T08:26:25.971Z</time></trkpt><trkpt lat="40.6241266" lon="17.1505715"><ele>261.0</ele><time>2026-03-29T08:26:27.97Z</time></trkpt><trkpt lat="40.6241928" lon="17.150559"><ele>261.0</ele><time>2026-03-29T08:26:28.971Z</time></trkpt><trkpt lat="40.6242665" lon="17.1505642"><ele>261.0</ele><time>2026-03-29T08:26:29.971Z</time></trkpt><trkpt lat="40.6243448" lon="17.1505708"><ele>261.0</ele><time>2026-03-29T08:26:30.971Z</time></trkpt><trkpt lat="40.6244263" lon="17.1505728"><ele>260.8333333333333</ele><time>2026-03-29T08:26:31.971Z</time></trkpt><trkpt lat="40.6245022" lon="17.1505683"><ele>260.6666666666667</ele><time>2026-03-29T08:26:32.97Z</time></trkpt><trkpt lat="40.6245728" lon="17.1505674"><ele>260.5</ele><time>2026-03-29T08:26:33.972Z</time></trkpt><trkpt lat="40.6246396" lon="17.1505738"><ele>260.33333333333337</ele><time>2026-03-29T08:26:34.97Z</time></trkpt><trkpt lat="40.6247056" lon="17.1505866"><ele>260.1666666666667</ele><time>2026-03-29T08:26:35.97Z</time></trkpt><trkpt lat="40.6247692" lon="17.1506067"><ele>260.0</ele><time>2026-03-29T08:26:36.977Z</time></trkpt><trkpt lat="40.6248738" lon="17.1506607"><ele>260.0</ele><time>2026-03-29T08:26:38.971Z</time></trkpt><trkpt lat="40.6249443" lon="17.150707"><ele>260.0</ele><time>2026-03-29T08:26:40.971Z</time></trkpt><trkpt lat="40.6250123" lon="17.1507207"><ele>260.0</ele><time>2026-03-29T08:26:44.972Z</time></trkpt><trkpt lat="40.6250439" lon="17.1506309"><ele>260.0</ele><time>2026-03-29T08:26:48.974Z</time></trkpt><trkpt lat="40.625018" lon="17.1505225"><ele>260.0</ele><time>2026-03-29T08:26:50.974Z</time></trkpt><trkpt lat="40.624969" lon="17.1503857"><ele>260.0</ele><time>2026-03-29T08:26:52.974Z</time></trkpt><trkpt lat="40.6249414" lon="17.1503054"><ele>260.0</ele><time>2026-03-29T08:26:53.973Z</time></trkpt><trkpt lat="40.624915" lon="17.1502188"><ele>260.0</ele><time>2026-03-29T08:26:54.971Z</time></trkpt><trkpt lat="40.624888" lon="17.1501268"><ele>260.0</ele><time>2026-03-29T08:26:55.971Z</time></trkpt><trkpt lat="40.6248599" lon="17.1500311"><ele>260.0</ele><time>2026-03-29T08:26:56.972Z</time></trkpt><trkpt lat="40.6248296" lon="17.1499345"><ele>260.0</ele><time>2026-03-29T08:26:57.97Z</time></trkpt><trkpt lat="40.6247995" lon="17.1498389"><ele>260.0</ele><time>2026-03-29T08:26:58.971Z</time></trkpt><trkpt lat="40.6247683" lon="17.1497433"><ele>260.1666666666667</ele><time>2026-03-29T08:26:59.972Z</time></trkpt><trkpt lat="40.624738" lon="17.149647"><ele>260.33333333333337</ele><time>2026-03-29T08:27:00.974Z</time></trkpt><trkpt lat="40.6247106" lon="17.1495508"><ele>260.5</ele><time>2026-03-29T08:27:01.971Z</time></trkpt><trkpt lat="40.6246818" lon="17.1494539"><ele>260.6666666666667</ele><time>2026-03-29T08:27:02.971Z</time></trkpt><trkpt lat="40.6246514" lon="17.1493585"><ele>260.8333333333333</ele><time>2026-03-29T08:27:03.972Z</time></trkpt><trkpt lat="40.6246202" lon="17.1492631"><ele>261.0</ele><time>2026-03-29T08:27:04.971Z</time></trkpt><trkpt lat="40.6245888" lon="17.1491678"><ele>261.0</ele><time>2026-03-29T08:27:05.971Z</time></trkpt><trkpt lat="40.6245572" lon="17.1490729"><ele>261.0</ele><time>2026-03-29T08:27:06.972Z</time></trkpt><trkpt lat="40.6245239" lon="17.1489821"><ele>261.0</ele><time>2026-03-29T08:27:07.972Z</time></trkpt><trkpt lat="40.6244931" lon="17.1488909"><ele>261.0</ele><time>2026-03-29T08:27:08.972Z</time></trkpt><trkpt lat="40.6244633" lon="17.148801"><ele>261.0</ele><time>2026-03-29T08:27:09.972Z</time></trkpt><trkpt lat="40.6244332" lon="17.1487115"><ele>261.0</ele><time>2026-03-29T08:27:10.971Z</time></trkpt><trkpt lat="40.624406" lon="17.148623"><ele>260.7142857142857</ele><time>2026-03-29T08:27:11.971Z</time></trkpt><trkpt lat="40.6243781" lon="17.1485348"><ele>260.42857142857144</ele><time>2026-03-29T08:27:12.972Z</time></trkpt><trkpt lat="40.6243527" lon="17.1484483"><ele>260.1428571428571</ele><time>2026-03-29T08:27:13.971Z</time></trkpt><trkpt lat="40.6243263" lon="17.1483662"><ele>259.8571428571429</ele><time>2026-03-29T08:27:14.973Z</time></trkpt><trkpt lat="40.6242997" lon="17.1482835"><ele>259.57142857142856</ele><time>2026-03-29T08:27:15.974Z</time></trkpt><trkpt lat="40.6242731" lon="17.1481989"><ele>259.2857142857143</ele><time>2026-03-29T08:27:16.974Z</time></trkpt><trkpt lat="40.6242436" lon="17.1481123"><ele>259.0</ele><time>2026-03-29T08:27:17.974Z</time></trkpt><trkpt lat="40.6242133" lon="17.148024"><ele>259.0</ele><time>2026-03-29T08:27:18.971Z</time></trkpt><trkpt lat="40.6241858" lon="17.1479341"><ele>259.0</ele><time>2026-03-29T08:27:19.972Z</time></trkpt><trkpt lat="40.624158" lon="17.1478438"><ele>259.0</ele><time>2026-03-29T08:27:20.971Z</time></trkpt><trkpt lat="40.6241298" lon="17.1477565"><ele>259.0</ele><time>2026-03-29T08:27:21.973Z</time></trkpt><trkpt lat="40.6241033" lon="17.1476767"><ele>259.0</ele><time>2026-03-29T08:27:22.97Z</time></trkpt><trkpt lat="40.6240517" lon="17.147525"><ele>259.0</ele><time>2026-03-29T08:27:24.972Z</time></trkpt><trkpt lat="40.62403" lon="17.147445"><ele>258.8333333333333</ele><time>2026-03-29T08:27:25.972Z</time></trkpt><trkpt lat="40.6240033" lon="17.1473633"><ele>258.66666666666663</ele><time>2026-03-29T08:27:26.972Z</time></trkpt><trkpt lat="40.6239767" lon="17.147275"><ele>258.5</ele><time>2026-03-29T08:27:27.971Z</time></trkpt><trkpt lat="40.623945" lon="17.1471867"><ele>258.3333333333333</ele><time>2026-03-29T08:27:28.972Z</time></trkpt><trkpt lat="40.623915" lon="17.1470933"><ele>258.1666666666667</ele><time>2026-03-29T08:27:29.972Z</time></trkpt><trkpt lat="40.6238833" lon="17.1469983"><ele>258.0</ele><time>2026-03-29T08:27:30.972Z</time></trkpt><trkpt lat="40.62385" lon="17.1469"><ele>258.0</ele><time>2026-03-29T08:27:31.972Z</time></trkpt><trkpt lat="40.6238183" lon="17.1468"><ele>258.0</ele><time>2026-03-29T08:27:32.971Z</time></trkpt><trkpt lat="40.623785" lon="17.1467"><ele>258.0</ele><time>2026-03-29T08:27:33.971Z</time></trkpt><trkpt lat="40.6237533" lon="17.1465983"><ele>258.0</ele><time>2026-03-29T08:27:34.972Z</time></trkpt><trkpt lat="40.6237217" lon="17.146495"><ele>258.0</ele><time>2026-03-29T08:27:35.972Z</time></trkpt><trkpt lat="40.6236883" lon="17.14639"><ele>258.0</ele><time>2026-03-29T08:27:36.972Z</time></trkpt><trkpt lat="40.6236517" lon="17.1462833"><ele>258.8</ele><time>2026-03-29T08:27:37.972Z</time></trkpt><trkpt lat="40.623615" lon="17.1461733"><ele>259.6</ele><time>2026-03-29T08:27:38.976Z</time></trkpt><trkpt lat="40.623575" lon="17.1460567"><ele>260.4</ele><time>2026-03-29T08:27:39.976Z</time></trkpt><trkpt lat="40.62353" lon="17.1459417"><ele>261.2</ele><time>2026-03-29T08:27:40.97Z</time></trkpt><trkpt lat="40.6234817" lon="17.1458317"><ele>262.0</ele><time>2026-03-29T08:27:41.972Z</time></trkpt><trkpt lat="40.62343" lon="17.1457217"><ele>261.6</ele><time>2026-03-29T08:27:42.971Z</time></trkpt><trkpt lat="40.6233717" lon="17.14562"><ele>261.2</ele><time>2026-03-29T08:27:43.973Z</time></trkpt><trkpt lat="40.6233133" lon="17.1455183"><ele>260.8</ele><time>2026-03-29T08:27:44.972Z</time></trkpt><trkpt lat="40.6232567" lon="17.1454117"><ele>260.4</ele><time>2026-03-29T08:27:45.975Z</time></trkpt><trkpt lat="40.6231983" lon="17.14531"><ele>260.0</ele><time>2026-03-29T08:27:46.975Z</time></trkpt><trkpt lat="40.6231367" lon="17.14521"><ele>260.0</ele><time>2026-03-29T08:27:47.974Z</time></trkpt><trkpt lat="40.623075" lon="17.1451067"><ele>260.0</ele><time>2026-03-29T08:27:48.971Z</time></trkpt><trkpt lat="40.6230133" lon="17.1450033"><ele>260.0</ele><time>2026-03-29T08:27:49.971Z</time></trkpt><trkpt lat="40.6229517" lon="17.144895"><ele>260.0</ele><time>2026-03-29T08:27:50.97Z</time></trkpt><trkpt lat="40.62289" lon="17.1447867"><ele>260.0</ele><time>2026-03-29T08:27:51.972Z</time></trkpt><trkpt lat="40.62283" lon="17.144685"><ele>259.5</ele><time>2026-03-29T08:27:52.973Z</time></trkpt><trkpt lat="40.6227717" lon="17.1445883"><ele>259.0</ele><time>2026-03-29T08:27:53.973Z</time></trkpt><trkpt lat="40.6227183" lon="17.1445"><ele>258.5</ele><time>2026-03-29T08:27:54.972Z</time></trkpt><trkpt lat="40.62267" lon="17.1444217"><ele>258.0</ele><time>2026-03-29T08:27:55.971Z</time></trkpt><trkpt lat="40.622625" lon="17.1443483"><ele>257.5</ele><time>2026-03-29T08:27:56.971Z</time></trkpt><trkpt lat="40.622585" lon="17.1442767"><ele>257.0</ele><time>2026-03-29T08:27:57.971Z</time></trkpt><trkpt lat="40.6225417" lon="17.1442067"><ele>257.0</ele><time>2026-03-29T08:27:58.972Z</time></trkpt><trkpt lat="40.622495" lon="17.14413"><ele>257.0</ele><time>2026-03-29T08:27:59.974Z</time></trkpt><trkpt lat="40.6224433" lon="17.1440517"><ele>257.0</ele><time>2026-03-29T08:28:00.972Z</time></trkpt><trkpt lat="40.62239" lon="17.1439667"><ele>257.0</ele><time>2026-03-29T08:28:01.971Z</time></trkpt><trkpt lat="40.622335" lon="17.14388"><ele>257.0</ele><time>2026-03-29T08:28:02.971Z</time></trkpt><trkpt lat="40.6222767" lon="17.14379"><ele>257.0</ele><time>2026-03-29T08:28:03.971Z</time></trkpt><trkpt lat="40.62222" lon="17.1436967"><ele>256.5</ele><time>2026-03-29T08:28:04.972Z</time></trkpt><trkpt lat="40.6221617" lon="17.1436033"><ele>256.0</ele><time>2026-03-29T08:28:05.97Z</time></trkpt><trkpt lat="40.622105" lon="17.1435133"><ele>255.5</ele><time>2026-03-29T08:28:06.971Z</time></trkpt><trkpt lat="40.62205" lon="17.143425"><ele>255.0</ele><time>2026-03-29T08:28:07.972Z</time></trkpt><trkpt lat="40.6219933" lon="17.1433367"><ele>254.50000000000003</ele><time>2026-03-29T08:28:08.972Z</time></trkpt><trkpt lat="40.6219367" lon="17.143245"><ele>254.0</ele><time>2026-03-29T08:28:09.971Z</time></trkpt><trkpt lat="40.6218783" lon="17.1431467"><ele>253.6</ele><time>2026-03-29T08:28:10.971Z</time></trkpt><trkpt lat="40.62182" lon="17.143045"><ele>253.2</ele><time>2026-03-29T08:28:11.971Z</time></trkpt><trkpt lat="40.6217583" lon="17.142945"><ele>252.79999999999998</ele><time>2026-03-29T08:28:12.972Z</time></trkpt><trkpt lat="40.6216967" lon="17.14284"><ele>252.39999999999998</ele><time>2026-03-29T08:28:13.972Z</time></trkpt><trkpt lat="40.6216367" lon="17.1427333"><ele>252.0</ele><time>2026-03-29T08:28:14.971Z</time></trkpt><trkpt lat="40.6215767" lon="17.1426283"><ele>252.0</ele><time>2026-03-29T08:28:15.974Z</time></trkpt><trkpt lat="40.621515" lon="17.1425217"><ele>252.0</ele><time>2026-03-29T08:28:16.973Z</time></trkpt><trkpt lat="40.6214533" lon="17.1424167"><ele>252.0</ele><time>2026-03-29T08:28:17.974Z</time></trkpt><trkpt lat="40.6213917" lon="17.142315"><ele>252.0</ele><time>2026-03-29T08:28:18.971Z</time></trkpt><trkpt lat="40.6213317" lon="17.142215"><ele>252.0</ele><time>2026-03-29T08:28:19.973Z</time></trkpt><trkpt lat="40.621275" lon="17.1421133"><ele>252.0</ele><time>2026-03-29T08:28:20.973Z</time></trkpt><trkpt lat="40.6212167" lon="17.1420167"><ele>252.0</ele><time>2026-03-29T08:28:21.971Z</time></trkpt><trkpt lat="40.6211583" lon="17.1419183"><ele>252.0</ele><time>2026-03-29T08:28:22.973Z</time></trkpt><trkpt lat="40.6211" lon="17.1418183"><ele>252.0</ele><time>2026-03-29T08:28:23.972Z</time></trkpt><trkpt lat="40.6210433" lon="17.1417183"><ele>252.0</ele><time>2026-03-29T08:28:24.973Z</time></trkpt><trkpt lat="40.6209833" lon="17.14162"><ele>251.8</ele><time>2026-03-29T08:28:25.973Z</time></trkpt><trkpt lat="40.620925" lon="17.14152"><ele>251.6</ele><time>2026-03-29T08:28:26.973Z</time></trkpt><trkpt lat="40.620865" lon="17.14142"><ele>251.40000000000003</ele><time>2026-03-29T08:28:27.972Z</time></trkpt><trkpt lat="40.620805" lon="17.1413167"><ele>251.20000000000002</ele><time>2026-03-29T08:28:28.975Z</time></trkpt><trkpt lat="40.6207467" lon="17.1412133"><ele>251.0</ele><time>2026-03-29T08:28:29.973Z</time></trkpt><trkpt lat="40.6206883" lon="17.1411117"><ele>251.0</ele><time>2026-03-29T08:28:30.973Z</time></trkpt><trkpt lat="40.620626" lon="17.1410101"><ele>251.00000000000003</ele><time>2026-03-29T08:28:31.971Z</time></trkpt><trkpt lat="40.6205649" lon="17.1409112"><ele>251.00000000000003</ele><time>2026-03-29T08:28:32.972Z</time></trkpt><trkpt lat="40.6205073" lon="17.1408134"><ele>251.0</ele><time>2026-03-29T08:28:33.972Z</time></trkpt><trkpt lat="40.6204521" lon="17.1407166"><ele>251.0</ele><time>2026-03-29T08:28:34.973Z</time></trkpt><trkpt lat="40.620396" lon="17.1406176"><ele>251.00000000000003</ele><time>2026-03-29T08:28:35.973Z</time></trkpt><trkpt lat="40.6203395" lon="17.1405213"><ele>251.0</ele><time>2026-03-29T08:28:36.973Z</time></trkpt><trkpt lat="40.6202843" lon="17.1404264"><ele>251.0</ele><time>2026-03-29T08:28:37.973Z</time></trkpt><trkpt lat="40.6202361" lon="17.1403401"><ele>251.0</ele><time>2026-03-29T08:28:38.973Z</time></trkpt><trkpt lat="40.6201964" lon="17.1402643"><ele>251.00000000000003</ele><time>2026-03-29T08:28:39.973Z</time></trkpt><trkpt lat="40.6201399" lon="17.1401673"><ele>251.0</ele><time>2026-03-29T08:28:41.973Z</time></trkpt><trkpt lat="40.6200933" lon="17.140075"><ele>251.20000000000002</ele><time>2026-03-29T08:29:20.97Z</time></trkpt><trkpt lat="40.620045" lon="17.1399983"><ele>251.40000000000003</ele><time>2026-03-29T08:29:21.97Z</time></trkpt><trkpt lat="40.6199867" lon="17.139905"><ele>251.6</ele><time>2026-03-29T08:29:22.971Z</time></trkpt><trkpt lat="40.6199217" lon="17.139805"><ele>251.8</ele><time>2026-03-29T08:29:23.97Z</time></trkpt><trkpt lat="40.6198533" lon="17.1396883"><ele>252.0</ele><time>2026-03-29T08:29:24.969Z</time></trkpt><trkpt lat="40.6197783" lon="17.1395683"><ele>252.0</ele><time>2026-03-29T08:29:25.97Z</time></trkpt><trkpt lat="40.6197" lon="17.1394433"><ele>252.0</ele><time>2026-03-29T08:29:26.97Z</time></trkpt><trkpt lat="40.61962" lon="17.1393117"><ele>252.0</ele><time>2026-03-29T08:29:27.971Z</time></trkpt><trkpt lat="40.6195367" lon="17.139175"><ele>252.0</ele><time>2026-03-29T08:29:28.973Z</time></trkpt><trkpt lat="40.619365" lon="17.1388967"><ele>252.0</ele><time>2026-03-29T08:29:30.975Z</time></trkpt><trkpt lat="40.6192767" lon="17.138755"><ele>252.0</ele><time>2026-03-29T08:29:31.97Z</time></trkpt><trkpt lat="40.6191917" lon="17.1386117"><ele>252.0</ele><time>2026-03-29T08:29:32.97Z</time></trkpt><trkpt lat="40.6191083" lon="17.13847"><ele>252.0</ele><time>2026-03-29T08:29:33.97Z</time></trkpt><trkpt lat="40.619025" lon="17.13833"><ele>251.5</ele><time>2026-03-29T08:29:34.969Z</time></trkpt><trkpt lat="40.6188617" lon="17.138065"><ele>251.0</ele><time>2026-03-29T08:29:36.97Z</time></trkpt><trkpt lat="40.618705" lon="17.137815"><ele>251.0</ele><time>2026-03-29T08:29:38.969Z</time></trkpt><trkpt lat="40.61863" lon="17.137695"><ele>251.00000000000003</ele><time>2026-03-29T08:29:39.971Z</time></trkpt><trkpt lat="40.6185633" lon="17.137585"><ele>251.00000000000003</ele><time>2026-03-29T08:29:40.971Z</time></trkpt><trkpt lat="40.618505" lon="17.1374883"><ele>251.0</ele><time>2026-03-29T08:29:41.971Z</time></trkpt><trkpt lat="40.6184567" lon="17.1374033"><ele>251.0</ele><time>2026-03-29T08:29:42.974Z</time></trkpt><trkpt lat="40.6184117" lon="17.137325"><ele>250.60000000000002</ele><time>2026-03-29T08:29:43.971Z</time></trkpt><trkpt lat="40.618365" lon="17.1372483"><ele>250.20000000000002</ele><time>2026-03-29T08:29:44.97Z</time></trkpt><trkpt lat="40.618315" lon="17.1371617"><ele>249.79999999999998</ele><time>2026-03-29T08:29:45.97Z</time></trkpt><trkpt lat="40.61826" lon="17.1370633"><ele>249.39999999999998</ele><time>2026-03-29T08:29:46.97Z</time></trkpt><trkpt lat="40.6182" lon="17.1369617"><ele>249.0</ele><time>2026-03-29T08:29:47.971Z</time></trkpt><trkpt lat="40.618135" lon="17.13685"><ele>249.0</ele><time>2026-03-29T08:29:48.97Z</time></trkpt><trkpt lat="40.618065" lon="17.1367367"><ele>248.99999999999997</ele><time>2026-03-29T08:29:49.97Z</time></trkpt><trkpt lat="40.6179933" lon="17.13662"><ele>248.99999999999997</ele><time>2026-03-29T08:29:50.974Z</time></trkpt><trkpt lat="40.6179233" lon="17.136505"><ele>249.0</ele><time>2026-03-29T08:29:51.97Z</time></trkpt><trkpt lat="40.6178567" lon="17.13639"><ele>249.0</ele><time>2026-03-29T08:29:52.97Z</time></trkpt><trkpt lat="40.6177867" lon="17.136275"><ele>248.5</ele><time>2026-03-29T08:29:53.97Z</time></trkpt><trkpt lat="40.617715" lon="17.13616"><ele>248.0</ele><time>2026-03-29T08:29:54.971Z</time></trkpt><trkpt lat="40.6176417" lon="17.1360417"><ele>247.5</ele><time>2026-03-29T08:29:55.97Z</time></trkpt><trkpt lat="40.6175717" lon="17.1359183"><ele>247.0</ele><time>2026-03-29T08:29:56.97Z</time></trkpt><trkpt lat="40.617505" lon="17.1357867"><ele>246.75</ele><time>2026-03-29T08:29:57.971Z</time></trkpt><trkpt lat="40.6174436" lon="17.1356481"><ele>246.5</ele><time>2026-03-29T08:29:58.97Z</time></trkpt><trkpt lat="40.6173895" lon="17.1355063"><ele>246.25</ele><time>2026-03-29T08:29:59.97Z</time></trkpt><trkpt lat="40.6173386" lon="17.1353678"><ele>246.0</ele><time>2026-03-29T08:30:00.971Z</time></trkpt><trkpt lat="40.6172907" lon="17.1352306"><ele>246.0</ele><time>2026-03-29T08:30:01.971Z</time></trkpt><trkpt lat="40.6172492" lon="17.1350932"><ele>246.0</ele><time>2026-03-29T08:30:02.97Z</time></trkpt><trkpt lat="40.617216" lon="17.1349499"><ele>246.0</ele><time>2026-03-29T08:30:03.973Z</time></trkpt><trkpt lat="40.6171846" lon="17.1348018"><ele>246.0</ele><time>2026-03-29T08:30:04.97Z</time></trkpt><trkpt lat="40.6171574" lon="17.1346469"><ele>246.0</ele><time>2026-03-29T08:30:05.969Z</time></trkpt><trkpt lat="40.6171369" lon="17.134488"><ele>246.0</ele><time>2026-03-29T08:30:06.97Z</time></trkpt><trkpt lat="40.6171251" lon="17.1343291"><ele>246.0</ele><time>2026-03-29T08:30:07.971Z</time></trkpt><trkpt lat="40.6171201" lon="17.1341753"><ele>246.0</ele><time>2026-03-29T08:30:08.97Z</time></trkpt><trkpt lat="40.6171187" lon="17.1340255"><ele>245.25</ele><time>2026-03-29T08:30:09.97Z</time></trkpt><trkpt lat="40.617119" lon="17.1338772"><ele>244.5</ele><time>2026-03-29T08:30:10.97Z</time></trkpt><trkpt lat="40.6171214" lon="17.1337278"><ele>243.75</ele><time>2026-03-29T08:30:11.97Z</time></trkpt><trkpt lat="40.6171263" lon="17.1335792"><ele>243.0</ele><time>2026-03-29T08:30:12.971Z</time></trkpt><trkpt lat="40.6171289" lon="17.1334309"><ele>243.0</ele><time>2026-03-29T08:30:13.97Z</time></trkpt><trkpt lat="40.6171332" lon="17.1332801"><ele>243.0</ele><time>2026-03-29T08:30:14.97Z</time></trkpt><trkpt lat="40.6171379" lon="17.1331268"><ele>243.0</ele><time>2026-03-29T08:30:15.974Z</time></trkpt><trkpt lat="40.6171412" lon="17.1329748"><ele>243.0</ele><time>2026-03-29T08:30:16.973Z</time></trkpt><trkpt lat="40.6171457" lon="17.132673"><ele>242.25</ele><time>2026-03-29T08:30:18.973Z</time></trkpt><trkpt lat="40.617148" lon="17.1325207"><ele>241.5</ele><time>2026-03-29T08:30:19.973Z</time></trkpt><trkpt lat="40.6171494" lon="17.1323702"><ele>240.75</ele><time>2026-03-29T08:30:20.973Z</time></trkpt><trkpt lat="40.6171499" lon="17.1322246"><ele>240.0</ele><time>2026-03-29T08:30:21.973Z</time></trkpt><trkpt lat="40.617154" lon="17.1320796"><ele>239.5</ele><time>2026-03-29T08:30:22.973Z</time></trkpt><trkpt lat="40.6171593" lon="17.1319312"><ele>239.0</ele><time>2026-03-29T08:30:23.972Z</time></trkpt><trkpt lat="40.6171621" lon="17.1317812"><ele>238.5</ele><time>2026-03-29T08:30:24.971Z</time></trkpt><trkpt lat="40.6171583" lon="17.1316277"><ele>238.0</ele><time>2026-03-29T08:30:25.971Z</time></trkpt><trkpt lat="40.6171501" lon="17.1314665"><ele>237.0</ele><time>2026-03-29T08:30:26.969Z</time></trkpt><trkpt lat="40.6171328" lon="17.1313075"><ele>236.0</ele><time>2026-03-29T08:30:27.969Z</time></trkpt><trkpt lat="40.6171035" lon="17.1311485"><ele>235.0</ele><time>2026-03-29T08:30:28.97Z</time></trkpt><trkpt lat="40.6170641" lon="17.1309929"><ele>234.0</ele><time>2026-03-29T08:30:29.971Z</time></trkpt><trkpt lat="40.617018" lon="17.1308428"><ele>234.0</ele><time>2026-03-29T08:30:30.972Z</time></trkpt><trkpt lat="40.6169663" lon="17.1307018"><ele>234.0</ele><time>2026-03-29T08:30:31.971Z</time></trkpt><trkpt lat="40.6169068" lon="17.1305692"><ele>234.0</ele><time>2026-03-29T08:30:32.97Z</time></trkpt><trkpt lat="40.6168403" lon="17.1304415"><ele>234.0</ele><time>2026-03-29T08:30:33.975Z</time></trkpt><trkpt lat="40.6167662" lon="17.1303194"><ele>234.0</ele><time>2026-03-29T08:30:34.97Z</time></trkpt><trkpt lat="40.6166836" lon="17.1302028"><ele>234.0</ele><time>2026-03-29T08:30:35.971Z</time></trkpt><trkpt lat="40.6165986" lon="17.1300888"><ele>234.0</ele><time>2026-03-29T08:30:36.97Z</time></trkpt><trkpt lat="40.6165093" lon="17.1299821"><ele>234.0</ele><time>2026-03-29T08:30:37.971Z</time></trkpt><trkpt lat="40.6164198" lon="17.129878"><ele>232.39999999999998</ele><time>2026-03-29T08:30:38.971Z</time></trkpt><trkpt lat="40.6163331" lon="17.129776"><ele>230.79999999999998</ele><time>2026-03-29T08:30:39.971Z</time></trkpt><trkpt lat="40.6162487" lon="17.1296789"><ele>229.20000000000002</ele><time>2026-03-29T08:30:40.973Z</time></trkpt><trkpt lat="40.6161669" lon="17.1295871"><ele>227.60000000000002</ele><time>2026-03-29T08:30:41.971Z</time></trkpt><trkpt lat="40.6160873" lon="17.1294978"><ele>226.0</ele><time>2026-03-29T08:30:42.97Z</time></trkpt><trkpt lat="40.6160121" lon="17.1294193"><ele>225.83333333333331</ele><time>2026-03-29T08:30:43.971Z</time></trkpt><trkpt lat="40.6159391" lon="17.1293478"><ele>225.66666666666666</ele><time>2026-03-29T08:30:44.97Z</time></trkpt><trkpt lat="40.6158732" lon="17.1292769"><ele>225.5</ele><time>2026-03-29T08:30:45.973Z</time></trkpt><trkpt lat="40.6158202" lon="17.1292009"><ele>225.33333333333331</ele><time>2026-03-29T08:30:46.974Z</time></trkpt><trkpt lat="40.615786" lon="17.1291161"><ele>225.16666666666666</ele><time>2026-03-29T08:30:47.973Z</time></trkpt><trkpt lat="40.615769" lon="17.1290284"><ele>225.0</ele><time>2026-03-29T08:30:48.975Z</time></trkpt><trkpt lat="40.6157678" lon="17.1289378"><ele>224.0</ele><time>2026-03-29T08:30:49.973Z</time></trkpt><trkpt lat="40.6157795" lon="17.1288542"><ele>223.0</ele><time>2026-03-29T08:30:50.971Z</time></trkpt><trkpt lat="40.6158243" lon="17.1287059"><ele>222.0</ele><time>2026-03-29T08:30:52.971Z</time></trkpt><trkpt lat="40.6158984" lon="17.1286052"><ele>221.0</ele><time>2026-03-29T08:30:54.971Z</time></trkpt><trkpt lat="40.6159944" lon="17.1286173"><ele>220.0</ele><time>2026-03-29T08:30:56.971Z</time></trkpt><trkpt lat="40.6160554" lon="17.1286493"><ele>219.99999999999997</ele><time>2026-03-29T08:30:57.971Z</time></trkpt><trkpt lat="40.6161236" lon="17.1286786"><ele>220.0</ele><time>2026-03-29T08:30:58.971Z</time></trkpt><trkpt lat="40.6161998" lon="17.1287123"><ele>220.0</ele><time>2026-03-29T08:30:59.971Z</time></trkpt><trkpt lat="40.6162761" lon="17.1287444"><ele>220.0</ele><time>2026-03-29T08:31:00.971Z</time></trkpt><trkpt lat="40.6163518" lon="17.1287756"><ele>219.99999999999997</ele><time>2026-03-29T08:31:01.971Z</time></trkpt><trkpt lat="40.616437" lon="17.1288068"><ele>220.0</ele><time>2026-03-29T08:31:02.971Z</time></trkpt><trkpt lat="40.6165291" lon="17.1288414"><ele>220.2</ele><time>2026-03-29T08:31:03.971Z</time></trkpt><trkpt lat="40.616626" lon="17.1288788"><ele>220.4</ele><time>2026-03-29T08:31:04.971Z</time></trkpt><trkpt lat="40.6167239" lon="17.1289171"><ele>220.60000000000002</ele><time>2026-03-29T08:31:05.97Z</time></trkpt><trkpt lat="40.6168199" lon="17.1289539"><ele>220.8</ele><time>2026-03-29T08:31:06.972Z</time></trkpt><trkpt lat="40.6169165" lon="17.1289907"><ele>221.0</ele><time>2026-03-29T08:31:07.971Z</time></trkpt><trkpt lat="40.6170145" lon="17.1290278"><ele>222.0</ele><time>2026-03-29T08:31:08.971Z</time></trkpt><trkpt lat="40.6171143" lon="17.1290632"><ele>223.00000000000003</ele><time>2026-03-29T08:31:09.971Z</time></trkpt><trkpt lat="40.6172174" lon="17.1291009"><ele>224.00000000000003</ele><time>2026-03-29T08:31:10.972Z</time></trkpt><trkpt lat="40.6173212" lon="17.129138"><ele>225.0</ele><time>2026-03-29T08:31:11.971Z</time></trkpt><trkpt lat="40.6174249" lon="17.1291774"><ele>226.0</ele><time>2026-03-29T08:31:12.971Z</time></trkpt><trkpt lat="40.6175294" lon="17.1292204"><ele>226.0</ele><time>2026-03-29T08:31:13.971Z</time></trkpt><trkpt lat="40.6176329" lon="17.1292628"><ele>226.00000000000003</ele><time>2026-03-29T08:31:14.971Z</time></trkpt><trkpt lat="40.6177313" lon="17.1293031"><ele>226.00000000000003</ele><time>2026-03-29T08:31:15.971Z</time></trkpt><trkpt lat="40.6178283" lon="17.1293406"><ele>226.0</ele><time>2026-03-29T08:31:16.977Z</time></trkpt><trkpt lat="40.6179241" lon="17.1293782"><ele>226.0</ele><time>2026-03-29T08:31:17.974Z</time></trkpt><trkpt lat="40.618019" lon="17.1294173"><ele>227.4</ele><time>2026-03-29T08:31:18.973Z</time></trkpt><trkpt lat="40.6181138" lon="17.1294546"><ele>228.8</ele><time>2026-03-29T08:31:19.975Z</time></trkpt><trkpt lat="40.6182086" lon="17.1294902"><ele>230.20000000000002</ele><time>2026-03-29T08:31:20.974Z</time></trkpt><trkpt lat="40.6183051" lon="17.1295277"><ele>231.60000000000002</ele><time>2026-03-29T08:31:21.974Z</time></trkpt><trkpt lat="40.6184043" lon="17.1295609"><ele>233.0</ele><time>2026-03-29T08:31:22.974Z</time></trkpt><trkpt lat="40.6184999" lon="17.1295979"><ele>233.00000000000003</ele><time>2026-03-29T08:31:23.973Z</time></trkpt><trkpt lat="40.6185876" lon="17.1296319"><ele>233.0</ele><time>2026-03-29T08:31:24.971Z</time></trkpt><trkpt lat="40.6186666" lon="17.1296568"><ele>233.0</ele><time>2026-03-29T08:31:25.97Z</time></trkpt><trkpt lat="40.6187293" lon="17.1296758"><ele>233.0</ele><time>2026-03-29T08:31:26.971Z</time></trkpt><trkpt lat="40.6188187" lon="17.1297063"><ele>233.00000000000003</ele><time>2026-03-29T08:31:28.971Z</time></trkpt><trkpt lat="40.6189015" lon="17.1297561"><ele>233.0</ele><time>2026-03-29T08:31:30.975Z</time></trkpt><trkpt lat="40.6189823" lon="17.1298167"><ele>234.5</ele><time>2026-03-29T08:31:32.97Z</time></trkpt><trkpt lat="40.6190712" lon="17.1298968"><ele>236.0</ele><time>2026-03-29T08:31:34.97Z</time></trkpt><trkpt lat="40.6191843" lon="17.1299872"><ele>237.5</ele><time>2026-03-29T08:31:36.971Z</time></trkpt><trkpt lat="40.6193306" lon="17.1300743"><ele>239.0</ele><time>2026-03-29T08:31:38.971Z</time></trkpt><trkpt lat="40.6194132" lon="17.1301214"><ele>239.66666666666669</ele><time>2026-03-29T08:31:39.971Z</time></trkpt><trkpt lat="40.6195" lon="17.1301688"><ele>240.33333333333334</ele><time>2026-03-29T08:31:40.97Z</time></trkpt><trkpt lat="40.619586" lon="17.1302146"><ele>241.0</ele><time>2026-03-29T08:31:41.97Z</time></trkpt><trkpt lat="40.6196687" lon="17.1302609"><ele>241.66666666666669</ele><time>2026-03-29T08:31:42.971Z</time></trkpt><trkpt lat="40.6197478" lon="17.1303025"><ele>242.33333333333334</ele><time>2026-03-29T08:31:43.97Z</time></trkpt><trkpt lat="40.6198174" lon="17.1303396"><ele>243.0</ele><time>2026-03-29T08:31:44.971Z</time></trkpt><trkpt lat="40.6198762" lon="17.1303714"><ele>243.0</ele><time>2026-03-29T08:31:45.974Z</time></trkpt><trkpt lat="40.619956" lon="17.1304196"><ele>243.0</ele><time>2026-03-29T08:31:47.971Z</time></trkpt><trkpt lat="40.6200591" lon="17.1304661"><ele>243.0</ele><time>2026-03-29T08:31:50.971Z</time></trkpt><trkpt lat="40.6201302" lon="17.13049"><ele>243.0</ele><time>2026-03-29T08:31:53.971Z</time></trkpt><trkpt lat="40.6202162" lon="17.1305253"><ele>243.0</ele><time>2026-03-29T08:31:56.971Z</time></trkpt><trkpt lat="40.6203403" lon="17.1305384"><ele>243.0</ele><time>2026-03-29T08:31:58.971Z</time></trkpt><trkpt lat="40.6204223" lon="17.1305425"><ele>243.0</ele><time>2026-03-29T08:31:59.972Z</time></trkpt><trkpt lat="40.6205095" lon="17.1305482"><ele>243.0</ele><time>2026-03-29T08:32:00.972Z</time></trkpt><trkpt lat="40.620603" lon="17.1305518"><ele>243.0</ele><time>2026-03-29T08:32:01.971Z</time></trkpt><trkpt lat="40.6207003" lon="17.1305567"><ele>243.0</ele><time>2026-03-29T08:32:02.97Z</time></trkpt><trkpt lat="40.6208008" lon="17.130567"><ele>243.0</ele><time>2026-03-29T08:32:03.971Z</time></trkpt><trkpt lat="40.6209028" lon="17.130575"><ele>243.0</ele><time>2026-03-29T08:32:04.971Z</time></trkpt><trkpt lat="40.6210051" lon="17.1305829"><ele>243.0</ele><time>2026-03-29T08:32:05.971Z</time></trkpt><trkpt lat="40.6211083" lon="17.1305938"><ele>243.0</ele><time>2026-03-29T08:32:06.971Z</time></trkpt><trkpt lat="40.6212144" lon="17.1306072"><ele>243.0</ele><time>2026-03-29T08:32:07.971Z</time></trkpt><trkpt lat="40.6213213" lon="17.1306209"><ele>242.8</ele><time>2026-03-29T08:32:08.971Z</time></trkpt><trkpt lat="40.6214321" lon="17.1306328"><ele>242.60000000000002</ele><time>2026-03-29T08:32:09.97Z</time></trkpt><trkpt lat="40.6215401" lon="17.1306428"><ele>242.39999999999998</ele><time>2026-03-29T08:32:10.97Z</time></trkpt><trkpt lat="40.6216408" lon="17.1306458"><ele>242.2</ele><time>2026-03-29T08:32:11.971Z</time></trkpt><trkpt lat="40.6217315" lon="17.1306416"><ele>242.0</ele><time>2026-03-29T08:32:12.971Z</time></trkpt><trkpt lat="40.6218175" lon="17.1306405"><ele>242.00000000000003</ele><time>2026-03-29T08:32:13.971Z</time></trkpt><trkpt lat="40.621898" lon="17.1306315"><ele>242.0</ele><time>2026-03-29T08:32:14.97Z</time></trkpt><trkpt lat="40.6219785" lon="17.1306161"><ele>242.0</ele><time>2026-03-29T08:32:15.973Z</time></trkpt><trkpt lat="40.6220542" lon="17.1305916"><ele>242.0</ele><time>2026-03-29T08:32:16.973Z</time></trkpt><trkpt lat="40.6221302" lon="17.1305617"><ele>242.00000000000003</ele><time>2026-03-29T08:32:17.974Z</time></trkpt><trkpt lat="40.6222051" lon="17.1305269"><ele>242.0</ele><time>2026-03-29T08:32:18.974Z</time></trkpt><trkpt lat="40.6222775" lon="17.1304871"><ele>241.83333333333334</ele><time>2026-03-29T08:32:19.974Z</time></trkpt><trkpt lat="40.622353" lon="17.1304423"><ele>241.66666666666669</ele><time>2026-03-29T08:32:20.974Z</time></trkpt><trkpt lat="40.6224283" lon="17.1303954"><ele>241.5</ele><time>2026-03-29T08:32:21.974Z</time></trkpt><trkpt lat="40.6225046" lon="17.1303498"><ele>241.33333333333331</ele><time>2026-03-29T08:32:22.974Z</time></trkpt><trkpt lat="40.6225813" lon="17.1303033"><ele>241.16666666666666</ele><time>2026-03-29T08:32:23.973Z</time></trkpt><trkpt lat="40.6226578" lon="17.1302593"><ele>241.0</ele><time>2026-03-29T08:32:24.971Z</time></trkpt><trkpt lat="40.6227375" lon="17.1302132"><ele>241.20000000000002</ele><time>2026-03-29T08:32:25.971Z</time></trkpt><trkpt lat="40.6228195" lon="17.1301663"><ele>241.40000000000003</ele><time>2026-03-29T08:32:26.97Z</time></trkpt><trkpt lat="40.6229045" lon="17.1301181"><ele>241.6</ele><time>2026-03-29T08:32:27.971Z</time></trkpt><trkpt lat="40.6229925" lon="17.1300679"><ele>241.8</ele><time>2026-03-29T08:32:28.971Z</time></trkpt><trkpt lat="40.6230851" lon="17.1300217"><ele>242.0</ele><time>2026-03-29T08:32:29.97Z</time></trkpt><trkpt lat="40.6231789" lon="17.1299752"><ele>242.0</ele><time>2026-03-29T08:32:30.971Z</time></trkpt><trkpt lat="40.6232727" lon="17.129927"><ele>242.0</ele><time>2026-03-29T08:32:31.973Z</time></trkpt><trkpt lat="40.6233652" lon="17.1298802"><ele>242.0</ele><time>2026-03-29T08:32:32.971Z</time></trkpt><trkpt lat="40.6234597" lon="17.1298387"><ele>242.0</ele><time>2026-03-29T08:32:33.971Z</time></trkpt><trkpt lat="40.6235579" lon="17.1298055"><ele>242.0</ele><time>2026-03-29T08:32:34.976Z</time></trkpt><trkpt lat="40.6236578" lon="17.1297784"><ele>241.8</ele><time>2026-03-29T08:32:35.971Z</time></trkpt><trkpt lat="40.6237596" lon="17.1297553"><ele>241.6</ele><time>2026-03-29T08:32:36.97Z</time></trkpt><trkpt lat="40.6238631" lon="17.1297338"><ele>241.40000000000003</ele><time>2026-03-29T08:32:37.975Z</time></trkpt><trkpt lat="40.6239663" lon="17.1297165"><ele>241.20000000000002</ele><time>2026-03-29T08:32:38.97Z</time></trkpt><trkpt lat="40.6240684" lon="17.1296979"><ele>241.0</ele><time>2026-03-29T08:32:39.97Z</time></trkpt><trkpt lat="40.6241701" lon="17.129679"><ele>241.0</ele><time>2026-03-29T08:32:40.97Z</time></trkpt><trkpt lat="40.6242718" lon="17.1296635"><ele>241.00000000000003</ele><time>2026-03-29T08:32:41.971Z</time></trkpt><trkpt lat="40.6243706" lon="17.1296479"><ele>241.00000000000003</ele><time>2026-03-29T08:32:42.971Z</time></trkpt><trkpt lat="40.6244688" lon="17.1296304"><ele>241.0</ele><time>2026-03-29T08:32:43.972Z</time></trkpt><trkpt lat="40.6245655" lon="17.1296141"><ele>241.0</ele><time>2026-03-29T08:32:44.972Z</time></trkpt><trkpt lat="40.6246633" lon="17.1295952"><ele>240.83333333333331</ele><time>2026-03-29T08:32:45.971Z</time></trkpt><trkpt lat="40.6247631" lon="17.1295683"><ele>240.66666666666666</ele><time>2026-03-29T08:32:46.971Z</time></trkpt><trkpt lat="40.6248591" lon="17.1295331"><ele>240.5</ele><time>2026-03-29T08:32:47.971Z</time></trkpt><trkpt lat="40.6249452" lon="17.129494"><ele>240.33333333333331</ele><time>2026-03-29T08:32:48.974Z</time></trkpt><trkpt lat="40.6250204" lon="17.129457"><ele>240.16666666666666</ele><time>2026-03-29T08:32:49.974Z</time></trkpt><trkpt lat="40.6250829" lon="17.1294238"><ele>240.0</ele><time>2026-03-29T08:32:50.974Z</time></trkpt><trkpt lat="40.625197" lon="17.1293554"><ele>240.0</ele><time>2026-03-29T08:32:52.97Z</time></trkpt><trkpt lat="40.6252579" lon="17.1293133"><ele>240.0</ele><time>2026-03-29T08:32:53.971Z</time></trkpt><trkpt lat="40.6253212" lon="17.1292705"><ele>240.0</ele><time>2026-03-29T08:32:54.972Z</time></trkpt><trkpt lat="40.6253861" lon="17.1292299"><ele>240.0</ele><time>2026-03-29T08:32:55.971Z</time></trkpt><trkpt lat="40.62545" lon="17.129188"><ele>240.0</ele><time>2026-03-29T08:32:56.971Z</time></trkpt><trkpt lat="40.6255216" lon="17.1291491"><ele>240.0</ele><time>2026-03-29T08:32:57.971Z</time></trkpt><trkpt lat="40.6256045" lon="17.1291061"><ele>240.0</ele><time>2026-03-29T08:32:58.971Z</time></trkpt><trkpt lat="40.6256947" lon="17.129053"><ele>240.0</ele><time>2026-03-29T08:32:59.971Z</time></trkpt><trkpt lat="40.62579" lon="17.1289956"><ele>240.0</ele><time>2026-03-29T08:33:00.971Z</time></trkpt><trkpt lat="40.6258872" lon="17.1289423"><ele>240.0</ele><time>2026-03-29T08:33:01.972Z</time></trkpt><trkpt lat="40.6259846" lon="17.1288912"><ele>240.0</ele><time>2026-03-29T08:33:02.972Z</time></trkpt><trkpt lat="40.6260769" lon="17.1288367"><ele>239.2</ele><time>2026-03-29T08:33:03.971Z</time></trkpt><trkpt lat="40.626164" lon="17.1287823"><ele>238.4</ele><time>2026-03-29T08:33:04.973Z</time></trkpt><trkpt lat="40.6262501" lon="17.1287256"><ele>237.60000000000002</ele><time>2026-03-29T08:33:05.971Z</time></trkpt><trkpt lat="40.6263379" lon="17.1286626"><ele>236.8</ele><time>2026-03-29T08:33:06.971Z</time></trkpt><trkpt lat="40.6264251" lon="17.1285954"><ele>236.0</ele><time>2026-03-29T08:33:07.971Z</time></trkpt><trkpt lat="40.6265087" lon="17.1285263"><ele>236.0</ele><time>2026-03-29T08:33:08.97Z</time></trkpt><trkpt lat="40.6265917" lon="17.1284563"><ele>236.00000000000003</ele><time>2026-03-29T08:33:09.971Z</time></trkpt><trkpt lat="40.6266774" lon="17.1283859"><ele>236.00000000000003</ele><time>2026-03-29T08:33:10.97Z</time></trkpt><trkpt lat="40.6267659" lon="17.1283128"><ele>236.0</ele><time>2026-03-29T08:33:11.971Z</time></trkpt><trkpt lat="40.6268574" lon="17.1282391"><ele>236.0</ele><time>2026-03-29T08:33:12.971Z</time></trkpt><trkpt lat="40.6269506" lon="17.128162"><ele>236.0</ele><time>2026-03-29T08:33:13.972Z</time></trkpt><trkpt lat="40.6270414" lon="17.1280804"><ele>236.00000000000003</ele><time>2026-03-29T08:33:14.971Z</time></trkpt><trkpt lat="40.6271314" lon="17.1279952"><ele>236.00000000000003</ele><time>2026-03-29T08:33:15.975Z</time></trkpt><trkpt lat="40.6272184" lon="17.1279085"><ele>236.0</ele><time>2026-03-29T08:33:16.974Z</time></trkpt><trkpt lat="40.6273019" lon="17.1278192"><ele>236.0</ele><time>2026-03-29T08:33:17.971Z</time></trkpt><trkpt lat="40.6273792" lon="17.1277286"><ele>236.0</ele><time>2026-03-29T08:33:18.974Z</time></trkpt><trkpt lat="40.6274537" lon="17.1276369"><ele>236.00000000000003</ele><time>2026-03-29T08:33:19.972Z</time></trkpt><trkpt lat="40.6275311" lon="17.127545"><ele>236.00000000000003</ele><time>2026-03-29T08:33:20.97Z</time></trkpt><trkpt lat="40.6276098" lon="17.1274476"><ele>236.0</ele><time>2026-03-29T08:33:21.974Z</time></trkpt><trkpt lat="40.6276896" lon="17.127346"><ele>236.0</ele><time>2026-03-29T08:33:22.974Z</time></trkpt><trkpt lat="40.6277697" lon="17.1272436"><ele>235.4</ele><time>2026-03-29T08:33:23.973Z</time></trkpt><trkpt lat="40.6278469" lon="17.1271431"><ele>234.8</ele><time>2026-03-29T08:33:24.97Z</time></trkpt><trkpt lat="40.6279232" lon="17.1270488"><ele>234.20000000000002</ele><time>2026-03-29T08:33:25.971Z</time></trkpt><trkpt lat="40.6279969" lon="17.126956"><ele>233.60000000000002</ele><time>2026-03-29T08:33:26.973Z</time></trkpt><trkpt lat="40.6280688" lon="17.1268658"><ele>233.0</ele><time>2026-03-29T08:33:27.973Z</time></trkpt><trkpt lat="40.6281418" lon="17.126775"><ele>233.0</ele><time>2026-03-29T08:33:28.972Z</time></trkpt><trkpt lat="40.6282151" lon="17.1266847"><ele>233.0</ele><time>2026-03-29T08:33:29.972Z</time></trkpt><trkpt lat="40.6282897" lon="17.1265903"><ele>233.0</ele><time>2026-03-29T08:33:30.973Z</time></trkpt><trkpt lat="40.6283661" lon="17.1264948"><ele>233.0</ele><time>2026-03-29T08:33:31.972Z</time></trkpt><trkpt lat="40.6284428" lon="17.1263953"><ele>233.0</ele><time>2026-03-29T08:33:32.971Z</time></trkpt><trkpt lat="40.6285226" lon="17.1262961"><ele>232.8</ele><time>2026-03-29T08:33:33.972Z</time></trkpt><trkpt lat="40.6286033" lon="17.1261981"><ele>232.60000000000002</ele><time>2026-03-29T08:33:34.972Z</time></trkpt><trkpt lat="40.6286818" lon="17.1260996"><ele>232.39999999999998</ele><time>2026-03-29T08:33:35.973Z</time></trkpt><trkpt lat="40.62876" lon="17.1260013"><ele>232.2</ele><time>2026-03-29T08:33:36.971Z</time></trkpt><trkpt lat="40.628837" lon="17.1259043"><ele>232.0</ele><time>2026-03-29T08:33:37.972Z</time></trkpt><trkpt lat="40.6289164" lon="17.1258082"><ele>231.6</ele><time>2026-03-29T08:33:38.971Z</time></trkpt><trkpt lat="40.6289978" lon="17.1257157"><ele>231.2</ele><time>2026-03-29T08:33:39.972Z</time></trkpt><trkpt lat="40.6290794" lon="17.1256272"><ele>230.8</ele><time>2026-03-29T08:33:40.972Z</time></trkpt><trkpt lat="40.6291585" lon="17.125546"><ele>230.4</ele><time>2026-03-29T08:33:41.972Z</time></trkpt><trkpt lat="40.6292313" lon="17.1254783"><ele>230.0</ele><time>2026-03-29T08:33:42.973Z</time></trkpt><trkpt lat="40.6293034" lon="17.125427"><ele>230.00000000000003</ele><time>2026-03-29T08:33:43.972Z</time></trkpt><trkpt lat="40.6293764" lon="17.1253856"><ele>230.0</ele><time>2026-03-29T08:33:44.971Z</time></trkpt><trkpt lat="40.6294512" lon="17.1253488"><ele>230.0</ele><time>2026-03-29T08:33:45.975Z</time></trkpt><trkpt lat="40.6295309" lon="17.1253172"><ele>230.0</ele><time>2026-03-29T08:33:46.974Z</time></trkpt><trkpt lat="40.6296102" lon="17.1252919"><ele>230.00000000000003</ele><time>2026-03-29T08:33:47.971Z</time></trkpt><trkpt lat="40.6296844" lon="17.1252786"><ele>230.0</ele><time>2026-03-29T08:33:48.971Z</time></trkpt><trkpt lat="40.6297499" lon="17.1252742"><ele>229.8</ele><time>2026-03-29T08:33:49.972Z</time></trkpt><trkpt lat="40.6298463" lon="17.1252992"><ele>229.6</ele><time>2026-03-29T08:33:51.971Z</time></trkpt><trkpt lat="40.6299252" lon="17.1253717"><ele>229.39999999999998</ele><time>2026-03-29T08:33:53.971Z</time></trkpt><trkpt lat="40.6299967" lon="17.1254902"><ele>229.2</ele><time>2026-03-29T08:33:55.971Z</time></trkpt><trkpt lat="40.6300758" lon="17.125596"><ele>229.0</ele><time>2026-03-29T08:33:57.973Z</time></trkpt><trkpt lat="40.630156" lon="17.1257017"><ele>228.99999999999997</ele><time>2026-03-29T08:33:59.972Z</time></trkpt><trkpt lat="40.6302277" lon="17.1257991"><ele>229.0</ele><time>2026-03-29T08:34:01.971Z</time></trkpt><trkpt lat="40.63028" lon="17.1258704"><ele>229.0</ele><time>2026-03-29T08:34:03.971Z</time></trkpt><trkpt lat="40.6303517" lon="17.12596"><ele>229.0</ele><time>2026-03-29T08:34:41.971Z</time></trkpt><trkpt lat="40.6304083" lon="17.12592"><ele>228.99999999999997</ele><time>2026-03-29T08:34:44.971Z</time></trkpt><trkpt lat="40.63044" lon="17.125805"><ele>229.0</ele><time>2026-03-29T08:34:47.971Z</time></trkpt><trkpt lat="40.6304717" lon="17.125675"><ele>228.99999999999997</ele><time>2026-03-29T08:34:49.971Z</time></trkpt><trkpt lat="40.63049" lon="17.1255933"><ele>229.0</ele><time>2026-03-29T08:34:50.971Z</time></trkpt><trkpt lat="40.63051" lon="17.125505"><ele>229.0</ele><time>2026-03-29T08:34:51.972Z</time></trkpt><trkpt lat="40.6305317" lon="17.1254133"><ele>229.0</ele><time>2026-03-29T08:34:52.971Z</time></trkpt><trkpt lat="40.6305583" lon="17.1253133"><ele>228.99999999999997</ele><time>2026-03-29T08:34:53.971Z</time></trkpt><trkpt lat="40.630585" lon="17.1252117"><ele>229.0</ele><time>2026-03-29T08:34:54.971Z</time></trkpt><trkpt lat="40.630615" lon="17.1251033"><ele>229.0</ele><time>2026-03-29T08:34:55.971Z</time></trkpt><trkpt lat="40.6306483" lon="17.1249917"><ele>228.99999999999997</ele><time>2026-03-29T08:34:56.971Z</time></trkpt><trkpt lat="40.6306833" lon="17.124875"><ele>228.99999999999997</ele><time>2026-03-29T08:34:57.971Z</time></trkpt><trkpt lat="40.6307233" lon="17.1247567"><ele>229.0</ele><time>2026-03-29T08:34:58.973Z</time></trkpt><trkpt lat="40.6307633" lon="17.12464"><ele>229.0</ele><time>2026-03-29T08:34:59.97Z</time></trkpt><trkpt lat="40.6308017" lon="17.1245267"><ele>228.66666666666666</ele><time>2026-03-29T08:35:00.97Z</time></trkpt><trkpt lat="40.6308317" lon="17.1244167"><ele>228.33333333333331</ele><time>2026-03-29T08:35:01.97Z</time></trkpt><trkpt lat="40.6308617" lon="17.1243067"><ele>228.0</ele><time>2026-03-29T08:35:02.97Z</time></trkpt><trkpt lat="40.630895" lon="17.1242"><ele>227.66666666666669</ele><time>2026-03-29T08:35:03.975Z</time></trkpt><trkpt lat="40.6309283" lon="17.1240933"><ele>227.33333333333334</ele><time>2026-03-29T08:35:04.97Z</time></trkpt><trkpt lat="40.6309633" lon="17.123985"><ele>227.0</ele><time>2026-03-29T08:35:05.971Z</time></trkpt><trkpt lat="40.6309983" lon="17.1238767"><ele>227.0</ele><time>2026-03-29T08:35:06.972Z</time></trkpt><trkpt lat="40.6310333" lon="17.1237617"><ele>227.0</ele><time>2026-03-29T08:35:07.971Z</time></trkpt><trkpt lat="40.631065" lon="17.1236417"><ele>227.0</ele><time>2026-03-29T08:35:08.971Z</time></trkpt><trkpt lat="40.6310917" lon="17.12352"><ele>227.0</ele><time>2026-03-29T08:35:09.971Z</time></trkpt><trkpt lat="40.6311183" lon="17.1233967"><ele>227.0</ele><time>2026-03-29T08:35:10.971Z</time></trkpt><trkpt lat="40.631145" lon="17.123275"><ele>227.50000000000003</ele><time>2026-03-29T08:35:11.971Z</time></trkpt><trkpt lat="40.6311717" lon="17.1231517"><ele>228.0</ele><time>2026-03-29T08:35:12.971Z</time></trkpt><trkpt lat="40.631195" lon="17.123035"><ele>228.5</ele><time>2026-03-29T08:35:13.971Z</time></trkpt><trkpt lat="40.6312183" lon="17.1229267"><ele>229.0</ele><time>2026-03-29T08:35:14.97Z</time></trkpt><trkpt lat="40.63124" lon="17.1228317"><ele>229.50000000000003</ele><time>2026-03-29T08:35:15.974Z</time></trkpt><trkpt lat="40.6312567" lon="17.1227483"><ele>230.0</ele><time>2026-03-29T08:35:16.974Z</time></trkpt><trkpt lat="40.6312783" lon="17.1226317"><ele>230.00000000000003</ele><time>2026-03-29T08:35:18.973Z</time></trkpt><trkpt lat="40.6312933" lon="17.1225467"><ele>230.0</ele><time>2026-03-29T08:35:20.973Z</time></trkpt><trkpt lat="40.6313017" lon="17.12243"><ele>230.0</ele><time>2026-03-29T08:35:22.972Z</time></trkpt><trkpt lat="40.6312867" lon="17.1222867"><ele>230.0</ele><time>2026-03-29T08:35:24.972Z</time></trkpt><trkpt lat="40.6312667" lon="17.122175"><ele>230.00000000000003</ele><time>2026-03-29T08:35:26.979Z</time></trkpt><trkpt lat="40.631245" lon="17.1220733"><ele>230.0</ele><time>2026-03-29T08:35:28.973Z</time></trkpt><trkpt lat="40.6312067" lon="17.1219117"><ele>230.00000000000003</ele><time>2026-03-29T08:35:30.972Z</time></trkpt><trkpt lat="40.6311867" lon="17.12181"><ele>230.0</ele><time>2026-03-29T08:35:31.973Z</time></trkpt><trkpt lat="40.631165" lon="17.1217017"><ele>230.0</ele><time>2026-03-29T08:35:32.975Z</time></trkpt><trkpt lat="40.6311467" lon="17.1215983"><ele>230.0</ele><time>2026-03-29T08:35:33.973Z</time></trkpt><trkpt lat="40.6311333" lon="17.1215083"><ele>230.00000000000003</ele><time>2026-03-29T08:35:34.972Z</time></trkpt><trkpt lat="40.6311133" lon="17.121355"><ele>230.0</ele><time>2026-03-29T08:35:36.972Z</time></trkpt><trkpt lat="40.6310967" lon="17.1212017"><ele>230.33333333333334</ele><time>2026-03-29T08:35:38.973Z</time></trkpt><trkpt lat="40.63109" lon="17.1210417"><ele>230.66666666666669</ele><time>2026-03-29T08:35:40.972Z</time></trkpt><trkpt lat="40.6310817" lon="17.1209533"><ele>231.0</ele><time>2026-03-29T08:35:41.973Z</time></trkpt><trkpt lat="40.6310767" lon="17.12086"><ele>231.33333333333331</ele><time>2026-03-29T08:35:42.972Z</time></trkpt><trkpt lat="40.6310667" lon="17.120765"><ele>231.66666666666666</ele><time>2026-03-29T08:35:43.973Z</time></trkpt><trkpt lat="40.63106" lon="17.12066"><ele>232.0</ele><time>2026-03-29T08:35:44.972Z</time></trkpt><trkpt lat="40.6310533" lon="17.120545"><ele>232.49999999999997</ele><time>2026-03-29T08:35:45.974Z</time></trkpt><trkpt lat="40.6310467" lon="17.1204317"><ele>233.0</ele><time>2026-03-29T08:35:46.973Z</time></trkpt><trkpt lat="40.63104" lon="17.120315"><ele>233.5</ele><time>2026-03-29T08:35:47.971Z</time></trkpt><trkpt lat="40.6310383" lon="17.120205"><ele>234.0</ele><time>2026-03-29T08:35:48.973Z</time></trkpt><trkpt lat="40.6310367" lon="17.120105"><ele>234.49999999999997</ele><time>2026-03-29T08:35:49.972Z</time></trkpt><trkpt lat="40.6310333" lon="17.1200117"><ele>235.0</ele><time>2026-03-29T08:35:50.973Z</time></trkpt><trkpt lat="40.6310317" lon="17.1199217"><ele>235.14285714285714</ele><time>2026-03-29T08:35:51.973Z</time></trkpt><trkpt lat="40.6310283" lon="17.119835"><ele>235.28571428571428</ele><time>2026-03-29T08:35:52.972Z</time></trkpt><trkpt lat="40.6310217" lon="17.1197467"><ele>235.42857142857142</ele><time>2026-03-29T08:35:53.971Z</time></trkpt><trkpt lat="40.6310117" lon="17.11966"><ele>235.57142857142856</ele><time>2026-03-29T08:35:54.973Z</time></trkpt><trkpt lat="40.6309983" lon="17.11957"><ele>235.71428571428572</ele><time>2026-03-29T08:35:55.973Z</time></trkpt><trkpt lat="40.630985" lon="17.1194783"><ele>235.85714285714283</ele><time>2026-03-29T08:35:56.972Z</time></trkpt><trkpt lat="40.630975" lon="17.119385"><ele>236.0</ele><time>2026-03-29T08:35:57.972Z</time></trkpt><trkpt lat="40.6309683" lon="17.119285"><ele>236.00000000000003</ele><time>2026-03-29T08:35:58.973Z</time></trkpt><trkpt lat="40.630965" lon="17.11918"><ele>236.0</ele><time>2026-03-29T08:35:59.972Z</time></trkpt><trkpt lat="40.6309667" lon="17.11907"><ele>236.0</ele><time>2026-03-29T08:36:00.972Z</time></trkpt><trkpt lat="40.6309717" lon="17.1189533"><ele>236.0</ele><time>2026-03-29T08:36:01.973Z</time></trkpt><trkpt lat="40.630975" lon="17.1188433"><ele>236.00000000000003</ele><time>2026-03-29T08:36:02.972Z</time></trkpt><trkpt lat="40.63098" lon="17.1187383"><ele>236.0</ele><time>2026-03-29T08:36:03.971Z</time></trkpt><trkpt lat="40.6309867" lon="17.11864"><ele>235.66666666666669</ele><time>2026-03-29T08:36:04.969Z</time></trkpt><trkpt lat="40.6309883" lon="17.1185517"><ele>235.33333333333334</ele><time>2026-03-29T08:36:05.971Z</time></trkpt><trkpt lat="40.6309933" lon="17.1184133"><ele>235.0</ele><time>2026-03-29T08:36:07.972Z</time></trkpt><trkpt lat="40.6310017" lon="17.1183217"><ele>234.66666666666669</ele><time>2026-03-29T08:36:10.971Z</time></trkpt><trkpt lat="40.6310917" lon="17.1183333"><ele>234.33333333333334</ele><time>2026-03-29T08:36:14.972Z</time></trkpt><trkpt lat="40.6311699" lon="17.118353"><ele>234.0</ele><time>2026-03-29T08:36:30.971Z</time></trkpt><trkpt lat="40.6312701" lon="17.1183775"><ele>234.66666666666666</ele><time>2026-03-29T08:36:32.972Z</time></trkpt><trkpt lat="40.6313975" lon="17.118412"><ele>235.33333333333331</ele><time>2026-03-29T08:36:34.971Z</time></trkpt><trkpt lat="40.6314681" lon="17.1184321"><ele>236.0</ele><time>2026-03-29T08:36:35.971Z</time></trkpt><trkpt lat="40.6315418" lon="17.1184535"><ele>236.66666666666666</ele><time>2026-03-29T08:36:36.972Z</time></trkpt><trkpt lat="40.6316142" lon="17.1184767"><ele>237.33333333333331</ele><time>2026-03-29T08:36:37.97Z</time></trkpt><trkpt lat="40.6316832" lon="17.1184998"><ele>238.0</ele><time>2026-03-29T08:36:38.971Z</time></trkpt><trkpt lat="40.6317515" lon="17.1185193"><ele>237.99999999999997</ele><time>2026-03-29T08:36:39.971Z</time></trkpt><trkpt lat="40.6318198" lon="17.1185348"><ele>238.0</ele><time>2026-03-29T08:36:40.971Z</time></trkpt><trkpt lat="40.6318866" lon="17.1185475"><ele>238.0</ele><time>2026-03-29T08:36:41.971Z</time></trkpt><trkpt lat="40.6319508" lon="17.1185601"><ele>238.0</ele><time>2026-03-29T08:36:42.971Z</time></trkpt><trkpt lat="40.6320765" lon="17.1185908"><ele>237.99999999999997</ele><time>2026-03-29T08:36:44.971Z</time></trkpt><trkpt lat="40.6321413" lon="17.1186119"><ele>238.0</ele><time>2026-03-29T08:36:45.971Z</time></trkpt><trkpt lat="40.6322049" lon="17.1186289"><ele>238.4</ele><time>2026-03-29T08:36:46.974Z</time></trkpt><trkpt lat="40.6322683" lon="17.1186456"><ele>238.8</ele><time>2026-03-29T08:36:47.973Z</time></trkpt><trkpt lat="40.6323881" lon="17.1186809"><ele>239.2</ele><time>2026-03-29T08:36:49.97Z</time></trkpt><trkpt lat="40.6324921" lon="17.1187156"><ele>239.6</ele><time>2026-03-29T08:36:51.97Z</time></trkpt><trkpt lat="40.6325609" lon="17.118738"><ele>240.0</ele><time>2026-03-29T08:36:54.971Z</time></trkpt><trkpt lat="40.632654" lon="17.1187663"><ele>240.0</ele><time>2026-03-29T08:37:00.97Z</time></trkpt><trkpt lat="40.6327564" lon="17.1187893"><ele>240.0</ele><time>2026-03-29T08:37:02.97Z</time></trkpt><trkpt lat="40.6328487" lon="17.1188164"><ele>240.0</ele><time>2026-03-29T08:37:04.971Z</time></trkpt><trkpt lat="40.6329333" lon="17.118831"><ele>240.0</ele><time>2026-03-29T08:37:06.971Z</time></trkpt><trkpt lat="40.6330078" lon="17.1188238"><ele>240.0</ele><time>2026-03-29T08:37:08.971Z</time></trkpt><trkpt lat="40.6330587" lon="17.1187593"><ele>240.0</ele><time>2026-03-29T08:37:10.972Z</time></trkpt><trkpt lat="40.6330972" lon="17.1186358"><ele>239.83333333333334</ele><time>2026-03-29T08:37:12.971Z</time></trkpt><trkpt lat="40.633144" lon="17.1184797"><ele>239.66666666666669</ele><time>2026-03-29T08:37:14.971Z</time></trkpt><trkpt lat="40.6331693" lon="17.1183935"><ele>239.5</ele><time>2026-03-29T08:37:15.973Z</time></trkpt><trkpt lat="40.6331984" lon="17.1183018"><ele>239.33333333333334</ele><time>2026-03-29T08:37:16.974Z</time></trkpt><trkpt lat="40.6332298" lon="17.1182071"><ele>239.16666666666669</ele><time>2026-03-29T08:37:17.971Z</time></trkpt><trkpt lat="40.6332604" lon="17.1181143"><ele>239.0</ele><time>2026-03-29T08:37:18.971Z</time></trkpt><trkpt lat="40.6332923" lon="17.1180202"><ele>239.00000000000003</ele><time>2026-03-29T08:37:19.971Z</time></trkpt><trkpt lat="40.6333256" lon="17.1179247"><ele>239.0</ele><time>2026-03-29T08:37:20.972Z</time></trkpt><trkpt lat="40.6333578" lon="17.1178359"><ele>239.00000000000003</ele><time>2026-03-29T08:37:21.972Z</time></trkpt><trkpt lat="40.6333937" lon="17.1177565"><ele>239.00000000000003</ele><time>2026-03-29T08:37:22.971Z</time></trkpt><trkpt lat="40.6334306" lon="17.1176775"><ele>239.0</ele><time>2026-03-29T08:37:23.971Z</time></trkpt><trkpt lat="40.633466" lon="17.1175948"><ele>239.00000000000003</ele><time>2026-03-29T08:37:24.971Z</time></trkpt><trkpt lat="40.6335028" lon="17.1175099"><ele>239.00000000000003</ele><time>2026-03-29T08:37:25.971Z</time></trkpt><trkpt lat="40.6335368" lon="17.1174318"><ele>238.6</ele><time>2026-03-29T08:37:26.971Z</time></trkpt><trkpt lat="40.6335923" lon="17.1173066"><ele>238.2</ele><time>2026-03-29T08:37:28.971Z</time></trkpt><trkpt lat="40.6336382" lon="17.1171974"><ele>237.79999999999998</ele><time>2026-03-29T08:37:30.971Z</time></trkpt><trkpt lat="40.6336792" lon="17.1170513"><ele>237.39999999999998</ele><time>2026-03-29T08:37:32.971Z</time></trkpt><trkpt lat="40.6337236" lon="17.1169036"><ele>237.0</ele><time>2026-03-29T08:37:34.972Z</time></trkpt><trkpt lat="40.6337471" lon="17.1167544"><ele>236.99999999999997</ele><time>2026-03-29T08:37:36.972Z</time></trkpt><trkpt lat="40.6337635" lon="17.116667"><ele>237.0</ele><time>2026-03-29T08:37:40.971Z</time></trkpt><trkpt lat="40.6337802" lon="17.1165856"><ele>236.99999999999997</ele><time>2026-03-29T08:37:44.971Z</time></trkpt><trkpt lat="40.6337849" lon="17.116495"><ele>236.99999999999997</ele><time>2026-03-29T08:37:47.974Z</time></trkpt><trkpt lat="40.6337979" lon="17.1163738"><ele>237.0</ele><time>2026-03-29T08:37:50.974Z</time></trkpt><trkpt lat="40.6338078" lon="17.1162815"><ele>236.99999999999997</ele><time>2026-03-29T08:37:52.973Z</time></trkpt><trkpt lat="40.6338215" lon="17.1161899"><ele>236.99999999999997</ele><time>2026-03-29T08:37:54.97Z</time></trkpt><trkpt lat="40.633837" lon="17.1161024"><ele>236.83333333333334</ele><time>2026-03-29T08:37:56.971Z</time></trkpt><trkpt lat="40.6338599" lon="17.1160113"><ele>236.66666666666669</ele><time>2026-03-29T08:37:58.972Z</time></trkpt><trkpt lat="40.633888" lon="17.1159103"><ele>236.5</ele><time>2026-03-29T08:38:00.972Z</time></trkpt><trkpt lat="40.633923" lon="17.1157963"><ele>236.33333333333334</ele><time>2026-03-29T08:38:02.972Z</time></trkpt><trkpt lat="40.6339659" lon="17.115685"><ele>236.16666666666669</ele><time>2026-03-29T08:38:04.971Z</time></trkpt><trkpt lat="40.6340131" lon="17.1155895"><ele>236.0</ele><time>2026-03-29T08:38:06.972Z</time></trkpt><trkpt lat="40.6340633" lon="17.1154932"><ele>236.0</ele><time>2026-03-29T08:38:08.971Z</time></trkpt><trkpt lat="40.634115" lon="17.1153941"><ele>236.00000000000003</ele><time>2026-03-29T08:38:10.971Z</time></trkpt><trkpt lat="40.6341653" lon="17.1152813"><ele>236.00000000000003</ele><time>2026-03-29T08:38:12.972Z</time></trkpt><trkpt lat="40.6342181" lon="17.1151577"><ele>236.0</ele><time>2026-03-29T08:38:14.972Z</time></trkpt><trkpt lat="40.6342715" lon="17.1150253"><ele>236.0</ele><time>2026-03-29T08:38:16.972Z</time></trkpt><trkpt lat="40.6343122" lon="17.1148834"><ele>236.0</ele><time>2026-03-29T08:38:18.972Z</time></trkpt><trkpt lat="40.6343389" lon="17.1147371"><ele>236.00000000000003</ele><time>2026-03-29T08:38:20.974Z</time></trkpt><trkpt lat="40.634363" lon="17.1146017"><ele>236.00000000000003</ele><time>2026-03-29T08:38:22.972Z</time></trkpt><trkpt lat="40.6343722" lon="17.1144813"><ele>236.0</ele><time>2026-03-29T08:38:24.97Z</time></trkpt><trkpt lat="40.6343882" lon="17.1143432"><ele>236.0</ele><time>2026-03-29T08:38:26.971Z</time></trkpt><trkpt lat="40.6344019" lon="17.1141825"><ele>236.0</ele><time>2026-03-29T08:38:28.971Z</time></trkpt><trkpt lat="40.6344115" lon="17.1140934"><ele>236.0</ele><time>2026-03-29T08:38:29.972Z</time></trkpt><trkpt lat="40.6344242" lon="17.1140009"><ele>236.0</ele><time>2026-03-29T08:38:30.972Z</time></trkpt><trkpt lat="40.6344405" lon="17.1139108"><ele>236.0</ele><time>2026-03-29T08:38:31.972Z</time></trkpt><trkpt lat="40.6344536" lon="17.1138295"><ele>236.0</ele><time>2026-03-29T08:38:32.972Z</time></trkpt><trkpt lat="40.6344685" lon="17.1137021"><ele>236.0</ele><time>2026-03-29T08:38:34.972Z</time></trkpt><trkpt lat="40.6344823" lon="17.1136122"><ele>236.0</ele><time>2026-03-29T08:38:36.972Z</time></trkpt><trkpt lat="40.6345014" lon="17.1135306"><ele>236.00000000000003</ele><time>2026-03-29T08:38:39.971Z</time></trkpt><trkpt lat="40.6345437" lon="17.1134274"><ele>236.0</ele><time>2026-03-29T08:38:41.972Z</time></trkpt><trkpt lat="40.6345775" lon="17.1133487"><ele>236.0</ele><time>2026-03-29T08:38:42.971Z</time></trkpt><trkpt lat="40.6346166" lon="17.1132536"><ele>236.0</ele><time>2026-03-29T08:38:43.972Z</time></trkpt><trkpt lat="40.6346575" lon="17.1131534"><ele>236.00000000000003</ele><time>2026-03-29T08:38:44.972Z</time></trkpt><trkpt lat="40.6346995" lon="17.113052"><ele>236.0</ele><time>2026-03-29T08:38:45.974Z</time></trkpt><trkpt lat="40.6347404" lon="17.1129569"><ele>235.50000000000003</ele><time>2026-03-29T08:38:46.973Z</time></trkpt><trkpt lat="40.6347765" lon="17.1128743"><ele>235.0</ele><time>2026-03-29T08:38:47.974Z</time></trkpt><trkpt lat="40.6348356" lon="17.1127479"><ele>234.5</ele><time>2026-03-29T08:38:49.973Z</time></trkpt><trkpt lat="40.6348759" lon="17.1126781"><ele>234.0</ele><time>2026-03-29T08:38:51.974Z</time></trkpt><trkpt lat="40.6349518" lon="17.1126698"><ele>233.50000000000003</ele><time>2026-03-29T08:38:54.97Z</time></trkpt><trkpt lat="40.6350477" lon="17.1127124"><ele>233.0</ele><time>2026-03-29T08:38:56.971Z</time></trkpt><trkpt lat="40.6351121" lon="17.1127316"><ele>233.0</ele><time>2026-03-29T08:38:57.971Z</time></trkpt><trkpt lat="40.6351926" lon="17.1127679"><ele>233.0</ele><time>2026-03-29T08:38:58.973Z</time></trkpt><trkpt lat="40.6352803" lon="17.1128212"><ele>233.0</ele><time>2026-03-29T08:38:59.972Z</time></trkpt><trkpt lat="40.635371" lon="17.1128855"><ele>233.0</ele><time>2026-03-29T08:39:00.973Z</time></trkpt><trkpt lat="40.6354606" lon="17.1129453"><ele>233.0</ele><time>2026-03-29T08:39:01.972Z</time></trkpt><trkpt lat="40.6355488" lon="17.113001"><ele>234.4</ele><time>2026-03-29T08:39:02.972Z</time></trkpt><trkpt lat="40.6356345" lon="17.1130555"><ele>235.8</ele><time>2026-03-29T08:39:03.972Z</time></trkpt><trkpt lat="40.6357219" lon="17.1131084"><ele>237.2</ele><time>2026-03-29T08:39:04.971Z</time></trkpt><trkpt lat="40.6358162" lon="17.1131666"><ele>238.6</ele><time>2026-03-29T08:39:05.972Z</time></trkpt><trkpt lat="40.6359168" lon="17.113227"><ele>240.0</ele><time>2026-03-29T08:39:06.972Z</time></trkpt><trkpt lat="40.6360153" lon="17.1132875"><ele>240.4</ele><time>2026-03-29T08:39:07.972Z</time></trkpt><trkpt lat="40.6361127" lon="17.1133474"><ele>240.8</ele><time>2026-03-29T08:39:08.971Z</time></trkpt><trkpt lat="40.6362138" lon="17.1134086"><ele>241.2</ele><time>2026-03-29T08:39:09.972Z</time></trkpt><trkpt lat="40.6363172" lon="17.1134693"><ele>241.6</ele><time>2026-03-29T08:39:10.972Z</time></trkpt><trkpt lat="40.6364237" lon="17.1135348"><ele>242.0</ele><time>2026-03-29T08:39:11.972Z</time></trkpt><trkpt lat="40.6365297" lon="17.1136032"><ele>242.6</ele><time>2026-03-29T08:39:12.973Z</time></trkpt><trkpt lat="40.6366239" lon="17.1136673"><ele>243.2</ele><time>2026-03-29T08:39:13.975Z</time></trkpt><trkpt lat="40.6367021" lon="17.1137238"><ele>243.8</ele><time>2026-03-29T08:39:14.971Z</time></trkpt><trkpt lat="40.6367659" lon="17.1137747"><ele>244.4</ele><time>2026-03-29T08:39:15.973Z</time></trkpt><trkpt lat="40.6368562" lon="17.1138824"><ele>245.0</ele><time>2026-03-29T08:39:17.974Z</time></trkpt><trkpt lat="40.6368877" lon="17.1139622"><ele>245.00000000000003</ele><time>2026-03-29T08:39:18.971Z</time></trkpt><trkpt lat="40.6369206" lon="17.1140577"><ele>245.0</ele><time>2026-03-29T08:39:19.972Z</time></trkpt><trkpt lat="40.6369594" lon="17.1141615"><ele>245.0</ele><time>2026-03-29T08:39:20.972Z</time></trkpt><trkpt lat="40.6370017" lon="17.1142723"><ele>245.0</ele><time>2026-03-29T08:39:21.972Z</time></trkpt><trkpt lat="40.6370416" lon="17.1143812"><ele>245.00000000000003</ele><time>2026-03-29T08:39:22.97Z</time></trkpt><trkpt lat="40.6370753" lon="17.1144813"><ele>245.0</ele><time>2026-03-29T08:39:23.972Z</time></trkpt><trkpt lat="40.6371072" lon="17.114572"><ele>246.33333333333334</ele><time>2026-03-29T08:39:24.972Z</time></trkpt><trkpt lat="40.6371402" lon="17.1146576"><ele>247.66666666666669</ele><time>2026-03-29T08:39:25.972Z</time></trkpt><trkpt lat="40.6371711" lon="17.1147367"><ele>249.0</ele><time>2026-03-29T08:39:26.972Z</time></trkpt><trkpt lat="40.6372411" lon="17.1148613"><ele>250.33333333333331</ele><time>2026-03-29T08:39:28.972Z</time></trkpt><trkpt lat="40.6373452" lon="17.1149383"><ele>251.66666666666666</ele><time>2026-03-29T08:39:30.973Z</time></trkpt><trkpt lat="40.6374055" lon="17.1149736"><ele>253.0</ele><time>2026-03-29T08:39:31.972Z</time></trkpt><trkpt lat="40.6374702" lon="17.1150095"><ele>253.00000000000003</ele><time>2026-03-29T08:39:32.972Z</time></trkpt><trkpt lat="40.6375334" lon="17.115045"><ele>253.0</ele><time>2026-03-29T08:39:33.972Z</time></trkpt><trkpt lat="40.637598" lon="17.115079"><ele>253.00000000000003</ele><time>2026-03-29T08:39:34.972Z</time></trkpt><trkpt lat="40.637663" lon="17.1151094"><ele>253.00000000000003</ele><time>2026-03-29T08:39:35.972Z</time></trkpt><trkpt lat="40.637728" lon="17.115139"><ele>253.0</ele><time>2026-03-29T08:39:36.973Z</time></trkpt><trkpt lat="40.637793" lon="17.1151688"><ele>253.00000000000003</ele><time>2026-03-29T08:39:37.972Z</time></trkpt><trkpt lat="40.6378555" lon="17.1152037"><ele>253.00000000000003</ele><time>2026-03-29T08:39:38.972Z</time></trkpt><trkpt lat="40.6379158" lon="17.1152349"><ele>253.49999999999997</ele><time>2026-03-29T08:39:39.972Z</time></trkpt><trkpt lat="40.6379766" lon="17.1152579"><ele>254.0</ele><time>2026-03-29T08:39:40.972Z</time></trkpt><trkpt lat="40.6380992" lon="17.115269"><ele>254.5</ele><time>2026-03-29T08:39:42.974Z</time></trkpt><trkpt lat="40.6381656" lon="17.1152596"><ele>255.0</ele><time>2026-03-29T08:39:43.972Z</time></trkpt><trkpt lat="40.638236" lon="17.1152412"><ele>255.49999999999997</ele><time>2026-03-29T08:39:44.971Z</time></trkpt><trkpt lat="40.6383078" lon="17.1152172"><ele>256.0</ele><time>2026-03-29T08:39:45.974Z</time></trkpt><trkpt lat="40.6383816" lon="17.1151932"><ele>255.99999999999997</ele><time>2026-03-29T08:39:46.974Z</time></trkpt><trkpt lat="40.638459" lon="17.115169"><ele>256.0</ele><time>2026-03-29T08:39:47.973Z</time></trkpt><trkpt lat="40.6385391" lon="17.1151456"><ele>256.0</ele><time>2026-03-29T08:39:48.97Z</time></trkpt><trkpt lat="40.63862" lon="17.1151214"><ele>256.0</ele><time>2026-03-29T08:39:49.972Z</time></trkpt><trkpt lat="40.638696" lon="17.1150963"><ele>255.99999999999997</ele><time>2026-03-29T08:39:50.976Z</time></trkpt><trkpt lat="40.6387662" lon="17.1150675"><ele>256.0</ele><time>2026-03-29T08:39:51.972Z</time></trkpt><trkpt lat="40.6388396" lon="17.1150412"><ele>256.8333333333333</ele><time>2026-03-29T08:39:52.971Z</time></trkpt><trkpt lat="40.6389191" lon="17.1150141"><ele>257.66666666666663</ele><time>2026-03-29T08:39:53.972Z</time></trkpt><trkpt lat="40.6390033" lon="17.1149876"><ele>258.5</ele><time>2026-03-29T08:39:54.972Z</time></trkpt><trkpt lat="40.6390843" lon="17.1149569"><ele>259.3333333333333</ele><time>2026-03-29T08:39:55.972Z</time></trkpt><trkpt lat="40.6391561" lon="17.114917"><ele>260.1666666666667</ele><time>2026-03-29T08:39:56.972Z</time></trkpt><trkpt lat="40.6392198" lon="17.1148655"><ele>261.0</ele><time>2026-03-29T08:39:57.973Z</time></trkpt><trkpt lat="40.6392769" lon="17.1147982"><ele>261.0</ele><time>2026-03-29T08:39:58.971Z</time></trkpt><trkpt lat="40.6393269" lon="17.114721"><ele>261.0</ele><time>2026-03-29T08:39:59.972Z</time></trkpt><trkpt lat="40.6393779" lon="17.1146509"><ele>261.0</ele><time>2026-03-29T08:40:00.972Z</time></trkpt><trkpt lat="40.6394324" lon="17.1145973"><ele>261.0</ele><time>2026-03-29T08:40:01.972Z</time></trkpt><trkpt lat="40.639497" lon="17.1145609"><ele>261.0</ele><time>2026-03-29T08:40:02.972Z</time></trkpt><trkpt lat="40.6395657" lon="17.1145429"><ele>261.0</ele><time>2026-03-29T08:40:03.972Z</time></trkpt><trkpt lat="40.6396334" lon="17.1145329"><ele>261.0</ele><time>2026-03-29T08:40:04.972Z</time></trkpt><trkpt lat="40.6397492" lon="17.1145141"><ele>262.1666666666667</ele><time>2026-03-29T08:40:06.972Z</time></trkpt><trkpt lat="40.6398514" lon="17.1145318"><ele>263.3333333333333</ele><time>2026-03-29T08:40:08.973Z</time></trkpt><trkpt lat="40.6399488" lon="17.1145993"><ele>264.5</ele><time>2026-03-29T08:40:10.974Z</time></trkpt><trkpt lat="40.6400049" lon="17.1146477"><ele>265.66666666666663</ele><time>2026-03-29T08:40:11.972Z</time></trkpt><trkpt lat="40.6400676" lon="17.114688"><ele>266.8333333333333</ele><time>2026-03-29T08:40:12.972Z</time></trkpt><trkpt lat="40.6401366" lon="17.1147288"><ele>268.0</ele><time>2026-03-29T08:40:13.972Z</time></trkpt><trkpt lat="40.6402025" lon="17.1147677"><ele>268.0</ele><time>2026-03-29T08:40:14.972Z</time></trkpt><trkpt lat="40.6402672" lon="17.1147963"><ele>268.0</ele><time>2026-03-29T08:40:15.974Z</time></trkpt><trkpt lat="40.6403348" lon="17.1148159"><ele>268.0</ele><time>2026-03-29T08:40:16.974Z</time></trkpt><trkpt lat="40.6404083" lon="17.1148285"><ele>268.0</ele><time>2026-03-29T08:40:17.971Z</time></trkpt><trkpt lat="40.6404863" lon="17.1148303"><ele>268.0</ele><time>2026-03-29T08:40:18.972Z</time></trkpt><trkpt lat="40.6405641" lon="17.1148267"><ele>268.0</ele><time>2026-03-29T08:40:19.972Z</time></trkpt><trkpt lat="40.6406423" lon="17.1148208"><ele>268.0</ele><time>2026-03-29T08:40:20.972Z</time></trkpt><trkpt lat="40.6407141" lon="17.1148214"><ele>269.4</ele><time>2026-03-29T08:40:21.972Z</time></trkpt><trkpt lat="40.640823" lon="17.1148708"><ele>270.8</ele><time>2026-03-29T08:40:23.973Z</time></trkpt><trkpt lat="40.6408827" lon="17.1149545"><ele>272.2</ele><time>2026-03-29T08:40:25.972Z</time></trkpt><trkpt lat="40.6408701" lon="17.1150413"><ele>273.6</ele><time>2026-03-29T08:40:27.972Z</time></trkpt><trkpt lat="40.6407911" lon="17.115133"><ele>275.0</ele><time>2026-03-29T08:40:29.972Z</time></trkpt><trkpt lat="40.6407173" lon="17.1151754"><ele>275.1666666666667</ele><time>2026-03-29T08:40:30.972Z</time></trkpt><trkpt lat="40.64064" lon="17.1152171"><ele>275.33333333333337</ele><time>2026-03-29T08:40:31.972Z</time></trkpt><trkpt lat="40.6405637" lon="17.1152706"><ele>275.5</ele><time>2026-03-29T08:40:32.974Z</time></trkpt><trkpt lat="40.6404946" lon="17.1153358"><ele>275.6666666666667</ele><time>2026-03-29T08:40:33.971Z</time></trkpt><trkpt lat="40.6404308" lon="17.1154057"><ele>275.8333333333333</ele><time>2026-03-29T08:40:34.972Z</time></trkpt><trkpt lat="40.6403758" lon="17.1154695"><ele>276.0</ele><time>2026-03-29T08:40:35.972Z</time></trkpt><trkpt lat="40.6403284" lon="17.1155278"><ele>275.2</ele><time>2026-03-29T08:40:36.972Z</time></trkpt><trkpt lat="40.6402453" lon="17.1156308"><ele>274.40000000000003</ele><time>2026-03-29T08:40:38.972Z</time></trkpt><trkpt lat="40.6401587" lon="17.1157472"><ele>273.6</ele><time>2026-03-29T08:40:40.974Z</time></trkpt><trkpt lat="40.6401198" lon="17.1158174"><ele>272.8</ele><time>2026-03-29T08:40:41.974Z</time></trkpt><trkpt lat="40.6400711" lon="17.1159603"><ele>272.0</ele><time>2026-03-29T08:40:43.971Z</time></trkpt><trkpt lat="40.6400478" lon="17.1161054"><ele>272.0</ele><time>2026-03-29T08:40:45.974Z</time></trkpt><trkpt lat="40.6400385" lon="17.1162535"><ele>272.0</ele><time>2026-03-29T08:40:47.971Z</time></trkpt><trkpt lat="40.640046" lon="17.1163959"><ele>272.0</ele><time>2026-03-29T08:40:49.971Z</time></trkpt><trkpt lat="40.6400651" lon="17.1165124"><ele>272.0</ele><time>2026-03-29T08:40:51.971Z</time></trkpt><trkpt lat="40.6401103" lon="17.1165988"><ele>272.0</ele><time>2026-03-29T08:40:53.971Z</time></trkpt><trkpt lat="40.6401911" lon="17.1166632"><ele>272.5</ele><time>2026-03-29T08:40:55.971Z</time></trkpt><trkpt lat="40.6402778" lon="17.1167292"><ele>273.0</ele><time>2026-03-29T08:40:57.971Z</time></trkpt><trkpt lat="40.6403576" lon="17.1168013"><ele>273.5</ele><time>2026-03-29T08:40:59.972Z</time></trkpt><trkpt lat="40.640417" lon="17.1168358"><ele>274.0</ele><time>2026-03-29T08:41:01.972Z</time></trkpt><trkpt lat="40.6404403" lon="17.1167456"><ele>274.5</ele><time>2026-03-29T08:41:04.971Z</time></trkpt><trkpt lat="40.6403995" lon="17.1166754"><ele>275.0</ele><time>2026-03-29T08:41:06.971Z</time></trkpt><trkpt lat="40.6403586" lon="17.1165669"><ele>276.14285714285717</ele><time>2026-03-29T08:41:09.971Z</time></trkpt><trkpt lat="40.640365" lon="17.1164787"><ele>277.2857142857143</ele><time>2026-03-29T08:41:11.972Z</time></trkpt><trkpt lat="40.6404041" lon="17.1163936"><ele>278.42857142857144</ele><time>2026-03-29T08:41:13.97Z</time></trkpt><trkpt lat="40.6404603" lon="17.1163133"><ele>279.57142857142856</ele><time>2026-03-29T08:41:15.974Z</time></trkpt><trkpt lat="40.6405139" lon="17.1162451"><ele>280.7142857142857</ele><time>2026-03-29T08:41:17.97Z</time></trkpt><trkpt lat="40.640593" lon="17.1162544"><ele>281.8571428571429</ele><time>2026-03-29T08:41:20.971Z</time></trkpt><trkpt lat="40.6405812" lon="17.1163439"><ele>283.0</ele><time>2026-03-29T08:41:22.971Z</time></trkpt><trkpt lat="40.6405485" lon="17.1164361"><ele>283.0</ele><time>2026-03-29T08:41:24.971Z</time></trkpt><trkpt lat="40.6405368" lon="17.1165296"><ele>283.0</ele><time>2026-03-29T08:41:26.97Z</time></trkpt><trkpt lat="40.6405573" lon="17.1166266"><ele>283.0</ele><time>2026-03-29T08:41:28.971Z</time></trkpt><trkpt lat="40.6405984" lon="17.1167167"><ele>283.0</ele><time>2026-03-29T08:41:30.971Z</time></trkpt><trkpt lat="40.6406471" lon="17.1168083"><ele>283.0</ele><time>2026-03-29T08:41:32.971Z</time></trkpt><trkpt lat="40.6407043" lon="17.1169118"><ele>283.0</ele><time>2026-03-29T08:41:34.971Z</time></trkpt><trkpt lat="40.6407652" lon="17.1170226"><ele>284.2</ele><time>2026-03-29T08:41:36.971Z</time></trkpt><trkpt lat="40.6408208" lon="17.1171282"><ele>285.4</ele><time>2026-03-29T08:41:38.97Z</time></trkpt><trkpt lat="40.6408788" lon="17.1172469"><ele>286.59999999999997</ele><time>2026-03-29T08:41:40.971Z</time></trkpt><trkpt lat="40.6409313" lon="17.1173694"><ele>287.8</ele><time>2026-03-29T08:41:42.972Z</time></trkpt><trkpt lat="40.6409817" lon="17.1174712"><ele>289.0</ele><time>2026-03-29T08:41:49.971Z</time></trkpt><trkpt lat="40.6410669" lon="17.1176316"><ele>289.0</ele><time>2026-03-29T08:41:52.972Z</time></trkpt><trkpt lat="40.6411237" lon="17.1177306"><ele>289.0</ele><time>2026-03-29T08:41:54.973Z</time></trkpt><trkpt lat="40.6411781" lon="17.117834"><ele>289.0</ele><time>2026-03-29T08:41:56.971Z</time></trkpt><trkpt lat="40.6412327" lon="17.1179324"><ele>289.0</ele><time>2026-03-29T08:41:58.971Z</time></trkpt><trkpt lat="40.6413064" lon="17.1180137"><ele>289.0</ele><time>2026-03-29T08:42:00.974Z</time></trkpt><trkpt lat="40.6413898" lon="17.1181015"><ele>291.16666666666663</ele><time>2026-03-29T08:42:02.97Z</time></trkpt><trkpt lat="40.641447" lon="17.1181997"><ele>293.3333333333333</ele><time>2026-03-29T08:42:04.971Z</time></trkpt><trkpt lat="40.6414575" lon="17.1183018"><ele>295.5</ele><time>2026-03-29T08:42:06.972Z</time></trkpt><trkpt lat="40.6414491" lon="17.1183949"><ele>297.6666666666667</ele><time>2026-03-29T08:42:08.971Z</time></trkpt><trkpt lat="40.6414164" lon="17.1184718"><ele>299.83333333333337</ele><time>2026-03-29T08:42:10.971Z</time></trkpt><trkpt lat="40.641328" lon="17.1185009"><ele>302.0</ele><time>2026-03-29T08:42:13.972Z</time></trkpt><trkpt lat="40.6412622" lon="17.1184713"><ele>302.0</ele><time>2026-03-29T08:42:15.974Z</time></trkpt><trkpt lat="40.6411825" lon="17.1184378"><ele>302.0</ele><time>2026-03-29T08:42:18.974Z</time></trkpt><trkpt lat="40.6411181" lon="17.1184159"><ele>302.0</ele><time>2026-03-29T08:42:20.974Z</time></trkpt><trkpt lat="40.641035" lon="17.1183922"><ele>302.0</ele><time>2026-03-29T08:42:22.974Z</time></trkpt><trkpt lat="40.6409468" lon="17.1183748"><ele>302.0</ele><time>2026-03-29T08:42:24.971Z</time></trkpt><trkpt lat="40.6408616" lon="17.1183699"><ele>302.0</ele><time>2026-03-29T08:42:26.971Z</time></trkpt><trkpt lat="40.6407852" lon="17.1183755"><ele>301.1666666666667</ele><time>2026-03-29T08:42:28.971Z</time></trkpt><trkpt lat="40.6407228" lon="17.118388"><ele>300.33333333333337</ele><time>2026-03-29T08:42:30.975Z</time></trkpt><trkpt lat="40.6407283" lon="17.1184783"><ele>299.5</ele><time>2026-03-29T08:42:51.975Z</time></trkpt><trkpt lat="40.64082" lon="17.118585"><ele>298.6666666666667</ele><time>2026-03-29T08:42:55.972Z</time></trkpt><trkpt lat="40.6408617" lon="17.1186517"><ele>297.8333333333333</ele><time>2026-03-29T08:42:57.971Z</time></trkpt><trkpt lat="40.6408933" lon="17.1187283"><ele>297.0</ele><time>2026-03-29T08:42:59.97Z</time></trkpt><trkpt lat="40.6409383" lon="17.1188067"><ele>297.0</ele><time>2026-03-29T08:43:01.972Z</time></trkpt><trkpt lat="40.6409903" lon="17.1188961"><ele>297.0</ele><time>2026-03-29T08:43:03.972Z</time></trkpt><trkpt lat="40.6410619" lon="17.1190041"><ele>297.0</ele><time>2026-03-29T08:43:05.971Z</time></trkpt><trkpt lat="40.6411424" lon="17.1191231"><ele>297.0</ele><time>2026-03-29T08:43:07.972Z</time></trkpt><trkpt lat="40.6412027" lon="17.1192219"><ele>297.0</ele><time>2026-03-29T08:43:09.972Z</time></trkpt><trkpt lat="40.6412467" lon="17.1192933"><ele>298.6</ele><time>2026-03-29T08:43:11.971Z</time></trkpt><trkpt lat="40.6412947" lon="17.1193681"><ele>300.2</ele><time>2026-03-29T08:43:13.971Z</time></trkpt><trkpt lat="40.641353" lon="17.1194558"><ele>301.8</ele><time>2026-03-29T08:43:15.974Z</time></trkpt><trkpt lat="40.6414196" lon="17.1195605"><ele>303.4</ele><time>2026-03-29T08:43:17.973Z</time></trkpt><trkpt lat="40.6414933" lon="17.1196843"><ele>305.0</ele><time>2026-03-29T08:43:19.973Z</time></trkpt><trkpt lat="40.641555" lon="17.119787"><ele>305.0</ele><time>2026-03-29T08:43:21.973Z</time></trkpt><trkpt lat="40.6416033" lon="17.1198773"><ele>305.0</ele><time>2026-03-29T08:43:23.972Z</time></trkpt><trkpt lat="40.6416646" lon="17.1199695"><ele>305.0</ele><time>2026-03-29T08:43:25.97Z</time></trkpt><trkpt lat="40.641736" lon="17.1200619"><ele>305.0</ele><time>2026-03-29T08:43:27.97Z</time></trkpt><trkpt lat="40.6417956" lon="17.1201647"><ele>305.0</ele><time>2026-03-29T08:43:29.971Z</time></trkpt><trkpt lat="40.6418541" lon="17.1202644"><ele>305.6666666666667</ele><time>2026-03-29T08:43:31.97Z</time></trkpt><trkpt lat="40.6419028" lon="17.120318"><ele>306.33333333333337</ele><time>2026-03-29T08:43:33.97Z</time></trkpt><trkpt lat="40.6419632" lon="17.1202475"><ele>307.0</ele><time>2026-03-29T08:43:37.971Z</time></trkpt><trkpt lat="40.6419841" lon="17.1201633"><ele>307.6666666666667</ele><time>2026-03-29T08:43:39.971Z</time></trkpt><trkpt lat="40.6420155" lon="17.1200608"><ele>308.3333333333333</ele><time>2026-03-29T08:43:41.971Z</time></trkpt><trkpt lat="40.642059" lon="17.1199436"><ele>309.0</ele><time>2026-03-29T08:43:43.971Z</time></trkpt><trkpt lat="40.6420983" lon="17.1198381"><ele>310.1666666666667</ele><time>2026-03-29T08:43:45.973Z</time></trkpt><trkpt lat="40.6421284" lon="17.1197614"><ele>311.3333333333333</ele><time>2026-03-29T08:43:47.973Z</time></trkpt><trkpt lat="40.6422138" lon="17.1197703"><ele>312.5</ele><time>2026-03-29T08:43:50.974Z</time></trkpt><trkpt lat="40.6422302" lon="17.119876"><ele>313.66666666666663</ele><time>2026-03-29T08:43:52.972Z</time></trkpt><trkpt lat="40.6422509" lon="17.1199923"><ele>314.8333333333333</ele><time>2026-03-29T08:43:54.971Z</time></trkpt><trkpt lat="40.6422785" lon="17.1201027"><ele>316.0</ele><time>2026-03-29T08:43:56.97Z</time></trkpt><trkpt lat="40.6423111" lon="17.1201861"><ele>316.0</ele><time>2026-03-29T08:43:58.969Z</time></trkpt><trkpt lat="40.6423755" lon="17.1202486"><ele>316.0</ele><time>2026-03-29T08:44:01.969Z</time></trkpt><trkpt lat="40.642442" lon="17.1201722"><ele>316.0</ele><time>2026-03-29T08:44:04.97Z</time></trkpt><trkpt lat="40.6424789" lon="17.1200864"><ele>316.0</ele><time>2026-03-29T08:44:06.971Z</time></trkpt><trkpt lat="40.6425204" lon="17.1199921"><ele>316.0</ele><time>2026-03-29T08:44:08.97Z</time></trkpt><trkpt lat="40.6425675" lon="17.119898"><ele>316.0</ele><time>2026-03-29T08:44:10.969Z</time></trkpt><trkpt lat="40.6426127" lon="17.1198053"><ele>316.0</ele><time>2026-03-29T08:44:12.97Z</time></trkpt><trkpt lat="40.6426653" lon="17.1197079"><ele>316.0</ele><time>2026-03-29T08:44:14.97Z</time></trkpt><trkpt lat="40.6427255" lon="17.1196153"><ele>316.0</ele><time>2026-03-29T08:44:16.974Z</time></trkpt><trkpt lat="40.6427811" lon="17.1195269"><ele>316.0</ele><time>2026-03-29T08:44:18.973Z</time></trkpt><trkpt lat="40.6428284" lon="17.119423"><ele>316.0</ele><time>2026-03-29T08:44:20.973Z</time></trkpt><trkpt lat="40.6428831" lon="17.1193201"><ele>318.20000000000005</ele><time>2026-03-29T08:44:22.973Z</time></trkpt><trkpt lat="40.6429401" lon="17.119206"><ele>320.40000000000003</ele><time>2026-03-29T08:44:24.972Z</time></trkpt><trkpt lat="40.6429893" lon="17.1190736"><ele>322.6</ele><time>2026-03-29T08:44:26.97Z</time></trkpt><trkpt lat="40.6430254" lon="17.1189344"><ele>324.8</ele><time>2026-03-29T08:44:28.971Z</time></trkpt><trkpt lat="40.6430552" lon="17.1188068"><ele>327.0</ele><time>2026-03-29T08:44:30.97Z</time></trkpt><trkpt lat="40.6430844" lon="17.1187022"><ele>327.0</ele><time>2026-03-29T08:44:32.97Z</time></trkpt><trkpt lat="40.6431322" lon="17.1185906"><ele>327.0</ele><time>2026-03-29T08:44:34.97Z</time></trkpt><trkpt lat="40.6431886" lon="17.1184763"><ele>327.0</ele><time>2026-03-29T08:44:36.97Z</time></trkpt><trkpt lat="40.6432616" lon="17.118371"><ele>327.0</ele><time>2026-03-29T08:44:38.971Z</time></trkpt><trkpt lat="40.6433341" lon="17.1182823"><ele>327.0</ele><time>2026-03-29T08:44:40.97Z</time></trkpt><trkpt lat="40.643389" lon="17.1182079"><ele>326.3333333333333</ele><time>2026-03-29T08:44:42.97Z</time></trkpt><trkpt lat="40.6434426" lon="17.1181381"><ele>325.6666666666667</ele><time>2026-03-29T08:44:44.972Z</time></trkpt><trkpt lat="40.6434967" lon="17.1180629"><ele>325.0</ele><time>2026-03-29T08:44:46.974Z</time></trkpt><trkpt lat="40.6435622" lon="17.1179967"><ele>324.33333333333337</ele><time>2026-03-29T08:44:48.973Z</time></trkpt><trkpt lat="40.6436276" lon="17.1179208"><ele>323.6666666666667</ele><time>2026-03-29T08:44:50.973Z</time></trkpt><trkpt lat="40.6436924" lon="17.1178423"><ele>323.0</ele><time>2026-03-29T08:44:52.973Z</time></trkpt><trkpt lat="40.6437638" lon="17.1177582"><ele>325.33333333333337</ele><time>2026-03-29T08:44:54.971Z</time></trkpt><trkpt lat="40.6438417" lon="17.1176656"><ele>327.6666666666667</ele><time>2026-03-29T08:44:56.969Z</time></trkpt><trkpt lat="40.6439062" lon="17.1175735"><ele>330.0</ele><time>2026-03-29T08:44:58.971Z</time></trkpt><trkpt lat="40.6439607" lon="17.1174878"><ele>332.3333333333333</ele><time>2026-03-29T08:45:00.971Z</time></trkpt><trkpt lat="40.6440292" lon="17.1174283"><ele>334.66666666666663</ele><time>2026-03-29T08:45:02.971Z</time></trkpt><trkpt lat="40.6441067" lon="17.1174143"><ele>337.0</ele><time>2026-03-29T08:45:04.969Z</time></trkpt><trkpt lat="40.6441815" lon="17.1174082"><ele>337.16666666666663</ele><time>2026-03-29T08:45:06.972Z</time></trkpt><trkpt lat="40.6442657" lon="17.1173998"><ele>337.3333333333333</ele><time>2026-03-29T08:45:08.972Z</time></trkpt><trkpt lat="40.6443539" lon="17.1173899"><ele>337.5</ele><time>2026-03-29T08:45:10.97Z</time></trkpt><trkpt lat="40.6444429" lon="17.1173859"><ele>337.6666666666667</ele><time>2026-03-29T08:45:12.973Z</time></trkpt><trkpt lat="40.6445303" lon="17.1173746"><ele>337.83333333333337</ele><time>2026-03-29T08:45:14.971Z</time></trkpt><trkpt lat="40.6446087" lon="17.1173626"><ele>338.0</ele><time>2026-03-29T08:45:16.974Z</time></trkpt><trkpt lat="40.6446716" lon="17.1173716"><ele>339.0</ele><time>2026-03-29T08:45:18.973Z</time></trkpt><trkpt lat="40.6446856" lon="17.1174802"><ele>340.0</ele><time>2026-03-29T08:45:21.974Z</time></trkpt><trkpt lat="40.6446705" lon="17.1175686"><ele>341.0</ele><time>2026-03-29T08:45:23.971Z</time></trkpt><trkpt lat="40.6447293" lon="17.1176508"><ele>342.0</ele><time>2026-03-29T08:45:26.972Z</time></trkpt><trkpt lat="40.644784" lon="17.1177088"><ele>343.0</ele><time>2026-03-29T08:45:28.97Z</time></trkpt><trkpt lat="40.6448234" lon="17.1177743"><ele>344.0</ele><time>2026-03-29T08:45:30.971Z</time></trkpt><trkpt lat="40.64488" lon="17.1178313"><ele>345.0</ele><time>2026-03-29T08:45:32.972Z</time></trkpt><trkpt lat="40.6449468" lon="17.117849"><ele>345.0</ele><time>2026-03-29T08:45:34.97Z</time></trkpt><trkpt lat="40.6450233" lon="17.1178326"><ele>345.0</ele><time>2026-03-29T08:45:36.97Z</time></trkpt><trkpt lat="40.6451052" lon="17.1177849"><ele>345.0</ele><time>2026-03-29T08:45:38.971Z</time></trkpt><trkpt lat="40.6451902" lon="17.1177204"><ele>345.0</ele><time>2026-03-29T08:45:40.97Z</time></trkpt><trkpt lat="40.645267" lon="17.1176359"><ele>345.0</ele><time>2026-03-29T08:45:42.97Z</time></trkpt><trkpt lat="40.6453374" lon="17.1175265"><ele>346.3333333333333</ele><time>2026-03-29T08:45:44.972Z</time></trkpt><trkpt lat="40.6453802" lon="17.1174021"><ele>347.6666666666667</ele><time>2026-03-29T08:45:46.973Z</time></trkpt><trkpt lat="40.6453913" lon="17.117269"><ele>349.0</ele><time>2026-03-29T08:45:48.97Z</time></trkpt><trkpt lat="40.64543" lon="17.1171628"><ele>350.33333333333337</ele><time>2026-03-29T08:45:50.971Z</time></trkpt><trkpt lat="40.6454807" lon="17.1171077"><ele>351.6666666666667</ele><time>2026-03-29T08:45:52.97Z</time></trkpt><trkpt lat="40.6455547" lon="17.1171285"><ele>353.0</ele><time>2026-03-29T08:45:56.97Z</time></trkpt><trkpt lat="40.6455438" lon="17.1172127"><ele>353.0</ele><time>2026-03-29T08:45:58.97Z</time></trkpt><trkpt lat="40.645513" lon="17.1172869"><ele>353.0</ele><time>2026-03-29T08:46:00.971Z</time></trkpt><trkpt lat="40.6455157" lon="17.117377"><ele>353.0</ele><time>2026-03-29T08:46:03.97Z</time></trkpt><trkpt lat="40.6455847" lon="17.1173599"><ele>353.0</ele><time>2026-03-29T08:46:07.97Z</time></trkpt><trkpt lat="40.6456132" lon="17.1172791"><ele>353.0</ele><time>2026-03-29T08:46:10.97Z</time></trkpt><trkpt lat="40.6456674" lon="17.1171852"><ele>353.0</ele><time>2026-03-29T08:46:13.97Z</time></trkpt><trkpt lat="40.6457283" lon="17.117146"><ele>353.0</ele><time>2026-03-29T08:46:15.973Z</time></trkpt><trkpt lat="40.6457961" lon="17.1171422"><ele>353.0</ele><time>2026-03-29T08:46:17.969Z</time></trkpt><trkpt lat="40.6458863" lon="17.1171292"><ele>353.0</ele><time>2026-03-29T08:46:20.97Z</time></trkpt><trkpt lat="40.6459607" lon="17.1171056"><ele>353.0</ele><time>2026-03-29T08:46:23.971Z</time></trkpt><trkpt lat="40.6460227" lon="17.1170727"><ele>353.0</ele><time>2026-03-29T08:46:25.97Z</time></trkpt><trkpt lat="40.6460966" lon="17.1170498"><ele>353.0</ele><time>2026-03-29T08:46:27.97Z</time></trkpt><trkpt lat="40.6461643" lon="17.1170355"><ele>353.0</ele><time>2026-03-29T08:46:29.972Z</time></trkpt><trkpt lat="40.6462328" lon="17.1170826"><ele>353.0</ele><time>2026-03-29T08:46:32.971Z</time></trkpt><trkpt lat="40.6461839" lon="17.1171749"><ele>353.0</ele><time>2026-03-29T08:46:35.971Z</time></trkpt><trkpt lat="40.6461278" lon="17.1172284"><ele>353.0</ele><time>2026-03-29T08:46:37.969Z</time></trkpt><trkpt lat="40.6461252" lon="17.1173255"><ele>353.0</ele><time>2026-03-29T08:46:40.971Z</time></trkpt><trkpt lat="40.6461947" lon="17.1172905"><ele>353.0</ele><time>2026-03-29T08:46:43.97Z</time></trkpt><trkpt lat="40.6462435" lon="17.1172131"><ele>353.0</ele><time>2026-03-29T08:46:45.974Z</time></trkpt><trkpt lat="40.6462994" lon="17.117145"><ele>354.7142857142857</ele><time>2026-03-29T08:46:47.969Z</time></trkpt><trkpt lat="40.6463595" lon="17.1170948"><ele>356.42857142857144</ele><time>2026-03-29T08:46:50.971Z</time></trkpt><trkpt lat="40.6464272" lon="17.1171774"><ele>358.14285714285717</ele><time>2026-03-29T08:47:00.973Z</time></trkpt><trkpt lat="40.6464747" lon="17.1172509"><ele>359.8571428571429</ele><time>2026-03-29T08:47:03.971Z</time></trkpt><trkpt lat="40.6465462" lon="17.1172539"><ele>361.57142857142856</ele><time>2026-03-29T08:47:07.971Z</time></trkpt><trkpt lat="40.6466053" lon="17.1172139"><ele>363.28571428571433</ele><time>2026-03-29T08:47:09.97Z</time></trkpt><trkpt lat="40.6466661" lon="17.1171824"><ele>365.0</ele><time>2026-03-29T08:47:11.971Z</time></trkpt><trkpt lat="40.6467499" lon="17.1171355"><ele>365.00000000000006</ele><time>2026-03-29T08:47:14.976Z</time></trkpt><trkpt lat="40.6468137" lon="17.1171092"><ele>365.0</ele><time>2026-03-29T08:47:16.973Z</time></trkpt><trkpt lat="40.646877" lon="17.1170843"><ele>365.0</ele><time>2026-03-29T08:47:18.971Z</time></trkpt><trkpt lat="40.6469396" lon="17.1170566"><ele>365.0</ele><time>2026-03-29T08:47:20.972Z</time></trkpt><trkpt lat="40.6470029" lon="17.1170307"><ele>365.0</ele><time>2026-03-29T08:47:23.97Z</time></trkpt><trkpt lat="40.64704" lon="17.116945"><ele>365.00000000000006</ele><time>2026-03-29T08:47:47.97Z</time></trkpt><trkpt lat="40.6470383" lon="17.116845"><ele>365.0</ele><time>2026-03-29T08:47:50.971Z</time></trkpt><trkpt lat="40.6470467" lon="17.1167233"><ele>366.1666666666667</ele><time>2026-03-29T08:47:53.971Z</time></trkpt><trkpt lat="40.6470561" lon="17.1166377"><ele>367.33333333333337</ele><time>2026-03-29T08:47:55.971Z</time></trkpt><trkpt lat="40.6470662" lon="17.1165409"><ele>368.5</ele><time>2026-03-29T08:47:57.972Z</time></trkpt><trkpt lat="40.6470675" lon="17.1164388"><ele>369.6666666666667</ele><time>2026-03-29T08:47:59.971Z</time></trkpt><trkpt lat="40.6470699" lon="17.1163293"><ele>370.8333333333333</ele><time>2026-03-29T08:48:01.973Z</time></trkpt><trkpt lat="40.6470733" lon="17.1162187"><ele>372.0</ele><time>2026-03-29T08:48:03.971Z</time></trkpt><trkpt lat="40.647079" lon="17.116114"><ele>372.0</ele><time>2026-03-29T08:48:05.97Z</time></trkpt><trkpt lat="40.6470894" lon="17.1160121"><ele>372.0</ele><time>2026-03-29T08:48:07.97Z</time></trkpt><trkpt lat="40.6471186" lon="17.1159072"><ele>372.0</ele><time>2026-03-29T08:48:09.971Z</time></trkpt><trkpt lat="40.6471619" lon="17.115814"><ele>372.0</ele><time>2026-03-29T08:48:11.97Z</time></trkpt><trkpt lat="40.6472162" lon="17.1157193"><ele>372.0</ele><time>2026-03-29T08:48:13.975Z</time></trkpt><trkpt lat="40.6472676" lon="17.1156329"><ele>372.0</ele><time>2026-03-29T08:48:15.974Z</time></trkpt><trkpt lat="40.6473149" lon="17.1155728"><ele>372.0</ele><time>2026-03-29T08:48:44.971Z</time></trkpt><trkpt lat="40.6473678" lon="17.1155122"><ele>372.0</ele><time>2026-03-29T08:48:46.974Z</time></trkpt><trkpt lat="40.6474232" lon="17.1154372"><ele>372.0</ele><time>2026-03-29T08:48:48.971Z</time></trkpt><trkpt lat="40.6474846" lon="17.1153638"><ele>372.0</ele><time>2026-03-29T08:48:50.972Z</time></trkpt><trkpt lat="40.6475483" lon="17.1152805"><ele>372.0</ele><time>2026-03-29T08:48:52.971Z</time></trkpt><trkpt lat="40.6476131" lon="17.1151981"><ele>372.0</ele><time>2026-03-29T08:48:54.971Z</time></trkpt><trkpt lat="40.6476814" lon="17.1151199"><ele>372.0</ele><time>2026-03-29T08:48:56.97Z</time></trkpt><trkpt lat="40.6477544" lon="17.1150519"><ele>372.0</ele><time>2026-03-29T08:48:58.974Z</time></trkpt><trkpt lat="40.6478313" lon="17.1149981"><ele>372.0</ele><time>2026-03-29T08:49:00.971Z</time></trkpt><trkpt lat="40.6478999" lon="17.1149372"><ele>372.0</ele><time>2026-03-29T08:49:02.97Z</time></trkpt><trkpt lat="40.6479566" lon="17.1148638"><ele>372.0</ele><time>2026-03-29T08:49:04.97Z</time></trkpt><trkpt lat="40.6480073" lon="17.1147851"><ele>372.0</ele><time>2026-03-29T08:49:06.971Z</time></trkpt><trkpt lat="40.6480665" lon="17.1146872"><ele>373.0</ele><time>2026-03-29T08:49:09.97Z</time></trkpt><trkpt lat="40.6481125" lon="17.1145996"><ele>374.0</ele><time>2026-03-29T08:49:11.973Z</time></trkpt><trkpt lat="40.6481666" lon="17.114507"><ele>375.0</ele><time>2026-03-29T08:49:13.971Z</time></trkpt><trkpt lat="40.6482123" lon="17.1144059"><ele>376.0</ele><time>2026-03-29T08:49:15.973Z</time></trkpt><trkpt lat="40.648237" lon="17.114298"><ele>377.0</ele><time>2026-03-29T08:49:17.97Z</time></trkpt><trkpt lat="40.6482596" lon="17.1141866"><ele>378.0</ele><time>2026-03-29T08:49:19.971Z</time></trkpt><trkpt lat="40.6482958" lon="17.11407"><ele>378.2</ele><time>2026-03-29T08:49:21.971Z</time></trkpt><trkpt lat="40.6483249" lon="17.1139531"><ele>378.4</ele><time>2026-03-29T08:49:23.971Z</time></trkpt><trkpt lat="40.6483566" lon="17.1138403"><ele>378.59999999999997</ele><time>2026-03-29T08:49:25.97Z</time></trkpt><trkpt lat="40.6483861" lon="17.1137104"><ele>378.79999999999995</ele><time>2026-03-29T08:49:27.971Z</time></trkpt><trkpt lat="40.6484017" lon="17.1135764"><ele>379.0</ele><time>2026-03-29T08:49:29.97Z</time></trkpt><trkpt lat="40.6484015" lon="17.1134561"><ele>379.00000000000006</ele><time>2026-03-29T08:49:31.97Z</time></trkpt><trkpt lat="40.6483946" lon="17.1133694"><ele>379.0</ele><time>2026-03-29T08:49:34.97Z</time></trkpt><trkpt lat="40.6483968" lon="17.1132732"><ele>379.0</ele><time>2026-03-29T08:49:37.971Z</time></trkpt><trkpt lat="40.6484055" lon="17.1131766"><ele>379.0</ele><time>2026-03-29T08:49:40.97Z</time></trkpt><trkpt lat="40.6484286" lon="17.1130959"><ele>379.0</ele><time>2026-03-29T08:49:42.971Z</time></trkpt><trkpt lat="40.6484552" lon="17.1130039"><ele>379.00000000000006</ele><time>2026-03-29T08:49:44.97Z</time></trkpt><trkpt lat="40.6484782" lon="17.1129118"><ele>379.0</ele><time>2026-03-29T08:49:46.974Z</time></trkpt><trkpt lat="40.6485019" lon="17.1128254"><ele>379.00000000000006</ele><time>2026-03-29T08:49:48.973Z</time></trkpt><trkpt lat="40.648525" lon="17.1127353"><ele>379.0</ele><time>2026-03-29T08:49:50.974Z</time></trkpt><trkpt lat="40.6485497" lon="17.112643"><ele>379.0</ele><time>2026-03-29T08:49:52.973Z</time></trkpt><trkpt lat="40.6485652" lon="17.1125463"><ele>379.0</ele><time>2026-03-29T08:49:54.971Z</time></trkpt><trkpt lat="40.6485709" lon="17.1124469"><ele>379.0</ele><time>2026-03-29T08:49:56.971Z</time></trkpt><trkpt lat="40.6485758" lon="17.1123554"><ele>379.00000000000006</ele><time>2026-03-29T08:49:58.97Z</time></trkpt><trkpt lat="40.6485768" lon="17.1122723"><ele>379.0</ele><time>2026-03-29T08:50:04.97Z</time></trkpt><trkpt lat="40.6485661" lon="17.112183"><ele>379.00000000000006</ele><time>2026-03-29T08:50:11.971Z</time></trkpt><trkpt lat="40.6485449" lon="17.1120934"><ele>379.0</ele><time>2026-03-29T08:50:13.972Z</time></trkpt><trkpt lat="40.6485166" lon="17.1120086"><ele>379.0</ele><time>2026-03-29T08:50:15.974Z</time></trkpt><trkpt lat="40.6484952" lon="17.1119286"><ele>379.0</ele><time>2026-03-29T08:50:17.974Z</time></trkpt><trkpt lat="40.6484811" lon="17.1118469"><ele>379.0</ele><time>2026-03-29T08:50:20.974Z</time></trkpt><trkpt lat="40.6484483" lon="17.1117283"><ele>379.00000000000006</ele><time>2026-03-29T08:50:37.97Z</time></trkpt><trkpt lat="40.6484483" lon="17.1116383"><ele>379.0</ele><time>2026-03-29T08:50:40.971Z</time></trkpt><trkpt lat="40.64846" lon="17.111535"><ele>378.79999999999995</ele><time>2026-03-29T08:50:43.971Z</time></trkpt><trkpt lat="40.6484683" lon="17.1114167"><ele>378.59999999999997</ele><time>2026-03-29T08:50:50.974Z</time></trkpt><trkpt lat="40.6484733" lon="17.1113283"><ele>378.4</ele><time>2026-03-29T08:50:52.973Z</time></trkpt><trkpt lat="40.64848" lon="17.1112333"><ele>378.2</ele><time>2026-03-29T08:50:54.971Z</time></trkpt><trkpt lat="40.6484983" lon="17.1110917"><ele>378.0</ele><time>2026-03-29T08:50:57.97Z</time></trkpt><trkpt lat="40.6485233" lon="17.1109483"><ele>378.0</ele><time>2026-03-29T08:51:00.972Z</time></trkpt><trkpt lat="40.648535" lon="17.110865"><ele>378.0</ele><time>2026-03-29T08:51:02.971Z</time></trkpt><trkpt lat="40.648555" lon="17.1107583"><ele>378.0</ele><time>2026-03-29T08:51:16.973Z</time></trkpt><trkpt lat="40.6485967" lon="17.1106783"><ele>378.0</ele><time>2026-03-29T08:51:19.971Z</time></trkpt><trkpt lat="40.64867" lon="17.1106383"><ele>378.0</ele><time>2026-03-29T08:51:22.972Z</time></trkpt><trkpt lat="40.648755" lon="17.1106333"><ele>378.0</ele><time>2026-03-29T08:51:25.97Z</time></trkpt><trkpt lat="40.64884" lon="17.1106"><ele>378.8333333333333</ele><time>2026-03-29T08:51:28.97Z</time></trkpt><trkpt lat="40.6489083" lon="17.110515"><ele>379.6666666666667</ele><time>2026-03-29T08:51:31.971Z</time></trkpt><trkpt lat="40.6489633" lon="17.110425"><ele>380.5</ele><time>2026-03-29T08:51:34.972Z</time></trkpt><trkpt lat="40.6490167" lon="17.1103333"><ele>381.33333333333337</ele><time>2026-03-29T08:51:37.973Z</time></trkpt><trkpt lat="40.649075" lon="17.1102383"><ele>382.1666666666667</ele><time>2026-03-29T08:51:40.971Z</time></trkpt><trkpt lat="40.6491283" lon="17.1101517"><ele>383.0</ele><time>2026-03-29T08:51:43.973Z</time></trkpt><trkpt lat="40.6491883" lon="17.1100683"><ele>383.0</ele><time>2026-03-29T08:51:46.974Z</time></trkpt><trkpt lat="40.649255" lon="17.10999"><ele>383.0</ele><time>2026-03-29T08:51:49.971Z</time></trkpt><trkpt lat="40.6493017" lon="17.1099283"><ele>383.0</ele><time>2026-03-29T08:51:51.972Z</time></trkpt><trkpt lat="40.6493433" lon="17.1098617"><ele>383.0</ele><time>2026-03-29T08:51:53.972Z</time></trkpt><trkpt lat="40.6493867" lon="17.1097867"><ele>383.0</ele><time>2026-03-29T08:51:55.972Z</time></trkpt><trkpt lat="40.6494314" lon="17.1097095"><ele>383.0</ele><time>2026-03-29T08:51:57.972Z</time></trkpt><trkpt lat="40.6494761" lon="17.1096359"><ele>383.0</ele><time>2026-03-29T08:51:59.971Z</time></trkpt><trkpt lat="40.6495459" lon="17.1095357"><ele>383.1666666666667</ele><time>2026-03-29T08:52:02.972Z</time></trkpt><trkpt lat="40.6495877" lon="17.1094545"><ele>383.33333333333337</ele><time>2026-03-29T08:52:04.971Z</time></trkpt><trkpt lat="40.6496239" lon="17.1093688"><ele>383.5</ele><time>2026-03-29T08:52:06.971Z</time></trkpt><trkpt lat="40.6496672" lon="17.1092807"><ele>383.6666666666667</ele><time>2026-03-29T08:52:08.971Z</time></trkpt><trkpt lat="40.6497129" lon="17.1091854"><ele>383.8333333333333</ele><time>2026-03-29T08:52:10.971Z</time></trkpt><trkpt lat="40.6497481" lon="17.109098"><ele>384.0</ele><time>2026-03-29T08:52:12.972Z</time></trkpt><trkpt lat="40.6497797" lon="17.1090203"><ele>384.0</ele><time>2026-03-29T08:52:15.974Z</time></trkpt><trkpt lat="40.6498322" lon="17.108917"><ele>384.0</ele><time>2026-03-29T08:52:18.97Z</time></trkpt><trkpt lat="40.6498717" lon="17.1088381"><ele>384.0</ele><time>2026-03-29T08:52:21.97Z</time></trkpt><trkpt lat="40.6499272" lon="17.1087317"><ele>384.0</ele><time>2026-03-29T08:52:24.973Z</time></trkpt><trkpt lat="40.6499662" lon="17.1086553"><ele>384.0</ele><time>2026-03-29T08:52:26.971Z</time></trkpt><trkpt lat="40.6500141" lon="17.1085594"><ele>384.0</ele><time>2026-03-29T08:52:29.973Z</time></trkpt><trkpt lat="40.6500694" lon="17.1084664"><ele>383.99999999999994</ele><time>2026-03-29T08:52:32.97Z</time></trkpt><trkpt lat="40.6501161" lon="17.1084025"><ele>384.0</ele><time>2026-03-29T08:52:34.971Z</time></trkpt><trkpt lat="40.6501598" lon="17.108332"><ele>384.0</ele><time>2026-03-29T08:52:36.97Z</time></trkpt><trkpt lat="40.6501952" lon="17.1082582"><ele>384.0</ele><time>2026-03-29T08:52:38.971Z</time></trkpt><trkpt lat="40.6502315" lon="17.1081793"><ele>384.0</ele><time>2026-03-29T08:52:40.97Z</time></trkpt><trkpt lat="40.6502639" lon="17.1081"><ele>383.99999999999994</ele><time>2026-03-29T08:52:42.97Z</time></trkpt><trkpt lat="40.6503093" lon="17.107989"><ele>384.0</ele><time>2026-03-29T08:52:45.976Z</time></trkpt><trkpt lat="40.6503464" lon="17.107906"><ele>384.3333333333333</ele><time>2026-03-29T08:52:47.969Z</time></trkpt><trkpt lat="40.6503822" lon="17.1078206"><ele>384.66666666666663</ele><time>2026-03-29T08:52:49.97Z</time></trkpt><trkpt lat="40.6504169" lon="17.1077378"><ele>385.0</ele><time>2026-03-29T08:52:51.974Z</time></trkpt><trkpt lat="40.6504469" lon="17.1076526"><ele>385.3333333333333</ele><time>2026-03-29T08:52:53.97Z</time></trkpt><trkpt lat="40.6504804" lon="17.1075374"><ele>385.66666666666663</ele><time>2026-03-29T08:52:56.97Z</time></trkpt><trkpt lat="40.6504738" lon="17.1074523"><ele>386.0</ele><time>2026-03-29T08:53:00.971Z</time></trkpt><trkpt lat="40.65046" lon="17.107336"><ele>385.99999999999994</ele><time>2026-03-29T08:53:06.969Z</time></trkpt><trkpt lat="40.6504756" lon="17.1072247"><ele>386.0</ele><time>2026-03-29T08:53:09.97Z</time></trkpt><trkpt lat="40.6505063" lon="17.1071178"><ele>386.0</ele><time>2026-03-29T08:53:12.97Z</time></trkpt><trkpt lat="40.6505501" lon="17.107029"><ele>386.0</ele><time>2026-03-29T08:53:15.973Z</time></trkpt><trkpt lat="40.6505849" lon="17.1069585"><ele>385.99999999999994</ele><time>2026-03-29T08:53:18.971Z</time></trkpt><trkpt lat="40.6506358" lon="17.1068633"><ele>386.0</ele><time>2026-03-29T08:53:21.971Z</time></trkpt><trkpt lat="40.6506773" lon="17.1067974"><ele>386.0</ele><time>2026-03-29T08:53:24.969Z</time></trkpt><trkpt lat="40.6506184" lon="17.1068657"><ele>386.0</ele><time>2026-03-29T08:53:35.969Z</time></trkpt></trkseg></trk></gpx>